<?xml version="1.0" encoding="UTF-8" standalone="no" ?>
<gpx xmlns="http://www.topografix.com/GPX/1/1" xmlns:xsi="http://www.w3.org/2001/XMLSchema-instance" xsi:schemaLocation="http://www.topografix.com/GPX/1/1 http://www.topografix.com/GPX/1/1/gpx.xsd" version="1.1" creator="VisuGPX - https://www.visugpx.com">
  <metadata>
    <name>Vinon-29km</name>
    <desc><![CDATA[Ballade au départ de Ginasservis vers le village de Vinon sur Verdon.]]></desc>
  </metadata>
  <trk>
    <name><![CDATA[Vinon-29km_1]]></name>
    <trkseg>
      <trkpt lat="43.67096" lon="5.84822">
        <ele>497</ele>
        <time>2016-05-28T06:28:38.000Z</time>
      </trkpt>
      <trkpt lat="43.67096" lon="5.84822">
        <ele>497</ele>
        <time>2016-05-28T06:28:44.000Z</time>
      </trkpt>
      <trkpt lat="43.67096" lon="5.84822">
        <ele>497</ele>
        <time>2016-05-28T06:28:49.000Z</time>
      </trkpt>
      <trkpt lat="43.67096" lon="5.84822">
        <ele>497</ele>
        <time>2016-05-28T06:28:51.000Z</time>
      </trkpt>
      <trkpt lat="43.67096" lon="5.84822">
        <ele>497</ele>
        <time>2016-05-28T06:28:58.000Z</time>
      </trkpt>
      <trkpt lat="43.67096" lon="5.84822">
        <ele>497</ele>
        <time>2016-05-28T06:29:00.000Z</time>
      </trkpt>
      <trkpt lat="43.67096" lon="5.84822">
        <ele>497</ele>
        <time>2016-05-28T06:29:02.000Z</time>
      </trkpt>
      <trkpt lat="43.67107" lon="5.8484">
        <ele>496</ele>
        <time>2016-05-28T06:30:03.000Z</time>
      </trkpt>
      <trkpt lat="43.67111" lon="5.84851">
        <ele>486</ele>
        <time>2016-05-28T06:30:07.000Z</time>
      </trkpt>
      <trkpt lat="43.67111" lon="5.84851">
        <ele>486</ele>
        <time>2016-05-28T06:30:09.000Z</time>
      </trkpt>
      <trkpt lat="43.67111" lon="5.84851">
        <ele>486</ele>
        <time>2016-05-28T06:30:11.000Z</time>
      </trkpt>
      <trkpt lat="43.67111" lon="5.84851">
        <ele>486</ele>
        <time>2016-05-28T06:30:13.000Z</time>
      </trkpt>
      <trkpt lat="43.67111" lon="5.84851">
        <ele>486</ele>
        <time>2016-05-28T06:30:15.000Z</time>
      </trkpt>
      <trkpt lat="43.67111" lon="5.84851">
        <ele>486</ele>
        <time>2016-05-28T06:30:17.000Z</time>
      </trkpt>
      <trkpt lat="43.67111" lon="5.84851">
        <ele>486</ele>
        <time>2016-05-28T06:30:19.000Z</time>
      </trkpt>
      <trkpt lat="43.67111" lon="5.84851">
        <ele>486</ele>
        <time>2016-05-28T06:30:21.000Z</time>
      </trkpt>
      <trkpt lat="43.67133" lon="5.84882">
        <ele>478</ele>
        <time>2016-05-28T06:30:27.000Z</time>
      </trkpt>
      <trkpt lat="43.67145" lon="5.8489">
        <ele>474</ele>
        <time>2016-05-28T06:30:31.000Z</time>
      </trkpt>
      <trkpt lat="43.67156" lon="5.84896">
        <ele>469</ele>
        <time>2016-05-28T06:30:35.000Z</time>
      </trkpt>
      <trkpt lat="43.67156" lon="5.84896">
        <ele>469</ele>
        <time>2016-05-28T06:30:37.000Z</time>
      </trkpt>
      <trkpt lat="43.67157" lon="5.84912">
        <ele>467</ele>
        <time>2016-05-28T06:30:39.000Z</time>
      </trkpt>
      <trkpt lat="43.67157" lon="5.84912">
        <ele>467</ele>
        <time>2016-05-28T06:30:41.000Z</time>
      </trkpt>
      <trkpt lat="43.67157" lon="5.84912">
        <ele>467</ele>
        <time>2016-05-28T06:30:43.000Z</time>
      </trkpt>
      <trkpt lat="43.67157" lon="5.84912">
        <ele>467</ele>
        <time>2016-05-28T06:30:45.000Z</time>
      </trkpt>
      <trkpt lat="43.67157" lon="5.84945">
        <ele>471</ele>
        <time>2016-05-28T06:30:47.000Z</time>
      </trkpt>
      <trkpt lat="43.67153" lon="5.84966">
        <ele>474</ele>
        <time>2016-05-28T06:30:51.000Z</time>
      </trkpt>
      <trkpt lat="43.67148" lon="5.84984">
        <ele>474</ele>
        <time>2016-05-28T06:30:55.000Z</time>
      </trkpt>
      <trkpt lat="43.67148" lon="5.84984">
        <ele>474</ele>
        <time>2016-05-28T06:30:57.000Z</time>
      </trkpt>
      <trkpt lat="43.67142" lon="5.84999">
        <ele>472</ele>
        <time>2016-05-28T06:30:59.000Z</time>
      </trkpt>
      <trkpt lat="43.67142" lon="5.84999">
        <ele>472</ele>
        <time>2016-05-28T06:31:01.000Z</time>
      </trkpt>
      <trkpt lat="43.67142" lon="5.84999">
        <ele>472</ele>
        <time>2016-05-28T06:31:03.000Z</time>
      </trkpt>
      <trkpt lat="43.67142" lon="5.84999">
        <ele>472</ele>
        <time>2016-05-28T06:31:05.000Z</time>
      </trkpt>
      <trkpt lat="43.67142" lon="5.84999">
        <ele>472</ele>
        <time>2016-05-28T06:31:07.000Z</time>
      </trkpt>
      <trkpt lat="43.67142" lon="5.84999">
        <ele>472</ele>
        <time>2016-05-28T06:31:09.000Z</time>
      </trkpt>
      <trkpt lat="43.67142" lon="5.84999">
        <ele>472</ele>
        <time>2016-05-28T06:31:11.000Z</time>
      </trkpt>
      <trkpt lat="43.67142" lon="5.84999">
        <ele>472</ele>
        <time>2016-05-28T06:31:13.000Z</time>
      </trkpt>
      <trkpt lat="43.67142" lon="5.84999">
        <ele>472</ele>
        <time>2016-05-28T06:31:15.000Z</time>
      </trkpt>
      <trkpt lat="43.67142" lon="5.84999">
        <ele>472</ele>
        <time>2016-05-28T06:31:17.000Z</time>
      </trkpt>
      <trkpt lat="43.67142" lon="5.84999">
        <ele>472</ele>
        <time>2016-05-28T06:31:19.000Z</time>
      </trkpt>
      <trkpt lat="43.67142" lon="5.84999">
        <ele>472</ele>
        <time>2016-05-28T06:31:21.000Z</time>
      </trkpt>
      <trkpt lat="43.67119" lon="5.85031">
        <ele>471</ele>
        <time>2016-05-28T06:31:25.000Z</time>
      </trkpt>
      <trkpt lat="43.67107" lon="5.85051">
        <ele>467</ele>
        <time>2016-05-28T06:31:27.000Z</time>
      </trkpt>
      <trkpt lat="43.67103" lon="5.85065">
        <ele>468</ele>
        <time>2016-05-28T06:31:29.000Z</time>
      </trkpt>
      <trkpt lat="43.67105" lon="5.85074">
        <ele>466</ele>
        <time>2016-05-28T06:31:31.000Z</time>
      </trkpt>
      <trkpt lat="43.67111" lon="5.8508">
        <ele>464</ele>
        <time>2016-05-28T06:31:33.000Z</time>
      </trkpt>
      <trkpt lat="43.67126" lon="5.8509">
        <ele>464</ele>
        <time>2016-05-28T06:31:35.000Z</time>
      </trkpt>
      <trkpt lat="43.67134" lon="5.85096">
        <ele>464</ele>
        <time>2016-05-28T06:31:37.000Z</time>
      </trkpt>
      <trkpt lat="43.67149" lon="5.85109">
        <ele>466</ele>
        <time>2016-05-28T06:31:41.000Z</time>
      </trkpt>
      <trkpt lat="43.67149" lon="5.85109">
        <ele>466</ele>
        <time>2016-05-28T06:31:43.000Z</time>
      </trkpt>
      <trkpt lat="43.67163" lon="5.8512">
        <ele>466</ele>
        <time>2016-05-28T06:31:45.000Z</time>
      </trkpt>
      <trkpt lat="43.67163" lon="5.8512">
        <ele>466</ele>
        <time>2016-05-28T06:31:47.000Z</time>
      </trkpt>
      <trkpt lat="43.67163" lon="5.8512">
        <ele>466</ele>
        <time>2016-05-28T06:31:49.000Z</time>
      </trkpt>
      <trkpt lat="43.67163" lon="5.8512">
        <ele>466</ele>
        <time>2016-05-28T06:31:51.000Z</time>
      </trkpt>
      <trkpt lat="43.67163" lon="5.8512">
        <ele>466</ele>
        <time>2016-05-28T06:31:53.000Z</time>
      </trkpt>
      <trkpt lat="43.67163" lon="5.8512">
        <ele>466</ele>
        <time>2016-05-28T06:31:55.000Z</time>
      </trkpt>
      <trkpt lat="43.67163" lon="5.8512">
        <ele>466</ele>
        <time>2016-05-28T06:31:57.000Z</time>
      </trkpt>
      <trkpt lat="43.67163" lon="5.8512">
        <ele>466</ele>
        <time>2016-05-28T06:31:59.000Z</time>
      </trkpt>
      <trkpt lat="43.67163" lon="5.8512">
        <ele>466</ele>
        <time>2016-05-28T06:32:01.000Z</time>
      </trkpt>
      <trkpt lat="43.67163" lon="5.8512">
        <ele>466</ele>
        <time>2016-05-28T06:32:03.000Z</time>
      </trkpt>
      <trkpt lat="43.67163" lon="5.8512">
        <ele>466</ele>
        <time>2016-05-28T06:32:05.000Z</time>
      </trkpt>
      <trkpt lat="43.67163" lon="5.8512">
        <ele>466</ele>
        <time>2016-05-28T06:32:07.000Z</time>
      </trkpt>
      <trkpt lat="43.67163" lon="5.8512">
        <ele>466</ele>
        <time>2016-05-28T06:32:09.000Z</time>
      </trkpt>
      <trkpt lat="43.67163" lon="5.8512">
        <ele>466</ele>
        <time>2016-05-28T06:32:11.000Z</time>
      </trkpt>
      <trkpt lat="43.67163" lon="5.8512">
        <ele>466</ele>
        <time>2016-05-28T06:32:13.000Z</time>
      </trkpt>
      <trkpt lat="43.67163" lon="5.8512">
        <ele>466</ele>
        <time>2016-05-28T06:32:15.000Z</time>
      </trkpt>
      <trkpt lat="43.67163" lon="5.8512">
        <ele>466</ele>
        <time>2016-05-28T06:32:17.000Z</time>
      </trkpt>
      <trkpt lat="43.67163" lon="5.8512">
        <ele>466</ele>
        <time>2016-05-28T06:32:19.000Z</time>
      </trkpt>
      <trkpt lat="43.67163" lon="5.8512">
        <ele>466</ele>
        <time>2016-05-28T06:32:21.000Z</time>
      </trkpt>
      <trkpt lat="43.67248" lon="5.85227">
        <ele>465</ele>
        <time>2016-05-28T06:32:25.000Z</time>
      </trkpt>
      <trkpt lat="43.67259" lon="5.85237">
        <ele>465</ele>
        <time>2016-05-28T06:32:29.000Z</time>
      </trkpt>
      <trkpt lat="43.67268" lon="5.85242">
        <ele>465</ele>
        <time>2016-05-28T06:32:31.000Z</time>
      </trkpt>
      <trkpt lat="43.67278" lon="5.85248">
        <ele>464</ele>
        <time>2016-05-28T06:32:33.000Z</time>
      </trkpt>
      <trkpt lat="43.67288" lon="5.85253">
        <ele>464</ele>
        <time>2016-05-28T06:32:35.000Z</time>
      </trkpt>
      <trkpt lat="43.67303" lon="5.85263">
        <ele>463</ele>
        <time>2016-05-28T06:32:39.000Z</time>
      </trkpt>
      <trkpt lat="43.67303" lon="5.85263">
        <ele>463</ele>
        <time>2016-05-28T06:32:41.000Z</time>
      </trkpt>
      <trkpt lat="43.67319" lon="5.85272">
        <ele>463</ele>
        <time>2016-05-28T06:32:43.000Z</time>
      </trkpt>
      <trkpt lat="43.67319" lon="5.85272">
        <ele>463</ele>
        <time>2016-05-28T06:32:45.000Z</time>
      </trkpt>
      <trkpt lat="43.67319" lon="5.85272">
        <ele>463</ele>
        <time>2016-05-28T06:32:47.000Z</time>
      </trkpt>
      <trkpt lat="43.67319" lon="5.85272">
        <ele>463</ele>
        <time>2016-05-28T06:32:49.000Z</time>
      </trkpt>
      <trkpt lat="43.67319" lon="5.85272">
        <ele>463</ele>
        <time>2016-05-28T06:32:51.000Z</time>
      </trkpt>
      <trkpt lat="43.67319" lon="5.85272">
        <ele>463</ele>
        <time>2016-05-28T06:32:55.000Z</time>
      </trkpt>
      <trkpt lat="43.67319" lon="5.85272">
        <ele>463</ele>
        <time>2016-05-28T06:32:57.000Z</time>
      </trkpt>
      <trkpt lat="43.67319" lon="5.85272">
        <ele>463</ele>
        <time>2016-05-28T06:32:59.000Z</time>
      </trkpt>
      <trkpt lat="43.67319" lon="5.85272">
        <ele>463</ele>
        <time>2016-05-28T06:33:01.000Z</time>
      </trkpt>
      <trkpt lat="43.67319" lon="5.85272">
        <ele>463</ele>
        <time>2016-05-28T06:33:03.000Z</time>
      </trkpt>
      <trkpt lat="43.67319" lon="5.85272">
        <ele>463</ele>
        <time>2016-05-28T06:33:05.000Z</time>
      </trkpt>
      <trkpt lat="43.67319" lon="5.85272">
        <ele>463</ele>
        <time>2016-05-28T06:33:07.000Z</time>
      </trkpt>
      <trkpt lat="43.67319" lon="5.85272">
        <ele>463</ele>
        <time>2016-05-28T06:33:09.000Z</time>
      </trkpt>
      <trkpt lat="43.67319" lon="5.85272">
        <ele>463</ele>
        <time>2016-05-28T06:33:11.000Z</time>
      </trkpt>
      <trkpt lat="43.67319" lon="5.85272">
        <ele>463</ele>
        <time>2016-05-28T06:33:13.000Z</time>
      </trkpt>
      <trkpt lat="43.67319" lon="5.85272">
        <ele>463</ele>
        <time>2016-05-28T06:33:15.000Z</time>
      </trkpt>
      <trkpt lat="43.67319" lon="5.85272">
        <ele>463</ele>
        <time>2016-05-28T06:33:17.000Z</time>
      </trkpt>
      <trkpt lat="43.67319" lon="5.85272">
        <ele>463</ele>
        <time>2016-05-28T06:33:19.000Z</time>
      </trkpt>
      <trkpt lat="43.67319" lon="5.85272">
        <ele>463</ele>
        <time>2016-05-28T06:33:21.000Z</time>
      </trkpt>
      <trkpt lat="43.67319" lon="5.85272">
        <ele>463</ele>
        <time>2016-05-28T06:33:23.000Z</time>
      </trkpt>
      <trkpt lat="43.67319" lon="5.85272">
        <ele>463</ele>
        <time>2016-05-28T06:33:25.000Z</time>
      </trkpt>
      <trkpt lat="43.67319" lon="5.85272">
        <ele>463</ele>
        <time>2016-05-28T06:33:27.000Z</time>
      </trkpt>
      <trkpt lat="43.67319" lon="5.85272">
        <ele>463</ele>
        <time>2016-05-28T06:33:29.000Z</time>
      </trkpt>
      <trkpt lat="43.67319" lon="5.85272">
        <ele>463</ele>
        <time>2016-05-28T06:33:31.000Z</time>
      </trkpt>
      <trkpt lat="43.67368" lon="5.85328">
        <ele>471</ele>
        <time>2016-05-28T06:33:33.000Z</time>
      </trkpt>
      <trkpt lat="43.67396" lon="5.8536">
        <ele>469</ele>
        <time>2016-05-28T06:33:35.000Z</time>
      </trkpt>
      <trkpt lat="43.67414" lon="5.85378">
        <ele>469</ele>
        <time>2016-05-28T06:33:37.000Z</time>
      </trkpt>
      <trkpt lat="43.67427" lon="5.85389">
        <ele>469</ele>
        <time>2016-05-28T06:33:39.000Z</time>
      </trkpt>
      <trkpt lat="43.67439" lon="5.85396">
        <ele>470</ele>
        <time>2016-05-28T06:33:41.000Z</time>
      </trkpt>
      <trkpt lat="43.67458" lon="5.85406">
        <ele>470</ele>
        <time>2016-05-28T06:33:43.000Z</time>
      </trkpt>
      <trkpt lat="43.67458" lon="5.85406">
        <ele>470</ele>
        <time>2016-05-28T06:33:45.000Z</time>
      </trkpt>
      <trkpt lat="43.67458" lon="5.85406">
        <ele>470</ele>
        <time>2016-05-28T06:33:47.000Z</time>
      </trkpt>
      <trkpt lat="43.67458" lon="5.85406">
        <ele>470</ele>
        <time>2016-05-28T06:33:49.000Z</time>
      </trkpt>
      <trkpt lat="43.67458" lon="5.85406">
        <ele>470</ele>
        <time>2016-05-28T06:33:51.000Z</time>
      </trkpt>
      <trkpt lat="43.67458" lon="5.85406">
        <ele>470</ele>
        <time>2016-05-28T06:33:53.000Z</time>
      </trkpt>
      <trkpt lat="43.67458" lon="5.85406">
        <ele>470</ele>
        <time>2016-05-28T06:33:55.000Z</time>
      </trkpt>
      <trkpt lat="43.67458" lon="5.85406">
        <ele>470</ele>
        <time>2016-05-28T06:33:57.000Z</time>
      </trkpt>
      <trkpt lat="43.67458" lon="5.85406">
        <ele>470</ele>
        <time>2016-05-28T06:33:59.000Z</time>
      </trkpt>
      <trkpt lat="43.67458" lon="5.85406">
        <ele>470</ele>
        <time>2016-05-28T06:34:01.000Z</time>
      </trkpt>
      <trkpt lat="43.67458" lon="5.85406">
        <ele>470</ele>
        <time>2016-05-28T06:34:03.000Z</time>
      </trkpt>
      <trkpt lat="43.67458" lon="5.85406">
        <ele>470</ele>
        <time>2016-05-28T06:34:05.000Z</time>
      </trkpt>
      <trkpt lat="43.67458" lon="5.85406">
        <ele>470</ele>
        <time>2016-05-28T06:34:07.000Z</time>
      </trkpt>
      <trkpt lat="43.67458" lon="5.85406">
        <ele>470</ele>
        <time>2016-05-28T06:34:09.000Z</time>
      </trkpt>
      <trkpt lat="43.67458" lon="5.85406">
        <ele>470</ele>
        <time>2016-05-28T06:34:11.000Z</time>
      </trkpt>
      <trkpt lat="43.67458" lon="5.85406">
        <ele>470</ele>
        <time>2016-05-28T06:34:13.000Z</time>
      </trkpt>
      <trkpt lat="43.67458" lon="5.85406">
        <ele>470</ele>
        <time>2016-05-28T06:34:15.000Z</time>
      </trkpt>
      <trkpt lat="43.67458" lon="5.85406">
        <ele>470</ele>
        <time>2016-05-28T06:34:17.000Z</time>
      </trkpt>
      <trkpt lat="43.67458" lon="5.85406">
        <ele>470</ele>
        <time>2016-05-28T06:34:19.000Z</time>
      </trkpt>
      <trkpt lat="43.67458" lon="5.85406">
        <ele>470</ele>
        <time>2016-05-28T06:34:21.000Z</time>
      </trkpt>
      <trkpt lat="43.67458" lon="5.85406">
        <ele>470</ele>
        <time>2016-05-28T06:34:23.000Z</time>
      </trkpt>
      <trkpt lat="43.67458" lon="5.85406">
        <ele>470</ele>
        <time>2016-05-28T06:34:25.000Z</time>
      </trkpt>
      <trkpt lat="43.67458" lon="5.85406">
        <ele>470</ele>
        <time>2016-05-28T06:34:27.000Z</time>
      </trkpt>
      <trkpt lat="43.67458" lon="5.85406">
        <ele>470</ele>
        <time>2016-05-28T06:34:29.000Z</time>
      </trkpt>
      <trkpt lat="43.67458" lon="5.85406">
        <ele>470</ele>
        <time>2016-05-28T06:34:31.000Z</time>
      </trkpt>
      <trkpt lat="43.67458" lon="5.85406">
        <ele>470</ele>
        <time>2016-05-28T06:34:33.000Z</time>
      </trkpt>
      <trkpt lat="43.67458" lon="5.85406">
        <ele>470</ele>
        <time>2016-05-28T06:34:35.000Z</time>
      </trkpt>
      <trkpt lat="43.67458" lon="5.85406">
        <ele>470</ele>
        <time>2016-05-28T06:34:37.000Z</time>
      </trkpt>
      <trkpt lat="43.67458" lon="5.85406">
        <ele>470</ele>
        <time>2016-05-28T06:34:39.000Z</time>
      </trkpt>
      <trkpt lat="43.67458" lon="5.85406">
        <ele>470</ele>
        <time>2016-05-28T06:34:41.000Z</time>
      </trkpt>
      <trkpt lat="43.67458" lon="5.85406">
        <ele>470</ele>
        <time>2016-05-28T06:34:43.000Z</time>
      </trkpt>
      <trkpt lat="43.67458" lon="5.85406">
        <ele>470</ele>
        <time>2016-05-28T06:34:45.000Z</time>
      </trkpt>
      <trkpt lat="43.67458" lon="5.85406">
        <ele>470</ele>
        <time>2016-05-28T06:34:47.000Z</time>
      </trkpt>
      <trkpt lat="43.67458" lon="5.85406">
        <ele>470</ele>
        <time>2016-05-28T06:34:49.000Z</time>
      </trkpt>
      <trkpt lat="43.67458" lon="5.85406">
        <ele>470</ele>
        <time>2016-05-28T06:34:51.000Z</time>
      </trkpt>
      <trkpt lat="43.67458" lon="5.85406">
        <ele>470</ele>
        <time>2016-05-28T06:34:53.000Z</time>
      </trkpt>
      <trkpt lat="43.67458" lon="5.85406">
        <ele>470</ele>
        <time>2016-05-28T06:34:55.000Z</time>
      </trkpt>
      <trkpt lat="43.67513" lon="5.85411">
        <ele>496</ele>
        <time>2016-05-28T06:34:57.000Z</time>
      </trkpt>
      <trkpt lat="43.67543" lon="5.85414">
        <ele>497</ele>
        <time>2016-05-28T06:34:59.000Z</time>
      </trkpt>
      <trkpt lat="43.67559" lon="5.85416">
        <ele>498</ele>
        <time>2016-05-28T06:35:01.000Z</time>
      </trkpt>
      <trkpt lat="43.67569" lon="5.85418">
        <ele>495</ele>
        <time>2016-05-28T06:35:03.000Z</time>
      </trkpt>
      <trkpt lat="43.67575" lon="5.85421">
        <ele>494</ele>
        <time>2016-05-28T06:35:05.000Z</time>
      </trkpt>
      <trkpt lat="43.67582" lon="5.85434">
        <ele>492</ele>
        <time>2016-05-28T06:35:07.000Z</time>
      </trkpt>
      <trkpt lat="43.67586" lon="5.85455">
        <ele>490</ele>
        <time>2016-05-28T06:35:11.000Z</time>
      </trkpt>
      <trkpt lat="43.67588" lon="5.85476">
        <ele>488</ele>
        <time>2016-05-28T06:35:15.000Z</time>
      </trkpt>
      <trkpt lat="43.67587" lon="5.85499">
        <ele>484</ele>
        <time>2016-05-28T06:35:19.000Z</time>
      </trkpt>
      <trkpt lat="43.67586" lon="5.85522">
        <ele>483</ele>
        <time>2016-05-28T06:35:23.000Z</time>
      </trkpt>
      <trkpt lat="43.67586" lon="5.85522">
        <ele>483</ele>
        <time>2016-05-28T06:35:25.000Z</time>
      </trkpt>
      <trkpt lat="43.67586" lon="5.85522">
        <ele>483</ele>
        <time>2016-05-28T06:35:27.000Z</time>
      </trkpt>
      <trkpt lat="43.67586" lon="5.85522">
        <ele>483</ele>
        <time>2016-05-28T06:35:29.000Z</time>
      </trkpt>
      <trkpt lat="43.67586" lon="5.85522">
        <ele>483</ele>
        <time>2016-05-28T06:35:31.000Z</time>
      </trkpt>
      <trkpt lat="43.67586" lon="5.85522">
        <ele>483</ele>
        <time>2016-05-28T06:35:33.000Z</time>
      </trkpt>
      <trkpt lat="43.67586" lon="5.85522">
        <ele>483</ele>
        <time>2016-05-28T06:35:35.000Z</time>
      </trkpt>
      <trkpt lat="43.67586" lon="5.85522">
        <ele>483</ele>
        <time>2016-05-28T06:35:37.000Z</time>
      </trkpt>
      <trkpt lat="43.6759" lon="5.85593">
        <ele>479</ele>
        <time>2016-05-28T06:35:39.000Z</time>
      </trkpt>
      <trkpt lat="43.67593" lon="5.85612">
        <ele>478</ele>
        <time>2016-05-28T06:35:43.000Z</time>
      </trkpt>
      <trkpt lat="43.67593" lon="5.85612">
        <ele>478</ele>
        <time>2016-05-28T06:35:45.000Z</time>
      </trkpt>
      <trkpt lat="43.67593" lon="5.85612">
        <ele>478</ele>
        <time>2016-05-28T06:35:47.000Z</time>
      </trkpt>
      <trkpt lat="43.67593" lon="5.85612">
        <ele>478</ele>
        <time>2016-05-28T06:35:49.000Z</time>
      </trkpt>
      <trkpt lat="43.67593" lon="5.85612">
        <ele>478</ele>
        <time>2016-05-28T06:35:51.000Z</time>
      </trkpt>
      <trkpt lat="43.67593" lon="5.85612">
        <ele>478</ele>
        <time>2016-05-28T06:35:53.000Z</time>
      </trkpt>
      <trkpt lat="43.67593" lon="5.85612">
        <ele>478</ele>
        <time>2016-05-28T06:35:55.000Z</time>
      </trkpt>
      <trkpt lat="43.67593" lon="5.85612">
        <ele>478</ele>
        <time>2016-05-28T06:35:57.000Z</time>
      </trkpt>
      <trkpt lat="43.67593" lon="5.85612">
        <ele>478</ele>
        <time>2016-05-28T06:35:59.000Z</time>
      </trkpt>
      <trkpt lat="43.67593" lon="5.85612">
        <ele>478</ele>
        <time>2016-05-28T06:36:01.000Z</time>
      </trkpt>
      <trkpt lat="43.67593" lon="5.85612">
        <ele>478</ele>
        <time>2016-05-28T06:36:03.000Z</time>
      </trkpt>
      <trkpt lat="43.67593" lon="5.85612">
        <ele>478</ele>
        <time>2016-05-28T06:36:05.000Z</time>
      </trkpt>
      <trkpt lat="43.67593" lon="5.85612">
        <ele>478</ele>
        <time>2016-05-28T06:36:07.000Z</time>
      </trkpt>
      <trkpt lat="43.67593" lon="5.85612">
        <ele>478</ele>
        <time>2016-05-28T06:36:09.000Z</time>
      </trkpt>
      <trkpt lat="43.67593" lon="5.85612">
        <ele>478</ele>
        <time>2016-05-28T06:36:11.000Z</time>
      </trkpt>
      <trkpt lat="43.67593" lon="5.85612">
        <ele>478</ele>
        <time>2016-05-28T06:36:13.000Z</time>
      </trkpt>
      <trkpt lat="43.6761" lon="5.85675">
        <ele>493</ele>
        <time>2016-05-28T06:36:20.000Z</time>
      </trkpt>
      <trkpt lat="43.67618" lon="5.85687">
        <ele>491</ele>
        <time>2016-05-28T06:36:30.000Z</time>
      </trkpt>
      <trkpt lat="43.67622" lon="5.857">
        <ele>492</ele>
        <time>2016-05-28T06:36:38.000Z</time>
      </trkpt>
      <trkpt lat="43.67628" lon="5.85714">
        <ele>493</ele>
        <time>2016-05-28T06:36:46.000Z</time>
      </trkpt>
      <trkpt lat="43.67641" lon="5.8572">
        <ele>494</ele>
        <time>2016-05-28T06:36:52.000Z</time>
      </trkpt>
      <trkpt lat="43.6765" lon="5.85732">
        <ele>492</ele>
        <time>2016-05-28T06:36:56.000Z</time>
      </trkpt>
      <trkpt lat="43.67661" lon="5.85748">
        <ele>491</ele>
        <time>2016-05-28T06:37:00.000Z</time>
      </trkpt>
      <trkpt lat="43.67667" lon="5.85761">
        <ele>492</ele>
        <time>2016-05-28T06:37:04.000Z</time>
      </trkpt>
      <trkpt lat="43.67667" lon="5.85761">
        <ele>492</ele>
        <time>2016-05-28T06:37:06.000Z</time>
      </trkpt>
      <trkpt lat="43.67667" lon="5.85761">
        <ele>492</ele>
        <time>2016-05-28T06:37:08.000Z</time>
      </trkpt>
      <trkpt lat="43.67667" lon="5.85761">
        <ele>492</ele>
        <time>2016-05-28T06:37:10.000Z</time>
      </trkpt>
      <trkpt lat="43.6769" lon="5.85773">
        <ele>491</ele>
        <time>2016-05-28T06:37:12.000Z</time>
      </trkpt>
      <trkpt lat="43.67702" lon="5.85777">
        <ele>490</ele>
        <time>2016-05-28T06:37:14.000Z</time>
      </trkpt>
      <trkpt lat="43.67717" lon="5.85786">
        <ele>487</ele>
        <time>2016-05-28T06:37:18.000Z</time>
      </trkpt>
      <trkpt lat="43.67727" lon="5.85788">
        <ele>485</ele>
        <time>2016-05-28T06:37:20.000Z</time>
      </trkpt>
      <trkpt lat="43.67742" lon="5.85798">
        <ele>482</ele>
        <time>2016-05-28T06:37:24.000Z</time>
      </trkpt>
      <trkpt lat="43.67742" lon="5.85798">
        <ele>482</ele>
        <time>2016-05-28T06:37:26.000Z</time>
      </trkpt>
      <trkpt lat="43.67742" lon="5.85798">
        <ele>482</ele>
        <time>2016-05-28T06:37:28.000Z</time>
      </trkpt>
      <trkpt lat="43.67742" lon="5.85798">
        <ele>482</ele>
        <time>2016-05-28T06:37:30.000Z</time>
      </trkpt>
      <trkpt lat="43.67742" lon="5.85798">
        <ele>482</ele>
        <time>2016-05-28T06:37:32.000Z</time>
      </trkpt>
      <trkpt lat="43.67742" lon="5.85798">
        <ele>482</ele>
        <time>2016-05-28T06:37:34.000Z</time>
      </trkpt>
      <trkpt lat="43.67742" lon="5.85798">
        <ele>482</ele>
        <time>2016-05-28T06:37:36.000Z</time>
      </trkpt>
      <trkpt lat="43.67742" lon="5.85798">
        <ele>482</ele>
        <time>2016-05-28T06:37:38.000Z</time>
      </trkpt>
      <trkpt lat="43.67742" lon="5.85798">
        <ele>482</ele>
        <time>2016-05-28T06:37:40.000Z</time>
      </trkpt>
      <trkpt lat="43.67742" lon="5.85798">
        <ele>482</ele>
        <time>2016-05-28T06:37:42.000Z</time>
      </trkpt>
      <trkpt lat="43.67772" lon="5.85853">
        <ele>475</ele>
        <time>2016-05-28T06:37:58.000Z</time>
      </trkpt>
      <trkpt lat="43.67772" lon="5.85853">
        <ele>475</ele>
        <time>2016-05-28T06:38:00.000Z</time>
      </trkpt>
      <trkpt lat="43.67772" lon="5.85853">
        <ele>475</ele>
        <time>2016-05-28T06:38:02.000Z</time>
      </trkpt>
      <trkpt lat="43.67772" lon="5.85853">
        <ele>475</ele>
        <time>2016-05-28T06:38:04.000Z</time>
      </trkpt>
      <trkpt lat="43.67772" lon="5.85853">
        <ele>475</ele>
        <time>2016-05-28T06:38:06.000Z</time>
      </trkpt>
      <trkpt lat="43.67772" lon="5.85853">
        <ele>475</ele>
        <time>2016-05-28T06:38:08.000Z</time>
      </trkpt>
      <trkpt lat="43.67772" lon="5.85853">
        <ele>475</ele>
        <time>2016-05-28T06:38:10.000Z</time>
      </trkpt>
      <trkpt lat="43.67772" lon="5.85853">
        <ele>475</ele>
        <time>2016-05-28T06:38:12.000Z</time>
      </trkpt>
      <trkpt lat="43.67772" lon="5.85853">
        <ele>475</ele>
        <time>2016-05-28T06:38:14.000Z</time>
      </trkpt>
      <trkpt lat="43.67772" lon="5.85853">
        <ele>475</ele>
        <time>2016-05-28T06:38:16.000Z</time>
      </trkpt>
      <trkpt lat="43.67772" lon="5.85853">
        <ele>475</ele>
        <time>2016-05-28T06:38:18.000Z</time>
      </trkpt>
      <trkpt lat="43.67772" lon="5.85853">
        <ele>475</ele>
        <time>2016-05-28T06:38:20.000Z</time>
      </trkpt>
      <trkpt lat="43.67772" lon="5.85853">
        <ele>475</ele>
        <time>2016-05-28T06:38:22.000Z</time>
      </trkpt>
      <trkpt lat="43.67813" lon="5.85935">
        <ele>460</ele>
        <time>2016-05-28T06:38:26.000Z</time>
      </trkpt>
      <trkpt lat="43.67831" lon="5.85955">
        <ele>457</ele>
        <time>2016-05-28T06:38:31.000Z</time>
      </trkpt>
      <trkpt lat="43.67841" lon="5.8596">
        <ele>457</ele>
        <time>2016-05-28T06:38:33.000Z</time>
      </trkpt>
      <trkpt lat="43.6785" lon="5.85964">
        <ele>456</ele>
        <time>2016-05-28T06:38:35.000Z</time>
      </trkpt>
      <trkpt lat="43.6785" lon="5.85964">
        <ele>456</ele>
        <time>2016-05-28T06:38:37.000Z</time>
      </trkpt>
      <trkpt lat="43.6785" lon="5.85964">
        <ele>456</ele>
        <time>2016-05-28T06:38:39.000Z</time>
      </trkpt>
      <trkpt lat="43.6785" lon="5.85964">
        <ele>456</ele>
        <time>2016-05-28T06:38:41.000Z</time>
      </trkpt>
      <trkpt lat="43.6785" lon="5.85964">
        <ele>456</ele>
        <time>2016-05-28T06:38:43.000Z</time>
      </trkpt>
      <trkpt lat="43.6785" lon="5.85964">
        <ele>456</ele>
        <time>2016-05-28T06:38:45.000Z</time>
      </trkpt>
      <trkpt lat="43.6785" lon="5.85964">
        <ele>456</ele>
        <time>2016-05-28T06:38:47.000Z</time>
      </trkpt>
      <trkpt lat="43.67914" lon="5.86008">
        <ele>455</ele>
        <time>2016-05-28T06:38:57.000Z</time>
      </trkpt>
      <trkpt lat="43.67927" lon="5.86016">
        <ele>454</ele>
        <time>2016-05-28T06:39:01.000Z</time>
      </trkpt>
      <trkpt lat="43.6794" lon="5.86022">
        <ele>453</ele>
        <time>2016-05-28T06:39:05.000Z</time>
      </trkpt>
      <trkpt lat="43.67953" lon="5.86028">
        <ele>452</ele>
        <time>2016-05-28T06:39:09.000Z</time>
      </trkpt>
      <trkpt lat="43.67967" lon="5.86032">
        <ele>451</ele>
        <time>2016-05-28T06:39:13.000Z</time>
      </trkpt>
      <trkpt lat="43.67984" lon="5.86034">
        <ele>450</ele>
        <time>2016-05-28T06:39:17.000Z</time>
      </trkpt>
      <trkpt lat="43.6799" lon="5.86042">
        <ele>450</ele>
        <time>2016-05-28T06:39:21.000Z</time>
      </trkpt>
      <trkpt lat="43.67995" lon="5.86051">
        <ele>450</ele>
        <time>2016-05-28T06:39:23.000Z</time>
      </trkpt>
      <trkpt lat="43.68" lon="5.86058">
        <ele>450</ele>
        <time>2016-05-28T06:39:25.000Z</time>
      </trkpt>
      <trkpt lat="43.68007" lon="5.86063">
        <ele>451</ele>
        <time>2016-05-28T06:39:27.000Z</time>
      </trkpt>
      <trkpt lat="43.68007" lon="5.86063">
        <ele>451</ele>
        <time>2016-05-28T06:39:31.000Z</time>
      </trkpt>
      <trkpt lat="43.68007" lon="5.86063">
        <ele>451</ele>
        <time>2016-05-28T06:39:33.000Z</time>
      </trkpt>
      <trkpt lat="43.68007" lon="5.86063">
        <ele>451</ele>
        <time>2016-05-28T06:39:35.000Z</time>
      </trkpt>
      <trkpt lat="43.68007" lon="5.86063">
        <ele>451</ele>
        <time>2016-05-28T06:39:37.000Z</time>
      </trkpt>
      <trkpt lat="43.68007" lon="5.86063">
        <ele>451</ele>
        <time>2016-05-28T06:39:39.000Z</time>
      </trkpt>
      <trkpt lat="43.68007" lon="5.86063">
        <ele>451</ele>
        <time>2016-05-28T06:39:41.000Z</time>
      </trkpt>
      <trkpt lat="43.68007" lon="5.86063">
        <ele>451</ele>
        <time>2016-05-28T06:39:43.000Z</time>
      </trkpt>
      <trkpt lat="43.68007" lon="5.86063">
        <ele>451</ele>
        <time>2016-05-28T06:39:45.000Z</time>
      </trkpt>
      <trkpt lat="43.68007" lon="5.86063">
        <ele>451</ele>
        <time>2016-05-28T06:39:47.000Z</time>
      </trkpt>
      <trkpt lat="43.68007" lon="5.86063">
        <ele>451</ele>
        <time>2016-05-28T06:39:49.000Z</time>
      </trkpt>
      <trkpt lat="43.68007" lon="5.86063">
        <ele>451</ele>
        <time>2016-05-28T06:39:51.000Z</time>
      </trkpt>
      <trkpt lat="43.68007" lon="5.86063">
        <ele>451</ele>
        <time>2016-05-28T06:39:53.000Z</time>
      </trkpt>
      <trkpt lat="43.68007" lon="5.86063">
        <ele>451</ele>
        <time>2016-05-28T06:39:55.000Z</time>
      </trkpt>
      <trkpt lat="43.68007" lon="5.86063">
        <ele>451</ele>
        <time>2016-05-28T06:39:57.000Z</time>
      </trkpt>
      <trkpt lat="43.68007" lon="5.86063">
        <ele>451</ele>
        <time>2016-05-28T06:39:59.000Z</time>
      </trkpt>
      <trkpt lat="43.68007" lon="5.86063">
        <ele>451</ele>
        <time>2016-05-28T06:40:01.000Z</time>
      </trkpt>
      <trkpt lat="43.68052" lon="5.86081">
        <ele>454</ele>
        <time>2016-05-28T06:40:03.000Z</time>
      </trkpt>
      <trkpt lat="43.68077" lon="5.86091">
        <ele>454</ele>
        <time>2016-05-28T06:40:05.000Z</time>
      </trkpt>
      <trkpt lat="43.68093" lon="5.86096">
        <ele>454</ele>
        <time>2016-05-28T06:40:07.000Z</time>
      </trkpt>
      <trkpt lat="43.68104" lon="5.86099">
        <ele>453</ele>
        <time>2016-05-28T06:40:09.000Z</time>
      </trkpt>
      <trkpt lat="43.68114" lon="5.86101">
        <ele>453</ele>
        <time>2016-05-28T06:40:11.000Z</time>
      </trkpt>
      <trkpt lat="43.68134" lon="5.86106">
        <ele>452</ele>
        <time>2016-05-28T06:40:13.000Z</time>
      </trkpt>
      <trkpt lat="43.68149" lon="5.86114">
        <ele>451</ele>
        <time>2016-05-28T06:40:17.000Z</time>
      </trkpt>
      <trkpt lat="43.68165" lon="5.86121">
        <ele>449</ele>
        <time>2016-05-28T06:40:21.000Z</time>
      </trkpt>
      <trkpt lat="43.68183" lon="5.86126">
        <ele>448</ele>
        <time>2016-05-28T06:40:25.000Z</time>
      </trkpt>
      <trkpt lat="43.68192" lon="5.86128">
        <ele>448</ele>
        <time>2016-05-28T06:40:27.000Z</time>
      </trkpt>
      <trkpt lat="43.68202" lon="5.8613">
        <ele>447</ele>
        <time>2016-05-28T06:40:29.000Z</time>
      </trkpt>
      <trkpt lat="43.68211" lon="5.8613">
        <ele>447</ele>
        <time>2016-05-28T06:40:31.000Z</time>
      </trkpt>
      <trkpt lat="43.68221" lon="5.86131">
        <ele>447</ele>
        <time>2016-05-28T06:40:33.000Z</time>
      </trkpt>
      <trkpt lat="43.6823" lon="5.86133">
        <ele>446</ele>
        <time>2016-05-28T06:40:35.000Z</time>
      </trkpt>
      <trkpt lat="43.6823" lon="5.86133">
        <ele>446</ele>
        <time>2016-05-28T06:40:37.000Z</time>
      </trkpt>
      <trkpt lat="43.6823" lon="5.86133">
        <ele>446</ele>
        <time>2016-05-28T06:40:39.000Z</time>
      </trkpt>
      <trkpt lat="43.6823" lon="5.86133">
        <ele>446</ele>
        <time>2016-05-28T06:40:41.000Z</time>
      </trkpt>
      <trkpt lat="43.6823" lon="5.86133">
        <ele>446</ele>
        <time>2016-05-28T06:40:43.000Z</time>
      </trkpt>
      <trkpt lat="43.6823" lon="5.86133">
        <ele>446</ele>
        <time>2016-05-28T06:40:45.000Z</time>
      </trkpt>
      <trkpt lat="43.6823" lon="5.86133">
        <ele>446</ele>
        <time>2016-05-28T06:40:47.000Z</time>
      </trkpt>
      <trkpt lat="43.6823" lon="5.86133">
        <ele>446</ele>
        <time>2016-05-28T06:40:49.000Z</time>
      </trkpt>
      <trkpt lat="43.6823" lon="5.86133">
        <ele>446</ele>
        <time>2016-05-28T06:40:51.000Z</time>
      </trkpt>
      <trkpt lat="43.6823" lon="5.86133">
        <ele>446</ele>
        <time>2016-05-28T06:40:53.000Z</time>
      </trkpt>
      <trkpt lat="43.6823" lon="5.86133">
        <ele>446</ele>
        <time>2016-05-28T06:40:55.000Z</time>
      </trkpt>
      <trkpt lat="43.6823" lon="5.86133">
        <ele>446</ele>
        <time>2016-05-28T06:40:57.000Z</time>
      </trkpt>
      <trkpt lat="43.6823" lon="5.86133">
        <ele>446</ele>
        <time>2016-05-28T06:40:59.000Z</time>
      </trkpt>
      <trkpt lat="43.6823" lon="5.86133">
        <ele>446</ele>
        <time>2016-05-28T06:41:01.000Z</time>
      </trkpt>
      <trkpt lat="43.6823" lon="5.86133">
        <ele>446</ele>
        <time>2016-05-28T06:41:03.000Z</time>
      </trkpt>
      <trkpt lat="43.6823" lon="5.86133">
        <ele>446</ele>
        <time>2016-05-28T06:41:05.000Z</time>
      </trkpt>
      <trkpt lat="43.6823" lon="5.86133">
        <ele>446</ele>
        <time>2016-05-28T06:41:07.000Z</time>
      </trkpt>
      <trkpt lat="43.6823" lon="5.86133">
        <ele>446</ele>
        <time>2016-05-28T06:41:09.000Z</time>
      </trkpt>
      <trkpt lat="43.6823" lon="5.86133">
        <ele>446</ele>
        <time>2016-05-28T06:41:11.000Z</time>
      </trkpt>
      <trkpt lat="43.68354" lon="5.86025">
        <ele>450</ele>
        <time>2016-05-28T06:41:15.000Z</time>
      </trkpt>
      <trkpt lat="43.68363" lon="5.86006">
        <ele>449</ele>
        <time>2016-05-28T06:41:19.000Z</time>
      </trkpt>
      <trkpt lat="43.68371" lon="5.85985">
        <ele>448</ele>
        <time>2016-05-28T06:41:23.000Z</time>
      </trkpt>
      <trkpt lat="43.68375" lon="5.85974">
        <ele>447</ele>
        <time>2016-05-28T06:41:25.000Z</time>
      </trkpt>
      <trkpt lat="43.68385" lon="5.85956">
        <ele>447</ele>
        <time>2016-05-28T06:41:29.000Z</time>
      </trkpt>
      <trkpt lat="43.68398" lon="5.85941">
        <ele>447</ele>
        <time>2016-05-28T06:41:33.000Z</time>
      </trkpt>
      <trkpt lat="43.68409" lon="5.85923">
        <ele>446</ele>
        <time>2016-05-28T06:41:37.000Z</time>
      </trkpt>
      <trkpt lat="43.68417" lon="5.85902">
        <ele>445</ele>
        <time>2016-05-28T06:41:41.000Z</time>
      </trkpt>
      <trkpt lat="43.6842" lon="5.8589">
        <ele>444</ele>
        <time>2016-05-28T06:41:43.000Z</time>
      </trkpt>
      <trkpt lat="43.68423" lon="5.85878">
        <ele>444</ele>
        <time>2016-05-28T06:41:45.000Z</time>
      </trkpt>
      <trkpt lat="43.68427" lon="5.85867">
        <ele>444</ele>
        <time>2016-05-28T06:41:47.000Z</time>
      </trkpt>
      <trkpt lat="43.68433" lon="5.85845">
        <ele>442</ele>
        <time>2016-05-28T06:41:51.000Z</time>
      </trkpt>
      <trkpt lat="43.68437" lon="5.85833">
        <ele>442</ele>
        <time>2016-05-28T06:41:53.000Z</time>
      </trkpt>
      <trkpt lat="43.68437" lon="5.85833">
        <ele>442</ele>
        <time>2016-05-28T06:41:55.000Z</time>
      </trkpt>
      <trkpt lat="43.68437" lon="5.85833">
        <ele>442</ele>
        <time>2016-05-28T06:41:57.000Z</time>
      </trkpt>
      <trkpt lat="43.68437" lon="5.85833">
        <ele>442</ele>
        <time>2016-05-28T06:41:59.000Z</time>
      </trkpt>
      <trkpt lat="43.68437" lon="5.85833">
        <ele>442</ele>
        <time>2016-05-28T06:42:01.000Z</time>
      </trkpt>
      <trkpt lat="43.68437" lon="5.85833">
        <ele>442</ele>
        <time>2016-05-28T06:42:03.000Z</time>
      </trkpt>
      <trkpt lat="43.68437" lon="5.85833">
        <ele>442</ele>
        <time>2016-05-28T06:42:05.000Z</time>
      </trkpt>
      <trkpt lat="43.68437" lon="5.85833">
        <ele>442</ele>
        <time>2016-05-28T06:42:07.000Z</time>
      </trkpt>
      <trkpt lat="43.68437" lon="5.85833">
        <ele>442</ele>
        <time>2016-05-28T06:42:09.000Z</time>
      </trkpt>
      <trkpt lat="43.68437" lon="5.85833">
        <ele>442</ele>
        <time>2016-05-28T06:42:11.000Z</time>
      </trkpt>
      <trkpt lat="43.68462" lon="5.85785">
        <ele>441</ele>
        <time>2016-05-28T06:42:15.000Z</time>
      </trkpt>
      <trkpt lat="43.68478" lon="5.85756">
        <ele>441</ele>
        <time>2016-05-28T06:42:17.000Z</time>
      </trkpt>
      <trkpt lat="43.68489" lon="5.85735">
        <ele>441</ele>
        <time>2016-05-28T06:42:19.000Z</time>
      </trkpt>
      <trkpt lat="43.68496" lon="5.85719">
        <ele>441</ele>
        <time>2016-05-28T06:42:21.000Z</time>
      </trkpt>
      <trkpt lat="43.68502" lon="5.85705">
        <ele>441</ele>
        <time>2016-05-28T06:42:23.000Z</time>
      </trkpt>
      <trkpt lat="43.68512" lon="5.85682">
        <ele>440</ele>
        <time>2016-05-28T06:42:25.000Z</time>
      </trkpt>
      <trkpt lat="43.68512" lon="5.85682">
        <ele>440</ele>
        <time>2016-05-28T06:42:27.000Z</time>
      </trkpt>
      <trkpt lat="43.68512" lon="5.85682">
        <ele>440</ele>
        <time>2016-05-28T06:42:29.000Z</time>
      </trkpt>
      <trkpt lat="43.68512" lon="5.85682">
        <ele>440</ele>
        <time>2016-05-28T06:42:31.000Z</time>
      </trkpt>
      <trkpt lat="43.68512" lon="5.85682">
        <ele>440</ele>
        <time>2016-05-28T06:42:33.000Z</time>
      </trkpt>
      <trkpt lat="43.68512" lon="5.85682">
        <ele>440</ele>
        <time>2016-05-28T06:42:35.000Z</time>
      </trkpt>
      <trkpt lat="43.68512" lon="5.85682">
        <ele>440</ele>
        <time>2016-05-28T06:42:37.000Z</time>
      </trkpt>
      <trkpt lat="43.68512" lon="5.85682">
        <ele>440</ele>
        <time>2016-05-28T06:42:39.000Z</time>
      </trkpt>
      <trkpt lat="43.68512" lon="5.85682">
        <ele>440</ele>
        <time>2016-05-28T06:42:41.000Z</time>
      </trkpt>
      <trkpt lat="43.68512" lon="5.85682">
        <ele>440</ele>
        <time>2016-05-28T06:42:43.000Z</time>
      </trkpt>
      <trkpt lat="43.68512" lon="5.85682">
        <ele>440</ele>
        <time>2016-05-28T06:42:45.000Z</time>
      </trkpt>
      <trkpt lat="43.68512" lon="5.85682">
        <ele>440</ele>
        <time>2016-05-28T06:42:47.000Z</time>
      </trkpt>
      <trkpt lat="43.68555" lon="5.85584">
        <ele>442</ele>
        <time>2016-05-28T06:42:53.000Z</time>
      </trkpt>
      <trkpt lat="43.68562" lon="5.85566">
        <ele>442</ele>
        <time>2016-05-28T06:42:57.000Z</time>
      </trkpt>
      <trkpt lat="43.68568" lon="5.85547">
        <ele>442</ele>
        <time>2016-05-28T06:43:01.000Z</time>
      </trkpt>
      <trkpt lat="43.68573" lon="5.85528">
        <ele>441</ele>
        <time>2016-05-28T06:43:05.000Z</time>
      </trkpt>
      <trkpt lat="43.68573" lon="5.85528">
        <ele>441</ele>
        <time>2016-05-28T06:43:07.000Z</time>
      </trkpt>
      <trkpt lat="43.68578" lon="5.85508">
        <ele>441</ele>
        <time>2016-05-28T06:43:09.000Z</time>
      </trkpt>
      <trkpt lat="43.68584" lon="5.85487">
        <ele>441</ele>
        <time>2016-05-28T06:43:13.000Z</time>
      </trkpt>
      <trkpt lat="43.68589" lon="5.85466">
        <ele>439</ele>
        <time>2016-05-28T06:43:17.000Z</time>
      </trkpt>
      <trkpt lat="43.68589" lon="5.85466">
        <ele>439</ele>
        <time>2016-05-28T06:43:19.000Z</time>
      </trkpt>
      <trkpt lat="43.68594" lon="5.85447">
        <ele>439</ele>
        <time>2016-05-28T06:43:21.000Z</time>
      </trkpt>
      <trkpt lat="43.68594" lon="5.85447">
        <ele>439</ele>
        <time>2016-05-28T06:43:23.000Z</time>
      </trkpt>
      <trkpt lat="43.68594" lon="5.85447">
        <ele>439</ele>
        <time>2016-05-28T06:43:25.000Z</time>
      </trkpt>
      <trkpt lat="43.68594" lon="5.85447">
        <ele>439</ele>
        <time>2016-05-28T06:43:27.000Z</time>
      </trkpt>
      <trkpt lat="43.68594" lon="5.85447">
        <ele>439</ele>
        <time>2016-05-28T06:43:29.000Z</time>
      </trkpt>
      <trkpt lat="43.68594" lon="5.85447">
        <ele>439</ele>
        <time>2016-05-28T06:43:31.000Z</time>
      </trkpt>
      <trkpt lat="43.68594" lon="5.85447">
        <ele>439</ele>
        <time>2016-05-28T06:43:33.000Z</time>
      </trkpt>
      <trkpt lat="43.68594" lon="5.85447">
        <ele>439</ele>
        <time>2016-05-28T06:43:35.000Z</time>
      </trkpt>
      <trkpt lat="43.68594" lon="5.85447">
        <ele>439</ele>
        <time>2016-05-28T06:43:37.000Z</time>
      </trkpt>
      <trkpt lat="43.68594" lon="5.85447">
        <ele>439</ele>
        <time>2016-05-28T06:43:39.000Z</time>
      </trkpt>
      <trkpt lat="43.68594" lon="5.85447">
        <ele>439</ele>
        <time>2016-05-28T06:43:41.000Z</time>
      </trkpt>
      <trkpt lat="43.68594" lon="5.85447">
        <ele>439</ele>
        <time>2016-05-28T06:43:43.000Z</time>
      </trkpt>
      <trkpt lat="43.68594" lon="5.85447">
        <ele>439</ele>
        <time>2016-05-28T06:43:45.000Z</time>
      </trkpt>
      <trkpt lat="43.68594" lon="5.85447">
        <ele>439</ele>
        <time>2016-05-28T06:43:47.000Z</time>
      </trkpt>
      <trkpt lat="43.68594" lon="5.85447">
        <ele>439</ele>
        <time>2016-05-28T06:43:49.000Z</time>
      </trkpt>
      <trkpt lat="43.68594" lon="5.85447">
        <ele>439</ele>
        <time>2016-05-28T06:43:51.000Z</time>
      </trkpt>
      <trkpt lat="43.68594" lon="5.85447">
        <ele>439</ele>
        <time>2016-05-28T06:43:53.000Z</time>
      </trkpt>
      <trkpt lat="43.68594" lon="5.85447">
        <ele>439</ele>
        <time>2016-05-28T06:43:55.000Z</time>
      </trkpt>
      <trkpt lat="43.68594" lon="5.85447">
        <ele>439</ele>
        <time>2016-05-28T06:43:57.000Z</time>
      </trkpt>
      <trkpt lat="43.68594" lon="5.85447">
        <ele>439</ele>
        <time>2016-05-28T06:43:59.000Z</time>
      </trkpt>
      <trkpt lat="43.68594" lon="5.85447">
        <ele>439</ele>
        <time>2016-05-28T06:44:01.000Z</time>
      </trkpt>
      <trkpt lat="43.68594" lon="5.85447">
        <ele>439</ele>
        <time>2016-05-28T06:44:03.000Z</time>
      </trkpt>
      <trkpt lat="43.68594" lon="5.85447">
        <ele>439</ele>
        <time>2016-05-28T06:44:05.000Z</time>
      </trkpt>
      <trkpt lat="43.68594" lon="5.85447">
        <ele>439</ele>
        <time>2016-05-28T06:44:11.000Z</time>
      </trkpt>
      <trkpt lat="43.68594" lon="5.85447">
        <ele>439</ele>
        <time>2016-05-28T06:44:13.000Z</time>
      </trkpt>
      <trkpt lat="43.68594" lon="5.85447">
        <ele>439</ele>
        <time>2016-05-28T06:44:15.000Z</time>
      </trkpt>
      <trkpt lat="43.68659" lon="5.85225">
        <ele>437</ele>
        <time>2016-05-28T06:46:27.000Z</time>
      </trkpt>
      <trkpt lat="43.68671" lon="5.8522">
        <ele>438</ele>
        <time>2016-05-28T06:46:33.000Z</time>
      </trkpt>
      <trkpt lat="43.68686" lon="5.8522">
        <ele>435</ele>
        <time>2016-05-28T06:46:37.000Z</time>
      </trkpt>
      <trkpt lat="43.68702" lon="5.85232">
        <ele>434</ele>
        <time>2016-05-28T06:46:41.000Z</time>
      </trkpt>
      <trkpt lat="43.68716" lon="5.85243">
        <ele>434</ele>
        <time>2016-05-28T06:46:45.000Z</time>
      </trkpt>
      <trkpt lat="43.68716" lon="5.85243">
        <ele>434</ele>
        <time>2016-05-28T06:46:47.000Z</time>
      </trkpt>
      <trkpt lat="43.68716" lon="5.85243">
        <ele>434</ele>
        <time>2016-05-28T06:46:49.000Z</time>
      </trkpt>
      <trkpt lat="43.68716" lon="5.85243">
        <ele>434</ele>
        <time>2016-05-28T06:46:51.000Z</time>
      </trkpt>
      <trkpt lat="43.68716" lon="5.85243">
        <ele>434</ele>
        <time>2016-05-28T06:46:53.000Z</time>
      </trkpt>
      <trkpt lat="43.68716" lon="5.85243">
        <ele>434</ele>
        <time>2016-05-28T06:46:55.000Z</time>
      </trkpt>
      <trkpt lat="43.68716" lon="5.85243">
        <ele>434</ele>
        <time>2016-05-28T06:46:57.000Z</time>
      </trkpt>
      <trkpt lat="43.68716" lon="5.85243">
        <ele>434</ele>
        <time>2016-05-28T06:46:59.000Z</time>
      </trkpt>
      <trkpt lat="43.68716" lon="5.85243">
        <ele>434</ele>
        <time>2016-05-28T06:47:01.000Z</time>
      </trkpt>
      <trkpt lat="43.68716" lon="5.85243">
        <ele>434</ele>
        <time>2016-05-28T06:47:03.000Z</time>
      </trkpt>
      <trkpt lat="43.68716" lon="5.85243">
        <ele>434</ele>
        <time>2016-05-28T06:47:05.000Z</time>
      </trkpt>
      <trkpt lat="43.68716" lon="5.85243">
        <ele>434</ele>
        <time>2016-05-28T06:47:07.000Z</time>
      </trkpt>
      <trkpt lat="43.68716" lon="5.85243">
        <ele>434</ele>
        <time>2016-05-28T06:47:09.000Z</time>
      </trkpt>
      <trkpt lat="43.68757" lon="5.8528">
        <ele>437</ele>
        <time>2016-05-28T06:47:13.000Z</time>
      </trkpt>
      <trkpt lat="43.68765" lon="5.85286">
        <ele>438</ele>
        <time>2016-05-28T06:47:17.000Z</time>
      </trkpt>
      <trkpt lat="43.68777" lon="5.85292">
        <ele>439</ele>
        <time>2016-05-28T06:47:23.000Z</time>
      </trkpt>
      <trkpt lat="43.68777" lon="5.85292">
        <ele>439</ele>
        <time>2016-05-28T06:47:27.000Z</time>
      </trkpt>
      <trkpt lat="43.68777" lon="5.85292">
        <ele>439</ele>
        <time>2016-05-28T06:47:29.000Z</time>
      </trkpt>
      <trkpt lat="43.68777" lon="5.85292">
        <ele>439</ele>
        <time>2016-05-28T06:47:31.000Z</time>
      </trkpt>
      <trkpt lat="43.68777" lon="5.85292">
        <ele>439</ele>
        <time>2016-05-28T06:47:33.000Z</time>
      </trkpt>
      <trkpt lat="43.68777" lon="5.85292">
        <ele>439</ele>
        <time>2016-05-28T06:47:35.000Z</time>
      </trkpt>
      <trkpt lat="43.68777" lon="5.85292">
        <ele>439</ele>
        <time>2016-05-28T06:47:37.000Z</time>
      </trkpt>
      <trkpt lat="43.68777" lon="5.85292">
        <ele>439</ele>
        <time>2016-05-28T06:47:39.000Z</time>
      </trkpt>
      <trkpt lat="43.68777" lon="5.85292">
        <ele>439</ele>
        <time>2016-05-28T06:47:41.000Z</time>
      </trkpt>
      <trkpt lat="43.68777" lon="5.85292">
        <ele>439</ele>
        <time>2016-05-28T06:47:43.000Z</time>
      </trkpt>
      <trkpt lat="43.68777" lon="5.85292">
        <ele>439</ele>
        <time>2016-05-28T06:47:45.000Z</time>
      </trkpt>
      <trkpt lat="43.68777" lon="5.85292">
        <ele>439</ele>
        <time>2016-05-28T06:47:47.000Z</time>
      </trkpt>
      <trkpt lat="43.68777" lon="5.85292">
        <ele>439</ele>
        <time>2016-05-28T06:47:49.000Z</time>
      </trkpt>
      <trkpt lat="43.68777" lon="5.85292">
        <ele>439</ele>
        <time>2016-05-28T06:47:51.000Z</time>
      </trkpt>
      <trkpt lat="43.68777" lon="5.85292">
        <ele>439</ele>
        <time>2016-05-28T06:47:53.000Z</time>
      </trkpt>
      <trkpt lat="43.68806" lon="5.85303">
        <ele>440</ele>
        <time>2016-05-28T06:47:57.000Z</time>
      </trkpt>
      <trkpt lat="43.68822" lon="5.8531">
        <ele>440</ele>
        <time>2016-05-28T06:47:59.000Z</time>
      </trkpt>
      <trkpt lat="43.68832" lon="5.85314">
        <ele>440</ele>
        <time>2016-05-28T06:48:01.000Z</time>
      </trkpt>
      <trkpt lat="43.68839" lon="5.85316">
        <ele>440</ele>
        <time>2016-05-28T06:48:03.000Z</time>
      </trkpt>
      <trkpt lat="43.68844" lon="5.85318">
        <ele>440</ele>
        <time>2016-05-28T06:48:05.000Z</time>
      </trkpt>
      <trkpt lat="43.68844" lon="5.85318">
        <ele>440</ele>
        <time>2016-05-28T06:48:07.000Z</time>
      </trkpt>
      <trkpt lat="43.68844" lon="5.85318">
        <ele>440</ele>
        <time>2016-05-28T06:48:09.000Z</time>
      </trkpt>
      <trkpt lat="43.68844" lon="5.85318">
        <ele>440</ele>
        <time>2016-05-28T06:48:11.000Z</time>
      </trkpt>
      <trkpt lat="43.68844" lon="5.85318">
        <ele>440</ele>
        <time>2016-05-28T06:48:13.000Z</time>
      </trkpt>
      <trkpt lat="43.68844" lon="5.85318">
        <ele>440</ele>
        <time>2016-05-28T06:48:15.000Z</time>
      </trkpt>
      <trkpt lat="43.68844" lon="5.85318">
        <ele>440</ele>
        <time>2016-05-28T06:48:17.000Z</time>
      </trkpt>
      <trkpt lat="43.68844" lon="5.85318">
        <ele>440</ele>
        <time>2016-05-28T06:48:19.000Z</time>
      </trkpt>
      <trkpt lat="43.68844" lon="5.85318">
        <ele>440</ele>
        <time>2016-05-28T06:48:21.000Z</time>
      </trkpt>
      <trkpt lat="43.68844" lon="5.85318">
        <ele>440</ele>
        <time>2016-05-28T06:48:23.000Z</time>
      </trkpt>
      <trkpt lat="43.68844" lon="5.85318">
        <ele>440</ele>
        <time>2016-05-28T06:48:25.000Z</time>
      </trkpt>
      <trkpt lat="43.68844" lon="5.85318">
        <ele>440</ele>
        <time>2016-05-28T06:48:27.000Z</time>
      </trkpt>
      <trkpt lat="43.68844" lon="5.85318">
        <ele>440</ele>
        <time>2016-05-28T06:48:29.000Z</time>
      </trkpt>
      <trkpt lat="43.68844" lon="5.85318">
        <ele>440</ele>
        <time>2016-05-28T06:48:31.000Z</time>
      </trkpt>
      <trkpt lat="43.68844" lon="5.85318">
        <ele>440</ele>
        <time>2016-05-28T06:48:33.000Z</time>
      </trkpt>
      <trkpt lat="43.68904" lon="5.85333">
        <ele>444</ele>
        <time>2016-05-28T06:48:37.000Z</time>
      </trkpt>
      <trkpt lat="43.68916" lon="5.85337">
        <ele>446</ele>
        <time>2016-05-28T06:48:43.000Z</time>
      </trkpt>
      <trkpt lat="43.68916" lon="5.85337">
        <ele>446</ele>
        <time>2016-05-28T06:48:45.000Z</time>
      </trkpt>
      <trkpt lat="43.68916" lon="5.85337">
        <ele>446</ele>
        <time>2016-05-28T06:48:47.000Z</time>
      </trkpt>
      <trkpt lat="43.68916" lon="5.85337">
        <ele>446</ele>
        <time>2016-05-28T06:48:49.000Z</time>
      </trkpt>
      <trkpt lat="43.68916" lon="5.85337">
        <ele>446</ele>
        <time>2016-05-28T06:48:51.000Z</time>
      </trkpt>
      <trkpt lat="43.68916" lon="5.85337">
        <ele>446</ele>
        <time>2016-05-28T06:48:53.000Z</time>
      </trkpt>
      <trkpt lat="43.68916" lon="5.85337">
        <ele>446</ele>
        <time>2016-05-28T06:48:55.000Z</time>
      </trkpt>
      <trkpt lat="43.68916" lon="5.85337">
        <ele>446</ele>
        <time>2016-05-28T06:48:57.000Z</time>
      </trkpt>
      <trkpt lat="43.68916" lon="5.85337">
        <ele>446</ele>
        <time>2016-05-28T06:48:59.000Z</time>
      </trkpt>
      <trkpt lat="43.68949" lon="5.85348">
        <ele>444</ele>
        <time>2016-05-28T06:49:01.000Z</time>
      </trkpt>
      <trkpt lat="43.68958" lon="5.85351">
        <ele>444</ele>
        <time>2016-05-28T06:49:05.000Z</time>
      </trkpt>
      <trkpt lat="43.6897" lon="5.85353">
        <ele>445</ele>
        <time>2016-05-28T06:49:11.000Z</time>
      </trkpt>
      <trkpt lat="43.6897" lon="5.85353">
        <ele>445</ele>
        <time>2016-05-28T06:49:13.000Z</time>
      </trkpt>
      <trkpt lat="43.6897" lon="5.85353">
        <ele>445</ele>
        <time>2016-05-28T06:49:15.000Z</time>
      </trkpt>
      <trkpt lat="43.6897" lon="5.85353">
        <ele>445</ele>
        <time>2016-05-28T06:49:17.000Z</time>
      </trkpt>
      <trkpt lat="43.6897" lon="5.85353">
        <ele>445</ele>
        <time>2016-05-28T06:49:19.000Z</time>
      </trkpt>
      <trkpt lat="43.6897" lon="5.85353">
        <ele>445</ele>
        <time>2016-05-28T06:49:21.000Z</time>
      </trkpt>
      <trkpt lat="43.6897" lon="5.85353">
        <ele>445</ele>
        <time>2016-05-28T06:49:23.000Z</time>
      </trkpt>
      <trkpt lat="43.6897" lon="5.85353">
        <ele>445</ele>
        <time>2016-05-28T06:49:25.000Z</time>
      </trkpt>
      <trkpt lat="43.6897" lon="5.85353">
        <ele>445</ele>
        <time>2016-05-28T06:49:27.000Z</time>
      </trkpt>
      <trkpt lat="43.6897" lon="5.85353">
        <ele>445</ele>
        <time>2016-05-28T06:49:29.000Z</time>
      </trkpt>
      <trkpt lat="43.6897" lon="5.85353">
        <ele>445</ele>
        <time>2016-05-28T06:49:31.000Z</time>
      </trkpt>
      <trkpt lat="43.6897" lon="5.85353">
        <ele>445</ele>
        <time>2016-05-28T06:49:33.000Z</time>
      </trkpt>
      <trkpt lat="43.6897" lon="5.85353">
        <ele>445</ele>
        <time>2016-05-28T06:49:35.000Z</time>
      </trkpt>
      <trkpt lat="43.6897" lon="5.85353">
        <ele>445</ele>
        <time>2016-05-28T06:49:37.000Z</time>
      </trkpt>
      <trkpt lat="43.6897" lon="5.85353">
        <ele>445</ele>
        <time>2016-05-28T06:49:39.000Z</time>
      </trkpt>
      <trkpt lat="43.6897" lon="5.85353">
        <ele>445</ele>
        <time>2016-05-28T06:49:41.000Z</time>
      </trkpt>
      <trkpt lat="43.6897" lon="5.85353">
        <ele>445</ele>
        <time>2016-05-28T06:49:43.000Z</time>
      </trkpt>
      <trkpt lat="43.6897" lon="5.85353">
        <ele>445</ele>
        <time>2016-05-28T06:49:45.000Z</time>
      </trkpt>
      <trkpt lat="43.6897" lon="5.85353">
        <ele>445</ele>
        <time>2016-05-28T06:49:47.000Z</time>
      </trkpt>
      <trkpt lat="43.6897" lon="5.85353">
        <ele>445</ele>
        <time>2016-05-28T06:49:49.000Z</time>
      </trkpt>
      <trkpt lat="43.6897" lon="5.85353">
        <ele>445</ele>
        <time>2016-05-28T06:49:51.000Z</time>
      </trkpt>
      <trkpt lat="43.6897" lon="5.85353">
        <ele>445</ele>
        <time>2016-05-28T06:49:53.000Z</time>
      </trkpt>
      <trkpt lat="43.6897" lon="5.85353">
        <ele>445</ele>
        <time>2016-05-28T06:49:55.000Z</time>
      </trkpt>
      <trkpt lat="43.6897" lon="5.85353">
        <ele>445</ele>
        <time>2016-05-28T06:49:57.000Z</time>
      </trkpt>
      <trkpt lat="43.69002" lon="5.85394">
        <ele>454</ele>
        <time>2016-05-28T06:49:59.000Z</time>
      </trkpt>
      <trkpt lat="43.69019" lon="5.85416">
        <ele>455</ele>
        <time>2016-05-28T06:50:01.000Z</time>
      </trkpt>
      <trkpt lat="43.6903" lon="5.85428">
        <ele>455</ele>
        <time>2016-05-28T06:50:03.000Z</time>
      </trkpt>
      <trkpt lat="43.69036" lon="5.85435">
        <ele>455</ele>
        <time>2016-05-28T06:50:05.000Z</time>
      </trkpt>
      <trkpt lat="43.69036" lon="5.85435">
        <ele>455</ele>
        <time>2016-05-28T06:50:07.000Z</time>
      </trkpt>
      <trkpt lat="43.69036" lon="5.85435">
        <ele>455</ele>
        <time>2016-05-28T06:50:09.000Z</time>
      </trkpt>
      <trkpt lat="43.69036" lon="5.85435">
        <ele>455</ele>
        <time>2016-05-28T06:50:11.000Z</time>
      </trkpt>
      <trkpt lat="43.69036" lon="5.85435">
        <ele>455</ele>
        <time>2016-05-28T06:50:13.000Z</time>
      </trkpt>
      <trkpt lat="43.69036" lon="5.85435">
        <ele>455</ele>
        <time>2016-05-28T06:50:15.000Z</time>
      </trkpt>
      <trkpt lat="43.69036" lon="5.85435">
        <ele>455</ele>
        <time>2016-05-28T06:50:17.000Z</time>
      </trkpt>
      <trkpt lat="43.69036" lon="5.85435">
        <ele>455</ele>
        <time>2016-05-28T06:50:19.000Z</time>
      </trkpt>
      <trkpt lat="43.69036" lon="5.85435">
        <ele>455</ele>
        <time>2016-05-28T06:50:21.000Z</time>
      </trkpt>
      <trkpt lat="43.69036" lon="5.85435">
        <ele>455</ele>
        <time>2016-05-28T06:50:23.000Z</time>
      </trkpt>
      <trkpt lat="43.69036" lon="5.85435">
        <ele>455</ele>
        <time>2016-05-28T06:50:25.000Z</time>
      </trkpt>
      <trkpt lat="43.69036" lon="5.85435">
        <ele>455</ele>
        <time>2016-05-28T06:50:27.000Z</time>
      </trkpt>
      <trkpt lat="43.69036" lon="5.85435">
        <ele>455</ele>
        <time>2016-05-28T06:50:29.000Z</time>
      </trkpt>
      <trkpt lat="43.69036" lon="5.85435">
        <ele>455</ele>
        <time>2016-05-28T06:50:31.000Z</time>
      </trkpt>
      <trkpt lat="43.69036" lon="5.85435">
        <ele>455</ele>
        <time>2016-05-28T06:50:33.000Z</time>
      </trkpt>
      <trkpt lat="43.69036" lon="5.85435">
        <ele>455</ele>
        <time>2016-05-28T06:50:35.000Z</time>
      </trkpt>
      <trkpt lat="43.69036" lon="5.85435">
        <ele>455</ele>
        <time>2016-05-28T06:50:37.000Z</time>
      </trkpt>
      <trkpt lat="43.69056" lon="5.85485">
        <ele>462</ele>
        <time>2016-05-28T06:50:47.000Z</time>
      </trkpt>
      <trkpt lat="43.69067" lon="5.85512">
        <ele>463</ele>
        <time>2016-05-28T06:50:49.000Z</time>
      </trkpt>
      <trkpt lat="43.69074" lon="5.85527">
        <ele>463</ele>
        <time>2016-05-28T06:50:51.000Z</time>
      </trkpt>
      <trkpt lat="43.69079" lon="5.85537">
        <ele>463</ele>
        <time>2016-05-28T06:50:53.000Z</time>
      </trkpt>
      <trkpt lat="43.69083" lon="5.85543">
        <ele>464</ele>
        <time>2016-05-28T06:50:55.000Z</time>
      </trkpt>
      <trkpt lat="43.6909" lon="5.85552">
        <ele>464</ele>
        <time>2016-05-28T06:50:57.000Z</time>
      </trkpt>
      <trkpt lat="43.69099" lon="5.85561">
        <ele>464</ele>
        <time>2016-05-28T06:51:03.000Z</time>
      </trkpt>
      <trkpt lat="43.69104" lon="5.85575">
        <ele>466</ele>
        <time>2016-05-28T06:51:09.000Z</time>
      </trkpt>
      <trkpt lat="43.69107" lon="5.85589">
        <ele>466</ele>
        <time>2016-05-28T06:51:15.000Z</time>
      </trkpt>
      <trkpt lat="43.69113" lon="5.856">
        <ele>468</ele>
        <time>2016-05-28T06:51:21.000Z</time>
      </trkpt>
      <trkpt lat="43.69118" lon="5.85612">
        <ele>468</ele>
        <time>2016-05-28T06:51:27.000Z</time>
      </trkpt>
      <trkpt lat="43.69118" lon="5.85612">
        <ele>468</ele>
        <time>2016-05-28T06:51:29.000Z</time>
      </trkpt>
      <trkpt lat="43.69118" lon="5.85612">
        <ele>468</ele>
        <time>2016-05-28T06:51:31.000Z</time>
      </trkpt>
      <trkpt lat="43.69118" lon="5.85612">
        <ele>468</ele>
        <time>2016-05-28T06:51:33.000Z</time>
      </trkpt>
      <trkpt lat="43.69118" lon="5.85612">
        <ele>468</ele>
        <time>2016-05-28T06:51:35.000Z</time>
      </trkpt>
      <trkpt lat="43.69118" lon="5.85612">
        <ele>468</ele>
        <time>2016-05-28T06:51:37.000Z</time>
      </trkpt>
      <trkpt lat="43.69118" lon="5.8564">
        <ele>469</ele>
        <time>2016-05-28T06:51:41.000Z</time>
      </trkpt>
      <trkpt lat="43.69122" lon="5.85656">
        <ele>471</ele>
        <time>2016-05-28T06:51:49.000Z</time>
      </trkpt>
      <trkpt lat="43.69128" lon="5.85672">
        <ele>473</ele>
        <time>2016-05-28T06:51:55.000Z</time>
      </trkpt>
      <trkpt lat="43.69128" lon="5.85672">
        <ele>473</ele>
        <time>2016-05-28T06:51:57.000Z</time>
      </trkpt>
      <trkpt lat="43.69128" lon="5.85672">
        <ele>473</ele>
        <time>2016-05-28T06:51:59.000Z</time>
      </trkpt>
      <trkpt lat="43.69128" lon="5.85672">
        <ele>473</ele>
        <time>2016-05-28T06:52:01.000Z</time>
      </trkpt>
      <trkpt lat="43.69128" lon="5.85672">
        <ele>473</ele>
        <time>2016-05-28T06:52:11.000Z</time>
      </trkpt>
      <trkpt lat="43.69128" lon="5.85672">
        <ele>473</ele>
        <time>2016-05-28T06:52:13.000Z</time>
      </trkpt>
      <trkpt lat="43.69128" lon="5.85672">
        <ele>473</ele>
        <time>2016-05-28T06:52:15.000Z</time>
      </trkpt>
      <trkpt lat="43.69128" lon="5.85672">
        <ele>473</ele>
        <time>2016-05-28T06:52:17.000Z</time>
      </trkpt>
      <trkpt lat="43.69128" lon="5.85672">
        <ele>473</ele>
        <time>2016-05-28T06:52:19.000Z</time>
      </trkpt>
      <trkpt lat="43.69128" lon="5.85672">
        <ele>473</ele>
        <time>2016-05-28T06:52:21.000Z</time>
      </trkpt>
      <trkpt lat="43.69128" lon="5.85672">
        <ele>473</ele>
        <time>2016-05-28T06:52:23.000Z</time>
      </trkpt>
      <trkpt lat="43.69128" lon="5.85672">
        <ele>473</ele>
        <time>2016-05-28T06:52:25.000Z</time>
      </trkpt>
      <trkpt lat="43.69128" lon="5.85672">
        <ele>473</ele>
        <time>2016-05-28T06:52:27.000Z</time>
      </trkpt>
      <trkpt lat="43.69128" lon="5.85672">
        <ele>473</ele>
        <time>2016-05-28T06:52:29.000Z</time>
      </trkpt>
      <trkpt lat="43.69128" lon="5.85672">
        <ele>473</ele>
        <time>2016-05-28T06:52:31.000Z</time>
      </trkpt>
      <trkpt lat="43.69128" lon="5.85672">
        <ele>473</ele>
        <time>2016-05-28T06:52:33.000Z</time>
      </trkpt>
      <trkpt lat="43.69128" lon="5.85672">
        <ele>473</ele>
        <time>2016-05-28T06:52:35.000Z</time>
      </trkpt>
      <trkpt lat="43.69128" lon="5.85672">
        <ele>473</ele>
        <time>2016-05-28T06:52:37.000Z</time>
      </trkpt>
      <trkpt lat="43.69148" lon="5.85745">
        <ele>479</ele>
        <time>2016-05-28T06:52:56.000Z</time>
      </trkpt>
      <trkpt lat="43.6915" lon="5.85761">
        <ele>480</ele>
        <time>2016-05-28T06:53:25.000Z</time>
      </trkpt>
      <trkpt lat="43.69153" lon="5.85773">
        <ele>480</ele>
        <time>2016-05-28T06:53:29.000Z</time>
      </trkpt>
      <trkpt lat="43.6916" lon="5.85787">
        <ele>479</ele>
        <time>2016-05-28T06:53:33.000Z</time>
      </trkpt>
      <trkpt lat="43.69165" lon="5.85802">
        <ele>479</ele>
        <time>2016-05-28T06:53:37.000Z</time>
      </trkpt>
      <trkpt lat="43.6917" lon="5.85817">
        <ele>479</ele>
        <time>2016-05-28T06:53:41.000Z</time>
      </trkpt>
      <trkpt lat="43.69179" lon="5.8583">
        <ele>477</ele>
        <time>2016-05-28T06:53:45.000Z</time>
      </trkpt>
      <trkpt lat="43.69186" lon="5.85845">
        <ele>477</ele>
        <time>2016-05-28T06:53:49.000Z</time>
      </trkpt>
      <trkpt lat="43.69186" lon="5.85845">
        <ele>477</ele>
        <time>2016-05-28T06:53:51.000Z</time>
      </trkpt>
      <trkpt lat="43.69194" lon="5.85859">
        <ele>477</ele>
        <time>2016-05-28T06:53:53.000Z</time>
      </trkpt>
      <trkpt lat="43.69202" lon="5.85873">
        <ele>476</ele>
        <time>2016-05-28T06:53:57.000Z</time>
      </trkpt>
      <trkpt lat="43.6921" lon="5.8589">
        <ele>475</ele>
        <time>2016-05-28T06:54:01.000Z</time>
      </trkpt>
      <trkpt lat="43.69219" lon="5.85905">
        <ele>475</ele>
        <time>2016-05-28T06:54:05.000Z</time>
      </trkpt>
      <trkpt lat="43.69219" lon="5.85905">
        <ele>475</ele>
        <time>2016-05-28T06:54:07.000Z</time>
      </trkpt>
      <trkpt lat="43.69228" lon="5.85919">
        <ele>476</ele>
        <time>2016-05-28T06:54:09.000Z</time>
      </trkpt>
      <trkpt lat="43.69228" lon="5.85919">
        <ele>476</ele>
        <time>2016-05-28T06:54:11.000Z</time>
      </trkpt>
      <trkpt lat="43.69228" lon="5.85919">
        <ele>476</ele>
        <time>2016-05-28T06:54:13.000Z</time>
      </trkpt>
      <trkpt lat="43.69228" lon="5.85919">
        <ele>476</ele>
        <time>2016-05-28T06:54:15.000Z</time>
      </trkpt>
      <trkpt lat="43.69228" lon="5.85919">
        <ele>476</ele>
        <time>2016-05-28T06:54:17.000Z</time>
      </trkpt>
      <trkpt lat="43.69228" lon="5.85919">
        <ele>476</ele>
        <time>2016-05-28T06:54:19.000Z</time>
      </trkpt>
      <trkpt lat="43.69228" lon="5.85919">
        <ele>476</ele>
        <time>2016-05-28T06:54:21.000Z</time>
      </trkpt>
      <trkpt lat="43.69228" lon="5.85919">
        <ele>476</ele>
        <time>2016-05-28T06:54:23.000Z</time>
      </trkpt>
      <trkpt lat="43.69228" lon="5.85919">
        <ele>476</ele>
        <time>2016-05-28T06:54:25.000Z</time>
      </trkpt>
      <trkpt lat="43.69228" lon="5.85919">
        <ele>476</ele>
        <time>2016-05-28T06:54:27.000Z</time>
      </trkpt>
      <trkpt lat="43.69268" lon="5.85972">
        <ele>478</ele>
        <time>2016-05-28T06:54:29.000Z</time>
      </trkpt>
      <trkpt lat="43.6928" lon="5.85981">
        <ele>476</ele>
        <time>2016-05-28T06:54:33.000Z</time>
      </trkpt>
      <trkpt lat="43.69297" lon="5.85993">
        <ele>472</ele>
        <time>2016-05-28T06:54:37.000Z</time>
      </trkpt>
      <trkpt lat="43.69307" lon="5.85996">
        <ele>471</ele>
        <time>2016-05-28T06:54:39.000Z</time>
      </trkpt>
      <trkpt lat="43.69321" lon="5.85998">
        <ele>468</ele>
        <time>2016-05-28T06:54:43.000Z</time>
      </trkpt>
      <trkpt lat="43.69321" lon="5.85998">
        <ele>468</ele>
        <time>2016-05-28T06:54:45.000Z</time>
      </trkpt>
      <trkpt lat="43.69343" lon="5.86018">
        <ele>466</ele>
        <time>2016-05-28T06:54:49.000Z</time>
      </trkpt>
      <trkpt lat="43.69343" lon="5.86018">
        <ele>466</ele>
        <time>2016-05-28T06:54:51.000Z</time>
      </trkpt>
      <trkpt lat="43.69343" lon="5.86018">
        <ele>466</ele>
        <time>2016-05-28T06:54:53.000Z</time>
      </trkpt>
      <trkpt lat="43.69343" lon="5.86018">
        <ele>466</ele>
        <time>2016-05-28T06:54:55.000Z</time>
      </trkpt>
      <trkpt lat="43.69343" lon="5.86018">
        <ele>466</ele>
        <time>2016-05-28T06:54:57.000Z</time>
      </trkpt>
      <trkpt lat="43.69343" lon="5.86018">
        <ele>466</ele>
        <time>2016-05-28T06:54:59.000Z</time>
      </trkpt>
      <trkpt lat="43.69363" lon="5.86031">
        <ele>461</ele>
        <time>2016-05-28T06:55:03.000Z</time>
      </trkpt>
      <trkpt lat="43.69374" lon="5.86042">
        <ele>460</ele>
        <time>2016-05-28T06:55:05.000Z</time>
      </trkpt>
      <trkpt lat="43.69379" lon="5.86055">
        <ele>458</ele>
        <time>2016-05-28T06:55:07.000Z</time>
      </trkpt>
      <trkpt lat="43.6938" lon="5.86069">
        <ele>457</ele>
        <time>2016-05-28T06:55:09.000Z</time>
      </trkpt>
      <trkpt lat="43.69379" lon="5.86083">
        <ele>456</ele>
        <time>2016-05-28T06:55:11.000Z</time>
      </trkpt>
      <trkpt lat="43.69372" lon="5.86108">
        <ele>456</ele>
        <time>2016-05-28T06:55:13.000Z</time>
      </trkpt>
      <trkpt lat="43.69371" lon="5.86122">
        <ele>456</ele>
        <time>2016-05-28T06:55:15.000Z</time>
      </trkpt>
      <trkpt lat="43.69371" lon="5.86122">
        <ele>456</ele>
        <time>2016-05-28T06:55:17.000Z</time>
      </trkpt>
      <trkpt lat="43.69371" lon="5.86122">
        <ele>456</ele>
        <time>2016-05-28T06:55:20.000Z</time>
      </trkpt>
      <trkpt lat="43.69371" lon="5.86122">
        <ele>456</ele>
        <time>2016-05-28T06:55:22.000Z</time>
      </trkpt>
      <trkpt lat="43.69371" lon="5.86122">
        <ele>456</ele>
        <time>2016-05-28T06:55:24.000Z</time>
      </trkpt>
      <trkpt lat="43.69391" lon="5.86143">
        <ele>454</ele>
        <time>2016-05-28T06:56:40.000Z</time>
      </trkpt>
      <trkpt lat="43.69401" lon="5.86148">
        <ele>453</ele>
        <time>2016-05-28T06:56:43.000Z</time>
      </trkpt>
      <trkpt lat="43.69401" lon="5.86148">
        <ele>453</ele>
        <time>2016-05-28T06:56:45.000Z</time>
      </trkpt>
      <trkpt lat="43.69401" lon="5.86148">
        <ele>453</ele>
        <time>2016-05-28T06:56:47.000Z</time>
      </trkpt>
      <trkpt lat="43.69401" lon="5.86148">
        <ele>453</ele>
        <time>2016-05-28T06:56:49.000Z</time>
      </trkpt>
      <trkpt lat="43.69401" lon="5.86148">
        <ele>453</ele>
        <time>2016-05-28T06:56:51.000Z</time>
      </trkpt>
      <trkpt lat="43.69401" lon="5.86148">
        <ele>453</ele>
        <time>2016-05-28T06:56:53.000Z</time>
      </trkpt>
      <trkpt lat="43.69401" lon="5.86148">
        <ele>453</ele>
        <time>2016-05-28T06:56:55.000Z</time>
      </trkpt>
      <trkpt lat="43.69401" lon="5.86148">
        <ele>453</ele>
        <time>2016-05-28T06:57:01.000Z</time>
      </trkpt>
      <trkpt lat="43.69401" lon="5.86148">
        <ele>453</ele>
        <time>2016-05-28T06:57:03.000Z</time>
      </trkpt>
      <trkpt lat="43.69464" lon="5.86149">
        <ele>451</ele>
        <time>2016-05-28T06:57:07.000Z</time>
      </trkpt>
      <trkpt lat="43.69475" lon="5.8614">
        <ele>451</ele>
        <time>2016-05-28T06:57:11.000Z</time>
      </trkpt>
      <trkpt lat="43.69484" lon="5.86129">
        <ele>451</ele>
        <time>2016-05-28T06:57:15.000Z</time>
      </trkpt>
      <trkpt lat="43.69484" lon="5.86129">
        <ele>451</ele>
        <time>2016-05-28T06:57:17.000Z</time>
      </trkpt>
      <trkpt lat="43.69484" lon="5.86129">
        <ele>451</ele>
        <time>2016-05-28T06:57:19.000Z</time>
      </trkpt>
      <trkpt lat="43.69501" lon="5.86138">
        <ele>449</ele>
        <time>2016-05-28T06:57:23.000Z</time>
      </trkpt>
      <trkpt lat="43.69505" lon="5.86158">
        <ele>449</ele>
        <time>2016-05-28T06:57:27.000Z</time>
      </trkpt>
      <trkpt lat="43.69506" lon="5.86175">
        <ele>447</ele>
        <time>2016-05-28T06:57:31.000Z</time>
      </trkpt>
      <trkpt lat="43.69506" lon="5.86175">
        <ele>447</ele>
        <time>2016-05-28T06:57:33.000Z</time>
      </trkpt>
      <trkpt lat="43.69506" lon="5.86175">
        <ele>447</ele>
        <time>2016-05-28T06:57:35.000Z</time>
      </trkpt>
      <trkpt lat="43.69506" lon="5.86175">
        <ele>447</ele>
        <time>2016-05-28T06:57:37.000Z</time>
      </trkpt>
      <trkpt lat="43.69506" lon="5.86175">
        <ele>447</ele>
        <time>2016-05-28T06:57:39.000Z</time>
      </trkpt>
      <trkpt lat="43.69506" lon="5.86175">
        <ele>447</ele>
        <time>2016-05-28T06:57:41.000Z</time>
      </trkpt>
      <trkpt lat="43.69532" lon="5.86211">
        <ele>452</ele>
        <time>2016-05-28T06:57:47.000Z</time>
      </trkpt>
      <trkpt lat="43.69532" lon="5.86211">
        <ele>452</ele>
        <time>2016-05-28T06:57:49.000Z</time>
      </trkpt>
      <trkpt lat="43.69532" lon="5.86211">
        <ele>452</ele>
        <time>2016-05-28T06:57:51.000Z</time>
      </trkpt>
      <trkpt lat="43.69532" lon="5.86211">
        <ele>452</ele>
        <time>2016-05-28T06:57:53.000Z</time>
      </trkpt>
      <trkpt lat="43.69532" lon="5.86211">
        <ele>452</ele>
        <time>2016-05-28T06:57:55.000Z</time>
      </trkpt>
      <trkpt lat="43.69532" lon="5.86211">
        <ele>452</ele>
        <time>2016-05-28T06:57:57.000Z</time>
      </trkpt>
      <trkpt lat="43.69532" lon="5.86211">
        <ele>452</ele>
        <time>2016-05-28T06:57:59.000Z</time>
      </trkpt>
      <trkpt lat="43.69532" lon="5.86211">
        <ele>452</ele>
        <time>2016-05-28T06:58:01.000Z</time>
      </trkpt>
      <trkpt lat="43.69532" lon="5.86211">
        <ele>452</ele>
        <time>2016-05-28T06:58:03.000Z</time>
      </trkpt>
      <trkpt lat="43.69542" lon="5.86228">
        <ele>457</ele>
        <time>2016-05-28T06:58:07.000Z</time>
      </trkpt>
      <trkpt lat="43.69549" lon="5.86238">
        <ele>458</ele>
        <time>2016-05-28T06:58:09.000Z</time>
      </trkpt>
      <trkpt lat="43.69553" lon="5.86244">
        <ele>458</ele>
        <time>2016-05-28T06:58:11.000Z</time>
      </trkpt>
      <trkpt lat="43.69553" lon="5.86244">
        <ele>458</ele>
        <time>2016-05-28T06:58:13.000Z</time>
      </trkpt>
      <trkpt lat="43.69553" lon="5.86244">
        <ele>458</ele>
        <time>2016-05-28T06:58:15.000Z</time>
      </trkpt>
      <trkpt lat="43.69561" lon="5.86255">
        <ele>459</ele>
        <time>2016-05-28T06:58:21.000Z</time>
      </trkpt>
      <trkpt lat="43.69566" lon="5.86261">
        <ele>459</ele>
        <time>2016-05-28T06:58:23.000Z</time>
      </trkpt>
      <trkpt lat="43.69571" lon="5.86265">
        <ele>459</ele>
        <time>2016-05-28T06:58:25.000Z</time>
      </trkpt>
      <trkpt lat="43.69576" lon="5.86268">
        <ele>459</ele>
        <time>2016-05-28T06:58:29.000Z</time>
      </trkpt>
      <trkpt lat="43.6958" lon="5.86271">
        <ele>460</ele>
        <time>2016-05-28T06:58:31.000Z</time>
      </trkpt>
      <trkpt lat="43.69586" lon="5.86273">
        <ele>460</ele>
        <time>2016-05-28T06:58:35.000Z</time>
      </trkpt>
      <trkpt lat="43.6959" lon="5.86275">
        <ele>460</ele>
        <time>2016-05-28T06:58:37.000Z</time>
      </trkpt>
      <trkpt lat="43.69596" lon="5.86277">
        <ele>461</ele>
        <time>2016-05-28T06:58:41.000Z</time>
      </trkpt>
      <trkpt lat="43.69602" lon="5.86279">
        <ele>461</ele>
        <time>2016-05-28T06:58:45.000Z</time>
      </trkpt>
      <trkpt lat="43.69606" lon="5.8628">
        <ele>461</ele>
        <time>2016-05-28T06:58:47.000Z</time>
      </trkpt>
      <trkpt lat="43.69612" lon="5.86281">
        <ele>461</ele>
        <time>2016-05-28T06:58:51.000Z</time>
      </trkpt>
      <trkpt lat="43.69617" lon="5.86283">
        <ele>462</ele>
        <time>2016-05-28T06:58:55.000Z</time>
      </trkpt>
      <trkpt lat="43.69622" lon="5.86284">
        <ele>464</ele>
        <time>2016-05-28T06:58:59.000Z</time>
      </trkpt>
      <trkpt lat="43.69628" lon="5.86282">
        <ele>464</ele>
        <time>2016-05-28T06:59:03.000Z</time>
      </trkpt>
      <trkpt lat="43.69633" lon="5.86279">
        <ele>464</ele>
        <time>2016-05-28T06:59:07.000Z</time>
      </trkpt>
      <trkpt lat="43.69637" lon="5.86277">
        <ele>464</ele>
        <time>2016-05-28T06:59:09.000Z</time>
      </trkpt>
      <trkpt lat="43.69642" lon="5.86274">
        <ele>465</ele>
        <time>2016-05-28T06:59:13.000Z</time>
      </trkpt>
      <trkpt lat="43.69647" lon="5.86272">
        <ele>464</ele>
        <time>2016-05-28T06:59:17.000Z</time>
      </trkpt>
      <trkpt lat="43.69651" lon="5.8627">
        <ele>465</ele>
        <time>2016-05-28T06:59:19.000Z</time>
      </trkpt>
      <trkpt lat="43.69657" lon="5.86267">
        <ele>465</ele>
        <time>2016-05-28T06:59:23.000Z</time>
      </trkpt>
      <trkpt lat="43.69661" lon="5.86265">
        <ele>465</ele>
        <time>2016-05-28T06:59:25.000Z</time>
      </trkpt>
      <trkpt lat="43.69666" lon="5.86261">
        <ele>466</ele>
        <time>2016-05-28T06:59:29.000Z</time>
      </trkpt>
      <trkpt lat="43.6967" lon="5.86259">
        <ele>467</ele>
        <time>2016-05-28T06:59:31.000Z</time>
      </trkpt>
      <trkpt lat="43.69676" lon="5.86259">
        <ele>468</ele>
        <time>2016-05-28T06:59:35.000Z</time>
      </trkpt>
      <trkpt lat="43.69676" lon="5.86259">
        <ele>468</ele>
        <time>2016-05-28T06:59:37.000Z</time>
      </trkpt>
      <trkpt lat="43.69676" lon="5.86259">
        <ele>468</ele>
        <time>2016-05-28T06:59:39.000Z</time>
      </trkpt>
      <trkpt lat="43.69676" lon="5.86259">
        <ele>468</ele>
        <time>2016-05-28T06:59:41.000Z</time>
      </trkpt>
      <trkpt lat="43.69676" lon="5.86259">
        <ele>468</ele>
        <time>2016-05-28T06:59:43.000Z</time>
      </trkpt>
      <trkpt lat="43.69676" lon="5.86259">
        <ele>468</ele>
        <time>2016-05-28T06:59:45.000Z</time>
      </trkpt>
      <trkpt lat="43.69676" lon="5.86259">
        <ele>468</ele>
        <time>2016-05-28T06:59:47.000Z</time>
      </trkpt>
      <trkpt lat="43.69676" lon="5.86259">
        <ele>468</ele>
        <time>2016-05-28T06:59:49.000Z</time>
      </trkpt>
      <trkpt lat="43.69694" lon="5.8628">
        <ele>471</ele>
        <time>2016-05-28T07:00:11.000Z</time>
      </trkpt>
      <trkpt lat="43.69694" lon="5.8628">
        <ele>471</ele>
        <time>2016-05-28T07:00:17.000Z</time>
      </trkpt>
      <trkpt lat="43.69705" lon="5.86308">
        <ele>475</ele>
        <time>2016-05-28T07:00:27.000Z</time>
      </trkpt>
      <trkpt lat="43.6971" lon="5.8632">
        <ele>476</ele>
        <time>2016-05-28T07:00:33.000Z</time>
      </trkpt>
      <trkpt lat="43.69716" lon="5.86332">
        <ele>476</ele>
        <time>2016-05-28T07:00:39.000Z</time>
      </trkpt>
      <trkpt lat="43.6972" lon="5.86344">
        <ele>478</ele>
        <time>2016-05-28T07:00:45.000Z</time>
      </trkpt>
      <trkpt lat="43.69723" lon="5.86356">
        <ele>479</ele>
        <time>2016-05-28T07:00:51.000Z</time>
      </trkpt>
      <trkpt lat="43.69725" lon="5.86372">
        <ele>480</ele>
        <time>2016-05-28T07:00:59.000Z</time>
      </trkpt>
      <trkpt lat="43.69731" lon="5.86382">
        <ele>479</ele>
        <time>2016-05-28T07:01:05.000Z</time>
      </trkpt>
      <trkpt lat="43.69735" lon="5.86396">
        <ele>479</ele>
        <time>2016-05-28T07:01:09.000Z</time>
      </trkpt>
      <trkpt lat="43.69733" lon="5.86414">
        <ele>479</ele>
        <time>2016-05-28T07:01:13.000Z</time>
      </trkpt>
      <trkpt lat="43.69727" lon="5.86428">
        <ele>479</ele>
        <time>2016-05-28T07:01:17.000Z</time>
      </trkpt>
      <trkpt lat="43.69727" lon="5.86428">
        <ele>479</ele>
        <time>2016-05-28T07:01:19.000Z</time>
      </trkpt>
      <trkpt lat="43.69727" lon="5.86428">
        <ele>479</ele>
        <time>2016-05-28T07:01:21.000Z</time>
      </trkpt>
      <trkpt lat="43.69727" lon="5.86428">
        <ele>479</ele>
        <time>2016-05-28T07:01:23.000Z</time>
      </trkpt>
      <trkpt lat="43.69707" lon="5.86464">
        <ele>477</ele>
        <time>2016-05-28T07:01:27.000Z</time>
      </trkpt>
      <trkpt lat="43.69706" lon="5.86477">
        <ele>477</ele>
        <time>2016-05-28T07:01:29.000Z</time>
      </trkpt>
      <trkpt lat="43.69701" lon="5.86495">
        <ele>478</ele>
        <time>2016-05-28T07:01:33.000Z</time>
      </trkpt>
      <trkpt lat="43.69701" lon="5.86495">
        <ele>478</ele>
        <time>2016-05-28T07:01:35.000Z</time>
      </trkpt>
      <trkpt lat="43.69701" lon="5.86495">
        <ele>478</ele>
        <time>2016-05-28T07:01:37.000Z</time>
      </trkpt>
      <trkpt lat="43.69701" lon="5.86495">
        <ele>478</ele>
        <time>2016-05-28T07:01:39.000Z</time>
      </trkpt>
      <trkpt lat="43.69701" lon="5.86495">
        <ele>478</ele>
        <time>2016-05-28T07:01:41.000Z</time>
      </trkpt>
      <trkpt lat="43.69701" lon="5.86495">
        <ele>478</ele>
        <time>2016-05-28T07:01:43.000Z</time>
      </trkpt>
      <trkpt lat="43.69701" lon="5.86495">
        <ele>478</ele>
        <time>2016-05-28T07:01:45.000Z</time>
      </trkpt>
      <trkpt lat="43.69701" lon="5.86495">
        <ele>478</ele>
        <time>2016-05-28T07:01:47.000Z</time>
      </trkpt>
      <trkpt lat="43.69701" lon="5.86495">
        <ele>478</ele>
        <time>2016-05-28T07:01:49.000Z</time>
      </trkpt>
      <trkpt lat="43.69683" lon="5.86531">
        <ele>483</ele>
        <time>2016-05-28T07:01:57.000Z</time>
      </trkpt>
      <trkpt lat="43.69683" lon="5.86531">
        <ele>483</ele>
        <time>2016-05-28T07:01:59.000Z</time>
      </trkpt>
      <trkpt lat="43.69683" lon="5.86531">
        <ele>483</ele>
        <time>2016-05-28T07:02:01.000Z</time>
      </trkpt>
      <trkpt lat="43.69683" lon="5.86531">
        <ele>483</ele>
        <time>2016-05-28T07:02:03.000Z</time>
      </trkpt>
      <trkpt lat="43.69683" lon="5.86531">
        <ele>483</ele>
        <time>2016-05-28T07:02:05.000Z</time>
      </trkpt>
      <trkpt lat="43.69683" lon="5.86531">
        <ele>483</ele>
        <time>2016-05-28T07:02:07.000Z</time>
      </trkpt>
      <trkpt lat="43.69683" lon="5.86531">
        <ele>483</ele>
        <time>2016-05-28T07:02:09.000Z</time>
      </trkpt>
      <trkpt lat="43.69683" lon="5.86531">
        <ele>483</ele>
        <time>2016-05-28T07:02:11.000Z</time>
      </trkpt>
      <trkpt lat="43.69683" lon="5.86531">
        <ele>483</ele>
        <time>2016-05-28T07:02:13.000Z</time>
      </trkpt>
      <trkpt lat="43.69683" lon="5.86531">
        <ele>483</ele>
        <time>2016-05-28T07:02:15.000Z</time>
      </trkpt>
      <trkpt lat="43.69683" lon="5.86531">
        <ele>483</ele>
        <time>2016-05-28T07:02:17.000Z</time>
      </trkpt>
      <trkpt lat="43.69683" lon="5.86531">
        <ele>483</ele>
        <time>2016-05-28T07:02:19.000Z</time>
      </trkpt>
      <trkpt lat="43.69683" lon="5.86531">
        <ele>483</ele>
        <time>2016-05-28T07:02:21.000Z</time>
      </trkpt>
      <trkpt lat="43.69683" lon="5.86531">
        <ele>483</ele>
        <time>2016-05-28T07:02:23.000Z</time>
      </trkpt>
      <trkpt lat="43.69683" lon="5.86531">
        <ele>483</ele>
        <time>2016-05-28T07:02:25.000Z</time>
      </trkpt>
      <trkpt lat="43.69683" lon="5.86531">
        <ele>483</ele>
        <time>2016-05-28T07:02:27.000Z</time>
      </trkpt>
      <trkpt lat="43.69683" lon="5.86531">
        <ele>483</ele>
        <time>2016-05-28T07:02:29.000Z</time>
      </trkpt>
      <trkpt lat="43.69683" lon="5.86531">
        <ele>483</ele>
        <time>2016-05-28T07:02:31.000Z</time>
      </trkpt>
      <trkpt lat="43.69667" lon="5.86612">
        <ele>491</ele>
        <time>2016-05-28T07:02:33.000Z</time>
      </trkpt>
      <trkpt lat="43.69667" lon="5.86627">
        <ele>492</ele>
        <time>2016-05-28T07:02:39.000Z</time>
      </trkpt>
      <trkpt lat="43.69671" lon="5.86641">
        <ele>493</ele>
        <time>2016-05-28T07:02:45.000Z</time>
      </trkpt>
      <trkpt lat="43.69671" lon="5.86641">
        <ele>493</ele>
        <time>2016-05-28T07:02:51.000Z</time>
      </trkpt>
      <trkpt lat="43.69671" lon="5.86641">
        <ele>493</ele>
        <time>2016-05-28T07:02:53.000Z</time>
      </trkpt>
      <trkpt lat="43.69671" lon="5.86641">
        <ele>493</ele>
        <time>2016-05-28T07:02:55.000Z</time>
      </trkpt>
      <trkpt lat="43.69671" lon="5.86641">
        <ele>493</ele>
        <time>2016-05-28T07:02:57.000Z</time>
      </trkpt>
      <trkpt lat="43.69671" lon="5.86641">
        <ele>493</ele>
        <time>2016-05-28T07:02:59.000Z</time>
      </trkpt>
      <trkpt lat="43.69671" lon="5.86641">
        <ele>493</ele>
        <time>2016-05-28T07:03:01.000Z</time>
      </trkpt>
      <trkpt lat="43.69671" lon="5.86641">
        <ele>493</ele>
        <time>2016-05-28T07:03:03.000Z</time>
      </trkpt>
      <trkpt lat="43.69671" lon="5.86641">
        <ele>493</ele>
        <time>2016-05-28T07:03:05.000Z</time>
      </trkpt>
      <trkpt lat="43.69671" lon="5.86641">
        <ele>493</ele>
        <time>2016-05-28T07:03:07.000Z</time>
      </trkpt>
      <trkpt lat="43.69671" lon="5.86641">
        <ele>493</ele>
        <time>2016-05-28T07:03:09.000Z</time>
      </trkpt>
      <trkpt lat="43.69671" lon="5.86641">
        <ele>493</ele>
        <time>2016-05-28T07:03:11.000Z</time>
      </trkpt>
      <trkpt lat="43.69671" lon="5.86641">
        <ele>493</ele>
        <time>2016-05-28T07:03:13.000Z</time>
      </trkpt>
      <trkpt lat="43.69671" lon="5.86641">
        <ele>493</ele>
        <time>2016-05-28T07:03:15.000Z</time>
      </trkpt>
      <trkpt lat="43.69671" lon="5.86641">
        <ele>493</ele>
        <time>2016-05-28T07:03:17.000Z</time>
      </trkpt>
      <trkpt lat="43.69671" lon="5.86641">
        <ele>493</ele>
        <time>2016-05-28T07:03:19.000Z</time>
      </trkpt>
      <trkpt lat="43.69671" lon="5.86641">
        <ele>493</ele>
        <time>2016-05-28T07:03:21.000Z</time>
      </trkpt>
      <trkpt lat="43.69671" lon="5.86641">
        <ele>493</ele>
        <time>2016-05-28T07:03:23.000Z</time>
      </trkpt>
      <trkpt lat="43.69671" lon="5.86641">
        <ele>493</ele>
        <time>2016-05-28T07:03:25.000Z</time>
      </trkpt>
      <trkpt lat="43.69671" lon="5.86641">
        <ele>493</ele>
        <time>2016-05-28T07:03:27.000Z</time>
      </trkpt>
      <trkpt lat="43.69671" lon="5.86641">
        <ele>493</ele>
        <time>2016-05-28T07:03:29.000Z</time>
      </trkpt>
      <trkpt lat="43.69671" lon="5.86641">
        <ele>493</ele>
        <time>2016-05-28T07:03:31.000Z</time>
      </trkpt>
      <trkpt lat="43.69694" lon="5.86685">
        <ele>500</ele>
        <time>2016-05-28T07:03:35.000Z</time>
      </trkpt>
      <trkpt lat="43.69706" lon="5.8671">
        <ele>500</ele>
        <time>2016-05-28T07:03:37.000Z</time>
      </trkpt>
      <trkpt lat="43.69713" lon="5.86724">
        <ele>501</ele>
        <time>2016-05-28T07:03:39.000Z</time>
      </trkpt>
      <trkpt lat="43.69713" lon="5.86724">
        <ele>501</ele>
        <time>2016-05-28T07:03:41.000Z</time>
      </trkpt>
      <trkpt lat="43.69713" lon="5.86724">
        <ele>501</ele>
        <time>2016-05-28T07:03:43.000Z</time>
      </trkpt>
      <trkpt lat="43.69713" lon="5.86724">
        <ele>501</ele>
        <time>2016-05-28T07:03:45.000Z</time>
      </trkpt>
      <trkpt lat="43.69733" lon="5.86743">
        <ele>497</ele>
        <time>2016-05-28T07:04:06.000Z</time>
      </trkpt>
      <trkpt lat="43.69733" lon="5.86743">
        <ele>497</ele>
        <time>2016-05-28T07:04:12.000Z</time>
      </trkpt>
      <trkpt lat="43.69733" lon="5.86743">
        <ele>497</ele>
        <time>2016-05-28T07:04:16.000Z</time>
      </trkpt>
      <trkpt lat="43.69733" lon="5.86743">
        <ele>497</ele>
        <time>2016-05-28T07:04:18.000Z</time>
      </trkpt>
      <trkpt lat="43.69733" lon="5.86743">
        <ele>497</ele>
        <time>2016-05-28T07:04:20.000Z</time>
      </trkpt>
      <trkpt lat="43.69756" lon="5.86762">
        <ele>503</ele>
        <time>2016-05-28T07:04:24.000Z</time>
      </trkpt>
      <trkpt lat="43.69765" lon="5.86769">
        <ele>503</ele>
        <time>2016-05-28T07:04:30.000Z</time>
      </trkpt>
      <trkpt lat="43.69765" lon="5.86769">
        <ele>503</ele>
        <time>2016-05-28T07:04:32.000Z</time>
      </trkpt>
      <trkpt lat="43.69765" lon="5.86769">
        <ele>503</ele>
        <time>2016-05-28T07:04:34.000Z</time>
      </trkpt>
      <trkpt lat="43.69779" lon="5.86779">
        <ele>503</ele>
        <time>2016-05-28T07:04:40.000Z</time>
      </trkpt>
      <trkpt lat="43.69789" lon="5.86782">
        <ele>503</ele>
        <time>2016-05-28T07:04:46.000Z</time>
      </trkpt>
      <trkpt lat="43.69799" lon="5.86787">
        <ele>502</ele>
        <time>2016-05-28T07:04:52.000Z</time>
      </trkpt>
      <trkpt lat="43.69809" lon="5.86785">
        <ele>503</ele>
        <time>2016-05-28T07:04:58.000Z</time>
      </trkpt>
      <trkpt lat="43.69819" lon="5.86776">
        <ele>503</ele>
        <time>2016-05-28T07:05:04.000Z</time>
      </trkpt>
      <trkpt lat="43.6983" lon="5.86769">
        <ele>503</ele>
        <time>2016-05-28T07:05:10.000Z</time>
      </trkpt>
      <trkpt lat="43.6983" lon="5.86769">
        <ele>503</ele>
        <time>2016-05-28T07:05:12.000Z</time>
      </trkpt>
      <trkpt lat="43.6983" lon="5.86769">
        <ele>503</ele>
        <time>2016-05-28T07:05:14.000Z</time>
      </trkpt>
      <trkpt lat="43.6983" lon="5.86769">
        <ele>503</ele>
        <time>2016-05-28T07:05:16.000Z</time>
      </trkpt>
      <trkpt lat="43.6983" lon="5.86769">
        <ele>503</ele>
        <time>2016-05-28T07:05:18.000Z</time>
      </trkpt>
      <trkpt lat="43.6983" lon="5.86769">
        <ele>503</ele>
        <time>2016-05-28T07:05:20.000Z</time>
      </trkpt>
      <trkpt lat="43.6983" lon="5.86769">
        <ele>503</ele>
        <time>2016-05-28T07:05:22.000Z</time>
      </trkpt>
      <trkpt lat="43.6983" lon="5.86769">
        <ele>503</ele>
        <time>2016-05-28T07:05:24.000Z</time>
      </trkpt>
      <trkpt lat="43.69847" lon="5.86774">
        <ele>504</ele>
        <time>2016-05-28T07:05:28.000Z</time>
      </trkpt>
      <trkpt lat="43.69858" lon="5.86778">
        <ele>504</ele>
        <time>2016-05-28T07:05:30.000Z</time>
      </trkpt>
      <trkpt lat="43.69866" lon="5.86781">
        <ele>504</ele>
        <time>2016-05-28T07:05:32.000Z</time>
      </trkpt>
      <trkpt lat="43.69872" lon="5.86783">
        <ele>504</ele>
        <time>2016-05-28T07:05:34.000Z</time>
      </trkpt>
      <trkpt lat="43.69877" lon="5.86785">
        <ele>502</ele>
        <time>2016-05-28T07:05:36.000Z</time>
      </trkpt>
      <trkpt lat="43.69887" lon="5.86786">
        <ele>501</ele>
        <time>2016-05-28T07:05:38.000Z</time>
      </trkpt>
      <trkpt lat="43.69897" lon="5.86788">
        <ele>501</ele>
        <time>2016-05-28T07:05:42.000Z</time>
      </trkpt>
      <trkpt lat="43.69907" lon="5.86793">
        <ele>502</ele>
        <time>2016-05-28T07:05:46.000Z</time>
      </trkpt>
      <trkpt lat="43.69917" lon="5.86796">
        <ele>502</ele>
        <time>2016-05-28T07:05:50.000Z</time>
      </trkpt>
      <trkpt lat="43.6993" lon="5.86799">
        <ele>502</ele>
        <time>2016-05-28T07:05:54.000Z</time>
      </trkpt>
      <trkpt lat="43.69942" lon="5.86802">
        <ele>503</ele>
        <time>2016-05-28T07:05:58.000Z</time>
      </trkpt>
      <trkpt lat="43.69953" lon="5.86808">
        <ele>504</ele>
        <time>2016-05-28T07:06:02.000Z</time>
      </trkpt>
      <trkpt lat="43.69953" lon="5.86808">
        <ele>504</ele>
        <time>2016-05-28T07:06:04.000Z</time>
      </trkpt>
      <trkpt lat="43.69953" lon="5.86808">
        <ele>504</ele>
        <time>2016-05-28T07:06:06.000Z</time>
      </trkpt>
      <trkpt lat="43.69953" lon="5.86808">
        <ele>504</ele>
        <time>2016-05-28T07:06:08.000Z</time>
      </trkpt>
      <trkpt lat="43.69953" lon="5.86808">
        <ele>504</ele>
        <time>2016-05-28T07:06:10.000Z</time>
      </trkpt>
      <trkpt lat="43.69953" lon="5.86808">
        <ele>504</ele>
        <time>2016-05-28T07:06:12.000Z</time>
      </trkpt>
      <trkpt lat="43.69953" lon="5.86808">
        <ele>504</ele>
        <time>2016-05-28T07:06:14.000Z</time>
      </trkpt>
      <trkpt lat="43.69972" lon="5.86853">
        <ele>506</ele>
        <time>2016-05-28T07:06:16.000Z</time>
      </trkpt>
      <trkpt lat="43.69978" lon="5.86869">
        <ele>507</ele>
        <time>2016-05-28T07:06:20.000Z</time>
      </trkpt>
      <trkpt lat="43.69984" lon="5.86883">
        <ele>506</ele>
        <time>2016-05-28T07:06:24.000Z</time>
      </trkpt>
      <trkpt lat="43.69984" lon="5.86883">
        <ele>506</ele>
        <time>2016-05-28T07:06:26.000Z</time>
      </trkpt>
      <trkpt lat="43.69984" lon="5.86883">
        <ele>506</ele>
        <time>2016-05-28T07:06:28.000Z</time>
      </trkpt>
      <trkpt lat="43.69998" lon="5.86912">
        <ele>506</ele>
        <time>2016-05-28T07:06:32.000Z</time>
      </trkpt>
      <trkpt lat="43.70008" lon="5.86923">
        <ele>507</ele>
        <time>2016-05-28T07:06:36.000Z</time>
      </trkpt>
      <trkpt lat="43.70008" lon="5.86923">
        <ele>507</ele>
        <time>2016-05-28T07:06:38.000Z</time>
      </trkpt>
      <trkpt lat="43.70008" lon="5.86923">
        <ele>507</ele>
        <time>2016-05-28T07:06:40.000Z</time>
      </trkpt>
      <trkpt lat="43.70008" lon="5.86923">
        <ele>507</ele>
        <time>2016-05-28T07:06:42.000Z</time>
      </trkpt>
      <trkpt lat="43.70008" lon="5.86923">
        <ele>507</ele>
        <time>2016-05-28T07:06:44.000Z</time>
      </trkpt>
      <trkpt lat="43.70012" lon="5.86943">
        <ele>509</ele>
        <time>2016-05-28T07:07:44.000Z</time>
      </trkpt>
      <trkpt lat="43.70009" lon="5.86959">
        <ele>512</ele>
        <time>2016-05-28T07:07:50.000Z</time>
      </trkpt>
      <trkpt lat="43.70006" lon="5.86973">
        <ele>511</ele>
        <time>2016-05-28T07:07:54.000Z</time>
      </trkpt>
      <trkpt lat="43.70004" lon="5.86988">
        <ele>512</ele>
        <time>2016-05-28T07:07:58.000Z</time>
      </trkpt>
      <trkpt lat="43.70003" lon="5.87003">
        <ele>512</ele>
        <time>2016-05-28T07:08:02.000Z</time>
      </trkpt>
      <trkpt lat="43.7" lon="5.87018">
        <ele>514</ele>
        <time>2016-05-28T07:08:06.000Z</time>
      </trkpt>
      <trkpt lat="43.69999" lon="5.87034">
        <ele>514</ele>
        <time>2016-05-28T07:08:10.000Z</time>
      </trkpt>
      <trkpt lat="43.69996" lon="5.8705">
        <ele>513</ele>
        <time>2016-05-28T07:08:14.000Z</time>
      </trkpt>
      <trkpt lat="43.69994" lon="5.87067">
        <ele>513</ele>
        <time>2016-05-28T07:08:18.000Z</time>
      </trkpt>
      <trkpt lat="43.69993" lon="5.87083">
        <ele>513</ele>
        <time>2016-05-28T07:08:22.000Z</time>
      </trkpt>
      <trkpt lat="43.69993" lon="5.87099">
        <ele>514</ele>
        <time>2016-05-28T07:08:26.000Z</time>
      </trkpt>
      <trkpt lat="43.69994" lon="5.87114">
        <ele>514</ele>
        <time>2016-05-28T07:08:30.000Z</time>
      </trkpt>
      <trkpt lat="43.69994" lon="5.87114">
        <ele>514</ele>
        <time>2016-05-28T07:08:32.000Z</time>
      </trkpt>
      <trkpt lat="43.69994" lon="5.87114">
        <ele>514</ele>
        <time>2016-05-28T07:08:34.000Z</time>
      </trkpt>
      <trkpt lat="43.69994" lon="5.87114">
        <ele>514</ele>
        <time>2016-05-28T07:08:36.000Z</time>
      </trkpt>
      <trkpt lat="43.69995" lon="5.87152">
        <ele>514</ele>
        <time>2016-05-28T07:08:40.000Z</time>
      </trkpt>
      <trkpt lat="43.70002" lon="5.87171">
        <ele>514</ele>
        <time>2016-05-28T07:08:44.000Z</time>
      </trkpt>
      <trkpt lat="43.70007" lon="5.87187">
        <ele>515</ele>
        <time>2016-05-28T07:08:48.000Z</time>
      </trkpt>
      <trkpt lat="43.70007" lon="5.87187">
        <ele>515</ele>
        <time>2016-05-28T07:08:50.000Z</time>
      </trkpt>
      <trkpt lat="43.70013" lon="5.87203">
        <ele>513</ele>
        <time>2016-05-28T07:08:52.000Z</time>
      </trkpt>
      <trkpt lat="43.70016" lon="5.8722">
        <ele>514</ele>
        <time>2016-05-28T07:08:56.000Z</time>
      </trkpt>
      <trkpt lat="43.70018" lon="5.87237">
        <ele>513</ele>
        <time>2016-05-28T07:09:00.000Z</time>
      </trkpt>
      <trkpt lat="43.70018" lon="5.87237">
        <ele>513</ele>
        <time>2016-05-28T07:09:02.000Z</time>
      </trkpt>
      <trkpt lat="43.70018" lon="5.87237">
        <ele>513</ele>
        <time>2016-05-28T07:09:04.000Z</time>
      </trkpt>
      <trkpt lat="43.70018" lon="5.87237">
        <ele>513</ele>
        <time>2016-05-28T07:09:06.000Z</time>
      </trkpt>
      <trkpt lat="43.70018" lon="5.87237">
        <ele>513</ele>
        <time>2016-05-28T07:09:08.000Z</time>
      </trkpt>
      <trkpt lat="43.70018" lon="5.87237">
        <ele>513</ele>
        <time>2016-05-28T07:09:10.000Z</time>
      </trkpt>
      <trkpt lat="43.70018" lon="5.87237">
        <ele>513</ele>
        <time>2016-05-28T07:09:12.000Z</time>
      </trkpt>
      <trkpt lat="43.69999" lon="5.87291">
        <ele>515</ele>
        <time>2016-05-28T07:09:16.000Z</time>
      </trkpt>
      <trkpt lat="43.69992" lon="5.87309">
        <ele>514</ele>
        <time>2016-05-28T07:09:20.000Z</time>
      </trkpt>
      <trkpt lat="43.69989" lon="5.87317">
        <ele>514</ele>
        <time>2016-05-28T07:09:24.000Z</time>
      </trkpt>
      <trkpt lat="43.69985" lon="5.87326">
        <ele>514</ele>
        <time>2016-05-28T07:09:26.000Z</time>
      </trkpt>
      <trkpt lat="43.69982" lon="5.87333">
        <ele>516</ele>
        <time>2016-05-28T07:09:28.000Z</time>
      </trkpt>
      <trkpt lat="43.69978" lon="5.87341">
        <ele>516</ele>
        <time>2016-05-28T07:09:30.000Z</time>
      </trkpt>
      <trkpt lat="43.69978" lon="5.87341">
        <ele>516</ele>
        <time>2016-05-28T07:09:32.000Z</time>
      </trkpt>
      <trkpt lat="43.69978" lon="5.87341">
        <ele>516</ele>
        <time>2016-05-28T07:09:34.000Z</time>
      </trkpt>
      <trkpt lat="43.69978" lon="5.87341">
        <ele>516</ele>
        <time>2016-05-28T07:09:36.000Z</time>
      </trkpt>
      <trkpt lat="43.69978" lon="5.87341">
        <ele>516</ele>
        <time>2016-05-28T07:09:38.000Z</time>
      </trkpt>
      <trkpt lat="43.69978" lon="5.87341">
        <ele>516</ele>
        <time>2016-05-28T07:09:40.000Z</time>
      </trkpt>
      <trkpt lat="43.69978" lon="5.87341">
        <ele>516</ele>
        <time>2016-05-28T07:09:42.000Z</time>
      </trkpt>
      <trkpt lat="43.69978" lon="5.87341">
        <ele>516</ele>
        <time>2016-05-28T07:09:44.000Z</time>
      </trkpt>
      <trkpt lat="43.69963" lon="5.87376">
        <ele>514</ele>
        <time>2016-05-28T07:09:46.000Z</time>
      </trkpt>
      <trkpt lat="43.69955" lon="5.87399">
        <ele>514</ele>
        <time>2016-05-28T07:09:48.000Z</time>
      </trkpt>
      <trkpt lat="43.69949" lon="5.87416">
        <ele>515</ele>
        <time>2016-05-28T07:09:50.000Z</time>
      </trkpt>
      <trkpt lat="43.69945" lon="5.87429">
        <ele>514</ele>
        <time>2016-05-28T07:09:52.000Z</time>
      </trkpt>
      <trkpt lat="43.69942" lon="5.87441">
        <ele>515</ele>
        <time>2016-05-28T07:09:54.000Z</time>
      </trkpt>
      <trkpt lat="43.69937" lon="5.8746">
        <ele>517</ele>
        <time>2016-05-28T07:09:56.000Z</time>
      </trkpt>
      <trkpt lat="43.69937" lon="5.8746">
        <ele>517</ele>
        <time>2016-05-28T07:09:58.000Z</time>
      </trkpt>
      <trkpt lat="43.69937" lon="5.8746">
        <ele>517</ele>
        <time>2016-05-28T07:10:00.000Z</time>
      </trkpt>
      <trkpt lat="43.69937" lon="5.8746">
        <ele>517</ele>
        <time>2016-05-28T07:10:02.000Z</time>
      </trkpt>
      <trkpt lat="43.69937" lon="5.8746">
        <ele>517</ele>
        <time>2016-05-28T07:10:04.000Z</time>
      </trkpt>
      <trkpt lat="43.69937" lon="5.8746">
        <ele>517</ele>
        <time>2016-05-28T07:10:06.000Z</time>
      </trkpt>
      <trkpt lat="43.69937" lon="5.8746">
        <ele>517</ele>
        <time>2016-05-28T07:10:08.000Z</time>
      </trkpt>
      <trkpt lat="43.69937" lon="5.8746">
        <ele>517</ele>
        <time>2016-05-28T07:10:10.000Z</time>
      </trkpt>
      <trkpt lat="43.69937" lon="5.8746">
        <ele>517</ele>
        <time>2016-05-28T07:10:12.000Z</time>
      </trkpt>
      <trkpt lat="43.69937" lon="5.8746">
        <ele>517</ele>
        <time>2016-05-28T07:10:14.000Z</time>
      </trkpt>
      <trkpt lat="43.69937" lon="5.8746">
        <ele>517</ele>
        <time>2016-05-28T07:10:16.000Z</time>
      </trkpt>
      <trkpt lat="43.69937" lon="5.8746">
        <ele>517</ele>
        <time>2016-05-28T07:10:18.000Z</time>
      </trkpt>
      <trkpt lat="43.69937" lon="5.8746">
        <ele>517</ele>
        <time>2016-05-28T07:10:20.000Z</time>
      </trkpt>
      <trkpt lat="43.69937" lon="5.8746">
        <ele>517</ele>
        <time>2016-05-28T07:10:22.000Z</time>
      </trkpt>
      <trkpt lat="43.69905" lon="5.87585">
        <ele>523</ele>
        <time>2016-05-28T07:10:28.000Z</time>
      </trkpt>
      <trkpt lat="43.699" lon="5.87602">
        <ele>523</ele>
        <time>2016-05-28T07:10:32.000Z</time>
      </trkpt>
      <trkpt lat="43.69895" lon="5.87618">
        <ele>523</ele>
        <time>2016-05-28T07:10:36.000Z</time>
      </trkpt>
      <trkpt lat="43.69895" lon="5.87618">
        <ele>523</ele>
        <time>2016-05-28T07:10:38.000Z</time>
      </trkpt>
      <trkpt lat="43.69895" lon="5.87618">
        <ele>523</ele>
        <time>2016-05-28T07:10:40.000Z</time>
      </trkpt>
      <trkpt lat="43.69895" lon="5.87618">
        <ele>523</ele>
        <time>2016-05-28T07:10:42.000Z</time>
      </trkpt>
      <trkpt lat="43.69895" lon="5.87618">
        <ele>523</ele>
        <time>2016-05-28T07:10:44.000Z</time>
      </trkpt>
      <trkpt lat="43.69895" lon="5.87618">
        <ele>523</ele>
        <time>2016-05-28T07:10:46.000Z</time>
      </trkpt>
      <trkpt lat="43.69895" lon="5.87618">
        <ele>523</ele>
        <time>2016-05-28T07:10:48.000Z</time>
      </trkpt>
      <trkpt lat="43.69895" lon="5.87618">
        <ele>523</ele>
        <time>2016-05-28T07:10:50.000Z</time>
      </trkpt>
      <trkpt lat="43.69895" lon="5.87618">
        <ele>523</ele>
        <time>2016-05-28T07:10:52.000Z</time>
      </trkpt>
      <trkpt lat="43.69895" lon="5.87618">
        <ele>523</ele>
        <time>2016-05-28T07:10:54.000Z</time>
      </trkpt>
      <trkpt lat="43.69895" lon="5.87618">
        <ele>523</ele>
        <time>2016-05-28T07:10:56.000Z</time>
      </trkpt>
      <trkpt lat="43.69895" lon="5.87618">
        <ele>523</ele>
        <time>2016-05-28T07:10:58.000Z</time>
      </trkpt>
      <trkpt lat="43.69895" lon="5.87618">
        <ele>523</ele>
        <time>2016-05-28T07:11:00.000Z</time>
      </trkpt>
      <trkpt lat="43.69895" lon="5.87618">
        <ele>523</ele>
        <time>2016-05-28T07:11:02.000Z</time>
      </trkpt>
      <trkpt lat="43.69895" lon="5.87618">
        <ele>523</ele>
        <time>2016-05-28T07:11:04.000Z</time>
      </trkpt>
      <trkpt lat="43.69895" lon="5.87618">
        <ele>523</ele>
        <time>2016-05-28T07:11:06.000Z</time>
      </trkpt>
      <trkpt lat="43.69895" lon="5.87618">
        <ele>523</ele>
        <time>2016-05-28T07:11:08.000Z</time>
      </trkpt>
      <trkpt lat="43.69895" lon="5.87618">
        <ele>523</ele>
        <time>2016-05-28T07:11:10.000Z</time>
      </trkpt>
      <trkpt lat="43.69895" lon="5.87618">
        <ele>523</ele>
        <time>2016-05-28T07:11:12.000Z</time>
      </trkpt>
      <trkpt lat="43.69895" lon="5.87618">
        <ele>523</ele>
        <time>2016-05-28T07:11:14.000Z</time>
      </trkpt>
      <trkpt lat="43.69895" lon="5.87618">
        <ele>523</ele>
        <time>2016-05-28T07:11:16.000Z</time>
      </trkpt>
      <trkpt lat="43.69895" lon="5.87618">
        <ele>523</ele>
        <time>2016-05-28T07:11:18.000Z</time>
      </trkpt>
      <trkpt lat="43.69895" lon="5.87618">
        <ele>523</ele>
        <time>2016-05-28T07:11:20.000Z</time>
      </trkpt>
      <trkpt lat="43.69895" lon="5.87618">
        <ele>523</ele>
        <time>2016-05-28T07:11:22.000Z</time>
      </trkpt>
      <trkpt lat="43.69895" lon="5.87618">
        <ele>523</ele>
        <time>2016-05-28T07:11:24.000Z</time>
      </trkpt>
      <trkpt lat="43.69895" lon="5.87618">
        <ele>523</ele>
        <time>2016-05-28T07:11:26.000Z</time>
      </trkpt>
      <trkpt lat="43.69895" lon="5.87618">
        <ele>523</ele>
        <time>2016-05-28T07:11:28.000Z</time>
      </trkpt>
      <trkpt lat="43.69895" lon="5.87618">
        <ele>523</ele>
        <time>2016-05-28T07:11:30.000Z</time>
      </trkpt>
      <trkpt lat="43.69895" lon="5.87618">
        <ele>523</ele>
        <time>2016-05-28T07:11:32.000Z</time>
      </trkpt>
      <trkpt lat="43.69895" lon="5.87618">
        <ele>523</ele>
        <time>2016-05-28T07:11:34.000Z</time>
      </trkpt>
      <trkpt lat="43.69895" lon="5.87618">
        <ele>523</ele>
        <time>2016-05-28T07:11:36.000Z</time>
      </trkpt>
      <trkpt lat="43.69895" lon="5.87618">
        <ele>523</ele>
        <time>2016-05-28T07:11:38.000Z</time>
      </trkpt>
      <trkpt lat="43.69862" lon="5.87737">
        <ele>530</ele>
        <time>2016-05-28T07:11:44.000Z</time>
      </trkpt>
      <trkpt lat="43.69844" lon="5.878">
        <ele>528</ele>
        <time>2016-05-28T07:11:46.000Z</time>
      </trkpt>
      <trkpt lat="43.69834" lon="5.87835">
        <ele>529</ele>
        <time>2016-05-28T07:11:48.000Z</time>
      </trkpt>
      <trkpt lat="43.69827" lon="5.87857">
        <ele>529</ele>
        <time>2016-05-28T07:11:50.000Z</time>
      </trkpt>
      <trkpt lat="43.69822" lon="5.87872">
        <ele>529</ele>
        <time>2016-05-28T07:11:52.000Z</time>
      </trkpt>
      <trkpt lat="43.69814" lon="5.87895">
        <ele>529</ele>
        <time>2016-05-28T07:11:54.000Z</time>
      </trkpt>
      <trkpt lat="43.69807" lon="5.87914">
        <ele>529</ele>
        <time>2016-05-28T07:11:58.000Z</time>
      </trkpt>
      <trkpt lat="43.698" lon="5.87931">
        <ele>529</ele>
        <time>2016-05-28T07:12:02.000Z</time>
      </trkpt>
      <trkpt lat="43.698" lon="5.87931">
        <ele>529</ele>
        <time>2016-05-28T07:12:04.000Z</time>
      </trkpt>
      <trkpt lat="43.69794" lon="5.87949">
        <ele>530</ele>
        <time>2016-05-28T07:12:06.000Z</time>
      </trkpt>
      <trkpt lat="43.69788" lon="5.87968">
        <ele>531</ele>
        <time>2016-05-28T07:12:10.000Z</time>
      </trkpt>
      <trkpt lat="43.69788" lon="5.87968">
        <ele>531</ele>
        <time>2016-05-28T07:12:12.000Z</time>
      </trkpt>
      <trkpt lat="43.69781" lon="5.87984">
        <ele>529</ele>
        <time>2016-05-28T07:12:14.000Z</time>
      </trkpt>
      <trkpt lat="43.69781" lon="5.87984">
        <ele>529</ele>
        <time>2016-05-28T07:12:16.000Z</time>
      </trkpt>
      <trkpt lat="43.69781" lon="5.87984">
        <ele>529</ele>
        <time>2016-05-28T07:12:18.000Z</time>
      </trkpt>
      <trkpt lat="43.69781" lon="5.87984">
        <ele>529</ele>
        <time>2016-05-28T07:12:20.000Z</time>
      </trkpt>
      <trkpt lat="43.69767" lon="5.88041">
        <ele>527</ele>
        <time>2016-05-28T07:12:26.000Z</time>
      </trkpt>
      <trkpt lat="43.69762" lon="5.8806">
        <ele>526</ele>
        <time>2016-05-28T07:12:30.000Z</time>
      </trkpt>
      <trkpt lat="43.69756" lon="5.88079">
        <ele>526</ele>
        <time>2016-05-28T07:12:34.000Z</time>
      </trkpt>
      <trkpt lat="43.69751" lon="5.88097">
        <ele>527</ele>
        <time>2016-05-28T07:12:38.000Z</time>
      </trkpt>
      <trkpt lat="43.69745" lon="5.88115">
        <ele>529</ele>
        <time>2016-05-28T07:12:42.000Z</time>
      </trkpt>
      <trkpt lat="43.69745" lon="5.88115">
        <ele>529</ele>
        <time>2016-05-28T07:12:46.000Z</time>
      </trkpt>
      <trkpt lat="43.69745" lon="5.88115">
        <ele>529</ele>
        <time>2016-05-28T07:12:48.000Z</time>
      </trkpt>
      <trkpt lat="43.69745" lon="5.88115">
        <ele>529</ele>
        <time>2016-05-28T07:12:50.000Z</time>
      </trkpt>
      <trkpt lat="43.69745" lon="5.88115">
        <ele>529</ele>
        <time>2016-05-28T07:12:52.000Z</time>
      </trkpt>
      <trkpt lat="43.69745" lon="5.88115">
        <ele>529</ele>
        <time>2016-05-28T07:12:54.000Z</time>
      </trkpt>
      <trkpt lat="43.69745" lon="5.88115">
        <ele>529</ele>
        <time>2016-05-28T07:12:56.000Z</time>
      </trkpt>
      <trkpt lat="43.69745" lon="5.88115">
        <ele>529</ele>
        <time>2016-05-28T07:12:58.000Z</time>
      </trkpt>
      <trkpt lat="43.69745" lon="5.88115">
        <ele>529</ele>
        <time>2016-05-28T07:13:00.000Z</time>
      </trkpt>
      <trkpt lat="43.69745" lon="5.88115">
        <ele>529</ele>
        <time>2016-05-28T07:13:02.000Z</time>
      </trkpt>
      <trkpt lat="43.69745" lon="5.88115">
        <ele>529</ele>
        <time>2016-05-28T07:13:04.000Z</time>
      </trkpt>
      <trkpt lat="43.69745" lon="5.88115">
        <ele>529</ele>
        <time>2016-05-28T07:13:06.000Z</time>
      </trkpt>
      <trkpt lat="43.69745" lon="5.88115">
        <ele>529</ele>
        <time>2016-05-28T07:13:08.000Z</time>
      </trkpt>
      <trkpt lat="43.69745" lon="5.88115">
        <ele>529</ele>
        <time>2016-05-28T07:13:10.000Z</time>
      </trkpt>
      <trkpt lat="43.69745" lon="5.88115">
        <ele>529</ele>
        <time>2016-05-28T07:13:12.000Z</time>
      </trkpt>
      <trkpt lat="43.69745" lon="5.88115">
        <ele>529</ele>
        <time>2016-05-28T07:13:14.000Z</time>
      </trkpt>
      <trkpt lat="43.69745" lon="5.88115">
        <ele>529</ele>
        <time>2016-05-28T07:13:16.000Z</time>
      </trkpt>
      <trkpt lat="43.69745" lon="5.88115">
        <ele>529</ele>
        <time>2016-05-28T07:13:18.000Z</time>
      </trkpt>
      <trkpt lat="43.69745" lon="5.88115">
        <ele>529</ele>
        <time>2016-05-28T07:13:20.000Z</time>
      </trkpt>
      <trkpt lat="43.69745" lon="5.88115">
        <ele>529</ele>
        <time>2016-05-28T07:13:22.000Z</time>
      </trkpt>
      <trkpt lat="43.69745" lon="5.88115">
        <ele>529</ele>
        <time>2016-05-28T07:13:24.000Z</time>
      </trkpt>
      <trkpt lat="43.69745" lon="5.88115">
        <ele>529</ele>
        <time>2016-05-28T07:13:26.000Z</time>
      </trkpt>
      <trkpt lat="43.69745" lon="5.88115">
        <ele>529</ele>
        <time>2016-05-28T07:13:28.000Z</time>
      </trkpt>
      <trkpt lat="43.69745" lon="5.88115">
        <ele>529</ele>
        <time>2016-05-28T07:13:30.000Z</time>
      </trkpt>
      <trkpt lat="43.69745" lon="5.88115">
        <ele>529</ele>
        <time>2016-05-28T07:13:32.000Z</time>
      </trkpt>
      <trkpt lat="43.69745" lon="5.88115">
        <ele>529</ele>
        <time>2016-05-28T07:13:34.000Z</time>
      </trkpt>
      <trkpt lat="43.69745" lon="5.88115">
        <ele>529</ele>
        <time>2016-05-28T07:13:36.000Z</time>
      </trkpt>
      <trkpt lat="43.6972" lon="5.88222">
        <ele>534</ele>
        <time>2016-05-28T07:13:40.000Z</time>
      </trkpt>
      <trkpt lat="43.69707" lon="5.8828">
        <ele>533</ele>
        <time>2016-05-28T07:13:42.000Z</time>
      </trkpt>
      <trkpt lat="43.69701" lon="5.88313">
        <ele>532</ele>
        <time>2016-05-28T07:13:44.000Z</time>
      </trkpt>
      <trkpt lat="43.69699" lon="5.88334">
        <ele>532</ele>
        <time>2016-05-28T07:13:46.000Z</time>
      </trkpt>
      <trkpt lat="43.69698" lon="5.88348">
        <ele>532</ele>
        <time>2016-05-28T07:13:48.000Z</time>
      </trkpt>
      <trkpt lat="43.69699" lon="5.88371">
        <ele>531</ele>
        <time>2016-05-28T07:13:50.000Z</time>
      </trkpt>
      <trkpt lat="43.69704" lon="5.88388">
        <ele>528</ele>
        <time>2016-05-28T07:13:54.000Z</time>
      </trkpt>
      <trkpt lat="43.69711" lon="5.88403">
        <ele>528</ele>
        <time>2016-05-28T07:13:58.000Z</time>
      </trkpt>
      <trkpt lat="43.69711" lon="5.88403">
        <ele>528</ele>
        <time>2016-05-28T07:14:00.000Z</time>
      </trkpt>
      <trkpt lat="43.69711" lon="5.88403">
        <ele>528</ele>
        <time>2016-05-28T07:14:02.000Z</time>
      </trkpt>
      <trkpt lat="43.69711" lon="5.88403">
        <ele>528</ele>
        <time>2016-05-28T07:14:04.000Z</time>
      </trkpt>
      <trkpt lat="43.69711" lon="5.88403">
        <ele>528</ele>
        <time>2016-05-28T07:14:06.000Z</time>
      </trkpt>
      <trkpt lat="43.69711" lon="5.88403">
        <ele>528</ele>
        <time>2016-05-28T07:14:08.000Z</time>
      </trkpt>
      <trkpt lat="43.69711" lon="5.88403">
        <ele>528</ele>
        <time>2016-05-28T07:14:10.000Z</time>
      </trkpt>
      <trkpt lat="43.69711" lon="5.88403">
        <ele>528</ele>
        <time>2016-05-28T07:14:12.000Z</time>
      </trkpt>
      <trkpt lat="43.69726" lon="5.88421">
        <ele>529</ele>
        <time>2016-05-28T07:14:16.000Z</time>
      </trkpt>
      <trkpt lat="43.69732" lon="5.8841">
        <ele>530</ele>
        <time>2016-05-28T07:14:22.000Z</time>
      </trkpt>
      <trkpt lat="43.69736" lon="5.88396">
        <ele>531</ele>
        <time>2016-05-28T07:14:28.000Z</time>
      </trkpt>
      <trkpt lat="43.6974" lon="5.88385">
        <ele>532</ele>
        <time>2016-05-28T07:14:32.000Z</time>
      </trkpt>
      <trkpt lat="43.69746" lon="5.88371">
        <ele>535</ele>
        <time>2016-05-28T07:14:36.000Z</time>
      </trkpt>
      <trkpt lat="43.6975" lon="5.8836">
        <ele>535</ele>
        <time>2016-05-28T07:14:40.000Z</time>
      </trkpt>
      <trkpt lat="43.69757" lon="5.88347">
        <ele>536</ele>
        <time>2016-05-28T07:14:44.000Z</time>
      </trkpt>
      <trkpt lat="43.69764" lon="5.88335">
        <ele>535</ele>
        <time>2016-05-28T07:14:48.000Z</time>
      </trkpt>
      <trkpt lat="43.69764" lon="5.88335">
        <ele>535</ele>
        <time>2016-05-28T07:14:50.000Z</time>
      </trkpt>
      <trkpt lat="43.69764" lon="5.88335">
        <ele>535</ele>
        <time>2016-05-28T07:14:52.000Z</time>
      </trkpt>
      <trkpt lat="43.69764" lon="5.88335">
        <ele>535</ele>
        <time>2016-05-28T07:14:54.000Z</time>
      </trkpt>
      <trkpt lat="43.69782" lon="5.88304">
        <ele>534</ele>
        <time>2016-05-28T07:14:58.000Z</time>
      </trkpt>
      <trkpt lat="43.69791" lon="5.88291">
        <ele>534</ele>
        <time>2016-05-28T07:15:02.000Z</time>
      </trkpt>
      <trkpt lat="43.698" lon="5.8828">
        <ele>534</ele>
        <time>2016-05-28T07:15:06.000Z</time>
      </trkpt>
      <trkpt lat="43.69809" lon="5.88272">
        <ele>535</ele>
        <time>2016-05-28T07:15:10.000Z</time>
      </trkpt>
      <trkpt lat="43.69809" lon="5.88272">
        <ele>535</ele>
        <time>2016-05-28T07:15:14.000Z</time>
      </trkpt>
      <trkpt lat="43.69809" lon="5.88272">
        <ele>535</ele>
        <time>2016-05-28T07:15:16.000Z</time>
      </trkpt>
      <trkpt lat="43.69809" lon="5.88272">
        <ele>535</ele>
        <time>2016-05-28T07:15:18.000Z</time>
      </trkpt>
      <trkpt lat="43.69824" lon="5.88257">
        <ele>536</ele>
        <time>2016-05-28T07:15:24.000Z</time>
      </trkpt>
      <trkpt lat="43.69835" lon="5.88246">
        <ele>539</ele>
        <time>2016-05-28T07:15:26.000Z</time>
      </trkpt>
      <trkpt lat="43.69842" lon="5.88238">
        <ele>539</ele>
        <time>2016-05-28T07:15:28.000Z</time>
      </trkpt>
      <trkpt lat="43.69848" lon="5.88231">
        <ele>538</ele>
        <time>2016-05-28T07:15:30.000Z</time>
      </trkpt>
      <trkpt lat="43.69853" lon="5.88224">
        <ele>538</ele>
        <time>2016-05-28T07:15:32.000Z</time>
      </trkpt>
      <trkpt lat="43.69861" lon="5.8821">
        <ele>538</ele>
        <time>2016-05-28T07:15:34.000Z</time>
      </trkpt>
      <trkpt lat="43.69872" lon="5.88203">
        <ele>535</ele>
        <time>2016-05-28T07:15:38.000Z</time>
      </trkpt>
      <trkpt lat="43.69883" lon="5.88197">
        <ele>534</ele>
        <time>2016-05-28T07:15:42.000Z</time>
      </trkpt>
      <trkpt lat="43.69893" lon="5.88189">
        <ele>534</ele>
        <time>2016-05-28T07:15:46.000Z</time>
      </trkpt>
      <trkpt lat="43.69904" lon="5.88186">
        <ele>533</ele>
        <time>2016-05-28T07:15:50.000Z</time>
      </trkpt>
      <trkpt lat="43.69917" lon="5.88191">
        <ele>532</ele>
        <time>2016-05-28T07:15:54.000Z</time>
      </trkpt>
      <trkpt lat="43.69926" lon="5.8818">
        <ele>532</ele>
        <time>2016-05-28T07:15:58.000Z</time>
      </trkpt>
      <trkpt lat="43.69933" lon="5.88168">
        <ele>533</ele>
        <time>2016-05-28T07:16:02.000Z</time>
      </trkpt>
      <trkpt lat="43.69933" lon="5.88168">
        <ele>533</ele>
        <time>2016-05-28T07:16:04.000Z</time>
      </trkpt>
      <trkpt lat="43.69933" lon="5.88168">
        <ele>533</ele>
        <time>2016-05-28T07:16:06.000Z</time>
      </trkpt>
      <trkpt lat="43.69933" lon="5.88168">
        <ele>533</ele>
        <time>2016-05-28T07:16:08.000Z</time>
      </trkpt>
      <trkpt lat="43.69957" lon="5.88153">
        <ele>531</ele>
        <time>2016-05-28T07:16:10.000Z</time>
      </trkpt>
      <trkpt lat="43.69968" lon="5.88145">
        <ele>531</ele>
        <time>2016-05-28T07:16:14.000Z</time>
      </trkpt>
      <trkpt lat="43.69968" lon="5.88145">
        <ele>531</ele>
        <time>2016-05-28T07:16:16.000Z</time>
      </trkpt>
      <trkpt lat="43.69981" lon="5.88136">
        <ele>529</ele>
        <time>2016-05-28T07:16:18.000Z</time>
      </trkpt>
      <trkpt lat="43.69996" lon="5.88125">
        <ele>528</ele>
        <time>2016-05-28T07:16:22.000Z</time>
      </trkpt>
      <trkpt lat="43.70004" lon="5.88119">
        <ele>527</ele>
        <time>2016-05-28T07:16:24.000Z</time>
      </trkpt>
      <trkpt lat="43.70013" lon="5.88113">
        <ele>526</ele>
        <time>2016-05-28T07:16:26.000Z</time>
      </trkpt>
      <trkpt lat="43.70013" lon="5.88113">
        <ele>526</ele>
        <time>2016-05-28T07:16:28.000Z</time>
      </trkpt>
      <trkpt lat="43.70013" lon="5.88113">
        <ele>526</ele>
        <time>2016-05-28T07:16:30.000Z</time>
      </trkpt>
      <trkpt lat="43.70039" lon="5.88094">
        <ele>525</ele>
        <time>2016-05-28T07:16:34.000Z</time>
      </trkpt>
      <trkpt lat="43.70049" lon="5.88094">
        <ele>526</ele>
        <time>2016-05-28T07:16:36.000Z</time>
      </trkpt>
      <trkpt lat="43.7006" lon="5.88096">
        <ele>525</ele>
        <time>2016-05-28T07:16:38.000Z</time>
      </trkpt>
      <trkpt lat="43.7006" lon="5.88096">
        <ele>525</ele>
        <time>2016-05-28T07:16:40.000Z</time>
      </trkpt>
      <trkpt lat="43.70073" lon="5.88093">
        <ele>524</ele>
        <time>2016-05-28T07:16:42.000Z</time>
      </trkpt>
      <trkpt lat="43.70073" lon="5.88093">
        <ele>524</ele>
        <time>2016-05-28T07:16:44.000Z</time>
      </trkpt>
      <trkpt lat="43.70073" lon="5.88093">
        <ele>524</ele>
        <time>2016-05-28T07:16:46.000Z</time>
      </trkpt>
      <trkpt lat="43.70054" lon="5.88054">
        <ele>516</ele>
        <time>2016-05-28T07:16:50.000Z</time>
      </trkpt>
      <trkpt lat="43.70044" lon="5.88048">
        <ele>514</ele>
        <time>2016-05-28T07:16:52.000Z</time>
      </trkpt>
      <trkpt lat="43.70044" lon="5.88048">
        <ele>514</ele>
        <time>2016-05-28T07:16:56.000Z</time>
      </trkpt>
      <trkpt lat="43.70044" lon="5.88048">
        <ele>514</ele>
        <time>2016-05-28T07:16:58.000Z</time>
      </trkpt>
      <trkpt lat="43.70044" lon="5.88048">
        <ele>514</ele>
        <time>2016-05-28T07:17:00.000Z</time>
      </trkpt>
      <trkpt lat="43.70044" lon="5.88048">
        <ele>514</ele>
        <time>2016-05-28T07:17:02.000Z</time>
      </trkpt>
      <trkpt lat="43.70044" lon="5.88048">
        <ele>514</ele>
        <time>2016-05-28T07:17:04.000Z</time>
      </trkpt>
      <trkpt lat="43.70044" lon="5.88048">
        <ele>514</ele>
        <time>2016-05-28T07:17:06.000Z</time>
      </trkpt>
      <trkpt lat="43.70044" lon="5.88048">
        <ele>514</ele>
        <time>2016-05-28T07:17:08.000Z</time>
      </trkpt>
      <trkpt lat="43.70044" lon="5.88048">
        <ele>514</ele>
        <time>2016-05-28T07:17:10.000Z</time>
      </trkpt>
      <trkpt lat="43.70044" lon="5.88048">
        <ele>514</ele>
        <time>2016-05-28T07:17:12.000Z</time>
      </trkpt>
      <trkpt lat="43.70061" lon="5.88026">
        <ele>504</ele>
        <time>2016-05-28T07:17:16.000Z</time>
      </trkpt>
      <trkpt lat="43.70073" lon="5.88013">
        <ele>503</ele>
        <time>2016-05-28T07:17:18.000Z</time>
      </trkpt>
      <trkpt lat="43.70082" lon="5.88005">
        <ele>502</ele>
        <time>2016-05-28T07:17:20.000Z</time>
      </trkpt>
      <trkpt lat="43.70089" lon="5.88">
        <ele>502</ele>
        <time>2016-05-28T07:17:22.000Z</time>
      </trkpt>
      <trkpt lat="43.70095" lon="5.87995">
        <ele>500</ele>
        <time>2016-05-28T07:17:24.000Z</time>
      </trkpt>
      <trkpt lat="43.70108" lon="5.87986">
        <ele>499</ele>
        <time>2016-05-28T07:17:26.000Z</time>
      </trkpt>
      <trkpt lat="43.70123" lon="5.87981">
        <ele>493</ele>
        <time>2016-05-28T07:17:30.000Z</time>
      </trkpt>
      <trkpt lat="43.70138" lon="5.87978">
        <ele>491</ele>
        <time>2016-05-28T07:17:34.000Z</time>
      </trkpt>
      <trkpt lat="43.70138" lon="5.87978">
        <ele>491</ele>
        <time>2016-05-28T07:17:37.000Z</time>
      </trkpt>
      <trkpt lat="43.70138" lon="5.87978">
        <ele>491</ele>
        <time>2016-05-28T07:17:39.000Z</time>
      </trkpt>
      <trkpt lat="43.70135" lon="5.87955">
        <ele>488</ele>
        <time>2016-05-28T07:17:41.000Z</time>
      </trkpt>
      <trkpt lat="43.70128" lon="5.87938">
        <ele>486</ele>
        <time>2016-05-28T07:17:45.000Z</time>
      </trkpt>
      <trkpt lat="43.70128" lon="5.87938">
        <ele>486</ele>
        <time>2016-05-28T07:17:47.000Z</time>
      </trkpt>
      <trkpt lat="43.70123" lon="5.87922">
        <ele>483</ele>
        <time>2016-05-28T07:17:49.000Z</time>
      </trkpt>
      <trkpt lat="43.70119" lon="5.87903">
        <ele>480</ele>
        <time>2016-05-28T07:17:53.000Z</time>
      </trkpt>
      <trkpt lat="43.70119" lon="5.87903">
        <ele>480</ele>
        <time>2016-05-28T07:17:57.000Z</time>
      </trkpt>
      <trkpt lat="43.70119" lon="5.87903">
        <ele>480</ele>
        <time>2016-05-28T07:17:59.000Z</time>
      </trkpt>
      <trkpt lat="43.70119" lon="5.87903">
        <ele>480</ele>
        <time>2016-05-28T07:18:01.000Z</time>
      </trkpt>
      <trkpt lat="43.70119" lon="5.87903">
        <ele>480</ele>
        <time>2016-05-28T07:18:03.000Z</time>
      </trkpt>
      <trkpt lat="43.70119" lon="5.87903">
        <ele>480</ele>
        <time>2016-05-28T07:18:05.000Z</time>
      </trkpt>
      <trkpt lat="43.70119" lon="5.87903">
        <ele>480</ele>
        <time>2016-05-28T07:18:07.000Z</time>
      </trkpt>
      <trkpt lat="43.70119" lon="5.87903">
        <ele>480</ele>
        <time>2016-05-28T07:18:09.000Z</time>
      </trkpt>
      <trkpt lat="43.70119" lon="5.87903">
        <ele>480</ele>
        <time>2016-05-28T07:18:11.000Z</time>
      </trkpt>
      <trkpt lat="43.70119" lon="5.87903">
        <ele>480</ele>
        <time>2016-05-28T07:18:13.000Z</time>
      </trkpt>
      <trkpt lat="43.70122" lon="5.87849">
        <ele>468</ele>
        <time>2016-05-28T07:18:17.000Z</time>
      </trkpt>
      <trkpt lat="43.70137" lon="5.87857">
        <ele>467</ele>
        <time>2016-05-28T07:18:21.000Z</time>
      </trkpt>
      <trkpt lat="43.70148" lon="5.87868">
        <ele>465</ele>
        <time>2016-05-28T07:18:25.000Z</time>
      </trkpt>
      <trkpt lat="43.70148" lon="5.87868">
        <ele>465</ele>
        <time>2016-05-28T07:18:28.000Z</time>
      </trkpt>
      <trkpt lat="43.70148" lon="5.87868">
        <ele>465</ele>
        <time>2016-05-28T07:18:30.000Z</time>
      </trkpt>
      <trkpt lat="43.70166" lon="5.87883">
        <ele>466</ele>
        <time>2016-05-28T07:19:12.000Z</time>
      </trkpt>
      <trkpt lat="43.70166" lon="5.87883">
        <ele>466</ele>
        <time>2016-05-28T07:19:16.000Z</time>
      </trkpt>
      <trkpt lat="43.70203" lon="5.87911">
        <ele>462</ele>
        <time>2016-05-28T07:19:20.000Z</time>
      </trkpt>
      <trkpt lat="43.70214" lon="5.87919">
        <ele>460</ele>
        <time>2016-05-28T07:19:22.000Z</time>
      </trkpt>
      <trkpt lat="43.70227" lon="5.87922">
        <ele>459</ele>
        <time>2016-05-28T07:19:24.000Z</time>
      </trkpt>
      <trkpt lat="43.70238" lon="5.87925">
        <ele>456</ele>
        <time>2016-05-28T07:19:26.000Z</time>
      </trkpt>
      <trkpt lat="43.70247" lon="5.87926">
        <ele>456</ele>
        <time>2016-05-28T07:19:28.000Z</time>
      </trkpt>
      <trkpt lat="43.70247" lon="5.87926">
        <ele>456</ele>
        <time>2016-05-28T07:19:30.000Z</time>
      </trkpt>
      <trkpt lat="43.70247" lon="5.87926">
        <ele>456</ele>
        <time>2016-05-28T07:19:32.000Z</time>
      </trkpt>
      <trkpt lat="43.70247" lon="5.87926">
        <ele>456</ele>
        <time>2016-05-28T07:19:34.000Z</time>
      </trkpt>
      <trkpt lat="43.7029" lon="5.87883">
        <ele>449</ele>
        <time>2016-05-28T07:19:38.000Z</time>
      </trkpt>
      <trkpt lat="43.70298" lon="5.8787">
        <ele>449</ele>
        <time>2016-05-28T07:19:40.000Z</time>
      </trkpt>
      <trkpt lat="43.70308" lon="5.8786">
        <ele>448</ele>
        <time>2016-05-28T07:19:42.000Z</time>
      </trkpt>
      <trkpt lat="43.70318" lon="5.87848">
        <ele>446</ele>
        <time>2016-05-28T07:19:44.000Z</time>
      </trkpt>
      <trkpt lat="43.70328" lon="5.87841">
        <ele>445</ele>
        <time>2016-05-28T07:19:46.000Z</time>
      </trkpt>
      <trkpt lat="43.70328" lon="5.87841">
        <ele>445</ele>
        <time>2016-05-28T07:19:48.000Z</time>
      </trkpt>
      <trkpt lat="43.70328" lon="5.87841">
        <ele>445</ele>
        <time>2016-05-28T07:19:50.000Z</time>
      </trkpt>
      <trkpt lat="43.70328" lon="5.87841">
        <ele>445</ele>
        <time>2016-05-28T07:19:52.000Z</time>
      </trkpt>
      <trkpt lat="43.70346" lon="5.87789">
        <ele>443</ele>
        <time>2016-05-28T07:20:00.000Z</time>
      </trkpt>
      <trkpt lat="43.70345" lon="5.87771">
        <ele>442</ele>
        <time>2016-05-28T07:20:04.000Z</time>
      </trkpt>
      <trkpt lat="43.70345" lon="5.87771">
        <ele>442</ele>
        <time>2016-05-28T07:20:06.000Z</time>
      </trkpt>
      <trkpt lat="43.70345" lon="5.87771">
        <ele>442</ele>
        <time>2016-05-28T07:20:08.000Z</time>
      </trkpt>
      <trkpt lat="43.70345" lon="5.87771">
        <ele>442</ele>
        <time>2016-05-28T07:20:10.000Z</time>
      </trkpt>
      <trkpt lat="43.70367" lon="5.87786">
        <ele>435</ele>
        <time>2016-05-28T07:20:14.000Z</time>
      </trkpt>
      <trkpt lat="43.70377" lon="5.87784">
        <ele>433</ele>
        <time>2016-05-28T07:20:18.000Z</time>
      </trkpt>
      <trkpt lat="43.70393" lon="5.8777">
        <ele>431</ele>
        <time>2016-05-28T07:20:22.000Z</time>
      </trkpt>
      <trkpt lat="43.70399" lon="5.87758">
        <ele>432</ele>
        <time>2016-05-28T07:20:24.000Z</time>
      </trkpt>
      <trkpt lat="43.70399" lon="5.87758">
        <ele>432</ele>
        <time>2016-05-28T07:20:26.000Z</time>
      </trkpt>
      <trkpt lat="43.70414" lon="5.87747">
        <ele>429</ele>
        <time>2016-05-28T07:20:28.000Z</time>
      </trkpt>
      <trkpt lat="43.7042" lon="5.87737">
        <ele>428</ele>
        <time>2016-05-28T07:20:30.000Z</time>
      </trkpt>
      <trkpt lat="43.70427" lon="5.87724">
        <ele>426</ele>
        <time>2016-05-28T07:20:32.000Z</time>
      </trkpt>
      <trkpt lat="43.70436" lon="5.87718">
        <ele>426</ele>
        <time>2016-05-28T07:20:34.000Z</time>
      </trkpt>
      <trkpt lat="43.70447" lon="5.87714">
        <ele>425</ele>
        <time>2016-05-28T07:20:36.000Z</time>
      </trkpt>
      <trkpt lat="43.70457" lon="5.87707">
        <ele>424</ele>
        <time>2016-05-28T07:20:38.000Z</time>
      </trkpt>
      <trkpt lat="43.70457" lon="5.87707">
        <ele>424</ele>
        <time>2016-05-28T07:20:40.000Z</time>
      </trkpt>
      <trkpt lat="43.70457" lon="5.87707">
        <ele>424</ele>
        <time>2016-05-28T07:20:42.000Z</time>
      </trkpt>
      <trkpt lat="43.70457" lon="5.87707">
        <ele>424</ele>
        <time>2016-05-28T07:20:44.000Z</time>
      </trkpt>
      <trkpt lat="43.70457" lon="5.87707">
        <ele>424</ele>
        <time>2016-05-28T07:20:46.000Z</time>
      </trkpt>
      <trkpt lat="43.70457" lon="5.87707">
        <ele>424</ele>
        <time>2016-05-28T07:20:50.000Z</time>
      </trkpt>
      <trkpt lat="43.70457" lon="5.87707">
        <ele>424</ele>
        <time>2016-05-28T07:20:52.000Z</time>
      </trkpt>
      <trkpt lat="43.70507" lon="5.87641">
        <ele>414</ele>
        <time>2016-05-28T07:20:55.000Z</time>
      </trkpt>
      <trkpt lat="43.70517" lon="5.87646">
        <ele>414</ele>
        <time>2016-05-28T07:20:57.000Z</time>
      </trkpt>
      <trkpt lat="43.70517" lon="5.87646">
        <ele>414</ele>
        <time>2016-05-28T07:20:59.000Z</time>
      </trkpt>
      <trkpt lat="43.70517" lon="5.87646">
        <ele>414</ele>
        <time>2016-05-28T07:21:01.000Z</time>
      </trkpt>
      <trkpt lat="43.70517" lon="5.87646">
        <ele>414</ele>
        <time>2016-05-28T07:21:03.000Z</time>
      </trkpt>
      <trkpt lat="43.70517" lon="5.87646">
        <ele>414</ele>
        <time>2016-05-28T07:21:05.000Z</time>
      </trkpt>
      <trkpt lat="43.70517" lon="5.87646">
        <ele>414</ele>
        <time>2016-05-28T07:21:07.000Z</time>
      </trkpt>
      <trkpt lat="43.70517" lon="5.87646">
        <ele>414</ele>
        <time>2016-05-28T07:21:09.000Z</time>
      </trkpt>
      <trkpt lat="43.70517" lon="5.87646">
        <ele>414</ele>
        <time>2016-05-28T07:21:11.000Z</time>
      </trkpt>
      <trkpt lat="43.70517" lon="5.87646">
        <ele>414</ele>
        <time>2016-05-28T07:21:13.000Z</time>
      </trkpt>
      <trkpt lat="43.70517" lon="5.87646">
        <ele>414</ele>
        <time>2016-05-28T07:21:15.000Z</time>
      </trkpt>
      <trkpt lat="43.70549" lon="5.8764">
        <ele>408</ele>
        <time>2016-05-28T07:21:19.000Z</time>
      </trkpt>
      <trkpt lat="43.70573" lon="5.87629">
        <ele>407</ele>
        <time>2016-05-28T07:21:22.000Z</time>
      </trkpt>
      <trkpt lat="43.7059" lon="5.87624">
        <ele>407</ele>
        <time>2016-05-28T07:21:25.000Z</time>
      </trkpt>
      <trkpt lat="43.70602" lon="5.87623">
        <ele>406</ele>
        <time>2016-05-28T07:21:27.000Z</time>
      </trkpt>
      <trkpt lat="43.70602" lon="5.87623">
        <ele>406</ele>
        <time>2016-05-28T07:21:29.000Z</time>
      </trkpt>
      <trkpt lat="43.70602" lon="5.87623">
        <ele>406</ele>
        <time>2016-05-28T07:21:31.000Z</time>
      </trkpt>
      <trkpt lat="43.70602" lon="5.87623">
        <ele>406</ele>
        <time>2016-05-28T07:21:33.000Z</time>
      </trkpt>
      <trkpt lat="43.70602" lon="5.87623">
        <ele>406</ele>
        <time>2016-05-28T07:21:35.000Z</time>
      </trkpt>
      <trkpt lat="43.70602" lon="5.87623">
        <ele>406</ele>
        <time>2016-05-28T07:21:37.000Z</time>
      </trkpt>
      <trkpt lat="43.70602" lon="5.87623">
        <ele>406</ele>
        <time>2016-05-28T07:21:39.000Z</time>
      </trkpt>
      <trkpt lat="43.70602" lon="5.87623">
        <ele>406</ele>
        <time>2016-05-28T07:21:41.000Z</time>
      </trkpt>
      <trkpt lat="43.70602" lon="5.87623">
        <ele>406</ele>
        <time>2016-05-28T07:21:43.000Z</time>
      </trkpt>
      <trkpt lat="43.70602" lon="5.87623">
        <ele>406</ele>
        <time>2016-05-28T07:21:45.000Z</time>
      </trkpt>
      <trkpt lat="43.70602" lon="5.87623">
        <ele>406</ele>
        <time>2016-05-28T07:21:47.000Z</time>
      </trkpt>
      <trkpt lat="43.70602" lon="5.87623">
        <ele>406</ele>
        <time>2016-05-28T07:21:49.000Z</time>
      </trkpt>
      <trkpt lat="43.70602" lon="5.87623">
        <ele>406</ele>
        <time>2016-05-28T07:21:51.000Z</time>
      </trkpt>
      <trkpt lat="43.70602" lon="5.87623">
        <ele>406</ele>
        <time>2016-05-28T07:21:53.000Z</time>
      </trkpt>
      <trkpt lat="43.70602" lon="5.87623">
        <ele>406</ele>
        <time>2016-05-28T07:21:55.000Z</time>
      </trkpt>
      <trkpt lat="43.70602" lon="5.87623">
        <ele>406</ele>
        <time>2016-05-28T07:21:57.000Z</time>
      </trkpt>
      <trkpt lat="43.70602" lon="5.87623">
        <ele>406</ele>
        <time>2016-05-28T07:21:59.000Z</time>
      </trkpt>
      <trkpt lat="43.70602" lon="5.87623">
        <ele>406</ele>
        <time>2016-05-28T07:22:01.000Z</time>
      </trkpt>
      <trkpt lat="43.70602" lon="5.87623">
        <ele>406</ele>
        <time>2016-05-28T07:22:03.000Z</time>
      </trkpt>
      <trkpt lat="43.70602" lon="5.87623">
        <ele>406</ele>
        <time>2016-05-28T07:22:05.000Z</time>
      </trkpt>
      <trkpt lat="43.70602" lon="5.87623">
        <ele>406</ele>
        <time>2016-05-28T07:22:07.000Z</time>
      </trkpt>
      <trkpt lat="43.70602" lon="5.87623">
        <ele>406</ele>
        <time>2016-05-28T07:22:09.000Z</time>
      </trkpt>
      <trkpt lat="43.70602" lon="5.87623">
        <ele>406</ele>
        <time>2016-05-28T07:22:11.000Z</time>
      </trkpt>
      <trkpt lat="43.7065" lon="5.87653">
        <ele>408</ele>
        <time>2016-05-28T07:22:13.000Z</time>
      </trkpt>
      <trkpt lat="43.70677" lon="5.87669">
        <ele>408</ele>
        <time>2016-05-28T07:22:15.000Z</time>
      </trkpt>
      <trkpt lat="43.70692" lon="5.87679">
        <ele>408</ele>
        <time>2016-05-28T07:22:17.000Z</time>
      </trkpt>
      <trkpt lat="43.70702" lon="5.87685">
        <ele>408</ele>
        <time>2016-05-28T07:22:19.000Z</time>
      </trkpt>
      <trkpt lat="43.7071" lon="5.8769">
        <ele>408</ele>
        <time>2016-05-28T07:22:21.000Z</time>
      </trkpt>
      <trkpt lat="43.70721" lon="5.87697">
        <ele>410</ele>
        <time>2016-05-28T07:22:23.000Z</time>
      </trkpt>
      <trkpt lat="43.7073" lon="5.87701">
        <ele>410</ele>
        <time>2016-05-28T07:22:27.000Z</time>
      </trkpt>
      <trkpt lat="43.70739" lon="5.87705">
        <ele>410</ele>
        <time>2016-05-28T07:22:31.000Z</time>
      </trkpt>
      <trkpt lat="43.7075" lon="5.87708">
        <ele>410</ele>
        <time>2016-05-28T07:22:35.000Z</time>
      </trkpt>
      <trkpt lat="43.70763" lon="5.8771">
        <ele>410</ele>
        <time>2016-05-28T07:22:39.000Z</time>
      </trkpt>
      <trkpt lat="43.70775" lon="5.87713">
        <ele>410</ele>
        <time>2016-05-28T07:22:43.000Z</time>
      </trkpt>
      <trkpt lat="43.70775" lon="5.87713">
        <ele>410</ele>
        <time>2016-05-28T07:22:50.000Z</time>
      </trkpt>
      <trkpt lat="43.70775" lon="5.87713">
        <ele>410</ele>
        <time>2016-05-28T07:22:51.000Z</time>
      </trkpt>
      <trkpt lat="43.708" lon="5.87692">
        <ele>409</ele>
        <time>2016-05-28T07:22:57.000Z</time>
      </trkpt>
      <trkpt lat="43.70799" lon="5.87668">
        <ele>408</ele>
        <time>2016-05-28T07:23:01.000Z</time>
      </trkpt>
      <trkpt lat="43.70798" lon="5.87654">
        <ele>407</ele>
        <time>2016-05-28T07:23:03.000Z</time>
      </trkpt>
      <trkpt lat="43.70797" lon="5.87639">
        <ele>407</ele>
        <time>2016-05-28T07:23:05.000Z</time>
      </trkpt>
      <trkpt lat="43.70799" lon="5.87623">
        <ele>406</ele>
        <time>2016-05-28T07:23:07.000Z</time>
      </trkpt>
      <trkpt lat="43.70802" lon="5.87606">
        <ele>405</ele>
        <time>2016-05-28T07:23:09.000Z</time>
      </trkpt>
      <trkpt lat="43.70803" lon="5.87589">
        <ele>405</ele>
        <time>2016-05-28T07:23:11.000Z</time>
      </trkpt>
      <trkpt lat="43.70806" lon="5.87571">
        <ele>405</ele>
        <time>2016-05-28T07:23:13.000Z</time>
      </trkpt>
      <trkpt lat="43.70809" lon="5.87553">
        <ele>404</ele>
        <time>2016-05-28T07:23:15.000Z</time>
      </trkpt>
      <trkpt lat="43.70811" lon="5.87533">
        <ele>403</ele>
        <time>2016-05-28T07:23:17.000Z</time>
      </trkpt>
      <trkpt lat="43.70814" lon="5.87517">
        <ele>403</ele>
        <time>2016-05-28T07:23:19.000Z</time>
      </trkpt>
      <trkpt lat="43.7082" lon="5.87502">
        <ele>403</ele>
        <time>2016-05-28T07:23:21.000Z</time>
      </trkpt>
      <trkpt lat="43.70832" lon="5.87491">
        <ele>402</ele>
        <time>2016-05-28T07:23:23.000Z</time>
      </trkpt>
      <trkpt lat="43.70847" lon="5.87486">
        <ele>401</ele>
        <time>2016-05-28T07:23:25.000Z</time>
      </trkpt>
      <trkpt lat="43.7086" lon="5.87481">
        <ele>400</ele>
        <time>2016-05-28T07:23:27.000Z</time>
      </trkpt>
      <trkpt lat="43.70874" lon="5.87477">
        <ele>400</ele>
        <time>2016-05-28T07:23:29.000Z</time>
      </trkpt>
      <trkpt lat="43.70887" lon="5.87474">
        <ele>400</ele>
        <time>2016-05-28T07:23:31.000Z</time>
      </trkpt>
      <trkpt lat="43.70901" lon="5.8747">
        <ele>399</ele>
        <time>2016-05-28T07:23:33.000Z</time>
      </trkpt>
      <trkpt lat="43.70913" lon="5.87468">
        <ele>398</ele>
        <time>2016-05-28T07:23:35.000Z</time>
      </trkpt>
      <trkpt lat="43.70927" lon="5.87467">
        <ele>398</ele>
        <time>2016-05-28T07:23:37.000Z</time>
      </trkpt>
      <trkpt lat="43.70941" lon="5.87465">
        <ele>398</ele>
        <time>2016-05-28T07:23:39.000Z</time>
      </trkpt>
      <trkpt lat="43.70953" lon="5.87461">
        <ele>398</ele>
        <time>2016-05-28T07:23:41.000Z</time>
      </trkpt>
      <trkpt lat="43.70963" lon="5.87455">
        <ele>398</ele>
        <time>2016-05-28T07:23:43.000Z</time>
      </trkpt>
      <trkpt lat="43.70975" lon="5.87446">
        <ele>398</ele>
        <time>2016-05-28T07:23:45.000Z</time>
      </trkpt>
      <trkpt lat="43.70986" lon="5.87438">
        <ele>397</ele>
        <time>2016-05-28T07:23:47.000Z</time>
      </trkpt>
      <trkpt lat="43.70996" lon="5.87437">
        <ele>397</ele>
        <time>2016-05-28T07:23:49.000Z</time>
      </trkpt>
      <trkpt lat="43.71005" lon="5.87444">
        <ele>395</ele>
        <time>2016-05-28T07:23:51.000Z</time>
      </trkpt>
      <trkpt lat="43.71018" lon="5.87446">
        <ele>394</ele>
        <time>2016-05-28T07:23:53.000Z</time>
      </trkpt>
      <trkpt lat="43.71029" lon="5.87445">
        <ele>394</ele>
        <time>2016-05-28T07:23:55.000Z</time>
      </trkpt>
      <trkpt lat="43.71039" lon="5.87439">
        <ele>392</ele>
        <time>2016-05-28T07:23:57.000Z</time>
      </trkpt>
      <trkpt lat="43.71047" lon="5.87429">
        <ele>390</ele>
        <time>2016-05-28T07:23:59.000Z</time>
      </trkpt>
      <trkpt lat="43.71053" lon="5.87413">
        <ele>388</ele>
        <time>2016-05-28T07:24:01.000Z</time>
      </trkpt>
      <trkpt lat="43.71059" lon="5.87398">
        <ele>387</ele>
        <time>2016-05-28T07:24:03.000Z</time>
      </trkpt>
      <trkpt lat="43.71062" lon="5.87378">
        <ele>386</ele>
        <time>2016-05-28T07:24:05.000Z</time>
      </trkpt>
      <trkpt lat="43.71061" lon="5.87361">
        <ele>385</ele>
        <time>2016-05-28T07:24:07.000Z</time>
      </trkpt>
      <trkpt lat="43.71063" lon="5.87346">
        <ele>384</ele>
        <time>2016-05-28T07:24:09.000Z</time>
      </trkpt>
      <trkpt lat="43.71069" lon="5.8733">
        <ele>383</ele>
        <time>2016-05-28T07:24:11.000Z</time>
      </trkpt>
      <trkpt lat="43.71076" lon="5.87314">
        <ele>381</ele>
        <time>2016-05-28T07:24:13.000Z</time>
      </trkpt>
      <trkpt lat="43.71078" lon="5.87301">
        <ele>380</ele>
        <time>2016-05-28T07:24:15.000Z</time>
      </trkpt>
      <trkpt lat="43.71072" lon="5.87288">
        <ele>379</ele>
        <time>2016-05-28T07:24:17.000Z</time>
      </trkpt>
      <trkpt lat="43.71064" lon="5.87277">
        <ele>378</ele>
        <time>2016-05-28T07:24:19.000Z</time>
      </trkpt>
      <trkpt lat="43.71058" lon="5.87266">
        <ele>377</ele>
        <time>2016-05-28T07:24:21.000Z</time>
      </trkpt>
      <trkpt lat="43.71058" lon="5.87266">
        <ele>377</ele>
        <time>2016-05-28T07:24:23.000Z</time>
      </trkpt>
      <trkpt lat="43.71058" lon="5.87266">
        <ele>377</ele>
        <time>2016-05-28T07:24:25.000Z</time>
      </trkpt>
      <trkpt lat="43.71058" lon="5.87266">
        <ele>377</ele>
        <time>2016-05-28T07:24:27.000Z</time>
      </trkpt>
      <trkpt lat="43.71058" lon="5.87266">
        <ele>377</ele>
        <time>2016-05-28T07:24:29.000Z</time>
      </trkpt>
      <trkpt lat="43.71058" lon="5.87266">
        <ele>377</ele>
        <time>2016-05-28T07:24:31.000Z</time>
      </trkpt>
      <trkpt lat="43.71058" lon="5.87266">
        <ele>377</ele>
        <time>2016-05-28T07:24:33.000Z</time>
      </trkpt>
      <trkpt lat="43.71058" lon="5.87266">
        <ele>377</ele>
        <time>2016-05-28T07:24:35.000Z</time>
      </trkpt>
      <trkpt lat="43.71058" lon="5.87266">
        <ele>377</ele>
        <time>2016-05-28T07:24:37.000Z</time>
      </trkpt>
      <trkpt lat="43.71058" lon="5.87266">
        <ele>377</ele>
        <time>2016-05-28T07:24:39.000Z</time>
      </trkpt>
      <trkpt lat="43.71058" lon="5.87266">
        <ele>377</ele>
        <time>2016-05-28T07:24:41.000Z</time>
      </trkpt>
      <trkpt lat="43.71058" lon="5.87266">
        <ele>377</ele>
        <time>2016-05-28T07:24:43.000Z</time>
      </trkpt>
      <trkpt lat="43.71058" lon="5.87266">
        <ele>377</ele>
        <time>2016-05-28T07:24:45.000Z</time>
      </trkpt>
      <trkpt lat="43.71058" lon="5.87266">
        <ele>377</ele>
        <time>2016-05-28T07:24:47.000Z</time>
      </trkpt>
      <trkpt lat="43.71058" lon="5.87266">
        <ele>377</ele>
        <time>2016-05-28T07:24:49.000Z</time>
      </trkpt>
      <trkpt lat="43.71058" lon="5.87266">
        <ele>377</ele>
        <time>2016-05-28T07:24:51.000Z</time>
      </trkpt>
      <trkpt lat="43.71058" lon="5.87266">
        <ele>377</ele>
        <time>2016-05-28T07:24:53.000Z</time>
      </trkpt>
      <trkpt lat="43.71058" lon="5.87266">
        <ele>377</ele>
        <time>2016-05-28T07:24:55.000Z</time>
      </trkpt>
      <trkpt lat="43.71058" lon="5.87266">
        <ele>377</ele>
        <time>2016-05-28T07:24:57.000Z</time>
      </trkpt>
      <trkpt lat="43.71058" lon="5.87266">
        <ele>377</ele>
        <time>2016-05-28T07:24:59.000Z</time>
      </trkpt>
      <trkpt lat="43.71058" lon="5.87266">
        <ele>377</ele>
        <time>2016-05-28T07:25:01.000Z</time>
      </trkpt>
      <trkpt lat="43.711" lon="5.87295">
        <ele>369</ele>
        <time>2016-05-28T07:25:03.000Z</time>
      </trkpt>
      <trkpt lat="43.71122" lon="5.87312">
        <ele>371</ele>
        <time>2016-05-28T07:25:05.000Z</time>
      </trkpt>
      <trkpt lat="43.71135" lon="5.87325">
        <ele>373</ele>
        <time>2016-05-28T07:25:07.000Z</time>
      </trkpt>
      <trkpt lat="43.71141" lon="5.87335">
        <ele>375</ele>
        <time>2016-05-28T07:25:09.000Z</time>
      </trkpt>
      <trkpt lat="43.71144" lon="5.87343">
        <ele>377</ele>
        <time>2016-05-28T07:25:11.000Z</time>
      </trkpt>
      <trkpt lat="43.71147" lon="5.8736">
        <ele>377</ele>
        <time>2016-05-28T07:25:13.000Z</time>
      </trkpt>
      <trkpt lat="43.71147" lon="5.87375">
        <ele>379</ele>
        <time>2016-05-28T07:25:17.000Z</time>
      </trkpt>
      <trkpt lat="43.71147" lon="5.87375">
        <ele>379</ele>
        <time>2016-05-28T07:25:19.000Z</time>
      </trkpt>
      <trkpt lat="43.71147" lon="5.87375">
        <ele>379</ele>
        <time>2016-05-28T07:25:21.000Z</time>
      </trkpt>
      <trkpt lat="43.71147" lon="5.87375">
        <ele>379</ele>
        <time>2016-05-28T07:25:23.000Z</time>
      </trkpt>
      <trkpt lat="43.71156" lon="5.87403">
        <ele>377</ele>
        <time>2016-05-28T07:25:25.000Z</time>
      </trkpt>
      <trkpt lat="43.71163" lon="5.87418">
        <ele>377</ele>
        <time>2016-05-28T07:25:29.000Z</time>
      </trkpt>
      <trkpt lat="43.71167" lon="5.87431">
        <ele>376</ele>
        <time>2016-05-28T07:25:33.000Z</time>
      </trkpt>
      <trkpt lat="43.71172" lon="5.87445">
        <ele>377</ele>
        <time>2016-05-28T07:25:37.000Z</time>
      </trkpt>
      <trkpt lat="43.71172" lon="5.87445">
        <ele>377</ele>
        <time>2016-05-28T07:25:39.000Z</time>
      </trkpt>
      <trkpt lat="43.71172" lon="5.87445">
        <ele>377</ele>
        <time>2016-05-28T07:25:41.000Z</time>
      </trkpt>
      <trkpt lat="43.71172" lon="5.87445">
        <ele>377</ele>
        <time>2016-05-28T07:25:43.000Z</time>
      </trkpt>
      <trkpt lat="43.71172" lon="5.87445">
        <ele>377</ele>
        <time>2016-05-28T07:25:45.000Z</time>
      </trkpt>
      <trkpt lat="43.71172" lon="5.87445">
        <ele>377</ele>
        <time>2016-05-28T07:25:47.000Z</time>
      </trkpt>
      <trkpt lat="43.71163" lon="5.87496">
        <ele>380</ele>
        <time>2016-05-28T07:25:53.000Z</time>
      </trkpt>
      <trkpt lat="43.71163" lon="5.87496">
        <ele>380</ele>
        <time>2016-05-28T07:25:55.000Z</time>
      </trkpt>
      <trkpt lat="43.71163" lon="5.87496">
        <ele>380</ele>
        <time>2016-05-28T07:25:57.000Z</time>
      </trkpt>
      <trkpt lat="43.71163" lon="5.87496">
        <ele>380</ele>
        <time>2016-05-28T07:25:59.000Z</time>
      </trkpt>
      <trkpt lat="43.71163" lon="5.87496">
        <ele>380</ele>
        <time>2016-05-28T07:26:01.000Z</time>
      </trkpt>
      <trkpt lat="43.71163" lon="5.87496">
        <ele>380</ele>
        <time>2016-05-28T07:26:03.000Z</time>
      </trkpt>
      <trkpt lat="43.71163" lon="5.87496">
        <ele>380</ele>
        <time>2016-05-28T07:26:05.000Z</time>
      </trkpt>
      <trkpt lat="43.71163" lon="5.87496">
        <ele>380</ele>
        <time>2016-05-28T07:26:07.000Z</time>
      </trkpt>
      <trkpt lat="43.71163" lon="5.87496">
        <ele>380</ele>
        <time>2016-05-28T07:26:09.000Z</time>
      </trkpt>
      <trkpt lat="43.71163" lon="5.87496">
        <ele>380</ele>
        <time>2016-05-28T07:26:11.000Z</time>
      </trkpt>
      <trkpt lat="43.71151" lon="5.87556">
        <ele>382</ele>
        <time>2016-05-28T07:26:13.000Z</time>
      </trkpt>
      <trkpt lat="43.71154" lon="5.87571">
        <ele>382</ele>
        <time>2016-05-28T07:26:17.000Z</time>
      </trkpt>
      <trkpt lat="43.71161" lon="5.87584">
        <ele>382</ele>
        <time>2016-05-28T07:26:21.000Z</time>
      </trkpt>
      <trkpt lat="43.7117" lon="5.87592">
        <ele>382</ele>
        <time>2016-05-28T07:26:25.000Z</time>
      </trkpt>
      <trkpt lat="43.71182" lon="5.87598">
        <ele>382</ele>
        <time>2016-05-28T07:26:29.000Z</time>
      </trkpt>
      <trkpt lat="43.71193" lon="5.87602">
        <ele>382</ele>
        <time>2016-05-28T07:26:33.000Z</time>
      </trkpt>
      <trkpt lat="43.71204" lon="5.87607">
        <ele>382</ele>
        <time>2016-05-28T07:26:37.000Z</time>
      </trkpt>
      <trkpt lat="43.71209" lon="5.87609">
        <ele>382</ele>
        <time>2016-05-28T07:26:41.000Z</time>
      </trkpt>
      <trkpt lat="43.71215" lon="5.87612">
        <ele>382</ele>
        <time>2016-05-28T07:26:43.000Z</time>
      </trkpt>
      <trkpt lat="43.7122" lon="5.87614">
        <ele>382</ele>
        <time>2016-05-28T07:26:45.000Z</time>
      </trkpt>
      <trkpt lat="43.71225" lon="5.87616">
        <ele>383</ele>
        <time>2016-05-28T07:26:47.000Z</time>
      </trkpt>
      <trkpt lat="43.7123" lon="5.87619">
        <ele>384</ele>
        <time>2016-05-28T07:26:49.000Z</time>
      </trkpt>
      <trkpt lat="43.71241" lon="5.87623">
        <ele>383</ele>
        <time>2016-05-28T07:26:51.000Z</time>
      </trkpt>
      <trkpt lat="43.71251" lon="5.87629">
        <ele>383</ele>
        <time>2016-05-28T07:26:55.000Z</time>
      </trkpt>
      <trkpt lat="43.71262" lon="5.87634">
        <ele>383</ele>
        <time>2016-05-28T07:26:59.000Z</time>
      </trkpt>
      <trkpt lat="43.71272" lon="5.87639">
        <ele>384</ele>
        <time>2016-05-28T07:27:03.000Z</time>
      </trkpt>
      <trkpt lat="43.71283" lon="5.87643">
        <ele>384</ele>
        <time>2016-05-28T07:27:07.000Z</time>
      </trkpt>
      <trkpt lat="43.71294" lon="5.87647">
        <ele>385</ele>
        <time>2016-05-28T07:27:11.000Z</time>
      </trkpt>
      <trkpt lat="43.71304" lon="5.87652">
        <ele>385</ele>
        <time>2016-05-28T07:27:15.000Z</time>
      </trkpt>
      <trkpt lat="43.71315" lon="5.87656">
        <ele>385</ele>
        <time>2016-05-28T07:27:19.000Z</time>
      </trkpt>
      <trkpt lat="43.71326" lon="5.87659">
        <ele>386</ele>
        <time>2016-05-28T07:27:23.000Z</time>
      </trkpt>
      <trkpt lat="43.71336" lon="5.87663">
        <ele>386</ele>
        <time>2016-05-28T07:27:27.000Z</time>
      </trkpt>
      <trkpt lat="43.71346" lon="5.87667">
        <ele>386</ele>
        <time>2016-05-28T07:27:31.000Z</time>
      </trkpt>
      <trkpt lat="43.71355" lon="5.87673">
        <ele>386</ele>
        <time>2016-05-28T07:27:35.000Z</time>
      </trkpt>
      <trkpt lat="43.71355" lon="5.87673">
        <ele>386</ele>
        <time>2016-05-28T07:27:39.000Z</time>
      </trkpt>
      <trkpt lat="43.71355" lon="5.87673">
        <ele>386</ele>
        <time>2016-05-28T07:27:41.000Z</time>
      </trkpt>
      <trkpt lat="43.71355" lon="5.87673">
        <ele>386</ele>
        <time>2016-05-28T07:27:43.000Z</time>
      </trkpt>
      <trkpt lat="43.71355" lon="5.87673">
        <ele>386</ele>
        <time>2016-05-28T07:27:45.000Z</time>
      </trkpt>
      <trkpt lat="43.71355" lon="5.87673">
        <ele>386</ele>
        <time>2016-05-28T07:27:47.000Z</time>
      </trkpt>
      <trkpt lat="43.71355" lon="5.87673">
        <ele>386</ele>
        <time>2016-05-28T07:27:49.000Z</time>
      </trkpt>
      <trkpt lat="43.71355" lon="5.87673">
        <ele>386</ele>
        <time>2016-05-28T07:27:51.000Z</time>
      </trkpt>
      <trkpt lat="43.71355" lon="5.87673">
        <ele>386</ele>
        <time>2016-05-28T07:27:53.000Z</time>
      </trkpt>
      <trkpt lat="43.71384" lon="5.87689">
        <ele>384</ele>
        <time>2016-05-28T07:28:37.000Z</time>
      </trkpt>
      <trkpt lat="43.71384" lon="5.87689">
        <ele>384</ele>
        <time>2016-05-28T07:28:39.000Z</time>
      </trkpt>
      <trkpt lat="43.71384" lon="5.87689">
        <ele>384</ele>
        <time>2016-05-28T07:28:41.000Z</time>
      </trkpt>
      <trkpt lat="43.71392" lon="5.87693">
        <ele>386</ele>
        <time>2016-05-28T07:29:58.000Z</time>
      </trkpt>
      <trkpt lat="43.714" lon="5.87698">
        <ele>388</ele>
        <time>2016-05-28T07:30:04.000Z</time>
      </trkpt>
      <trkpt lat="43.714" lon="5.87698">
        <ele>388</ele>
        <time>2016-05-28T07:30:06.000Z</time>
      </trkpt>
      <trkpt lat="43.714" lon="5.87698">
        <ele>388</ele>
        <time>2016-05-28T07:30:08.000Z</time>
      </trkpt>
      <trkpt lat="43.714" lon="5.87698">
        <ele>388</ele>
        <time>2016-05-28T07:30:10.000Z</time>
      </trkpt>
      <trkpt lat="43.714" lon="5.87698">
        <ele>388</ele>
        <time>2016-05-28T07:30:12.000Z</time>
      </trkpt>
      <trkpt lat="43.714" lon="5.87698">
        <ele>388</ele>
        <time>2016-05-28T07:30:14.000Z</time>
      </trkpt>
      <trkpt lat="43.71413" lon="5.87685">
        <ele>392</ele>
        <time>2016-05-28T07:30:20.000Z</time>
      </trkpt>
      <trkpt lat="43.71413" lon="5.87685">
        <ele>392</ele>
        <time>2016-05-28T07:30:22.000Z</time>
      </trkpt>
      <trkpt lat="43.71413" lon="5.87685">
        <ele>392</ele>
        <time>2016-05-28T07:30:24.000Z</time>
      </trkpt>
      <trkpt lat="43.71416" lon="5.87673">
        <ele>392</ele>
        <time>2016-05-28T07:30:26.000Z</time>
      </trkpt>
      <trkpt lat="43.7142" lon="5.87658">
        <ele>394</ele>
        <time>2016-05-28T07:30:32.000Z</time>
      </trkpt>
      <trkpt lat="43.7142" lon="5.87658">
        <ele>394</ele>
        <time>2016-05-28T07:30:36.000Z</time>
      </trkpt>
      <trkpt lat="43.7142" lon="5.87658">
        <ele>394</ele>
        <time>2016-05-28T07:30:38.000Z</time>
      </trkpt>
      <trkpt lat="43.7142" lon="5.87658">
        <ele>394</ele>
        <time>2016-05-28T07:30:40.000Z</time>
      </trkpt>
      <trkpt lat="43.7142" lon="5.87658">
        <ele>394</ele>
        <time>2016-05-28T07:30:42.000Z</time>
      </trkpt>
      <trkpt lat="43.7142" lon="5.87658">
        <ele>394</ele>
        <time>2016-05-28T07:30:44.000Z</time>
      </trkpt>
      <trkpt lat="43.71421" lon="5.87627">
        <ele>397</ele>
        <time>2016-05-28T07:30:46.000Z</time>
      </trkpt>
      <trkpt lat="43.71422" lon="5.87612">
        <ele>397</ele>
        <time>2016-05-28T07:30:50.000Z</time>
      </trkpt>
      <trkpt lat="43.71423" lon="5.87597">
        <ele>396</ele>
        <time>2016-05-28T07:30:54.000Z</time>
      </trkpt>
      <trkpt lat="43.71426" lon="5.87578">
        <ele>395</ele>
        <time>2016-05-28T07:30:58.000Z</time>
      </trkpt>
      <trkpt lat="43.71431" lon="5.87561">
        <ele>396</ele>
        <time>2016-05-28T07:31:02.000Z</time>
      </trkpt>
      <trkpt lat="43.71435" lon="5.87544">
        <ele>396</ele>
        <time>2016-05-28T07:31:06.000Z</time>
      </trkpt>
      <trkpt lat="43.71435" lon="5.87544">
        <ele>396</ele>
        <time>2016-05-28T07:31:08.000Z</time>
      </trkpt>
      <trkpt lat="43.71438" lon="5.87528">
        <ele>395</ele>
        <time>2016-05-28T07:31:10.000Z</time>
      </trkpt>
      <trkpt lat="43.71438" lon="5.87528">
        <ele>395</ele>
        <time>2016-05-28T07:31:12.000Z</time>
      </trkpt>
      <trkpt lat="43.71438" lon="5.87528">
        <ele>395</ele>
        <time>2016-05-28T07:31:14.000Z</time>
      </trkpt>
      <trkpt lat="43.71438" lon="5.87528">
        <ele>395</ele>
        <time>2016-05-28T07:31:16.000Z</time>
      </trkpt>
      <trkpt lat="43.71438" lon="5.87528">
        <ele>395</ele>
        <time>2016-05-28T07:31:18.000Z</time>
      </trkpt>
      <trkpt lat="43.71438" lon="5.87528">
        <ele>395</ele>
        <time>2016-05-28T07:31:20.000Z</time>
      </trkpt>
      <trkpt lat="43.71438" lon="5.87528">
        <ele>395</ele>
        <time>2016-05-28T07:31:28.000Z</time>
      </trkpt>
      <trkpt lat="43.71448" lon="5.87496">
        <ele>394</ele>
        <time>2016-05-28T07:31:30.000Z</time>
      </trkpt>
      <trkpt lat="43.71453" lon="5.87475">
        <ele>395</ele>
        <time>2016-05-28T07:31:32.000Z</time>
      </trkpt>
      <trkpt lat="43.71455" lon="5.8746">
        <ele>395</ele>
        <time>2016-05-28T07:31:34.000Z</time>
      </trkpt>
      <trkpt lat="43.71455" lon="5.87448">
        <ele>395</ele>
        <time>2016-05-28T07:31:36.000Z</time>
      </trkpt>
      <trkpt lat="43.71454" lon="5.87438">
        <ele>395</ele>
        <time>2016-05-28T07:31:38.000Z</time>
      </trkpt>
      <trkpt lat="43.71452" lon="5.87424">
        <ele>395</ele>
        <time>2016-05-28T07:31:40.000Z</time>
      </trkpt>
      <trkpt lat="43.71452" lon="5.87424">
        <ele>395</ele>
        <time>2016-05-28T07:31:42.000Z</time>
      </trkpt>
      <trkpt lat="43.71452" lon="5.87424">
        <ele>395</ele>
        <time>2016-05-28T07:31:44.000Z</time>
      </trkpt>
      <trkpt lat="43.71452" lon="5.87424">
        <ele>395</ele>
        <time>2016-05-28T07:31:46.000Z</time>
      </trkpt>
      <trkpt lat="43.71452" lon="5.87424">
        <ele>395</ele>
        <time>2016-05-28T07:31:48.000Z</time>
      </trkpt>
      <trkpt lat="43.71452" lon="5.87424">
        <ele>395</ele>
        <time>2016-05-28T07:31:50.000Z</time>
      </trkpt>
      <trkpt lat="43.71452" lon="5.87424">
        <ele>395</ele>
        <time>2016-05-28T07:31:52.000Z</time>
      </trkpt>
      <trkpt lat="43.71452" lon="5.87424">
        <ele>395</ele>
        <time>2016-05-28T07:31:54.000Z</time>
      </trkpt>
      <trkpt lat="43.71452" lon="5.87424">
        <ele>395</ele>
        <time>2016-05-28T07:31:56.000Z</time>
      </trkpt>
      <trkpt lat="43.71452" lon="5.87424">
        <ele>395</ele>
        <time>2016-05-28T07:31:58.000Z</time>
      </trkpt>
      <trkpt lat="43.71452" lon="5.87424">
        <ele>395</ele>
        <time>2016-05-28T07:32:00.000Z</time>
      </trkpt>
      <trkpt lat="43.71452" lon="5.87424">
        <ele>395</ele>
        <time>2016-05-28T07:32:02.000Z</time>
      </trkpt>
      <trkpt lat="43.71452" lon="5.87424">
        <ele>395</ele>
        <time>2016-05-28T07:32:04.000Z</time>
      </trkpt>
      <trkpt lat="43.71452" lon="5.87424">
        <ele>395</ele>
        <time>2016-05-28T07:32:06.000Z</time>
      </trkpt>
      <trkpt lat="43.71452" lon="5.87424">
        <ele>395</ele>
        <time>2016-05-28T07:32:08.000Z</time>
      </trkpt>
      <trkpt lat="43.71449" lon="5.8735">
        <ele>398</ele>
        <time>2016-05-28T07:32:10.000Z</time>
      </trkpt>
      <trkpt lat="43.7145" lon="5.87336">
        <ele>398</ele>
        <time>2016-05-28T07:32:14.000Z</time>
      </trkpt>
      <trkpt lat="43.71452" lon="5.87322">
        <ele>399</ele>
        <time>2016-05-28T07:32:18.000Z</time>
      </trkpt>
      <trkpt lat="43.71453" lon="5.87309">
        <ele>397</ele>
        <time>2016-05-28T07:32:22.000Z</time>
      </trkpt>
      <trkpt lat="43.71457" lon="5.87293">
        <ele>397</ele>
        <time>2016-05-28T07:32:26.000Z</time>
      </trkpt>
      <trkpt lat="43.71461" lon="5.87277">
        <ele>396</ele>
        <time>2016-05-28T07:32:30.000Z</time>
      </trkpt>
      <trkpt lat="43.71466" lon="5.87259">
        <ele>395</ele>
        <time>2016-05-28T07:32:34.000Z</time>
      </trkpt>
      <trkpt lat="43.71474" lon="5.87234">
        <ele>394</ele>
        <time>2016-05-28T07:32:38.000Z</time>
      </trkpt>
      <trkpt lat="43.71479" lon="5.87224">
        <ele>394</ele>
        <time>2016-05-28T07:32:40.000Z</time>
      </trkpt>
      <trkpt lat="43.71485" lon="5.87211">
        <ele>392</ele>
        <time>2016-05-28T07:32:42.000Z</time>
      </trkpt>
      <trkpt lat="43.71492" lon="5.87191">
        <ele>391</ele>
        <time>2016-05-28T07:32:46.000Z</time>
      </trkpt>
      <trkpt lat="43.71494" lon="5.87179">
        <ele>391</ele>
        <time>2016-05-28T07:32:48.000Z</time>
      </trkpt>
      <trkpt lat="43.71494" lon="5.87166">
        <ele>391</ele>
        <time>2016-05-28T07:32:50.000Z</time>
      </trkpt>
      <trkpt lat="43.71494" lon="5.87166">
        <ele>391</ele>
        <time>2016-05-28T07:32:54.000Z</time>
      </trkpt>
      <trkpt lat="43.71494" lon="5.87166">
        <ele>391</ele>
        <time>2016-05-28T07:32:56.000Z</time>
      </trkpt>
      <trkpt lat="43.71494" lon="5.87166">
        <ele>391</ele>
        <time>2016-05-28T07:32:58.000Z</time>
      </trkpt>
      <trkpt lat="43.71494" lon="5.87166">
        <ele>391</ele>
        <time>2016-05-28T07:33:00.000Z</time>
      </trkpt>
      <trkpt lat="43.71494" lon="5.87166">
        <ele>391</ele>
        <time>2016-05-28T07:33:06.000Z</time>
      </trkpt>
      <trkpt lat="43.71494" lon="5.87166">
        <ele>391</ele>
        <time>2016-05-28T07:33:08.000Z</time>
      </trkpt>
      <trkpt lat="43.71494" lon="5.87166">
        <ele>391</ele>
        <time>2016-05-28T07:33:10.000Z</time>
      </trkpt>
      <trkpt lat="43.71502" lon="5.87104">
        <ele>391</ele>
        <time>2016-05-28T07:33:14.000Z</time>
      </trkpt>
      <trkpt lat="43.71508" lon="5.87068">
        <ele>391</ele>
        <time>2016-05-28T07:33:16.000Z</time>
      </trkpt>
      <trkpt lat="43.71511" lon="5.87045">
        <ele>390</ele>
        <time>2016-05-28T07:33:18.000Z</time>
      </trkpt>
      <trkpt lat="43.71511" lon="5.87045">
        <ele>390</ele>
        <time>2016-05-28T07:33:20.000Z</time>
      </trkpt>
      <trkpt lat="43.71511" lon="5.87045">
        <ele>390</ele>
        <time>2016-05-28T07:33:22.000Z</time>
      </trkpt>
      <trkpt lat="43.71511" lon="5.87045">
        <ele>390</ele>
        <time>2016-05-28T07:33:24.000Z</time>
      </trkpt>
      <trkpt lat="43.71511" lon="5.87045">
        <ele>390</ele>
        <time>2016-05-28T07:33:26.000Z</time>
      </trkpt>
      <trkpt lat="43.71511" lon="5.87045">
        <ele>390</ele>
        <time>2016-05-28T07:33:28.000Z</time>
      </trkpt>
      <trkpt lat="43.71511" lon="5.87045">
        <ele>390</ele>
        <time>2016-05-28T07:33:30.000Z</time>
      </trkpt>
      <trkpt lat="43.71511" lon="5.87045">
        <ele>390</ele>
        <time>2016-05-28T07:33:32.000Z</time>
      </trkpt>
      <trkpt lat="43.71511" lon="5.87045">
        <ele>390</ele>
        <time>2016-05-28T07:33:34.000Z</time>
      </trkpt>
      <trkpt lat="43.71511" lon="5.87045">
        <ele>390</ele>
        <time>2016-05-28T07:33:36.000Z</time>
      </trkpt>
      <trkpt lat="43.71511" lon="5.87045">
        <ele>390</ele>
        <time>2016-05-28T07:33:38.000Z</time>
      </trkpt>
      <trkpt lat="43.71511" lon="5.87045">
        <ele>390</ele>
        <time>2016-05-28T07:33:40.000Z</time>
      </trkpt>
      <trkpt lat="43.71525" lon="5.86989">
        <ele>393</ele>
        <time>2016-05-28T07:33:46.000Z</time>
      </trkpt>
      <trkpt lat="43.71532" lon="5.86954">
        <ele>393</ele>
        <time>2016-05-28T07:33:48.000Z</time>
      </trkpt>
      <trkpt lat="43.71537" lon="5.86932">
        <ele>393</ele>
        <time>2016-05-28T07:33:50.000Z</time>
      </trkpt>
      <trkpt lat="43.71541" lon="5.86915">
        <ele>392</ele>
        <time>2016-05-28T07:33:52.000Z</time>
      </trkpt>
      <trkpt lat="43.71544" lon="5.86901">
        <ele>391</ele>
        <time>2016-05-28T07:33:54.000Z</time>
      </trkpt>
      <trkpt lat="43.71553" lon="5.86871">
        <ele>389</ele>
        <time>2016-05-28T07:33:56.000Z</time>
      </trkpt>
      <trkpt lat="43.71558" lon="5.86859">
        <ele>388</ele>
        <time>2016-05-28T07:33:58.000Z</time>
      </trkpt>
      <trkpt lat="43.71566" lon="5.86844">
        <ele>389</ele>
        <time>2016-05-28T07:34:02.000Z</time>
      </trkpt>
      <trkpt lat="43.71566" lon="5.86844">
        <ele>389</ele>
        <time>2016-05-28T07:34:04.000Z</time>
      </trkpt>
      <trkpt lat="43.71566" lon="5.86844">
        <ele>389</ele>
        <time>2016-05-28T07:34:06.000Z</time>
      </trkpt>
      <trkpt lat="43.71566" lon="5.86844">
        <ele>389</ele>
        <time>2016-05-28T07:34:08.000Z</time>
      </trkpt>
      <trkpt lat="43.71566" lon="5.86844">
        <ele>389</ele>
        <time>2016-05-28T07:34:10.000Z</time>
      </trkpt>
      <trkpt lat="43.71566" lon="5.86844">
        <ele>389</ele>
        <time>2016-05-28T07:34:12.000Z</time>
      </trkpt>
      <trkpt lat="43.71566" lon="5.86844">
        <ele>389</ele>
        <time>2016-05-28T07:34:14.000Z</time>
      </trkpt>
      <trkpt lat="43.71566" lon="5.86844">
        <ele>389</ele>
        <time>2016-05-28T07:34:16.000Z</time>
      </trkpt>
      <trkpt lat="43.71581" lon="5.86758">
        <ele>384</ele>
        <time>2016-05-28T07:34:22.000Z</time>
      </trkpt>
      <trkpt lat="43.71582" lon="5.86736">
        <ele>383</ele>
        <time>2016-05-28T07:34:26.000Z</time>
      </trkpt>
      <trkpt lat="43.71582" lon="5.86723">
        <ele>383</ele>
        <time>2016-05-28T07:34:28.000Z</time>
      </trkpt>
      <trkpt lat="43.71581" lon="5.86709">
        <ele>382</ele>
        <time>2016-05-28T07:34:30.000Z</time>
      </trkpt>
      <trkpt lat="43.71579" lon="5.86692">
        <ele>380</ele>
        <time>2016-05-28T07:34:32.000Z</time>
      </trkpt>
      <trkpt lat="43.71582" lon="5.86677">
        <ele>380</ele>
        <time>2016-05-28T07:34:34.000Z</time>
      </trkpt>
      <trkpt lat="43.71585" lon="5.86665">
        <ele>378</ele>
        <time>2016-05-28T07:34:36.000Z</time>
      </trkpt>
      <trkpt lat="43.71593" lon="5.86657">
        <ele>377</ele>
        <time>2016-05-28T07:34:38.000Z</time>
      </trkpt>
      <trkpt lat="43.71597" lon="5.86647">
        <ele>378</ele>
        <time>2016-05-28T07:34:40.000Z</time>
      </trkpt>
      <trkpt lat="43.71597" lon="5.86647">
        <ele>378</ele>
        <time>2016-05-28T07:34:44.000Z</time>
      </trkpt>
      <trkpt lat="43.71597" lon="5.86647">
        <ele>378</ele>
        <time>2016-05-28T07:34:46.000Z</time>
      </trkpt>
      <trkpt lat="43.71597" lon="5.86647">
        <ele>378</ele>
        <time>2016-05-28T07:34:52.000Z</time>
      </trkpt>
      <trkpt lat="43.71597" lon="5.86647">
        <ele>378</ele>
        <time>2016-05-28T07:34:54.000Z</time>
      </trkpt>
      <trkpt lat="43.71597" lon="5.86647">
        <ele>378</ele>
        <time>2016-05-28T07:34:56.000Z</time>
      </trkpt>
      <trkpt lat="43.71608" lon="5.86556">
        <ele>373</ele>
        <time>2016-05-28T07:35:00.000Z</time>
      </trkpt>
      <trkpt lat="43.71625" lon="5.86554">
        <ele>374</ele>
        <time>2016-05-28T07:35:04.000Z</time>
      </trkpt>
      <trkpt lat="43.7164" lon="5.86558">
        <ele>376</ele>
        <time>2016-05-28T07:35:08.000Z</time>
      </trkpt>
      <trkpt lat="43.7164" lon="5.86558">
        <ele>376</ele>
        <time>2016-05-28T07:35:10.000Z</time>
      </trkpt>
      <trkpt lat="43.7164" lon="5.86558">
        <ele>376</ele>
        <time>2016-05-28T07:35:12.000Z</time>
      </trkpt>
      <trkpt lat="43.7164" lon="5.86558">
        <ele>376</ele>
        <time>2016-05-28T07:35:14.000Z</time>
      </trkpt>
      <trkpt lat="43.7164" lon="5.86558">
        <ele>376</ele>
        <time>2016-05-28T07:35:16.000Z</time>
      </trkpt>
      <trkpt lat="43.7164" lon="5.86558">
        <ele>376</ele>
        <time>2016-05-28T07:35:18.000Z</time>
      </trkpt>
      <trkpt lat="43.7164" lon="5.86558">
        <ele>376</ele>
        <time>2016-05-28T07:35:20.000Z</time>
      </trkpt>
      <trkpt lat="43.71643" lon="5.86527">
        <ele>374</ele>
        <time>2016-05-28T07:35:26.000Z</time>
      </trkpt>
      <trkpt lat="43.71646" lon="5.86508">
        <ele>375</ele>
        <time>2016-05-28T07:35:28.000Z</time>
      </trkpt>
      <trkpt lat="43.71648" lon="5.86494">
        <ele>373</ele>
        <time>2016-05-28T07:35:30.000Z</time>
      </trkpt>
      <trkpt lat="43.71649" lon="5.86482">
        <ele>373</ele>
        <time>2016-05-28T07:35:32.000Z</time>
      </trkpt>
      <trkpt lat="43.7165" lon="5.86472">
        <ele>372</ele>
        <time>2016-05-28T07:35:34.000Z</time>
      </trkpt>
      <trkpt lat="43.71651" lon="5.86451">
        <ele>372</ele>
        <time>2016-05-28T07:35:36.000Z</time>
      </trkpt>
      <trkpt lat="43.71648" lon="5.86431">
        <ele>371</ele>
        <time>2016-05-28T07:35:40.000Z</time>
      </trkpt>
      <trkpt lat="43.71642" lon="5.86411">
        <ele>370</ele>
        <time>2016-05-28T07:35:44.000Z</time>
      </trkpt>
      <trkpt lat="43.71634" lon="5.8639">
        <ele>369</ele>
        <time>2016-05-28T07:35:48.000Z</time>
      </trkpt>
      <trkpt lat="43.71634" lon="5.86377">
        <ele>368</ele>
        <time>2016-05-28T07:35:50.000Z</time>
      </trkpt>
      <trkpt lat="43.71634" lon="5.86377">
        <ele>368</ele>
        <time>2016-05-28T07:35:52.000Z</time>
      </trkpt>
      <trkpt lat="43.71634" lon="5.86377">
        <ele>368</ele>
        <time>2016-05-28T07:35:54.000Z</time>
      </trkpt>
      <trkpt lat="43.71634" lon="5.86377">
        <ele>368</ele>
        <time>2016-05-28T07:35:56.000Z</time>
      </trkpt>
      <trkpt lat="43.71635" lon="5.86333">
        <ele>367</ele>
        <time>2016-05-28T07:36:00.000Z</time>
      </trkpt>
      <trkpt lat="43.7164" lon="5.86312">
        <ele>369</ele>
        <time>2016-05-28T07:36:04.000Z</time>
      </trkpt>
      <trkpt lat="43.71648" lon="5.86293">
        <ele>371</ele>
        <time>2016-05-28T07:36:08.000Z</time>
      </trkpt>
      <trkpt lat="43.71653" lon="5.86275">
        <ele>370</ele>
        <time>2016-05-28T07:36:12.000Z</time>
      </trkpt>
      <trkpt lat="43.71653" lon="5.86275">
        <ele>370</ele>
        <time>2016-05-28T07:36:14.000Z</time>
      </trkpt>
      <trkpt lat="43.71653" lon="5.86275">
        <ele>370</ele>
        <time>2016-05-28T07:36:16.000Z</time>
      </trkpt>
      <trkpt lat="43.71653" lon="5.86275">
        <ele>370</ele>
        <time>2016-05-28T07:36:18.000Z</time>
      </trkpt>
      <trkpt lat="43.71653" lon="5.86275">
        <ele>370</ele>
        <time>2016-05-28T07:36:20.000Z</time>
      </trkpt>
      <trkpt lat="43.71653" lon="5.86275">
        <ele>370</ele>
        <time>2016-05-28T07:36:22.000Z</time>
      </trkpt>
      <trkpt lat="43.71663" lon="5.86202">
        <ele>370</ele>
        <time>2016-05-28T07:36:28.000Z</time>
      </trkpt>
      <trkpt lat="43.7166" lon="5.86178">
        <ele>368</ele>
        <time>2016-05-28T07:36:32.000Z</time>
      </trkpt>
      <trkpt lat="43.71662" lon="5.86166">
        <ele>368</ele>
        <time>2016-05-28T07:36:34.000Z</time>
      </trkpt>
      <trkpt lat="43.71664" lon="5.86146">
        <ele>368</ele>
        <time>2016-05-28T07:36:38.000Z</time>
      </trkpt>
      <trkpt lat="43.71663" lon="5.86133">
        <ele>367</ele>
        <time>2016-05-28T07:36:40.000Z</time>
      </trkpt>
      <trkpt lat="43.71665" lon="5.86117">
        <ele>366</ele>
        <time>2016-05-28T07:36:42.000Z</time>
      </trkpt>
      <trkpt lat="43.71666" lon="5.86103">
        <ele>365</ele>
        <time>2016-05-28T07:36:44.000Z</time>
      </trkpt>
      <trkpt lat="43.71666" lon="5.86089">
        <ele>365</ele>
        <time>2016-05-28T07:36:46.000Z</time>
      </trkpt>
      <trkpt lat="43.71668" lon="5.86074">
        <ele>364</ele>
        <time>2016-05-28T07:36:48.000Z</time>
      </trkpt>
      <trkpt lat="43.71674" lon="5.86061">
        <ele>365</ele>
        <time>2016-05-28T07:36:50.000Z</time>
      </trkpt>
      <trkpt lat="43.71679" lon="5.86049">
        <ele>364</ele>
        <time>2016-05-28T07:36:52.000Z</time>
      </trkpt>
      <trkpt lat="43.71685" lon="5.86038">
        <ele>363</ele>
        <time>2016-05-28T07:36:54.000Z</time>
      </trkpt>
      <trkpt lat="43.71685" lon="5.86038">
        <ele>363</ele>
        <time>2016-05-28T07:36:56.000Z</time>
      </trkpt>
      <trkpt lat="43.71685" lon="5.86038">
        <ele>363</ele>
        <time>2016-05-28T07:36:58.000Z</time>
      </trkpt>
      <trkpt lat="43.71685" lon="5.86038">
        <ele>363</ele>
        <time>2016-05-28T07:37:00.000Z</time>
      </trkpt>
      <trkpt lat="43.71685" lon="5.86038">
        <ele>363</ele>
        <time>2016-05-28T07:37:02.000Z</time>
      </trkpt>
      <trkpt lat="43.71707" lon="5.85976">
        <ele>362</ele>
        <time>2016-05-28T07:37:06.000Z</time>
      </trkpt>
      <trkpt lat="43.71712" lon="5.85964">
        <ele>361</ele>
        <time>2016-05-28T07:37:08.000Z</time>
      </trkpt>
      <trkpt lat="43.71716" lon="5.85953">
        <ele>361</ele>
        <time>2016-05-28T07:37:10.000Z</time>
      </trkpt>
      <trkpt lat="43.7172" lon="5.85942">
        <ele>360</ele>
        <time>2016-05-28T07:37:12.000Z</time>
      </trkpt>
      <trkpt lat="43.7172" lon="5.85942">
        <ele>360</ele>
        <time>2016-05-28T07:37:14.000Z</time>
      </trkpt>
      <trkpt lat="43.7172" lon="5.85942">
        <ele>360</ele>
        <time>2016-05-28T07:37:16.000Z</time>
      </trkpt>
      <trkpt lat="43.7172" lon="5.85942">
        <ele>360</ele>
        <time>2016-05-28T07:37:18.000Z</time>
      </trkpt>
      <trkpt lat="43.7172" lon="5.85942">
        <ele>360</ele>
        <time>2016-05-28T07:37:20.000Z</time>
      </trkpt>
      <trkpt lat="43.7172" lon="5.85942">
        <ele>360</ele>
        <time>2016-05-28T07:37:22.000Z</time>
      </trkpt>
      <trkpt lat="43.7172" lon="5.85942">
        <ele>360</ele>
        <time>2016-05-28T07:37:24.000Z</time>
      </trkpt>
      <trkpt lat="43.7172" lon="5.85942">
        <ele>360</ele>
        <time>2016-05-28T07:37:26.000Z</time>
      </trkpt>
      <trkpt lat="43.7172" lon="5.85942">
        <ele>360</ele>
        <time>2016-05-28T07:37:28.000Z</time>
      </trkpt>
      <trkpt lat="43.7172" lon="5.85942">
        <ele>360</ele>
        <time>2016-05-28T07:37:30.000Z</time>
      </trkpt>
      <trkpt lat="43.7172" lon="5.85942">
        <ele>360</ele>
        <time>2016-05-28T07:37:32.000Z</time>
      </trkpt>
      <trkpt lat="43.7172" lon="5.85942">
        <ele>360</ele>
        <time>2016-05-28T07:37:34.000Z</time>
      </trkpt>
      <trkpt lat="43.7172" lon="5.85942">
        <ele>360</ele>
        <time>2016-05-28T07:37:36.000Z</time>
      </trkpt>
      <trkpt lat="43.7172" lon="5.85942">
        <ele>360</ele>
        <time>2016-05-28T07:37:38.000Z</time>
      </trkpt>
      <trkpt lat="43.7173" lon="5.85876">
        <ele>359</ele>
        <time>2016-05-28T07:37:44.000Z</time>
      </trkpt>
      <trkpt lat="43.71734" lon="5.85838">
        <ele>360</ele>
        <time>2016-05-28T07:37:46.000Z</time>
      </trkpt>
      <trkpt lat="43.71735" lon="5.85815">
        <ele>360</ele>
        <time>2016-05-28T07:37:48.000Z</time>
      </trkpt>
      <trkpt lat="43.71735" lon="5.85799">
        <ele>359</ele>
        <time>2016-05-28T07:37:50.000Z</time>
      </trkpt>
      <trkpt lat="43.71733" lon="5.85787">
        <ele>360</ele>
        <time>2016-05-28T07:37:52.000Z</time>
      </trkpt>
      <trkpt lat="43.71731" lon="5.85766">
        <ele>360</ele>
        <time>2016-05-28T07:37:54.000Z</time>
      </trkpt>
      <trkpt lat="43.71731" lon="5.85766">
        <ele>360</ele>
        <time>2016-05-28T07:37:58.000Z</time>
      </trkpt>
      <trkpt lat="43.71731" lon="5.85766">
        <ele>360</ele>
        <time>2016-05-28T07:38:00.000Z</time>
      </trkpt>
      <trkpt lat="43.71731" lon="5.85766">
        <ele>360</ele>
        <time>2016-05-28T07:38:02.000Z</time>
      </trkpt>
      <trkpt lat="43.71712" lon="5.85721">
        <ele>361</ele>
        <time>2016-05-28T07:38:06.000Z</time>
      </trkpt>
      <trkpt lat="43.71707" lon="5.85699">
        <ele>361</ele>
        <time>2016-05-28T07:38:10.000Z</time>
      </trkpt>
      <trkpt lat="43.71705" lon="5.85678">
        <ele>361</ele>
        <time>2016-05-28T07:38:14.000Z</time>
      </trkpt>
      <trkpt lat="43.71705" lon="5.85678">
        <ele>361</ele>
        <time>2016-05-28T07:38:16.000Z</time>
      </trkpt>
      <trkpt lat="43.71705" lon="5.85678">
        <ele>361</ele>
        <time>2016-05-28T07:38:18.000Z</time>
      </trkpt>
      <trkpt lat="43.71705" lon="5.85678">
        <ele>361</ele>
        <time>2016-05-28T07:38:20.000Z</time>
      </trkpt>
      <trkpt lat="43.7172" lon="5.8563">
        <ele>360</ele>
        <time>2016-05-28T07:38:24.000Z</time>
      </trkpt>
      <trkpt lat="43.7172" lon="5.8563">
        <ele>360</ele>
        <time>2016-05-28T07:38:26.000Z</time>
      </trkpt>
      <trkpt lat="43.7172" lon="5.8563">
        <ele>360</ele>
        <time>2016-05-28T07:38:28.000Z</time>
      </trkpt>
      <trkpt lat="43.7172" lon="5.8563">
        <ele>360</ele>
        <time>2016-05-28T07:38:30.000Z</time>
      </trkpt>
      <trkpt lat="43.7172" lon="5.8563">
        <ele>360</ele>
        <time>2016-05-28T07:38:32.000Z</time>
      </trkpt>
      <trkpt lat="43.7172" lon="5.8563">
        <ele>360</ele>
        <time>2016-05-28T07:38:34.000Z</time>
      </trkpt>
      <trkpt lat="43.7172" lon="5.8563">
        <ele>360</ele>
        <time>2016-05-28T07:38:36.000Z</time>
      </trkpt>
      <trkpt lat="43.71728" lon="5.85556">
        <ele>359</ele>
        <time>2016-05-28T07:38:40.000Z</time>
      </trkpt>
      <trkpt lat="43.71732" lon="5.85533">
        <ele>358</ele>
        <time>2016-05-28T07:38:44.000Z</time>
      </trkpt>
      <trkpt lat="43.71734" lon="5.8551">
        <ele>360</ele>
        <time>2016-05-28T07:38:48.000Z</time>
      </trkpt>
      <trkpt lat="43.71734" lon="5.8551">
        <ele>360</ele>
        <time>2016-05-28T07:38:50.000Z</time>
      </trkpt>
      <trkpt lat="43.71734" lon="5.8551">
        <ele>360</ele>
        <time>2016-05-28T07:38:52.000Z</time>
      </trkpt>
      <trkpt lat="43.71734" lon="5.8551">
        <ele>360</ele>
        <time>2016-05-28T07:38:54.000Z</time>
      </trkpt>
      <trkpt lat="43.71734" lon="5.8551">
        <ele>360</ele>
        <time>2016-05-28T07:38:56.000Z</time>
      </trkpt>
      <trkpt lat="43.71734" lon="5.8551">
        <ele>360</ele>
        <time>2016-05-28T07:38:58.000Z</time>
      </trkpt>
      <trkpt lat="43.71771" lon="5.85473">
        <ele>354</ele>
        <time>2016-05-28T07:39:04.000Z</time>
      </trkpt>
      <trkpt lat="43.71779" lon="5.85455">
        <ele>354</ele>
        <time>2016-05-28T07:39:08.000Z</time>
      </trkpt>
      <trkpt lat="43.71786" lon="5.85434">
        <ele>354</ele>
        <time>2016-05-28T07:39:12.000Z</time>
      </trkpt>
      <trkpt lat="43.71788" lon="5.85424">
        <ele>353</ele>
        <time>2016-05-28T07:39:16.000Z</time>
      </trkpt>
      <trkpt lat="43.71791" lon="5.85414">
        <ele>353</ele>
        <time>2016-05-28T07:39:18.000Z</time>
      </trkpt>
      <trkpt lat="43.71793" lon="5.85401">
        <ele>353</ele>
        <time>2016-05-28T07:39:20.000Z</time>
      </trkpt>
      <trkpt lat="43.71795" lon="5.85389">
        <ele>353</ele>
        <time>2016-05-28T07:39:22.000Z</time>
      </trkpt>
      <trkpt lat="43.71798" lon="5.85377">
        <ele>352</ele>
        <time>2016-05-28T07:39:24.000Z</time>
      </trkpt>
      <trkpt lat="43.71803" lon="5.85354">
        <ele>352</ele>
        <time>2016-05-28T07:39:26.000Z</time>
      </trkpt>
      <trkpt lat="43.71803" lon="5.85354">
        <ele>352</ele>
        <time>2016-05-28T07:39:28.000Z</time>
      </trkpt>
      <trkpt lat="43.71805" lon="5.85331">
        <ele>351</ele>
        <time>2016-05-28T07:39:30.000Z</time>
      </trkpt>
      <trkpt lat="43.71805" lon="5.85319">
        <ele>350</ele>
        <time>2016-05-28T07:39:32.000Z</time>
      </trkpt>
      <trkpt lat="43.718" lon="5.85307">
        <ele>349</ele>
        <time>2016-05-28T07:39:34.000Z</time>
      </trkpt>
      <trkpt lat="43.718" lon="5.85307">
        <ele>349</ele>
        <time>2016-05-28T07:39:36.000Z</time>
      </trkpt>
      <trkpt lat="43.718" lon="5.85307">
        <ele>349</ele>
        <time>2016-05-28T07:39:38.000Z</time>
      </trkpt>
      <trkpt lat="43.718" lon="5.85307">
        <ele>349</ele>
        <time>2016-05-28T07:39:40.000Z</time>
      </trkpt>
      <trkpt lat="43.71801" lon="5.85249">
        <ele>349</ele>
        <time>2016-05-28T07:39:44.000Z</time>
      </trkpt>
      <trkpt lat="43.71802" lon="5.85237">
        <ele>350</ele>
        <time>2016-05-28T07:39:46.000Z</time>
      </trkpt>
      <trkpt lat="43.71804" lon="5.85225">
        <ele>350</ele>
        <time>2016-05-28T07:39:48.000Z</time>
      </trkpt>
      <trkpt lat="43.71804" lon="5.85225">
        <ele>350</ele>
        <time>2016-05-28T07:39:50.000Z</time>
      </trkpt>
      <trkpt lat="43.71804" lon="5.85225">
        <ele>350</ele>
        <time>2016-05-28T07:39:52.000Z</time>
      </trkpt>
      <trkpt lat="43.71812" lon="5.8518">
        <ele>351</ele>
        <time>2016-05-28T07:39:56.000Z</time>
      </trkpt>
      <trkpt lat="43.71812" lon="5.8518">
        <ele>351</ele>
        <time>2016-05-28T07:39:58.000Z</time>
      </trkpt>
      <trkpt lat="43.71812" lon="5.8518">
        <ele>351</ele>
        <time>2016-05-28T07:40:00.000Z</time>
      </trkpt>
      <trkpt lat="43.71812" lon="5.8518">
        <ele>351</ele>
        <time>2016-05-28T07:40:02.000Z</time>
      </trkpt>
      <trkpt lat="43.71812" lon="5.8518">
        <ele>351</ele>
        <time>2016-05-28T07:40:04.000Z</time>
      </trkpt>
      <trkpt lat="43.71812" lon="5.8518">
        <ele>351</ele>
        <time>2016-05-28T07:40:06.000Z</time>
      </trkpt>
      <trkpt lat="43.71812" lon="5.8518">
        <ele>351</ele>
        <time>2016-05-28T07:40:08.000Z</time>
      </trkpt>
      <trkpt lat="43.71812" lon="5.8518">
        <ele>351</ele>
        <time>2016-05-28T07:40:10.000Z</time>
      </trkpt>
      <trkpt lat="43.71812" lon="5.8518">
        <ele>351</ele>
        <time>2016-05-28T07:40:12.000Z</time>
      </trkpt>
      <trkpt lat="43.71812" lon="5.8518">
        <ele>351</ele>
        <time>2016-05-28T07:40:14.000Z</time>
      </trkpt>
      <trkpt lat="43.71812" lon="5.8518">
        <ele>351</ele>
        <time>2016-05-28T07:40:16.000Z</time>
      </trkpt>
      <trkpt lat="43.71812" lon="5.8518">
        <ele>351</ele>
        <time>2016-05-28T07:40:18.000Z</time>
      </trkpt>
      <trkpt lat="43.71812" lon="5.8518">
        <ele>351</ele>
        <time>2016-05-28T07:40:20.000Z</time>
      </trkpt>
      <trkpt lat="43.71812" lon="5.8518">
        <ele>351</ele>
        <time>2016-05-28T07:40:22.000Z</time>
      </trkpt>
      <trkpt lat="43.71768" lon="5.85021">
        <ele>352</ele>
        <time>2016-05-28T07:40:28.000Z</time>
      </trkpt>
      <trkpt lat="43.71768" lon="5.85021">
        <ele>352</ele>
        <time>2016-05-28T07:40:30.000Z</time>
      </trkpt>
      <trkpt lat="43.71768" lon="5.85021">
        <ele>352</ele>
        <time>2016-05-28T07:40:32.000Z</time>
      </trkpt>
      <trkpt lat="43.71768" lon="5.85021">
        <ele>352</ele>
        <time>2016-05-28T07:40:34.000Z</time>
      </trkpt>
      <trkpt lat="43.71768" lon="5.85021">
        <ele>352</ele>
        <time>2016-05-28T07:40:36.000Z</time>
      </trkpt>
      <trkpt lat="43.71768" lon="5.85021">
        <ele>352</ele>
        <time>2016-05-28T07:40:38.000Z</time>
      </trkpt>
      <trkpt lat="43.71768" lon="5.85021">
        <ele>352</ele>
        <time>2016-05-28T07:40:40.000Z</time>
      </trkpt>
      <trkpt lat="43.71796" lon="5.84983">
        <ele>349</ele>
        <time>2016-05-28T07:40:42.000Z</time>
      </trkpt>
      <trkpt lat="43.71802" lon="5.84976">
        <ele>350</ele>
        <time>2016-05-28T07:40:46.000Z</time>
      </trkpt>
      <trkpt lat="43.71807" lon="5.84968">
        <ele>349</ele>
        <time>2016-05-28T07:40:48.000Z</time>
      </trkpt>
      <trkpt lat="43.71812" lon="5.8496">
        <ele>349</ele>
        <time>2016-05-28T07:40:50.000Z</time>
      </trkpt>
      <trkpt lat="43.71817" lon="5.84952">
        <ele>349</ele>
        <time>2016-05-28T07:40:52.000Z</time>
      </trkpt>
      <trkpt lat="43.71822" lon="5.84944">
        <ele>349</ele>
        <time>2016-05-28T07:40:54.000Z</time>
      </trkpt>
      <trkpt lat="43.71836" lon="5.84933">
        <ele>349</ele>
        <time>2016-05-28T07:40:56.000Z</time>
      </trkpt>
      <trkpt lat="43.71852" lon="5.84943">
        <ele>350</ele>
        <time>2016-05-28T07:41:00.000Z</time>
      </trkpt>
      <trkpt lat="43.71852" lon="5.84943">
        <ele>350</ele>
        <time>2016-05-28T07:41:02.000Z</time>
      </trkpt>
      <trkpt lat="43.71866" lon="5.84954">
        <ele>354</ele>
        <time>2016-05-28T07:41:04.000Z</time>
      </trkpt>
      <trkpt lat="43.71866" lon="5.84954">
        <ele>354</ele>
        <time>2016-05-28T07:41:06.000Z</time>
      </trkpt>
      <trkpt lat="43.71866" lon="5.84954">
        <ele>354</ele>
        <time>2016-05-28T07:41:08.000Z</time>
      </trkpt>
      <trkpt lat="43.71866" lon="5.84954">
        <ele>354</ele>
        <time>2016-05-28T07:41:10.000Z</time>
      </trkpt>
      <trkpt lat="43.71866" lon="5.84954">
        <ele>354</ele>
        <time>2016-05-28T07:41:12.000Z</time>
      </trkpt>
      <trkpt lat="43.71866" lon="5.84954">
        <ele>354</ele>
        <time>2016-05-28T07:41:14.000Z</time>
      </trkpt>
      <trkpt lat="43.71866" lon="5.84954">
        <ele>354</ele>
        <time>2016-05-28T07:41:16.000Z</time>
      </trkpt>
      <trkpt lat="43.71866" lon="5.84954">
        <ele>354</ele>
        <time>2016-05-28T07:41:18.000Z</time>
      </trkpt>
      <trkpt lat="43.71923" lon="5.85002">
        <ele>360</ele>
        <time>2016-05-28T07:41:24.000Z</time>
      </trkpt>
      <trkpt lat="43.71923" lon="5.85002">
        <ele>360</ele>
        <time>2016-05-28T07:41:26.000Z</time>
      </trkpt>
      <trkpt lat="43.71923" lon="5.85002">
        <ele>360</ele>
        <time>2016-05-28T07:41:28.000Z</time>
      </trkpt>
      <trkpt lat="43.71923" lon="5.85002">
        <ele>360</ele>
        <time>2016-05-28T07:41:30.000Z</time>
      </trkpt>
      <trkpt lat="43.71923" lon="5.85002">
        <ele>360</ele>
        <time>2016-05-28T07:41:32.000Z</time>
      </trkpt>
      <trkpt lat="43.71923" lon="5.85002">
        <ele>360</ele>
        <time>2016-05-28T07:41:34.000Z</time>
      </trkpt>
      <trkpt lat="43.71923" lon="5.85002">
        <ele>360</ele>
        <time>2016-05-28T07:41:36.000Z</time>
      </trkpt>
      <trkpt lat="43.71962" lon="5.85011">
        <ele>363</ele>
        <time>2016-05-28T07:41:38.000Z</time>
      </trkpt>
      <trkpt lat="43.71978" lon="5.85013">
        <ele>362</ele>
        <time>2016-05-28T07:41:42.000Z</time>
      </trkpt>
      <trkpt lat="43.71992" lon="5.85012">
        <ele>361</ele>
        <time>2016-05-28T07:41:46.000Z</time>
      </trkpt>
      <trkpt lat="43.71992" lon="5.85012">
        <ele>361</ele>
        <time>2016-05-28T07:41:48.000Z</time>
      </trkpt>
      <trkpt lat="43.71992" lon="5.85012">
        <ele>361</ele>
        <time>2016-05-28T07:41:50.000Z</time>
      </trkpt>
      <trkpt lat="43.71992" lon="5.85012">
        <ele>361</ele>
        <time>2016-05-28T07:41:52.000Z</time>
      </trkpt>
      <trkpt lat="43.72024" lon="5.8499">
        <ele>360</ele>
        <time>2016-05-28T07:41:56.000Z</time>
      </trkpt>
      <trkpt lat="43.72039" lon="5.8498">
        <ele>356</ele>
        <time>2016-05-28T07:42:00.000Z</time>
      </trkpt>
      <trkpt lat="43.72054" lon="5.8497">
        <ele>354</ele>
        <time>2016-05-28T07:42:04.000Z</time>
      </trkpt>
      <trkpt lat="43.72062" lon="5.84965">
        <ele>354</ele>
        <time>2016-05-28T07:42:06.000Z</time>
      </trkpt>
      <trkpt lat="43.72071" lon="5.8496">
        <ele>353</ele>
        <time>2016-05-28T07:42:08.000Z</time>
      </trkpt>
      <trkpt lat="43.72079" lon="5.84956">
        <ele>353</ele>
        <time>2016-05-28T07:42:10.000Z</time>
      </trkpt>
      <trkpt lat="43.72094" lon="5.84948">
        <ele>349</ele>
        <time>2016-05-28T07:42:14.000Z</time>
      </trkpt>
      <trkpt lat="43.72094" lon="5.84948">
        <ele>349</ele>
        <time>2016-05-28T07:42:16.000Z</time>
      </trkpt>
      <trkpt lat="43.72094" lon="5.84948">
        <ele>349</ele>
        <time>2016-05-28T07:42:18.000Z</time>
      </trkpt>
      <trkpt lat="43.72094" lon="5.84948">
        <ele>349</ele>
        <time>2016-05-28T07:42:20.000Z</time>
      </trkpt>
      <trkpt lat="43.72094" lon="5.84948">
        <ele>349</ele>
        <time>2016-05-28T07:42:22.000Z</time>
      </trkpt>
      <trkpt lat="43.72094" lon="5.84948">
        <ele>349</ele>
        <time>2016-05-28T07:42:24.000Z</time>
      </trkpt>
      <trkpt lat="43.72094" lon="5.84948">
        <ele>349</ele>
        <time>2016-05-28T07:42:26.000Z</time>
      </trkpt>
      <trkpt lat="43.72094" lon="5.84948">
        <ele>349</ele>
        <time>2016-05-28T07:42:28.000Z</time>
      </trkpt>
      <trkpt lat="43.72094" lon="5.84948">
        <ele>349</ele>
        <time>2016-05-28T07:42:30.000Z</time>
      </trkpt>
      <trkpt lat="43.72094" lon="5.84948">
        <ele>349</ele>
        <time>2016-05-28T07:42:32.000Z</time>
      </trkpt>
      <trkpt lat="43.72124" lon="5.84974">
        <ele>359</ele>
        <time>2016-05-28T07:42:38.000Z</time>
      </trkpt>
      <trkpt lat="43.72142" lon="5.84989">
        <ele>359</ele>
        <time>2016-05-28T07:42:40.000Z</time>
      </trkpt>
      <trkpt lat="43.72154" lon="5.84999">
        <ele>360</ele>
        <time>2016-05-28T07:42:42.000Z</time>
      </trkpt>
      <trkpt lat="43.72163" lon="5.85005">
        <ele>361</ele>
        <time>2016-05-28T07:42:44.000Z</time>
      </trkpt>
      <trkpt lat="43.72171" lon="5.8501">
        <ele>361</ele>
        <time>2016-05-28T07:42:46.000Z</time>
      </trkpt>
      <trkpt lat="43.72171" lon="5.8501">
        <ele>361</ele>
        <time>2016-05-28T07:42:48.000Z</time>
      </trkpt>
      <trkpt lat="43.72198" lon="5.85021">
        <ele>360</ele>
        <time>2016-05-28T07:42:52.000Z</time>
      </trkpt>
      <trkpt lat="43.72215" lon="5.85023">
        <ele>356</ele>
        <time>2016-05-28T07:42:56.000Z</time>
      </trkpt>
      <trkpt lat="43.72232" lon="5.85024">
        <ele>357</ele>
        <time>2016-05-28T07:43:00.000Z</time>
      </trkpt>
      <trkpt lat="43.72232" lon="5.85024">
        <ele>357</ele>
        <time>2016-05-28T07:43:02.000Z</time>
      </trkpt>
      <trkpt lat="43.72247" lon="5.85023">
        <ele>356</ele>
        <time>2016-05-28T07:43:04.000Z</time>
      </trkpt>
      <trkpt lat="43.72247" lon="5.85023">
        <ele>356</ele>
        <time>2016-05-28T07:43:06.000Z</time>
      </trkpt>
      <trkpt lat="43.72247" lon="5.85023">
        <ele>356</ele>
        <time>2016-05-28T07:43:08.000Z</time>
      </trkpt>
      <trkpt lat="43.72247" lon="5.85023">
        <ele>356</ele>
        <time>2016-05-28T07:43:10.000Z</time>
      </trkpt>
      <trkpt lat="43.72247" lon="5.85023">
        <ele>356</ele>
        <time>2016-05-28T07:43:12.000Z</time>
      </trkpt>
      <trkpt lat="43.72247" lon="5.85023">
        <ele>356</ele>
        <time>2016-05-28T07:43:14.000Z</time>
      </trkpt>
      <trkpt lat="43.72247" lon="5.85023">
        <ele>356</ele>
        <time>2016-05-28T07:43:16.000Z</time>
      </trkpt>
      <trkpt lat="43.72247" lon="5.85023">
        <ele>356</ele>
        <time>2016-05-28T07:43:18.000Z</time>
      </trkpt>
      <trkpt lat="43.72247" lon="5.85023">
        <ele>356</ele>
        <time>2016-05-28T07:43:20.000Z</time>
      </trkpt>
      <trkpt lat="43.72247" lon="5.85023">
        <ele>356</ele>
        <time>2016-05-28T07:43:22.000Z</time>
      </trkpt>
      <trkpt lat="43.72247" lon="5.85023">
        <ele>356</ele>
        <time>2016-05-28T07:43:24.000Z</time>
      </trkpt>
      <trkpt lat="43.72336" lon="5.85022">
        <ele>355</ele>
        <time>2016-05-28T07:43:28.000Z</time>
      </trkpt>
      <trkpt lat="43.7235" lon="5.85017">
        <ele>355</ele>
        <time>2016-05-28T07:43:32.000Z</time>
      </trkpt>
      <trkpt lat="43.7235" lon="5.85017">
        <ele>355</ele>
        <time>2016-05-28T07:43:34.000Z</time>
      </trkpt>
      <trkpt lat="43.72364" lon="5.85013">
        <ele>354</ele>
        <time>2016-05-28T07:43:36.000Z</time>
      </trkpt>
      <trkpt lat="43.72364" lon="5.85013">
        <ele>354</ele>
        <time>2016-05-28T07:43:38.000Z</time>
      </trkpt>
      <trkpt lat="43.7238" lon="5.85012">
        <ele>355</ele>
        <time>2016-05-28T07:43:40.000Z</time>
      </trkpt>
      <trkpt lat="43.7239" lon="5.85014">
        <ele>353</ele>
        <time>2016-05-28T07:43:42.000Z</time>
      </trkpt>
      <trkpt lat="43.72399" lon="5.85013">
        <ele>354</ele>
        <time>2016-05-28T07:43:44.000Z</time>
      </trkpt>
      <trkpt lat="43.72409" lon="5.85007">
        <ele>351</ele>
        <time>2016-05-28T07:43:46.000Z</time>
      </trkpt>
      <trkpt lat="43.72425" lon="5.85002">
        <ele>354</ele>
        <time>2016-05-28T07:43:50.000Z</time>
      </trkpt>
      <trkpt lat="43.72434" lon="5.84998">
        <ele>355</ele>
        <time>2016-05-28T07:43:52.000Z</time>
      </trkpt>
      <trkpt lat="43.72445" lon="5.84996">
        <ele>352</ele>
        <time>2016-05-28T07:43:54.000Z</time>
      </trkpt>
      <trkpt lat="43.72456" lon="5.84992">
        <ele>352</ele>
        <time>2016-05-28T07:43:56.000Z</time>
      </trkpt>
      <trkpt lat="43.72467" lon="5.8499">
        <ele>353</ele>
        <time>2016-05-28T07:43:58.000Z</time>
      </trkpt>
      <trkpt lat="43.72477" lon="5.84983">
        <ele>351</ele>
        <time>2016-05-28T07:44:00.000Z</time>
      </trkpt>
      <trkpt lat="43.72486" lon="5.84979">
        <ele>349</ele>
        <time>2016-05-28T07:44:02.000Z</time>
      </trkpt>
      <trkpt lat="43.72486" lon="5.84979">
        <ele>349</ele>
        <time>2016-05-28T07:44:04.000Z</time>
      </trkpt>
      <trkpt lat="43.72486" lon="5.84979">
        <ele>349</ele>
        <time>2016-05-28T07:44:06.000Z</time>
      </trkpt>
      <trkpt lat="43.72486" lon="5.84979">
        <ele>349</ele>
        <time>2016-05-28T07:44:08.000Z</time>
      </trkpt>
      <trkpt lat="43.72486" lon="5.84979">
        <ele>349</ele>
        <time>2016-05-28T07:44:10.000Z</time>
      </trkpt>
      <trkpt lat="43.72486" lon="5.84979">
        <ele>349</ele>
        <time>2016-05-28T07:44:12.000Z</time>
      </trkpt>
      <trkpt lat="43.72486" lon="5.84979">
        <ele>349</ele>
        <time>2016-05-28T07:44:14.000Z</time>
      </trkpt>
      <trkpt lat="43.72486" lon="5.84979">
        <ele>349</ele>
        <time>2016-05-28T07:44:16.000Z</time>
      </trkpt>
      <trkpt lat="43.72486" lon="5.84979">
        <ele>349</ele>
        <time>2016-05-28T07:44:18.000Z</time>
      </trkpt>
      <trkpt lat="43.72486" lon="5.84979">
        <ele>349</ele>
        <time>2016-05-28T07:44:20.000Z</time>
      </trkpt>
      <trkpt lat="43.72486" lon="5.84979">
        <ele>349</ele>
        <time>2016-05-28T07:44:22.000Z</time>
      </trkpt>
      <trkpt lat="43.72486" lon="5.84979">
        <ele>349</ele>
        <time>2016-05-28T07:44:24.000Z</time>
      </trkpt>
      <trkpt lat="43.72523" lon="5.84955">
        <ele>352</ele>
        <time>2016-05-28T07:44:28.000Z</time>
      </trkpt>
      <trkpt lat="43.72545" lon="5.84937">
        <ele>350</ele>
        <time>2016-05-28T07:44:30.000Z</time>
      </trkpt>
      <trkpt lat="43.72561" lon="5.84922">
        <ele>350</ele>
        <time>2016-05-28T07:44:32.000Z</time>
      </trkpt>
      <trkpt lat="43.72571" lon="5.84907">
        <ele>350</ele>
        <time>2016-05-28T07:44:34.000Z</time>
      </trkpt>
      <trkpt lat="43.72579" lon="5.84892">
        <ele>350</ele>
        <time>2016-05-28T07:44:36.000Z</time>
      </trkpt>
      <trkpt lat="43.7259" lon="5.84857">
        <ele>349</ele>
        <time>2016-05-28T07:44:38.000Z</time>
      </trkpt>
      <trkpt lat="43.72592" lon="5.84837">
        <ele>348</ele>
        <time>2016-05-28T07:44:40.000Z</time>
      </trkpt>
      <trkpt lat="43.72593" lon="5.84817">
        <ele>347</ele>
        <time>2016-05-28T07:44:42.000Z</time>
      </trkpt>
      <trkpt lat="43.72591" lon="5.848">
        <ele>345</ele>
        <time>2016-05-28T07:44:44.000Z</time>
      </trkpt>
      <trkpt lat="43.72593" lon="5.84778">
        <ele>346</ele>
        <time>2016-05-28T07:44:47.000Z</time>
      </trkpt>
      <trkpt lat="43.72599" lon="5.84764">
        <ele>346</ele>
        <time>2016-05-28T07:44:49.000Z</time>
      </trkpt>
      <trkpt lat="43.72606" lon="5.84751">
        <ele>346</ele>
        <time>2016-05-28T07:44:51.000Z</time>
      </trkpt>
      <trkpt lat="43.72621" lon="5.84726">
        <ele>344</ele>
        <time>2016-05-28T07:44:54.000Z</time>
      </trkpt>
      <trkpt lat="43.72633" lon="5.84711">
        <ele>345</ele>
        <time>2016-05-28T07:44:57.000Z</time>
      </trkpt>
      <trkpt lat="43.72633" lon="5.84711">
        <ele>345</ele>
        <time>2016-05-28T07:44:59.000Z</time>
      </trkpt>
      <trkpt lat="43.72633" lon="5.84711">
        <ele>345</ele>
        <time>2016-05-28T07:45:01.000Z</time>
      </trkpt>
      <trkpt lat="43.72633" lon="5.84711">
        <ele>345</ele>
        <time>2016-05-28T07:45:04.000Z</time>
      </trkpt>
      <trkpt lat="43.72633" lon="5.84711">
        <ele>345</ele>
        <time>2016-05-28T07:45:05.000Z</time>
      </trkpt>
      <trkpt lat="43.72633" lon="5.84711">
        <ele>345</ele>
        <time>2016-05-28T07:45:07.000Z</time>
      </trkpt>
      <trkpt lat="43.72633" lon="5.84711">
        <ele>345</ele>
        <time>2016-05-28T07:45:09.000Z</time>
      </trkpt>
      <trkpt lat="43.72698" lon="5.84645">
        <ele>339</ele>
        <time>2016-05-28T07:45:16.000Z</time>
      </trkpt>
      <trkpt lat="43.72698" lon="5.84645">
        <ele>339</ele>
        <time>2016-05-28T07:45:18.000Z</time>
      </trkpt>
      <trkpt lat="43.72698" lon="5.84645">
        <ele>339</ele>
        <time>2016-05-28T07:45:20.000Z</time>
      </trkpt>
      <trkpt lat="43.72698" lon="5.84645">
        <ele>339</ele>
        <time>2016-05-28T07:45:22.000Z</time>
      </trkpt>
      <trkpt lat="43.72698" lon="5.84645">
        <ele>339</ele>
        <time>2016-05-28T07:45:24.000Z</time>
      </trkpt>
      <trkpt lat="43.72698" lon="5.84645">
        <ele>339</ele>
        <time>2016-05-28T07:45:26.000Z</time>
      </trkpt>
      <trkpt lat="43.72698" lon="5.84645">
        <ele>339</ele>
        <time>2016-05-28T07:45:28.000Z</time>
      </trkpt>
      <trkpt lat="43.72698" lon="5.84645">
        <ele>339</ele>
        <time>2016-05-28T07:45:30.000Z</time>
      </trkpt>
      <trkpt lat="43.72698" lon="5.84645">
        <ele>339</ele>
        <time>2016-05-28T07:45:32.000Z</time>
      </trkpt>
      <trkpt lat="43.72698" lon="5.84645">
        <ele>339</ele>
        <time>2016-05-28T07:45:34.000Z</time>
      </trkpt>
      <trkpt lat="43.72698" lon="5.84645">
        <ele>339</ele>
        <time>2016-05-28T07:45:36.000Z</time>
      </trkpt>
      <trkpt lat="43.72743" lon="5.84624">
        <ele>338</ele>
        <time>2016-05-28T07:45:40.000Z</time>
      </trkpt>
      <trkpt lat="43.72737" lon="5.84614">
        <ele>338</ele>
        <time>2016-05-28T07:45:44.000Z</time>
      </trkpt>
      <trkpt lat="43.72737" lon="5.84614">
        <ele>338</ele>
        <time>2016-05-28T07:45:48.000Z</time>
      </trkpt>
      <trkpt lat="43.72737" lon="5.84614">
        <ele>338</ele>
        <time>2016-05-28T07:45:50.000Z</time>
      </trkpt>
      <trkpt lat="43.72737" lon="5.84614">
        <ele>338</ele>
        <time>2016-05-28T07:45:52.000Z</time>
      </trkpt>
      <trkpt lat="43.72737" lon="5.84614">
        <ele>338</ele>
        <time>2016-05-28T07:45:54.000Z</time>
      </trkpt>
      <trkpt lat="43.72737" lon="5.84614">
        <ele>338</ele>
        <time>2016-05-28T07:46:00.000Z</time>
      </trkpt>
      <trkpt lat="43.72737" lon="5.84614">
        <ele>338</ele>
        <time>2016-05-28T07:46:02.000Z</time>
      </trkpt>
      <trkpt lat="43.72737" lon="5.84614">
        <ele>338</ele>
        <time>2016-05-28T07:46:04.000Z</time>
      </trkpt>
      <trkpt lat="43.72737" lon="5.84614">
        <ele>338</ele>
        <time>2016-05-28T07:46:06.000Z</time>
      </trkpt>
      <trkpt lat="43.72737" lon="5.84614">
        <ele>338</ele>
        <time>2016-05-28T07:46:08.000Z</time>
      </trkpt>
      <trkpt lat="43.72728" lon="5.84586">
        <ele>349</ele>
        <time>2016-05-28T07:46:10.000Z</time>
      </trkpt>
      <trkpt lat="43.72721" lon="5.8457">
        <ele>347</ele>
        <time>2016-05-28T07:46:12.000Z</time>
      </trkpt>
      <trkpt lat="43.72717" lon="5.84559">
        <ele>348</ele>
        <time>2016-05-28T07:46:14.000Z</time>
      </trkpt>
      <trkpt lat="43.72717" lon="5.84559">
        <ele>348</ele>
        <time>2016-05-28T07:46:16.000Z</time>
      </trkpt>
      <trkpt lat="43.72717" lon="5.84559">
        <ele>348</ele>
        <time>2016-05-28T07:46:18.000Z</time>
      </trkpt>
      <trkpt lat="43.72717" lon="5.84559">
        <ele>348</ele>
        <time>2016-05-28T07:46:20.000Z</time>
      </trkpt>
      <trkpt lat="43.72717" lon="5.84559">
        <ele>348</ele>
        <time>2016-05-28T07:46:22.000Z</time>
      </trkpt>
      <trkpt lat="43.72717" lon="5.84559">
        <ele>348</ele>
        <time>2016-05-28T07:46:24.000Z</time>
      </trkpt>
      <trkpt lat="43.72717" lon="5.84559">
        <ele>348</ele>
        <time>2016-05-28T07:46:26.000Z</time>
      </trkpt>
      <trkpt lat="43.72718" lon="5.84535">
        <ele>345</ele>
        <time>2016-05-28T07:47:22.000Z</time>
      </trkpt>
      <trkpt lat="43.72727" lon="5.84538">
        <ele>351</ele>
        <time>2016-05-28T07:47:25.000Z</time>
      </trkpt>
      <trkpt lat="43.7274" lon="5.84543">
        <ele>349</ele>
        <time>2016-05-28T07:47:29.000Z</time>
      </trkpt>
      <trkpt lat="43.72756" lon="5.84544">
        <ele>346</ele>
        <time>2016-05-28T07:47:33.000Z</time>
      </trkpt>
      <trkpt lat="43.7277" lon="5.84543">
        <ele>345</ele>
        <time>2016-05-28T07:47:37.000Z</time>
      </trkpt>
      <trkpt lat="43.7277" lon="5.84543">
        <ele>345</ele>
        <time>2016-05-28T07:47:39.000Z</time>
      </trkpt>
      <trkpt lat="43.7277" lon="5.84543">
        <ele>345</ele>
        <time>2016-05-28T07:47:41.000Z</time>
      </trkpt>
      <trkpt lat="43.7277" lon="5.84543">
        <ele>345</ele>
        <time>2016-05-28T07:47:47.000Z</time>
      </trkpt>
      <trkpt lat="43.7277" lon="5.84543">
        <ele>345</ele>
        <time>2016-05-28T07:47:49.000Z</time>
      </trkpt>
      <trkpt lat="43.7277" lon="5.84543">
        <ele>345</ele>
        <time>2016-05-28T07:47:51.000Z</time>
      </trkpt>
      <trkpt lat="43.72815" lon="5.84527">
        <ele>336</ele>
        <time>2016-05-28T07:48:21.000Z</time>
      </trkpt>
      <trkpt lat="43.72825" lon="5.8452">
        <ele>338</ele>
        <time>2016-05-28T07:48:25.000Z</time>
      </trkpt>
      <trkpt lat="43.7284" lon="5.84515">
        <ele>333</ele>
        <time>2016-05-28T07:48:29.000Z</time>
      </trkpt>
      <trkpt lat="43.72849" lon="5.84512">
        <ele>331</ele>
        <time>2016-05-28T07:48:31.000Z</time>
      </trkpt>
      <trkpt lat="43.72865" lon="5.84506">
        <ele>330</ele>
        <time>2016-05-28T07:48:35.000Z</time>
      </trkpt>
      <trkpt lat="43.72878" lon="5.845">
        <ele>331</ele>
        <time>2016-05-28T07:48:39.000Z</time>
      </trkpt>
      <trkpt lat="43.72878" lon="5.845">
        <ele>331</ele>
        <time>2016-05-28T07:48:41.000Z</time>
      </trkpt>
      <trkpt lat="43.72878" lon="5.845">
        <ele>331</ele>
        <time>2016-05-28T07:48:43.000Z</time>
      </trkpt>
      <trkpt lat="43.72912" lon="5.84484">
        <ele>334</ele>
        <time>2016-05-28T07:48:49.000Z</time>
      </trkpt>
      <trkpt lat="43.72927" lon="5.84477">
        <ele>332</ele>
        <time>2016-05-28T07:48:53.000Z</time>
      </trkpt>
      <trkpt lat="43.72942" lon="5.84472">
        <ele>334</ele>
        <time>2016-05-28T07:48:57.000Z</time>
      </trkpt>
      <trkpt lat="43.72958" lon="5.84466">
        <ele>335</ele>
        <time>2016-05-28T07:49:01.000Z</time>
      </trkpt>
      <trkpt lat="43.72971" lon="5.8446">
        <ele>337</ele>
        <time>2016-05-28T07:49:05.000Z</time>
      </trkpt>
      <trkpt lat="43.72971" lon="5.8446">
        <ele>337</ele>
        <time>2016-05-28T07:49:09.000Z</time>
      </trkpt>
      <trkpt lat="43.72971" lon="5.8446">
        <ele>337</ele>
        <time>2016-05-28T07:49:11.000Z</time>
      </trkpt>
      <trkpt lat="43.72971" lon="5.8446">
        <ele>337</ele>
        <time>2016-05-28T07:49:13.000Z</time>
      </trkpt>
      <trkpt lat="43.72971" lon="5.8446">
        <ele>337</ele>
        <time>2016-05-28T07:49:15.000Z</time>
      </trkpt>
      <trkpt lat="43.72971" lon="5.8446">
        <ele>337</ele>
        <time>2016-05-28T07:49:17.000Z</time>
      </trkpt>
      <trkpt lat="43.72971" lon="5.8446">
        <ele>337</ele>
        <time>2016-05-28T07:49:19.000Z</time>
      </trkpt>
      <trkpt lat="43.72971" lon="5.8446">
        <ele>337</ele>
        <time>2016-05-28T07:49:21.000Z</time>
      </trkpt>
      <trkpt lat="43.72971" lon="5.8446">
        <ele>337</ele>
        <time>2016-05-28T07:49:23.000Z</time>
      </trkpt>
      <trkpt lat="43.72971" lon="5.8446">
        <ele>337</ele>
        <time>2016-05-28T07:49:25.000Z</time>
      </trkpt>
      <trkpt lat="43.72971" lon="5.8446">
        <ele>337</ele>
        <time>2016-05-28T07:49:27.000Z</time>
      </trkpt>
      <trkpt lat="43.72971" lon="5.8446">
        <ele>337</ele>
        <time>2016-05-28T07:49:29.000Z</time>
      </trkpt>
      <trkpt lat="43.72971" lon="5.8446">
        <ele>337</ele>
        <time>2016-05-28T07:49:31.000Z</time>
      </trkpt>
      <trkpt lat="43.72971" lon="5.8446">
        <ele>337</ele>
        <time>2016-05-28T07:49:33.000Z</time>
      </trkpt>
      <trkpt lat="43.72971" lon="5.8446">
        <ele>337</ele>
        <time>2016-05-28T07:49:35.000Z</time>
      </trkpt>
      <trkpt lat="43.73059" lon="5.84429">
        <ele>342</ele>
        <time>2016-05-28T07:49:39.000Z</time>
      </trkpt>
      <trkpt lat="43.73069" lon="5.84422">
        <ele>340</ele>
        <time>2016-05-28T07:49:43.000Z</time>
      </trkpt>
      <trkpt lat="43.73074" lon="5.84416">
        <ele>341</ele>
        <time>2016-05-28T07:49:47.000Z</time>
      </trkpt>
      <trkpt lat="43.7308" lon="5.84411">
        <ele>342</ele>
        <time>2016-05-28T07:49:49.000Z</time>
      </trkpt>
      <trkpt lat="43.73087" lon="5.84405">
        <ele>339</ele>
        <time>2016-05-28T07:49:51.000Z</time>
      </trkpt>
      <trkpt lat="43.73093" lon="5.84399">
        <ele>340</ele>
        <time>2016-05-28T07:49:53.000Z</time>
      </trkpt>
      <trkpt lat="43.73099" lon="5.84392">
        <ele>339</ele>
        <time>2016-05-28T07:49:55.000Z</time>
      </trkpt>
      <trkpt lat="43.73111" lon="5.84378">
        <ele>338</ele>
        <time>2016-05-28T07:49:57.000Z</time>
      </trkpt>
      <trkpt lat="43.73111" lon="5.84378">
        <ele>338</ele>
        <time>2016-05-28T07:49:59.000Z</time>
      </trkpt>
      <trkpt lat="43.73111" lon="5.84378">
        <ele>338</ele>
        <time>2016-05-28T07:50:01.000Z</time>
      </trkpt>
      <trkpt lat="43.73111" lon="5.84378">
        <ele>338</ele>
        <time>2016-05-28T07:50:03.000Z</time>
      </trkpt>
      <trkpt lat="43.73111" lon="5.84378">
        <ele>338</ele>
        <time>2016-05-28T07:50:05.000Z</time>
      </trkpt>
      <trkpt lat="43.73111" lon="5.84378">
        <ele>338</ele>
        <time>2016-05-28T07:50:07.000Z</time>
      </trkpt>
      <trkpt lat="43.73111" lon="5.84378">
        <ele>338</ele>
        <time>2016-05-28T07:50:09.000Z</time>
      </trkpt>
      <trkpt lat="43.73111" lon="5.84378">
        <ele>338</ele>
        <time>2016-05-28T07:50:11.000Z</time>
      </trkpt>
      <trkpt lat="43.73165" lon="5.8433">
        <ele>337</ele>
        <time>2016-05-28T07:50:17.000Z</time>
      </trkpt>
      <trkpt lat="43.73176" lon="5.8432">
        <ele>336</ele>
        <time>2016-05-28T07:50:21.000Z</time>
      </trkpt>
      <trkpt lat="43.73187" lon="5.8431">
        <ele>334</ele>
        <time>2016-05-28T07:50:25.000Z</time>
      </trkpt>
      <trkpt lat="43.73199" lon="5.843">
        <ele>337</ele>
        <time>2016-05-28T07:50:29.000Z</time>
      </trkpt>
      <trkpt lat="43.73208" lon="5.84286">
        <ele>337</ele>
        <time>2016-05-28T07:50:33.000Z</time>
      </trkpt>
      <trkpt lat="43.73217" lon="5.84276">
        <ele>336</ele>
        <time>2016-05-28T07:50:37.000Z</time>
      </trkpt>
      <trkpt lat="43.73227" lon="5.84265">
        <ele>338</ele>
        <time>2016-05-28T07:50:41.000Z</time>
      </trkpt>
      <trkpt lat="43.73227" lon="5.84265">
        <ele>338</ele>
        <time>2016-05-28T07:50:43.000Z</time>
      </trkpt>
      <trkpt lat="43.73227" lon="5.84265">
        <ele>338</ele>
        <time>2016-05-28T07:50:45.000Z</time>
      </trkpt>
      <trkpt lat="43.73227" lon="5.84265">
        <ele>338</ele>
        <time>2016-05-28T07:50:47.000Z</time>
      </trkpt>
      <trkpt lat="43.73227" lon="5.84265">
        <ele>338</ele>
        <time>2016-05-28T07:50:49.000Z</time>
      </trkpt>
      <trkpt lat="43.73227" lon="5.84265">
        <ele>338</ele>
        <time>2016-05-28T07:50:51.000Z</time>
      </trkpt>
      <trkpt lat="43.73227" lon="5.84265">
        <ele>338</ele>
        <time>2016-05-28T07:50:53.000Z</time>
      </trkpt>
      <trkpt lat="43.73232" lon="5.84223">
        <ele>346</ele>
        <time>2016-05-28T07:51:22.000Z</time>
      </trkpt>
      <trkpt lat="43.73239" lon="5.84212">
        <ele>343</ele>
        <time>2016-05-28T07:51:26.000Z</time>
      </trkpt>
      <trkpt lat="43.73248" lon="5.84196">
        <ele>342</ele>
        <time>2016-05-28T07:51:30.000Z</time>
      </trkpt>
      <trkpt lat="43.73255" lon="5.84183">
        <ele>342</ele>
        <time>2016-05-28T07:51:34.000Z</time>
      </trkpt>
      <trkpt lat="43.73262" lon="5.84169">
        <ele>341</ele>
        <time>2016-05-28T07:51:38.000Z</time>
      </trkpt>
      <trkpt lat="43.73269" lon="5.84155">
        <ele>338</ele>
        <time>2016-05-28T07:51:42.000Z</time>
      </trkpt>
      <trkpt lat="43.73269" lon="5.84155">
        <ele>338</ele>
        <time>2016-05-28T07:51:46.000Z</time>
      </trkpt>
      <trkpt lat="43.73269" lon="5.84155">
        <ele>338</ele>
        <time>2016-05-28T07:51:48.000Z</time>
      </trkpt>
      <trkpt lat="43.73269" lon="5.84155">
        <ele>338</ele>
        <time>2016-05-28T07:51:50.000Z</time>
      </trkpt>
      <trkpt lat="43.73269" lon="5.84155">
        <ele>338</ele>
        <time>2016-05-28T07:51:52.000Z</time>
      </trkpt>
      <trkpt lat="43.73269" lon="5.84155">
        <ele>338</ele>
        <time>2016-05-28T07:51:54.000Z</time>
      </trkpt>
      <trkpt lat="43.73246" lon="5.84101">
        <ele>339</ele>
        <time>2016-05-28T07:51:58.000Z</time>
      </trkpt>
      <trkpt lat="43.73246" lon="5.84101">
        <ele>339</ele>
        <time>2016-05-28T07:52:02.000Z</time>
      </trkpt>
      <trkpt lat="43.73238" lon="5.84079">
        <ele>338</ele>
        <time>2016-05-28T07:52:04.000Z</time>
      </trkpt>
      <trkpt lat="43.73227" lon="5.84069">
        <ele>339</ele>
        <time>2016-05-28T07:52:08.000Z</time>
      </trkpt>
      <trkpt lat="43.73215" lon="5.84056">
        <ele>337</ele>
        <time>2016-05-28T07:52:12.000Z</time>
      </trkpt>
      <trkpt lat="43.73205" lon="5.84043">
        <ele>337</ele>
        <time>2016-05-28T07:52:16.000Z</time>
      </trkpt>
      <trkpt lat="43.73198" lon="5.84029">
        <ele>335</ele>
        <time>2016-05-28T07:52:20.000Z</time>
      </trkpt>
      <trkpt lat="43.73189" lon="5.84018">
        <ele>336</ele>
        <time>2016-05-28T07:52:24.000Z</time>
      </trkpt>
      <trkpt lat="43.73189" lon="5.84018">
        <ele>336</ele>
        <time>2016-05-28T07:52:26.000Z</time>
      </trkpt>
      <trkpt lat="43.73189" lon="5.84018">
        <ele>336</ele>
        <time>2016-05-28T07:52:28.000Z</time>
      </trkpt>
      <trkpt lat="43.73189" lon="5.84018">
        <ele>336</ele>
        <time>2016-05-28T07:52:30.000Z</time>
      </trkpt>
      <trkpt lat="43.73189" lon="5.84018">
        <ele>336</ele>
        <time>2016-05-28T07:52:32.000Z</time>
      </trkpt>
      <trkpt lat="43.73189" lon="5.84018">
        <ele>336</ele>
        <time>2016-05-28T07:52:34.000Z</time>
      </trkpt>
      <trkpt lat="43.73189" lon="5.84018">
        <ele>336</ele>
        <time>2016-05-28T07:52:36.000Z</time>
      </trkpt>
      <trkpt lat="43.73189" lon="5.84018">
        <ele>336</ele>
        <time>2016-05-28T07:52:38.000Z</time>
      </trkpt>
      <trkpt lat="43.73189" lon="5.84018">
        <ele>336</ele>
        <time>2016-05-28T07:52:40.000Z</time>
      </trkpt>
      <trkpt lat="43.73189" lon="5.84018">
        <ele>336</ele>
        <time>2016-05-28T07:52:42.000Z</time>
      </trkpt>
      <trkpt lat="43.73189" lon="5.84018">
        <ele>336</ele>
        <time>2016-05-28T07:52:44.000Z</time>
      </trkpt>
      <trkpt lat="43.73189" lon="5.84018">
        <ele>336</ele>
        <time>2016-05-28T07:52:46.000Z</time>
      </trkpt>
      <trkpt lat="43.73189" lon="5.84018">
        <ele>336</ele>
        <time>2016-05-28T07:52:48.000Z</time>
      </trkpt>
      <trkpt lat="43.73189" lon="5.84018">
        <ele>336</ele>
        <time>2016-05-28T07:52:50.000Z</time>
      </trkpt>
      <trkpt lat="43.73163" lon="5.83973">
        <ele>333</ele>
        <time>2016-05-28T07:52:52.000Z</time>
      </trkpt>
      <trkpt lat="43.73148" lon="5.83947">
        <ele>335</ele>
        <time>2016-05-28T07:52:55.000Z</time>
      </trkpt>
      <trkpt lat="43.73139" lon="5.8393">
        <ele>338</ele>
        <time>2016-05-28T07:52:56.000Z</time>
      </trkpt>
      <trkpt lat="43.73133" lon="5.83918">
        <ele>336</ele>
        <time>2016-05-28T07:52:58.000Z</time>
      </trkpt>
      <trkpt lat="43.73129" lon="5.83909">
        <ele>337</ele>
        <time>2016-05-28T07:53:00.000Z</time>
      </trkpt>
      <trkpt lat="43.73119" lon="5.83892">
        <ele>340</ele>
        <time>2016-05-28T07:53:02.000Z</time>
      </trkpt>
      <trkpt lat="43.73111" lon="5.83879">
        <ele>338</ele>
        <time>2016-05-28T07:53:06.000Z</time>
      </trkpt>
      <trkpt lat="43.73111" lon="5.83879">
        <ele>338</ele>
        <time>2016-05-28T07:53:08.000Z</time>
      </trkpt>
      <trkpt lat="43.73111" lon="5.83879">
        <ele>338</ele>
        <time>2016-05-28T07:53:10.000Z</time>
      </trkpt>
      <trkpt lat="43.73111" lon="5.83879">
        <ele>338</ele>
        <time>2016-05-28T07:53:12.000Z</time>
      </trkpt>
      <trkpt lat="43.73111" lon="5.83879">
        <ele>338</ele>
        <time>2016-05-28T07:53:14.000Z</time>
      </trkpt>
      <trkpt lat="43.73111" lon="5.83879">
        <ele>338</ele>
        <time>2016-05-28T07:53:16.000Z</time>
      </trkpt>
      <trkpt lat="43.73111" lon="5.83879">
        <ele>338</ele>
        <time>2016-05-28T07:53:18.000Z</time>
      </trkpt>
      <trkpt lat="43.73111" lon="5.83879">
        <ele>338</ele>
        <time>2016-05-28T07:53:20.000Z</time>
      </trkpt>
      <trkpt lat="43.73111" lon="5.83879">
        <ele>338</ele>
        <time>2016-05-28T07:53:22.000Z</time>
      </trkpt>
      <trkpt lat="43.73111" lon="5.83879">
        <ele>338</ele>
        <time>2016-05-28T07:53:24.000Z</time>
      </trkpt>
      <trkpt lat="43.73111" lon="5.83879">
        <ele>338</ele>
        <time>2016-05-28T07:53:26.000Z</time>
      </trkpt>
      <trkpt lat="43.73111" lon="5.83879">
        <ele>338</ele>
        <time>2016-05-28T07:53:28.000Z</time>
      </trkpt>
      <trkpt lat="43.73074" lon="5.83785">
        <ele>335</ele>
        <time>2016-05-28T07:53:30.000Z</time>
      </trkpt>
      <trkpt lat="43.73069" lon="5.83766">
        <ele>333</ele>
        <time>2016-05-28T07:53:34.000Z</time>
      </trkpt>
      <trkpt lat="43.73062" lon="5.83746">
        <ele>332</ele>
        <time>2016-05-28T07:53:38.000Z</time>
      </trkpt>
      <trkpt lat="43.73062" lon="5.83746">
        <ele>332</ele>
        <time>2016-05-28T07:53:40.000Z</time>
      </trkpt>
      <trkpt lat="43.73062" lon="5.83746">
        <ele>332</ele>
        <time>2016-05-28T07:53:42.000Z</time>
      </trkpt>
      <trkpt lat="43.73062" lon="5.83746">
        <ele>332</ele>
        <time>2016-05-28T07:53:44.000Z</time>
      </trkpt>
      <trkpt lat="43.73037" lon="5.83718">
        <ele>337</ele>
        <time>2016-05-28T07:53:48.000Z</time>
      </trkpt>
      <trkpt lat="43.7303" lon="5.83698">
        <ele>339</ele>
        <time>2016-05-28T07:53:52.000Z</time>
      </trkpt>
      <trkpt lat="43.73023" lon="5.83677">
        <ele>340</ele>
        <time>2016-05-28T07:53:56.000Z</time>
      </trkpt>
      <trkpt lat="43.73015" lon="5.83653">
        <ele>339</ele>
        <time>2016-05-28T07:54:00.000Z</time>
      </trkpt>
      <trkpt lat="43.73009" lon="5.83638">
        <ele>337</ele>
        <time>2016-05-28T07:54:02.000Z</time>
      </trkpt>
      <trkpt lat="43.73008" lon="5.83625">
        <ele>336</ele>
        <time>2016-05-28T07:54:04.000Z</time>
      </trkpt>
      <trkpt lat="43.73001" lon="5.83601">
        <ele>336</ele>
        <time>2016-05-28T07:54:08.000Z</time>
      </trkpt>
      <trkpt lat="43.73" lon="5.83588">
        <ele>335</ele>
        <time>2016-05-28T07:54:10.000Z</time>
      </trkpt>
      <trkpt lat="43.72995" lon="5.83577">
        <ele>336</ele>
        <time>2016-05-28T07:54:12.000Z</time>
      </trkpt>
      <trkpt lat="43.72989" lon="5.83553">
        <ele>334</ele>
        <time>2016-05-28T07:54:16.000Z</time>
      </trkpt>
      <trkpt lat="43.72983" lon="5.83542">
        <ele>335</ele>
        <time>2016-05-28T07:54:18.000Z</time>
      </trkpt>
      <trkpt lat="43.72978" lon="5.8353">
        <ele>334</ele>
        <time>2016-05-28T07:54:20.000Z</time>
      </trkpt>
      <trkpt lat="43.72978" lon="5.8353">
        <ele>334</ele>
        <time>2016-05-28T07:54:22.000Z</time>
      </trkpt>
      <trkpt lat="43.72978" lon="5.8353">
        <ele>334</ele>
        <time>2016-05-28T07:54:24.000Z</time>
      </trkpt>
      <trkpt lat="43.72978" lon="5.8353">
        <ele>334</ele>
        <time>2016-05-28T07:54:26.000Z</time>
      </trkpt>
      <trkpt lat="43.72972" lon="5.8348">
        <ele>332</ele>
        <time>2016-05-28T07:54:28.000Z</time>
      </trkpt>
      <trkpt lat="43.72972" lon="5.8348">
        <ele>332</ele>
        <time>2016-05-28T07:54:30.000Z</time>
      </trkpt>
      <trkpt lat="43.72972" lon="5.8348">
        <ele>332</ele>
        <time>2016-05-28T07:54:32.000Z</time>
      </trkpt>
      <trkpt lat="43.72972" lon="5.8348">
        <ele>332</ele>
        <time>2016-05-28T07:54:34.000Z</time>
      </trkpt>
      <trkpt lat="43.72968" lon="5.83444">
        <ele>332</ele>
        <time>2016-05-28T07:54:40.000Z</time>
      </trkpt>
      <trkpt lat="43.72965" lon="5.83419">
        <ele>332</ele>
        <time>2016-05-28T07:54:42.000Z</time>
      </trkpt>
      <trkpt lat="43.72964" lon="5.83401">
        <ele>332</ele>
        <time>2016-05-28T07:54:44.000Z</time>
      </trkpt>
      <trkpt lat="43.72963" lon="5.83387">
        <ele>332</ele>
        <time>2016-05-28T07:54:46.000Z</time>
      </trkpt>
      <trkpt lat="43.72963" lon="5.83387">
        <ele>332</ele>
        <time>2016-05-28T07:54:48.000Z</time>
      </trkpt>
      <trkpt lat="43.72959" lon="5.83356">
        <ele>337</ele>
        <time>2016-05-28T07:54:54.000Z</time>
      </trkpt>
      <trkpt lat="43.72958" lon="5.83334">
        <ele>337</ele>
        <time>2016-05-28T07:54:56.000Z</time>
      </trkpt>
      <trkpt lat="43.72958" lon="5.83317">
        <ele>337</ele>
        <time>2016-05-28T07:54:58.000Z</time>
      </trkpt>
      <trkpt lat="43.72957" lon="5.83302">
        <ele>337</ele>
        <time>2016-05-28T07:55:00.000Z</time>
      </trkpt>
      <trkpt lat="43.72957" lon="5.83289">
        <ele>337</ele>
        <time>2016-05-28T07:55:02.000Z</time>
      </trkpt>
      <trkpt lat="43.72957" lon="5.83289">
        <ele>337</ele>
        <time>2016-05-28T07:55:04.000Z</time>
      </trkpt>
      <trkpt lat="43.72957" lon="5.83289">
        <ele>337</ele>
        <time>2016-05-28T07:55:06.000Z</time>
      </trkpt>
      <trkpt lat="43.72957" lon="5.83289">
        <ele>337</ele>
        <time>2016-05-28T07:55:08.000Z</time>
      </trkpt>
      <trkpt lat="43.72957" lon="5.83289">
        <ele>337</ele>
        <time>2016-05-28T07:55:10.000Z</time>
      </trkpt>
      <trkpt lat="43.72957" lon="5.83289">
        <ele>337</ele>
        <time>2016-05-28T07:55:12.000Z</time>
      </trkpt>
      <trkpt lat="43.72957" lon="5.83289">
        <ele>337</ele>
        <time>2016-05-28T07:55:14.000Z</time>
      </trkpt>
      <trkpt lat="43.72957" lon="5.83289">
        <ele>337</ele>
        <time>2016-05-28T07:55:20.000Z</time>
      </trkpt>
      <trkpt lat="43.72957" lon="5.83289">
        <ele>337</ele>
        <time>2016-05-28T07:55:22.000Z</time>
      </trkpt>
      <trkpt lat="43.72957" lon="5.83289">
        <ele>337</ele>
        <time>2016-05-28T07:55:24.000Z</time>
      </trkpt>
      <trkpt lat="43.72957" lon="5.83289">
        <ele>337</ele>
        <time>2016-05-28T07:55:26.000Z</time>
      </trkpt>
      <trkpt lat="43.72957" lon="5.83289">
        <ele>337</ele>
        <time>2016-05-28T07:55:28.000Z</time>
      </trkpt>
      <trkpt lat="43.72978" lon="5.83105">
        <ele>334</ele>
        <time>2016-05-28T07:55:32.000Z</time>
      </trkpt>
      <trkpt lat="43.72982" lon="5.83084">
        <ele>337</ele>
        <time>2016-05-28T07:55:36.000Z</time>
      </trkpt>
      <trkpt lat="43.72986" lon="5.83061">
        <ele>335</ele>
        <time>2016-05-28T07:55:40.000Z</time>
      </trkpt>
      <trkpt lat="43.72989" lon="5.83039">
        <ele>335</ele>
        <time>2016-05-28T07:55:44.000Z</time>
      </trkpt>
      <trkpt lat="43.72989" lon="5.83039">
        <ele>335</ele>
        <time>2016-05-28T07:55:46.000Z</time>
      </trkpt>
      <trkpt lat="43.72989" lon="5.83039">
        <ele>335</ele>
        <time>2016-05-28T07:55:48.000Z</time>
      </trkpt>
      <trkpt lat="43.72989" lon="5.83039">
        <ele>335</ele>
        <time>2016-05-28T07:55:54.000Z</time>
      </trkpt>
      <trkpt lat="43.72989" lon="5.83039">
        <ele>335</ele>
        <time>2016-05-28T07:55:56.000Z</time>
      </trkpt>
      <trkpt lat="43.72989" lon="5.83039">
        <ele>335</ele>
        <time>2016-05-28T07:55:58.000Z</time>
      </trkpt>
      <trkpt lat="43.72989" lon="5.83039">
        <ele>335</ele>
        <time>2016-05-28T07:56:00.000Z</time>
      </trkpt>
      <trkpt lat="43.72989" lon="5.83039">
        <ele>335</ele>
        <time>2016-05-28T07:56:02.000Z</time>
      </trkpt>
      <trkpt lat="43.72989" lon="5.83039">
        <ele>335</ele>
        <time>2016-05-28T07:56:04.000Z</time>
      </trkpt>
      <trkpt lat="43.7299" lon="5.82906">
        <ele>344</ele>
        <time>2016-05-28T07:56:10.000Z</time>
      </trkpt>
      <trkpt lat="43.72989" lon="5.82895">
        <ele>339</ele>
        <time>2016-05-28T07:56:14.000Z</time>
      </trkpt>
      <trkpt lat="43.72988" lon="5.82883">
        <ele>338</ele>
        <time>2016-05-28T07:56:16.000Z</time>
      </trkpt>
      <trkpt lat="43.72988" lon="5.82871">
        <ele>335</ele>
        <time>2016-05-28T07:56:18.000Z</time>
      </trkpt>
      <trkpt lat="43.72988" lon="5.82859">
        <ele>336</ele>
        <time>2016-05-28T07:56:20.000Z</time>
      </trkpt>
      <trkpt lat="43.72988" lon="5.82848">
        <ele>337</ele>
        <time>2016-05-28T07:56:22.000Z</time>
      </trkpt>
      <trkpt lat="43.72986" lon="5.82824">
        <ele>335</ele>
        <time>2016-05-28T07:56:24.000Z</time>
      </trkpt>
      <trkpt lat="43.72982" lon="5.82801">
        <ele>336</ele>
        <time>2016-05-28T07:56:28.000Z</time>
      </trkpt>
      <trkpt lat="43.72982" lon="5.82801">
        <ele>336</ele>
        <time>2016-05-28T07:56:30.000Z</time>
      </trkpt>
      <trkpt lat="43.72982" lon="5.82801">
        <ele>336</ele>
        <time>2016-05-28T07:56:32.000Z</time>
      </trkpt>
      <trkpt lat="43.72977" lon="5.82756">
        <ele>332</ele>
        <time>2016-05-28T07:56:36.000Z</time>
      </trkpt>
      <trkpt lat="43.72973" lon="5.82733">
        <ele>331</ele>
        <time>2016-05-28T07:56:40.000Z</time>
      </trkpt>
      <trkpt lat="43.72968" lon="5.82707">
        <ele>328</ele>
        <time>2016-05-28T07:56:44.000Z</time>
      </trkpt>
      <trkpt lat="43.72966" lon="5.82694">
        <ele>328</ele>
        <time>2016-05-28T07:56:46.000Z</time>
      </trkpt>
      <trkpt lat="43.72964" lon="5.82681">
        <ele>329</ele>
        <time>2016-05-28T07:56:48.000Z</time>
      </trkpt>
      <trkpt lat="43.72964" lon="5.82681">
        <ele>329</ele>
        <time>2016-05-28T07:56:50.000Z</time>
      </trkpt>
      <trkpt lat="43.72958" lon="5.82659">
        <ele>329</ele>
        <time>2016-05-28T07:56:52.000Z</time>
      </trkpt>
      <trkpt lat="43.72958" lon="5.82659">
        <ele>329</ele>
        <time>2016-05-28T07:56:54.000Z</time>
      </trkpt>
      <trkpt lat="43.72958" lon="5.82659">
        <ele>329</ele>
        <time>2016-05-28T07:56:56.000Z</time>
      </trkpt>
      <trkpt lat="43.72958" lon="5.82659">
        <ele>329</ele>
        <time>2016-05-28T07:57:00.000Z</time>
      </trkpt>
      <trkpt lat="43.72958" lon="5.82659">
        <ele>329</ele>
        <time>2016-05-28T07:57:02.000Z</time>
      </trkpt>
      <trkpt lat="43.72958" lon="5.82659">
        <ele>329</ele>
        <time>2016-05-28T07:57:04.000Z</time>
      </trkpt>
      <trkpt lat="43.72944" lon="5.82562">
        <ele>328</ele>
        <time>2016-05-28T07:57:08.000Z</time>
      </trkpt>
      <trkpt lat="43.72939" lon="5.82535">
        <ele>327</ele>
        <time>2016-05-28T07:57:12.000Z</time>
      </trkpt>
      <trkpt lat="43.72937" lon="5.82522">
        <ele>327</ele>
        <time>2016-05-28T07:57:14.000Z</time>
      </trkpt>
      <trkpt lat="43.72935" lon="5.82509">
        <ele>326</ele>
        <time>2016-05-28T07:57:16.000Z</time>
      </trkpt>
      <trkpt lat="43.72934" lon="5.82496">
        <ele>324</ele>
        <time>2016-05-28T07:57:18.000Z</time>
      </trkpt>
      <trkpt lat="43.72934" lon="5.82496">
        <ele>324</ele>
        <time>2016-05-28T07:57:20.000Z</time>
      </trkpt>
      <trkpt lat="43.72934" lon="5.82496">
        <ele>324</ele>
        <time>2016-05-28T07:57:22.000Z</time>
      </trkpt>
      <trkpt lat="43.72934" lon="5.82496">
        <ele>324</ele>
        <time>2016-05-28T07:57:24.000Z</time>
      </trkpt>
      <trkpt lat="43.72934" lon="5.82496">
        <ele>324</ele>
        <time>2016-05-28T07:57:26.000Z</time>
      </trkpt>
      <trkpt lat="43.72934" lon="5.82496">
        <ele>324</ele>
        <time>2016-05-28T07:57:28.000Z</time>
      </trkpt>
      <trkpt lat="43.72921" lon="5.8242">
        <ele>327</ele>
        <time>2016-05-28T07:57:32.000Z</time>
      </trkpt>
      <trkpt lat="43.72918" lon="5.82397">
        <ele>326</ele>
        <time>2016-05-28T07:57:36.000Z</time>
      </trkpt>
      <trkpt lat="43.72918" lon="5.82397">
        <ele>326</ele>
        <time>2016-05-28T07:57:38.000Z</time>
      </trkpt>
      <trkpt lat="43.72918" lon="5.82397">
        <ele>326</ele>
        <time>2016-05-28T07:57:40.000Z</time>
      </trkpt>
      <trkpt lat="43.72918" lon="5.82397">
        <ele>326</ele>
        <time>2016-05-28T07:57:42.000Z</time>
      </trkpt>
      <trkpt lat="43.72918" lon="5.82397">
        <ele>326</ele>
        <time>2016-05-28T07:57:44.000Z</time>
      </trkpt>
      <trkpt lat="43.72918" lon="5.82397">
        <ele>326</ele>
        <time>2016-05-28T07:57:46.000Z</time>
      </trkpt>
      <trkpt lat="43.72918" lon="5.82397">
        <ele>326</ele>
        <time>2016-05-28T07:57:48.000Z</time>
      </trkpt>
      <trkpt lat="43.72918" lon="5.82397">
        <ele>326</ele>
        <time>2016-05-28T07:57:50.000Z</time>
      </trkpt>
      <trkpt lat="43.72911" lon="5.82348">
        <ele>330</ele>
        <time>2016-05-28T07:57:54.000Z</time>
      </trkpt>
      <trkpt lat="43.72906" lon="5.82318">
        <ele>329</ele>
        <time>2016-05-28T07:57:56.000Z</time>
      </trkpt>
      <trkpt lat="43.72903" lon="5.82296">
        <ele>327</ele>
        <time>2016-05-28T07:57:58.000Z</time>
      </trkpt>
      <trkpt lat="43.72901" lon="5.82278">
        <ele>326</ele>
        <time>2016-05-28T07:58:00.000Z</time>
      </trkpt>
      <trkpt lat="43.72899" lon="5.82264">
        <ele>326</ele>
        <time>2016-05-28T07:58:02.000Z</time>
      </trkpt>
      <trkpt lat="43.72895" lon="5.82238">
        <ele>326</ele>
        <time>2016-05-28T07:58:04.000Z</time>
      </trkpt>
      <trkpt lat="43.72892" lon="5.82215">
        <ele>325</ele>
        <time>2016-05-28T07:58:08.000Z</time>
      </trkpt>
      <trkpt lat="43.72892" lon="5.82215">
        <ele>325</ele>
        <time>2016-05-28T07:58:10.000Z</time>
      </trkpt>
      <trkpt lat="43.72892" lon="5.82215">
        <ele>325</ele>
        <time>2016-05-28T07:58:12.000Z</time>
      </trkpt>
      <trkpt lat="43.72892" lon="5.82215">
        <ele>325</ele>
        <time>2016-05-28T07:58:14.000Z</time>
      </trkpt>
      <trkpt lat="43.72892" lon="5.82215">
        <ele>325</ele>
        <time>2016-05-28T07:58:16.000Z</time>
      </trkpt>
      <trkpt lat="43.72892" lon="5.82215">
        <ele>325</ele>
        <time>2016-05-28T07:58:18.000Z</time>
      </trkpt>
      <trkpt lat="43.72892" lon="5.82215">
        <ele>325</ele>
        <time>2016-05-28T07:58:20.000Z</time>
      </trkpt>
      <trkpt lat="43.72892" lon="5.82215">
        <ele>325</ele>
        <time>2016-05-28T07:58:22.000Z</time>
      </trkpt>
      <trkpt lat="43.72877" lon="5.82124">
        <ele>327</ele>
        <time>2016-05-28T07:58:24.000Z</time>
      </trkpt>
      <trkpt lat="43.72874" lon="5.8211">
        <ele>326</ele>
        <time>2016-05-28T07:58:26.000Z</time>
      </trkpt>
      <trkpt lat="43.72872" lon="5.82096">
        <ele>326</ele>
        <time>2016-05-28T07:58:28.000Z</time>
      </trkpt>
      <trkpt lat="43.7287" lon="5.82082">
        <ele>327</ele>
        <time>2016-05-28T07:58:30.000Z</time>
      </trkpt>
      <trkpt lat="43.72867" lon="5.82066">
        <ele>328</ele>
        <time>2016-05-28T07:58:32.000Z</time>
      </trkpt>
      <trkpt lat="43.72865" lon="5.8205">
        <ele>327</ele>
        <time>2016-05-28T07:58:34.000Z</time>
      </trkpt>
      <trkpt lat="43.72865" lon="5.8205">
        <ele>327</ele>
        <time>2016-05-28T07:58:36.000Z</time>
      </trkpt>
      <trkpt lat="43.7286" lon="5.82024">
        <ele>326</ele>
        <time>2016-05-28T07:58:38.000Z</time>
      </trkpt>
      <trkpt lat="43.7286" lon="5.82024">
        <ele>326</ele>
        <time>2016-05-28T07:58:40.000Z</time>
      </trkpt>
      <trkpt lat="43.7286" lon="5.82024">
        <ele>326</ele>
        <time>2016-05-28T07:58:46.000Z</time>
      </trkpt>
      <trkpt lat="43.7286" lon="5.82024">
        <ele>326</ele>
        <time>2016-05-28T07:58:48.000Z</time>
      </trkpt>
      <trkpt lat="43.72843" lon="5.8193">
        <ele>331</ele>
        <time>2016-05-28T07:58:52.000Z</time>
      </trkpt>
      <trkpt lat="43.72841" lon="5.81918">
        <ele>332</ele>
        <time>2016-05-28T07:58:54.000Z</time>
      </trkpt>
      <trkpt lat="43.7284" lon="5.81901">
        <ele>331</ele>
        <time>2016-05-28T07:58:56.000Z</time>
      </trkpt>
      <trkpt lat="43.72838" lon="5.81888">
        <ele>330</ele>
        <time>2016-05-28T07:58:58.000Z</time>
      </trkpt>
      <trkpt lat="43.72838" lon="5.81875">
        <ele>329</ele>
        <time>2016-05-28T07:59:00.000Z</time>
      </trkpt>
      <trkpt lat="43.72838" lon="5.81875">
        <ele>329</ele>
        <time>2016-05-28T07:59:02.000Z</time>
      </trkpt>
      <trkpt lat="43.72838" lon="5.81875">
        <ele>329</ele>
        <time>2016-05-28T07:59:04.000Z</time>
      </trkpt>
      <trkpt lat="43.72838" lon="5.81875">
        <ele>329</ele>
        <time>2016-05-28T07:59:06.000Z</time>
      </trkpt>
      <trkpt lat="43.72838" lon="5.81875">
        <ele>329</ele>
        <time>2016-05-28T07:59:08.000Z</time>
      </trkpt>
      <trkpt lat="43.72838" lon="5.81875">
        <ele>329</ele>
        <time>2016-05-28T07:59:10.000Z</time>
      </trkpt>
      <trkpt lat="43.72838" lon="5.81875">
        <ele>329</ele>
        <time>2016-05-28T07:59:14.000Z</time>
      </trkpt>
      <trkpt lat="43.72815" lon="5.8176">
        <ele>329</ele>
        <time>2016-05-28T07:59:18.000Z</time>
      </trkpt>
      <trkpt lat="43.72814" lon="5.81744">
        <ele>327</ele>
        <time>2016-05-28T07:59:20.000Z</time>
      </trkpt>
      <trkpt lat="43.72814" lon="5.81744">
        <ele>327</ele>
        <time>2016-05-28T07:59:22.000Z</time>
      </trkpt>
      <trkpt lat="43.7281" lon="5.81718">
        <ele>327</ele>
        <time>2016-05-28T07:59:24.000Z</time>
      </trkpt>
      <trkpt lat="43.72807" lon="5.81705">
        <ele>329</ele>
        <time>2016-05-28T07:59:26.000Z</time>
      </trkpt>
      <trkpt lat="43.72803" lon="5.81693">
        <ele>330</ele>
        <time>2016-05-28T07:59:28.000Z</time>
      </trkpt>
      <trkpt lat="43.72803" lon="5.81693">
        <ele>330</ele>
        <time>2016-05-28T07:59:30.000Z</time>
      </trkpt>
      <trkpt lat="43.72803" lon="5.81693">
        <ele>330</ele>
        <time>2016-05-28T07:59:32.000Z</time>
      </trkpt>
      <trkpt lat="43.72803" lon="5.81693">
        <ele>330</ele>
        <time>2016-05-28T07:59:34.000Z</time>
      </trkpt>
      <trkpt lat="43.72803" lon="5.81693">
        <ele>330</ele>
        <time>2016-05-28T07:59:36.000Z</time>
      </trkpt>
      <trkpt lat="43.72803" lon="5.81693">
        <ele>330</ele>
        <time>2016-05-28T07:59:38.000Z</time>
      </trkpt>
      <trkpt lat="43.72803" lon="5.81693">
        <ele>330</ele>
        <time>2016-05-28T07:59:40.000Z</time>
      </trkpt>
      <trkpt lat="43.72803" lon="5.81693">
        <ele>330</ele>
        <time>2016-05-28T07:59:42.000Z</time>
      </trkpt>
      <trkpt lat="43.72803" lon="5.81693">
        <ele>330</ele>
        <time>2016-05-28T07:59:44.000Z</time>
      </trkpt>
      <trkpt lat="43.72803" lon="5.81693">
        <ele>330</ele>
        <time>2016-05-28T07:59:46.000Z</time>
      </trkpt>
      <trkpt lat="43.72803" lon="5.81693">
        <ele>330</ele>
        <time>2016-05-28T07:59:54.000Z</time>
      </trkpt>
      <trkpt lat="43.72803" lon="5.81693">
        <ele>330</ele>
        <time>2016-05-28T07:59:56.000Z</time>
      </trkpt>
      <trkpt lat="43.72803" lon="5.81693">
        <ele>330</ele>
        <time>2016-05-28T07:59:58.000Z</time>
      </trkpt>
      <trkpt lat="43.72803" lon="5.81693">
        <ele>330</ele>
        <time>2016-05-28T08:00:00.000Z</time>
      </trkpt>
      <trkpt lat="43.72803" lon="5.81693">
        <ele>330</ele>
        <time>2016-05-28T08:00:02.000Z</time>
      </trkpt>
      <trkpt lat="43.72734" lon="5.81683">
        <ele>326</ele>
        <time>2016-05-28T08:10:13.000Z</time>
      </trkpt>
      <trkpt lat="43.72734" lon="5.81683">
        <ele>326</ele>
        <time>2016-05-28T08:10:15.000Z</time>
      </trkpt>
      <trkpt lat="43.72734" lon="5.81683">
        <ele>326</ele>
        <time>2016-05-28T08:10:17.000Z</time>
      </trkpt>
      <trkpt lat="43.72738" lon="5.81714">
        <ele>325</ele>
        <time>2016-05-28T08:10:36.000Z</time>
      </trkpt>
      <trkpt lat="43.7274" lon="5.8173">
        <ele>325</ele>
        <time>2016-05-28T08:10:39.000Z</time>
      </trkpt>
      <trkpt lat="43.7274" lon="5.8173">
        <ele>325</ele>
        <time>2016-05-28T08:10:43.000Z</time>
      </trkpt>
      <trkpt lat="43.7274" lon="5.8173">
        <ele>325</ele>
        <time>2016-05-28T08:10:45.000Z</time>
      </trkpt>
      <trkpt lat="43.7274" lon="5.8173">
        <ele>325</ele>
        <time>2016-05-28T08:10:47.000Z</time>
      </trkpt>
      <trkpt lat="43.7274" lon="5.8173">
        <ele>325</ele>
        <time>2016-05-28T08:10:49.000Z</time>
      </trkpt>
      <trkpt lat="43.7274" lon="5.8173">
        <ele>325</ele>
        <time>2016-05-28T08:10:51.000Z</time>
      </trkpt>
      <trkpt lat="43.7274" lon="5.8173">
        <ele>325</ele>
        <time>2016-05-28T08:10:53.000Z</time>
      </trkpt>
      <trkpt lat="43.7274" lon="5.8173">
        <ele>325</ele>
        <time>2016-05-28T08:10:55.000Z</time>
      </trkpt>
      <trkpt lat="43.7274" lon="5.8173">
        <ele>325</ele>
        <time>2016-05-28T08:10:57.000Z</time>
      </trkpt>
      <trkpt lat="43.7274" lon="5.8173">
        <ele>325</ele>
        <time>2016-05-28T08:10:59.000Z</time>
      </trkpt>
      <trkpt lat="43.7274" lon="5.8173">
        <ele>325</ele>
        <time>2016-05-28T08:11:01.000Z</time>
      </trkpt>
      <trkpt lat="43.7274" lon="5.8173">
        <ele>325</ele>
        <time>2016-05-28T08:11:03.000Z</time>
      </trkpt>
      <trkpt lat="43.72718" lon="5.81798">
        <ele>327</ele>
        <time>2016-05-28T08:11:07.000Z</time>
      </trkpt>
      <trkpt lat="43.72709" lon="5.818">
        <ele>328</ele>
        <time>2016-05-28T08:11:11.000Z</time>
      </trkpt>
      <trkpt lat="43.72699" lon="5.81801">
        <ele>327</ele>
        <time>2016-05-28T08:11:15.000Z</time>
      </trkpt>
      <trkpt lat="43.7269" lon="5.81801">
        <ele>326</ele>
        <time>2016-05-28T08:11:19.000Z</time>
      </trkpt>
      <trkpt lat="43.72683" lon="5.81788">
        <ele>327</ele>
        <time>2016-05-28T08:11:25.000Z</time>
      </trkpt>
      <trkpt lat="43.72682" lon="5.81773">
        <ele>327</ele>
        <time>2016-05-28T08:11:29.000Z</time>
      </trkpt>
      <trkpt lat="43.72681" lon="5.81754">
        <ele>327</ele>
        <time>2016-05-28T08:11:33.000Z</time>
      </trkpt>
      <trkpt lat="43.7268" lon="5.81736">
        <ele>326</ele>
        <time>2016-05-28T08:11:37.000Z</time>
      </trkpt>
      <trkpt lat="43.72678" lon="5.81717">
        <ele>326</ele>
        <time>2016-05-28T08:11:41.000Z</time>
      </trkpt>
      <trkpt lat="43.72676" lon="5.81698">
        <ele>326</ele>
        <time>2016-05-28T08:11:45.000Z</time>
      </trkpt>
      <trkpt lat="43.72672" lon="5.81681">
        <ele>326</ele>
        <time>2016-05-28T08:11:49.000Z</time>
      </trkpt>
      <trkpt lat="43.72672" lon="5.81681">
        <ele>326</ele>
        <time>2016-05-28T08:11:51.000Z</time>
      </trkpt>
      <trkpt lat="43.72672" lon="5.81681">
        <ele>326</ele>
        <time>2016-05-28T08:11:53.000Z</time>
      </trkpt>
      <trkpt lat="43.72672" lon="5.81681">
        <ele>326</ele>
        <time>2016-05-28T08:11:55.000Z</time>
      </trkpt>
      <trkpt lat="43.72669" lon="5.81655">
        <ele>325</ele>
        <time>2016-05-28T08:13:25.000Z</time>
      </trkpt>
      <trkpt lat="43.72668" lon="5.81641">
        <ele>326</ele>
        <time>2016-05-28T08:13:28.000Z</time>
      </trkpt>
      <trkpt lat="43.72667" lon="5.81625">
        <ele>325</ele>
        <time>2016-05-28T08:13:32.000Z</time>
      </trkpt>
      <trkpt lat="43.72667" lon="5.81625">
        <ele>325</ele>
        <time>2016-05-28T08:13:34.000Z</time>
      </trkpt>
      <trkpt lat="43.72667" lon="5.81625">
        <ele>325</ele>
        <time>2016-05-28T08:13:36.000Z</time>
      </trkpt>
      <trkpt lat="43.72664" lon="5.81598">
        <ele>325</ele>
        <time>2016-05-28T08:13:38.000Z</time>
      </trkpt>
      <trkpt lat="43.72661" lon="5.81578">
        <ele>325</ele>
        <time>2016-05-28T08:13:42.000Z</time>
      </trkpt>
      <trkpt lat="43.72659" lon="5.81557">
        <ele>324</ele>
        <time>2016-05-28T08:13:46.000Z</time>
      </trkpt>
      <trkpt lat="43.72657" lon="5.81535">
        <ele>324</ele>
        <time>2016-05-28T08:13:50.000Z</time>
      </trkpt>
      <trkpt lat="43.72654" lon="5.81513">
        <ele>325</ele>
        <time>2016-05-28T08:13:54.000Z</time>
      </trkpt>
      <trkpt lat="43.72652" lon="5.81491">
        <ele>324</ele>
        <time>2016-05-28T08:13:58.000Z</time>
      </trkpt>
      <trkpt lat="43.72652" lon="5.81491">
        <ele>324</ele>
        <time>2016-05-28T08:14:00.000Z</time>
      </trkpt>
      <trkpt lat="43.72652" lon="5.81491">
        <ele>324</ele>
        <time>2016-05-28T08:14:02.000Z</time>
      </trkpt>
      <trkpt lat="43.72652" lon="5.81491">
        <ele>324</ele>
        <time>2016-05-28T08:14:04.000Z</time>
      </trkpt>
      <trkpt lat="43.72652" lon="5.81491">
        <ele>324</ele>
        <time>2016-05-28T08:14:06.000Z</time>
      </trkpt>
      <trkpt lat="43.72652" lon="5.81491">
        <ele>324</ele>
        <time>2016-05-28T08:14:08.000Z</time>
      </trkpt>
      <trkpt lat="43.72652" lon="5.81491">
        <ele>324</ele>
        <time>2016-05-28T08:14:10.000Z</time>
      </trkpt>
      <trkpt lat="43.72652" lon="5.81491">
        <ele>324</ele>
        <time>2016-05-28T08:14:12.000Z</time>
      </trkpt>
      <trkpt lat="43.72652" lon="5.81491">
        <ele>324</ele>
        <time>2016-05-28T08:14:14.000Z</time>
      </trkpt>
      <trkpt lat="43.72652" lon="5.81491">
        <ele>324</ele>
        <time>2016-05-28T08:14:16.000Z</time>
      </trkpt>
      <trkpt lat="43.72652" lon="5.81491">
        <ele>324</ele>
        <time>2016-05-28T08:14:18.000Z</time>
      </trkpt>
      <trkpt lat="43.72652" lon="5.81491">
        <ele>324</ele>
        <time>2016-05-28T08:14:20.000Z</time>
      </trkpt>
      <trkpt lat="43.72652" lon="5.81491">
        <ele>324</ele>
        <time>2016-05-28T08:14:22.000Z</time>
      </trkpt>
      <trkpt lat="43.72652" lon="5.81491">
        <ele>324</ele>
        <time>2016-05-28T08:14:24.000Z</time>
      </trkpt>
      <trkpt lat="43.72652" lon="5.81491">
        <ele>324</ele>
        <time>2016-05-28T08:14:26.000Z</time>
      </trkpt>
      <trkpt lat="43.72652" lon="5.81491">
        <ele>324</ele>
        <time>2016-05-28T08:14:28.000Z</time>
      </trkpt>
      <trkpt lat="43.72652" lon="5.81491">
        <ele>324</ele>
        <time>2016-05-28T08:14:30.000Z</time>
      </trkpt>
      <trkpt lat="43.72652" lon="5.81491">
        <ele>324</ele>
        <time>2016-05-28T08:14:32.000Z</time>
      </trkpt>
      <trkpt lat="43.72652" lon="5.81491">
        <ele>324</ele>
        <time>2016-05-28T08:14:34.000Z</time>
      </trkpt>
      <trkpt lat="43.72652" lon="5.81491">
        <ele>324</ele>
        <time>2016-05-28T08:14:36.000Z</time>
      </trkpt>
      <trkpt lat="43.72652" lon="5.81491">
        <ele>324</ele>
        <time>2016-05-28T08:14:38.000Z</time>
      </trkpt>
      <trkpt lat="43.72652" lon="5.81491">
        <ele>324</ele>
        <time>2016-05-28T08:14:40.000Z</time>
      </trkpt>
      <trkpt lat="43.72635" lon="5.8141">
        <ele>327</ele>
        <time>2016-05-28T08:14:44.000Z</time>
      </trkpt>
      <trkpt lat="43.72623" lon="5.8137">
        <ele>327</ele>
        <time>2016-05-28T08:14:46.000Z</time>
      </trkpt>
      <trkpt lat="43.72614" lon="5.8135">
        <ele>327</ele>
        <time>2016-05-28T08:14:48.000Z</time>
      </trkpt>
      <trkpt lat="43.72606" lon="5.81341">
        <ele>328</ele>
        <time>2016-05-28T08:14:50.000Z</time>
      </trkpt>
      <trkpt lat="43.72598" lon="5.81336">
        <ele>328</ele>
        <time>2016-05-28T08:14:52.000Z</time>
      </trkpt>
      <trkpt lat="43.72585" lon="5.81331">
        <ele>327</ele>
        <time>2016-05-28T08:14:54.000Z</time>
      </trkpt>
      <trkpt lat="43.72573" lon="5.8132">
        <ele>327</ele>
        <time>2016-05-28T08:14:58.000Z</time>
      </trkpt>
      <trkpt lat="43.72564" lon="5.81302">
        <ele>325</ele>
        <time>2016-05-28T08:15:02.000Z</time>
      </trkpt>
      <trkpt lat="43.72558" lon="5.8128">
        <ele>326</ele>
        <time>2016-05-28T08:15:06.000Z</time>
      </trkpt>
      <trkpt lat="43.72554" lon="5.81259">
        <ele>327</ele>
        <time>2016-05-28T08:15:10.000Z</time>
      </trkpt>
      <trkpt lat="43.72554" lon="5.81259">
        <ele>327</ele>
        <time>2016-05-28T08:15:12.000Z</time>
      </trkpt>
      <trkpt lat="43.72554" lon="5.81259">
        <ele>327</ele>
        <time>2016-05-28T08:15:14.000Z</time>
      </trkpt>
      <trkpt lat="43.72554" lon="5.81259">
        <ele>327</ele>
        <time>2016-05-28T08:15:16.000Z</time>
      </trkpt>
      <trkpt lat="43.72554" lon="5.81259">
        <ele>327</ele>
        <time>2016-05-28T08:15:18.000Z</time>
      </trkpt>
      <trkpt lat="43.72554" lon="5.81259">
        <ele>327</ele>
        <time>2016-05-28T08:15:20.000Z</time>
      </trkpt>
      <trkpt lat="43.72554" lon="5.81259">
        <ele>327</ele>
        <time>2016-05-28T08:15:22.000Z</time>
      </trkpt>
      <trkpt lat="43.72554" lon="5.81259">
        <ele>327</ele>
        <time>2016-05-28T08:15:24.000Z</time>
      </trkpt>
      <trkpt lat="43.72554" lon="5.81259">
        <ele>327</ele>
        <time>2016-05-28T08:15:26.000Z</time>
      </trkpt>
      <trkpt lat="43.72554" lon="5.81259">
        <ele>327</ele>
        <time>2016-05-28T08:15:28.000Z</time>
      </trkpt>
      <trkpt lat="43.72554" lon="5.81259">
        <ele>327</ele>
        <time>2016-05-28T08:15:30.000Z</time>
      </trkpt>
      <trkpt lat="43.72554" lon="5.81259">
        <ele>327</ele>
        <time>2016-05-28T08:15:32.000Z</time>
      </trkpt>
      <trkpt lat="43.72554" lon="5.81259">
        <ele>327</ele>
        <time>2016-05-28T08:15:34.000Z</time>
      </trkpt>
      <trkpt lat="43.72554" lon="5.81259">
        <ele>327</ele>
        <time>2016-05-28T08:15:36.000Z</time>
      </trkpt>
      <trkpt lat="43.72554" lon="5.81259">
        <ele>327</ele>
        <time>2016-05-28T08:15:38.000Z</time>
      </trkpt>
      <trkpt lat="43.72554" lon="5.81259">
        <ele>327</ele>
        <time>2016-05-28T08:15:40.000Z</time>
      </trkpt>
      <trkpt lat="43.72554" lon="5.81259">
        <ele>327</ele>
        <time>2016-05-28T08:15:42.000Z</time>
      </trkpt>
      <trkpt lat="43.72554" lon="5.81259">
        <ele>327</ele>
        <time>2016-05-28T08:15:44.000Z</time>
      </trkpt>
      <trkpt lat="43.72554" lon="5.81259">
        <ele>327</ele>
        <time>2016-05-28T08:15:46.000Z</time>
      </trkpt>
      <trkpt lat="43.72554" lon="5.81259">
        <ele>327</ele>
        <time>2016-05-28T08:15:48.000Z</time>
      </trkpt>
      <trkpt lat="43.72554" lon="5.81259">
        <ele>327</ele>
        <time>2016-05-28T08:15:50.000Z</time>
      </trkpt>
      <trkpt lat="43.72444" lon="5.81184">
        <ele>328</ele>
        <time>2016-05-28T08:15:54.000Z</time>
      </trkpt>
      <trkpt lat="43.72431" lon="5.81181">
        <ele>325</ele>
        <time>2016-05-28T08:15:58.000Z</time>
      </trkpt>
      <trkpt lat="43.72419" lon="5.81179">
        <ele>326</ele>
        <time>2016-05-28T08:16:02.000Z</time>
      </trkpt>
      <trkpt lat="43.7241" lon="5.81189">
        <ele>330</ele>
        <time>2016-05-28T08:16:06.000Z</time>
      </trkpt>
      <trkpt lat="43.72401" lon="5.81203">
        <ele>332</ele>
        <time>2016-05-28T08:16:10.000Z</time>
      </trkpt>
      <trkpt lat="43.72398" lon="5.81211">
        <ele>332</ele>
        <time>2016-05-28T08:16:14.000Z</time>
      </trkpt>
      <trkpt lat="43.72395" lon="5.81217">
        <ele>335</ele>
        <time>2016-05-28T08:16:16.000Z</time>
      </trkpt>
      <trkpt lat="43.72395" lon="5.81217">
        <ele>335</ele>
        <time>2016-05-28T08:16:18.000Z</time>
      </trkpt>
      <trkpt lat="43.72395" lon="5.81217">
        <ele>335</ele>
        <time>2016-05-28T08:16:20.000Z</time>
      </trkpt>
      <trkpt lat="43.72395" lon="5.81217">
        <ele>335</ele>
        <time>2016-05-28T08:16:22.000Z</time>
      </trkpt>
      <trkpt lat="43.72384" lon="5.81233">
        <ele>337</ele>
        <time>2016-05-28T08:16:26.000Z</time>
      </trkpt>
      <trkpt lat="43.72377" lon="5.81244">
        <ele>336</ele>
        <time>2016-05-28T08:16:28.000Z</time>
      </trkpt>
      <trkpt lat="43.72371" lon="5.81252">
        <ele>335</ele>
        <time>2016-05-28T08:16:30.000Z</time>
      </trkpt>
      <trkpt lat="43.72364" lon="5.81256">
        <ele>334</ele>
        <time>2016-05-28T08:16:32.000Z</time>
      </trkpt>
      <trkpt lat="43.72358" lon="5.8126">
        <ele>333</ele>
        <time>2016-05-28T08:16:34.000Z</time>
      </trkpt>
      <trkpt lat="43.72339" lon="5.81266">
        <ele>336</ele>
        <time>2016-05-28T08:16:36.000Z</time>
      </trkpt>
      <trkpt lat="43.72329" lon="5.81262">
        <ele>335</ele>
        <time>2016-05-28T08:16:38.000Z</time>
      </trkpt>
      <trkpt lat="43.72321" lon="5.81255">
        <ele>337</ele>
        <time>2016-05-28T08:16:40.000Z</time>
      </trkpt>
      <trkpt lat="43.72311" lon="5.8125">
        <ele>336</ele>
        <time>2016-05-28T08:16:42.000Z</time>
      </trkpt>
      <trkpt lat="43.72301" lon="5.81247">
        <ele>336</ele>
        <time>2016-05-28T08:16:44.000Z</time>
      </trkpt>
      <trkpt lat="43.72292" lon="5.81247">
        <ele>337</ele>
        <time>2016-05-28T08:16:46.000Z</time>
      </trkpt>
      <trkpt lat="43.72282" lon="5.81248">
        <ele>336</ele>
        <time>2016-05-28T08:16:48.000Z</time>
      </trkpt>
      <trkpt lat="43.72282" lon="5.81248">
        <ele>336</ele>
        <time>2016-05-28T08:16:50.000Z</time>
      </trkpt>
      <trkpt lat="43.72282" lon="5.81248">
        <ele>336</ele>
        <time>2016-05-28T08:16:52.000Z</time>
      </trkpt>
      <trkpt lat="43.72282" lon="5.81248">
        <ele>336</ele>
        <time>2016-05-28T08:16:54.000Z</time>
      </trkpt>
      <trkpt lat="43.72282" lon="5.81248">
        <ele>336</ele>
        <time>2016-05-28T08:16:56.000Z</time>
      </trkpt>
      <trkpt lat="43.72282" lon="5.81248">
        <ele>336</ele>
        <time>2016-05-28T08:16:58.000Z</time>
      </trkpt>
      <trkpt lat="43.72282" lon="5.81248">
        <ele>336</ele>
        <time>2016-05-28T08:17:00.000Z</time>
      </trkpt>
      <trkpt lat="43.72282" lon="5.81248">
        <ele>336</ele>
        <time>2016-05-28T08:17:02.000Z</time>
      </trkpt>
      <trkpt lat="43.72282" lon="5.81248">
        <ele>336</ele>
        <time>2016-05-28T08:17:04.000Z</time>
      </trkpt>
      <trkpt lat="43.72282" lon="5.81248">
        <ele>336</ele>
        <time>2016-05-28T08:17:06.000Z</time>
      </trkpt>
      <trkpt lat="43.72282" lon="5.81248">
        <ele>336</ele>
        <time>2016-05-28T08:17:08.000Z</time>
      </trkpt>
      <trkpt lat="43.72218" lon="5.81266">
        <ele>340</ele>
        <time>2016-05-28T08:17:14.000Z</time>
      </trkpt>
      <trkpt lat="43.72208" lon="5.81271">
        <ele>339</ele>
        <time>2016-05-28T08:17:18.000Z</time>
      </trkpt>
      <trkpt lat="43.72198" lon="5.81275">
        <ele>338</ele>
        <time>2016-05-28T08:17:22.000Z</time>
      </trkpt>
      <trkpt lat="43.72188" lon="5.81278">
        <ele>337</ele>
        <time>2016-05-28T08:17:26.000Z</time>
      </trkpt>
      <trkpt lat="43.72177" lon="5.81283">
        <ele>338</ele>
        <time>2016-05-28T08:17:30.000Z</time>
      </trkpt>
      <trkpt lat="43.72165" lon="5.81287">
        <ele>338</ele>
        <time>2016-05-28T08:17:34.000Z</time>
      </trkpt>
      <trkpt lat="43.72153" lon="5.81288">
        <ele>339</ele>
        <time>2016-05-28T08:17:38.000Z</time>
      </trkpt>
      <trkpt lat="43.72141" lon="5.81286">
        <ele>339</ele>
        <time>2016-05-28T08:17:42.000Z</time>
      </trkpt>
      <trkpt lat="43.72141" lon="5.81286">
        <ele>339</ele>
        <time>2016-05-28T08:17:44.000Z</time>
      </trkpt>
      <trkpt lat="43.7213" lon="5.81282">
        <ele>339</ele>
        <time>2016-05-28T08:17:46.000Z</time>
      </trkpt>
      <trkpt lat="43.7213" lon="5.81282">
        <ele>339</ele>
        <time>2016-05-28T08:17:48.000Z</time>
      </trkpt>
      <trkpt lat="43.7213" lon="5.81282">
        <ele>339</ele>
        <time>2016-05-28T08:17:50.000Z</time>
      </trkpt>
      <trkpt lat="43.7213" lon="5.81282">
        <ele>339</ele>
        <time>2016-05-28T08:17:52.000Z</time>
      </trkpt>
      <trkpt lat="43.7213" lon="5.81282">
        <ele>339</ele>
        <time>2016-05-28T08:17:54.000Z</time>
      </trkpt>
      <trkpt lat="43.7213" lon="5.81282">
        <ele>339</ele>
        <time>2016-05-28T08:17:56.000Z</time>
      </trkpt>
      <trkpt lat="43.7213" lon="5.81282">
        <ele>339</ele>
        <time>2016-05-28T08:17:58.000Z</time>
      </trkpt>
      <trkpt lat="43.7213" lon="5.81282">
        <ele>339</ele>
        <time>2016-05-28T08:18:00.000Z</time>
      </trkpt>
      <trkpt lat="43.7213" lon="5.81282">
        <ele>339</ele>
        <time>2016-05-28T08:18:02.000Z</time>
      </trkpt>
      <trkpt lat="43.7213" lon="5.81282">
        <ele>339</ele>
        <time>2016-05-28T08:18:04.000Z</time>
      </trkpt>
      <trkpt lat="43.7213" lon="5.81282">
        <ele>339</ele>
        <time>2016-05-28T08:18:06.000Z</time>
      </trkpt>
      <trkpt lat="43.72102" lon="5.81262">
        <ele>339</ele>
        <time>2016-05-28T08:18:08.000Z</time>
      </trkpt>
      <trkpt lat="43.72085" lon="5.81249">
        <ele>339</ele>
        <time>2016-05-28T08:18:10.000Z</time>
      </trkpt>
      <trkpt lat="43.72074" lon="5.8124">
        <ele>339</ele>
        <time>2016-05-28T08:18:12.000Z</time>
      </trkpt>
      <trkpt lat="43.72065" lon="5.81233">
        <ele>338</ele>
        <time>2016-05-28T08:18:14.000Z</time>
      </trkpt>
      <trkpt lat="43.72058" lon="5.81226">
        <ele>339</ele>
        <time>2016-05-28T08:18:16.000Z</time>
      </trkpt>
      <trkpt lat="43.72044" lon="5.81213">
        <ele>339</ele>
        <time>2016-05-28T08:18:18.000Z</time>
      </trkpt>
      <trkpt lat="43.72033" lon="5.812">
        <ele>339</ele>
        <time>2016-05-28T08:18:22.000Z</time>
      </trkpt>
      <trkpt lat="43.72021" lon="5.81187">
        <ele>340</ele>
        <time>2016-05-28T08:18:26.000Z</time>
      </trkpt>
      <trkpt lat="43.7201" lon="5.81174">
        <ele>341</ele>
        <time>2016-05-28T08:18:30.000Z</time>
      </trkpt>
      <trkpt lat="43.72001" lon="5.8116">
        <ele>340</ele>
        <time>2016-05-28T08:18:34.000Z</time>
      </trkpt>
      <trkpt lat="43.71994" lon="5.81145">
        <ele>340</ele>
        <time>2016-05-28T08:18:38.000Z</time>
      </trkpt>
      <trkpt lat="43.71994" lon="5.81145">
        <ele>340</ele>
        <time>2016-05-28T08:18:40.000Z</time>
      </trkpt>
      <trkpt lat="43.71994" lon="5.81145">
        <ele>340</ele>
        <time>2016-05-28T08:18:42.000Z</time>
      </trkpt>
      <trkpt lat="43.71994" lon="5.81145">
        <ele>340</ele>
        <time>2016-05-28T08:18:44.000Z</time>
      </trkpt>
      <trkpt lat="43.71994" lon="5.81145">
        <ele>340</ele>
        <time>2016-05-28T08:18:46.000Z</time>
      </trkpt>
      <trkpt lat="43.71994" lon="5.81145">
        <ele>340</ele>
        <time>2016-05-28T08:18:48.000Z</time>
      </trkpt>
      <trkpt lat="43.71994" lon="5.81145">
        <ele>340</ele>
        <time>2016-05-28T08:18:50.000Z</time>
      </trkpt>
      <trkpt lat="43.71994" lon="5.81145">
        <ele>340</ele>
        <time>2016-05-28T08:18:52.000Z</time>
      </trkpt>
      <trkpt lat="43.71994" lon="5.81145">
        <ele>340</ele>
        <time>2016-05-28T08:18:54.000Z</time>
      </trkpt>
      <trkpt lat="43.71994" lon="5.81145">
        <ele>340</ele>
        <time>2016-05-28T08:18:56.000Z</time>
      </trkpt>
      <trkpt lat="43.71994" lon="5.81145">
        <ele>340</ele>
        <time>2016-05-28T08:18:58.000Z</time>
      </trkpt>
      <trkpt lat="43.71994" lon="5.81145">
        <ele>340</ele>
        <time>2016-05-28T08:19:00.000Z</time>
      </trkpt>
      <trkpt lat="43.71994" lon="5.81145">
        <ele>340</ele>
        <time>2016-05-28T08:19:02.000Z</time>
      </trkpt>
      <trkpt lat="43.71994" lon="5.81145">
        <ele>340</ele>
        <time>2016-05-28T08:19:04.000Z</time>
      </trkpt>
      <trkpt lat="43.71994" lon="5.81145">
        <ele>340</ele>
        <time>2016-05-28T08:19:06.000Z</time>
      </trkpt>
      <trkpt lat="43.71994" lon="5.81145">
        <ele>340</ele>
        <time>2016-05-28T08:19:08.000Z</time>
      </trkpt>
      <trkpt lat="43.71994" lon="5.81145">
        <ele>340</ele>
        <time>2016-05-28T08:19:10.000Z</time>
      </trkpt>
      <trkpt lat="43.71994" lon="5.81145">
        <ele>340</ele>
        <time>2016-05-28T08:19:12.000Z</time>
      </trkpt>
      <trkpt lat="43.71994" lon="5.81145">
        <ele>340</ele>
        <time>2016-05-28T08:19:14.000Z</time>
      </trkpt>
      <trkpt lat="43.71994" lon="5.81145">
        <ele>340</ele>
        <time>2016-05-28T08:19:16.000Z</time>
      </trkpt>
      <trkpt lat="43.71994" lon="5.81145">
        <ele>340</ele>
        <time>2016-05-28T08:19:18.000Z</time>
      </trkpt>
      <trkpt lat="43.71994" lon="5.81145">
        <ele>340</ele>
        <time>2016-05-28T08:19:20.000Z</time>
      </trkpt>
      <trkpt lat="43.71994" lon="5.81145">
        <ele>340</ele>
        <time>2016-05-28T08:19:22.000Z</time>
      </trkpt>
      <trkpt lat="43.71994" lon="5.81145">
        <ele>340</ele>
        <time>2016-05-28T08:19:24.000Z</time>
      </trkpt>
      <trkpt lat="43.71994" lon="5.81145">
        <ele>340</ele>
        <time>2016-05-28T08:19:26.000Z</time>
      </trkpt>
      <trkpt lat="43.71994" lon="5.81145">
        <ele>340</ele>
        <time>2016-05-28T08:19:28.000Z</time>
      </trkpt>
      <trkpt lat="43.71994" lon="5.81145">
        <ele>340</ele>
        <time>2016-05-28T08:19:30.000Z</time>
      </trkpt>
      <trkpt lat="43.71994" lon="5.81145">
        <ele>340</ele>
        <time>2016-05-28T08:19:32.000Z</time>
      </trkpt>
      <trkpt lat="43.71965" lon="5.81082">
        <ele>349</ele>
        <time>2016-05-28T08:19:34.000Z</time>
      </trkpt>
      <trkpt lat="43.71949" lon="5.81051">
        <ele>350</ele>
        <time>2016-05-28T08:19:36.000Z</time>
      </trkpt>
      <trkpt lat="43.71939" lon="5.81034">
        <ele>350</ele>
        <time>2016-05-28T08:19:38.000Z</time>
      </trkpt>
      <trkpt lat="43.71932" lon="5.81026">
        <ele>350</ele>
        <time>2016-05-28T08:19:40.000Z</time>
      </trkpt>
      <trkpt lat="43.71927" lon="5.81021">
        <ele>351</ele>
        <time>2016-05-28T08:19:42.000Z</time>
      </trkpt>
      <trkpt lat="43.71918" lon="5.81017">
        <ele>351</ele>
        <time>2016-05-28T08:19:44.000Z</time>
      </trkpt>
      <trkpt lat="43.71908" lon="5.81014">
        <ele>351</ele>
        <time>2016-05-28T08:19:50.000Z</time>
      </trkpt>
      <trkpt lat="43.71897" lon="5.8101">
        <ele>352</ele>
        <time>2016-05-28T08:19:56.000Z</time>
      </trkpt>
      <trkpt lat="43.71886" lon="5.81006">
        <ele>353</ele>
        <time>2016-05-28T08:20:02.000Z</time>
      </trkpt>
      <trkpt lat="43.71875" lon="5.81">
        <ele>354</ele>
        <time>2016-05-28T08:20:08.000Z</time>
      </trkpt>
      <trkpt lat="43.71865" lon="5.80993">
        <ele>355</ele>
        <time>2016-05-28T08:20:14.000Z</time>
      </trkpt>
      <trkpt lat="43.71856" lon="5.80983">
        <ele>356</ele>
        <time>2016-05-28T08:20:20.000Z</time>
      </trkpt>
      <trkpt lat="43.71847" lon="5.80973">
        <ele>355</ele>
        <time>2016-05-28T08:20:26.000Z</time>
      </trkpt>
      <trkpt lat="43.71838" lon="5.80963">
        <ele>356</ele>
        <time>2016-05-28T08:20:32.000Z</time>
      </trkpt>
      <trkpt lat="43.71828" lon="5.80954">
        <ele>358</ele>
        <time>2016-05-28T08:20:38.000Z</time>
      </trkpt>
      <trkpt lat="43.71828" lon="5.80954">
        <ele>358</ele>
        <time>2016-05-28T08:20:40.000Z</time>
      </trkpt>
      <trkpt lat="43.71828" lon="5.80954">
        <ele>358</ele>
        <time>2016-05-28T08:20:42.000Z</time>
      </trkpt>
      <trkpt lat="43.71828" lon="5.80954">
        <ele>358</ele>
        <time>2016-05-28T08:20:44.000Z</time>
      </trkpt>
      <trkpt lat="43.71828" lon="5.80954">
        <ele>358</ele>
        <time>2016-05-28T08:20:46.000Z</time>
      </trkpt>
      <trkpt lat="43.71828" lon="5.80954">
        <ele>358</ele>
        <time>2016-05-28T08:20:48.000Z</time>
      </trkpt>
      <trkpt lat="43.71828" lon="5.80954">
        <ele>358</ele>
        <time>2016-05-28T08:20:50.000Z</time>
      </trkpt>
      <trkpt lat="43.71828" lon="5.80954">
        <ele>358</ele>
        <time>2016-05-28T08:20:52.000Z</time>
      </trkpt>
      <trkpt lat="43.71828" lon="5.80954">
        <ele>358</ele>
        <time>2016-05-28T08:20:54.000Z</time>
      </trkpt>
      <trkpt lat="43.71828" lon="5.80954">
        <ele>358</ele>
        <time>2016-05-28T08:20:56.000Z</time>
      </trkpt>
      <trkpt lat="43.71828" lon="5.80954">
        <ele>358</ele>
        <time>2016-05-28T08:20:58.000Z</time>
      </trkpt>
      <trkpt lat="43.71828" lon="5.80954">
        <ele>358</ele>
        <time>2016-05-28T08:21:00.000Z</time>
      </trkpt>
      <trkpt lat="43.71828" lon="5.80954">
        <ele>358</ele>
        <time>2016-05-28T08:21:02.000Z</time>
      </trkpt>
      <trkpt lat="43.71828" lon="5.80954">
        <ele>358</ele>
        <time>2016-05-28T08:21:04.000Z</time>
      </trkpt>
      <trkpt lat="43.71828" lon="5.80954">
        <ele>358</ele>
        <time>2016-05-28T08:21:06.000Z</time>
      </trkpt>
      <trkpt lat="43.71828" lon="5.80954">
        <ele>358</ele>
        <time>2016-05-28T08:21:08.000Z</time>
      </trkpt>
      <trkpt lat="43.71828" lon="5.80954">
        <ele>358</ele>
        <time>2016-05-28T08:21:10.000Z</time>
      </trkpt>
      <trkpt lat="43.71828" lon="5.80954">
        <ele>358</ele>
        <time>2016-05-28T08:21:12.000Z</time>
      </trkpt>
      <trkpt lat="43.71828" lon="5.80954">
        <ele>358</ele>
        <time>2016-05-28T08:21:14.000Z</time>
      </trkpt>
      <trkpt lat="43.71828" lon="5.80954">
        <ele>358</ele>
        <time>2016-05-28T08:21:16.000Z</time>
      </trkpt>
      <trkpt lat="43.71828" lon="5.80954">
        <ele>358</ele>
        <time>2016-05-28T08:21:18.000Z</time>
      </trkpt>
      <trkpt lat="43.71828" lon="5.80954">
        <ele>358</ele>
        <time>2016-05-28T08:21:20.000Z</time>
      </trkpt>
      <trkpt lat="43.71828" lon="5.80954">
        <ele>358</ele>
        <time>2016-05-28T08:21:22.000Z</time>
      </trkpt>
      <trkpt lat="43.71828" lon="5.80954">
        <ele>358</ele>
        <time>2016-05-28T08:21:24.000Z</time>
      </trkpt>
      <trkpt lat="43.71828" lon="5.80954">
        <ele>358</ele>
        <time>2016-05-28T08:21:26.000Z</time>
      </trkpt>
      <trkpt lat="43.71828" lon="5.80954">
        <ele>358</ele>
        <time>2016-05-28T08:21:28.000Z</time>
      </trkpt>
      <trkpt lat="43.71828" lon="5.80954">
        <ele>358</ele>
        <time>2016-05-28T08:21:30.000Z</time>
      </trkpt>
      <trkpt lat="43.71828" lon="5.80954">
        <ele>358</ele>
        <time>2016-05-28T08:21:32.000Z</time>
      </trkpt>
      <trkpt lat="43.71828" lon="5.80954">
        <ele>358</ele>
        <time>2016-05-28T08:21:34.000Z</time>
      </trkpt>
      <trkpt lat="43.71828" lon="5.80954">
        <ele>358</ele>
        <time>2016-05-28T08:21:36.000Z</time>
      </trkpt>
      <trkpt lat="43.71828" lon="5.80954">
        <ele>358</ele>
        <time>2016-05-28T08:21:38.000Z</time>
      </trkpt>
      <trkpt lat="43.71828" lon="5.80954">
        <ele>358</ele>
        <time>2016-05-28T08:21:40.000Z</time>
      </trkpt>
      <trkpt lat="43.71828" lon="5.80954">
        <ele>358</ele>
        <time>2016-05-28T08:21:42.000Z</time>
      </trkpt>
      <trkpt lat="43.71828" lon="5.80954">
        <ele>358</ele>
        <time>2016-05-28T08:21:44.000Z</time>
      </trkpt>
      <trkpt lat="43.71828" lon="5.80954">
        <ele>358</ele>
        <time>2016-05-28T08:21:46.000Z</time>
      </trkpt>
      <trkpt lat="43.71828" lon="5.80954">
        <ele>358</ele>
        <time>2016-05-28T08:21:48.000Z</time>
      </trkpt>
      <trkpt lat="43.71828" lon="5.80954">
        <ele>358</ele>
        <time>2016-05-28T08:21:50.000Z</time>
      </trkpt>
      <trkpt lat="43.71828" lon="5.80954">
        <ele>358</ele>
        <time>2016-05-28T08:21:52.000Z</time>
      </trkpt>
      <trkpt lat="43.71828" lon="5.80954">
        <ele>358</ele>
        <time>2016-05-28T08:21:54.000Z</time>
      </trkpt>
      <trkpt lat="43.71828" lon="5.80954">
        <ele>358</ele>
        <time>2016-05-28T08:21:56.000Z</time>
      </trkpt>
      <trkpt lat="43.71828" lon="5.80954">
        <ele>358</ele>
        <time>2016-05-28T08:21:58.000Z</time>
      </trkpt>
      <trkpt lat="43.71828" lon="5.80954">
        <ele>358</ele>
        <time>2016-05-28T08:22:00.000Z</time>
      </trkpt>
      <trkpt lat="43.71828" lon="5.80954">
        <ele>358</ele>
        <time>2016-05-28T08:22:02.000Z</time>
      </trkpt>
      <trkpt lat="43.71828" lon="5.80954">
        <ele>358</ele>
        <time>2016-05-28T08:22:04.000Z</time>
      </trkpt>
      <trkpt lat="43.71828" lon="5.80954">
        <ele>358</ele>
        <time>2016-05-28T08:22:06.000Z</time>
      </trkpt>
      <trkpt lat="43.71828" lon="5.80954">
        <ele>358</ele>
        <time>2016-05-28T08:22:08.000Z</time>
      </trkpt>
      <trkpt lat="43.71828" lon="5.80954">
        <ele>358</ele>
        <time>2016-05-28T08:22:10.000Z</time>
      </trkpt>
      <trkpt lat="43.71828" lon="5.80954">
        <ele>358</ele>
        <time>2016-05-28T08:22:12.000Z</time>
      </trkpt>
      <trkpt lat="43.71777" lon="5.80901">
        <ele>380</ele>
        <time>2016-05-28T08:22:22.000Z</time>
      </trkpt>
      <trkpt lat="43.71751" lon="5.80874">
        <ele>380</ele>
        <time>2016-05-28T08:22:24.000Z</time>
      </trkpt>
      <trkpt lat="43.71736" lon="5.8086">
        <ele>381</ele>
        <time>2016-05-28T08:22:26.000Z</time>
      </trkpt>
      <trkpt lat="43.71728" lon="5.80852">
        <ele>381</ele>
        <time>2016-05-28T08:22:28.000Z</time>
      </trkpt>
      <trkpt lat="43.71723" lon="5.80848">
        <ele>382</ele>
        <time>2016-05-28T08:22:30.000Z</time>
      </trkpt>
      <trkpt lat="43.71714" lon="5.8084">
        <ele>382</ele>
        <time>2016-05-28T08:22:34.000Z</time>
      </trkpt>
      <trkpt lat="43.71705" lon="5.80836">
        <ele>384</ele>
        <time>2016-05-28T08:22:42.000Z</time>
      </trkpt>
      <trkpt lat="43.71696" lon="5.80832">
        <ele>387</ele>
        <time>2016-05-28T08:22:50.000Z</time>
      </trkpt>
      <trkpt lat="43.71686" lon="5.80828">
        <ele>389</ele>
        <time>2016-05-28T08:22:58.000Z</time>
      </trkpt>
      <trkpt lat="43.71675" lon="5.80823">
        <ele>390</ele>
        <time>2016-05-28T08:23:08.000Z</time>
      </trkpt>
      <trkpt lat="43.71666" lon="5.80818">
        <ele>390</ele>
        <time>2016-05-28T08:23:16.000Z</time>
      </trkpt>
      <trkpt lat="43.71655" lon="5.80813">
        <ele>390</ele>
        <time>2016-05-28T08:23:24.000Z</time>
      </trkpt>
      <trkpt lat="43.71646" lon="5.80807">
        <ele>391</ele>
        <time>2016-05-28T08:23:30.000Z</time>
      </trkpt>
      <trkpt lat="43.71639" lon="5.80794">
        <ele>389</ele>
        <time>2016-05-28T08:23:38.000Z</time>
      </trkpt>
      <trkpt lat="43.71633" lon="5.80782">
        <ele>389</ele>
        <time>2016-05-28T08:23:44.000Z</time>
      </trkpt>
      <trkpt lat="43.71627" lon="5.80769">
        <ele>389</ele>
        <time>2016-05-28T08:23:50.000Z</time>
      </trkpt>
      <trkpt lat="43.71624" lon="5.80763">
        <ele>390</ele>
        <time>2016-05-28T08:23:54.000Z</time>
      </trkpt>
      <trkpt lat="43.71622" lon="5.80757">
        <ele>390</ele>
        <time>2016-05-28T08:23:56.000Z</time>
      </trkpt>
      <trkpt lat="43.7162" lon="5.80751">
        <ele>390</ele>
        <time>2016-05-28T08:23:58.000Z</time>
      </trkpt>
      <trkpt lat="43.71618" lon="5.80744">
        <ele>390</ele>
        <time>2016-05-28T08:24:00.000Z</time>
      </trkpt>
      <trkpt lat="43.71615" lon="5.80736">
        <ele>390</ele>
        <time>2016-05-28T08:24:02.000Z</time>
      </trkpt>
      <trkpt lat="43.71609" lon="5.80721">
        <ele>390</ele>
        <time>2016-05-28T08:24:04.000Z</time>
      </trkpt>
      <trkpt lat="43.71603" lon="5.80705">
        <ele>389</ele>
        <time>2016-05-28T08:24:08.000Z</time>
      </trkpt>
      <trkpt lat="43.71597" lon="5.80688">
        <ele>390</ele>
        <time>2016-05-28T08:24:12.000Z</time>
      </trkpt>
      <trkpt lat="43.71591" lon="5.80669">
        <ele>390</ele>
        <time>2016-05-28T08:24:16.000Z</time>
      </trkpt>
      <trkpt lat="43.71586" lon="5.80651">
        <ele>390</ele>
        <time>2016-05-28T08:24:20.000Z</time>
      </trkpt>
      <trkpt lat="43.71581" lon="5.80632">
        <ele>390</ele>
        <time>2016-05-28T08:24:24.000Z</time>
      </trkpt>
      <trkpt lat="43.71581" lon="5.80632">
        <ele>390</ele>
        <time>2016-05-28T08:24:26.000Z</time>
      </trkpt>
      <trkpt lat="43.71581" lon="5.80632">
        <ele>390</ele>
        <time>2016-05-28T08:24:28.000Z</time>
      </trkpt>
      <trkpt lat="43.71581" lon="5.80632">
        <ele>390</ele>
        <time>2016-05-28T08:24:30.000Z</time>
      </trkpt>
      <trkpt lat="43.71581" lon="5.80632">
        <ele>390</ele>
        <time>2016-05-28T08:24:32.000Z</time>
      </trkpt>
      <trkpt lat="43.71581" lon="5.80632">
        <ele>390</ele>
        <time>2016-05-28T08:24:34.000Z</time>
      </trkpt>
      <trkpt lat="43.71581" lon="5.80632">
        <ele>390</ele>
        <time>2016-05-28T08:24:36.000Z</time>
      </trkpt>
      <trkpt lat="43.71581" lon="5.80632">
        <ele>390</ele>
        <time>2016-05-28T08:24:38.000Z</time>
      </trkpt>
      <trkpt lat="43.71581" lon="5.80632">
        <ele>390</ele>
        <time>2016-05-28T08:24:40.000Z</time>
      </trkpt>
      <trkpt lat="43.71581" lon="5.80632">
        <ele>390</ele>
        <time>2016-05-28T08:24:42.000Z</time>
      </trkpt>
      <trkpt lat="43.71581" lon="5.80632">
        <ele>390</ele>
        <time>2016-05-28T08:24:44.000Z</time>
      </trkpt>
      <trkpt lat="43.71581" lon="5.80632">
        <ele>390</ele>
        <time>2016-05-28T08:24:46.000Z</time>
      </trkpt>
      <trkpt lat="43.71557" lon="5.80531">
        <ele>389</ele>
        <time>2016-05-28T08:24:48.000Z</time>
      </trkpt>
      <trkpt lat="43.71553" lon="5.80515">
        <ele>389</ele>
        <time>2016-05-28T08:24:50.000Z</time>
      </trkpt>
      <trkpt lat="43.7155" lon="5.80502">
        <ele>388</ele>
        <time>2016-05-28T08:24:52.000Z</time>
      </trkpt>
      <trkpt lat="43.71546" lon="5.80487">
        <ele>387</ele>
        <time>2016-05-28T08:24:54.000Z</time>
      </trkpt>
      <trkpt lat="43.71537" lon="5.80471">
        <ele>385</ele>
        <time>2016-05-28T08:24:56.000Z</time>
      </trkpt>
      <trkpt lat="43.71529" lon="5.80455">
        <ele>385</ele>
        <time>2016-05-28T08:24:58.000Z</time>
      </trkpt>
      <trkpt lat="43.71526" lon="5.80437">
        <ele>386</ele>
        <time>2016-05-28T08:25:00.000Z</time>
      </trkpt>
      <trkpt lat="43.71528" lon="5.80421">
        <ele>384</ele>
        <time>2016-05-28T08:25:02.000Z</time>
      </trkpt>
      <trkpt lat="43.71531" lon="5.80402">
        <ele>386</ele>
        <time>2016-05-28T08:25:04.000Z</time>
      </trkpt>
      <trkpt lat="43.71531" lon="5.80386">
        <ele>385</ele>
        <time>2016-05-28T08:25:06.000Z</time>
      </trkpt>
      <trkpt lat="43.71535" lon="5.80375">
        <ele>386</ele>
        <time>2016-05-28T08:25:08.000Z</time>
      </trkpt>
      <trkpt lat="43.71535" lon="5.80375">
        <ele>386</ele>
        <time>2016-05-28T08:25:10.000Z</time>
      </trkpt>
      <trkpt lat="43.71535" lon="5.80375">
        <ele>386</ele>
        <time>2016-05-28T08:25:12.000Z</time>
      </trkpt>
      <trkpt lat="43.71535" lon="5.80375">
        <ele>386</ele>
        <time>2016-05-28T08:25:14.000Z</time>
      </trkpt>
      <trkpt lat="43.71535" lon="5.80375">
        <ele>386</ele>
        <time>2016-05-28T08:25:16.000Z</time>
      </trkpt>
      <trkpt lat="43.71535" lon="5.80375">
        <ele>386</ele>
        <time>2016-05-28T08:25:18.000Z</time>
      </trkpt>
      <trkpt lat="43.71535" lon="5.80375">
        <ele>386</ele>
        <time>2016-05-28T08:25:22.000Z</time>
      </trkpt>
      <trkpt lat="43.71535" lon="5.80375">
        <ele>386</ele>
        <time>2016-05-28T08:25:24.000Z</time>
      </trkpt>
      <trkpt lat="43.71535" lon="5.80375">
        <ele>386</ele>
        <time>2016-05-28T08:25:26.000Z</time>
      </trkpt>
      <trkpt lat="43.71535" lon="5.80375">
        <ele>386</ele>
        <time>2016-05-28T08:25:28.000Z</time>
      </trkpt>
      <trkpt lat="43.71535" lon="5.80375">
        <ele>386</ele>
        <time>2016-05-28T08:25:30.000Z</time>
      </trkpt>
      <trkpt lat="43.71559" lon="5.80259">
        <ele>388</ele>
        <time>2016-05-28T08:25:34.000Z</time>
      </trkpt>
      <trkpt lat="43.71562" lon="5.80239">
        <ele>390</ele>
        <time>2016-05-28T08:25:38.000Z</time>
      </trkpt>
      <trkpt lat="43.71562" lon="5.80239">
        <ele>390</ele>
        <time>2016-05-28T08:25:40.000Z</time>
      </trkpt>
      <trkpt lat="43.71562" lon="5.80239">
        <ele>390</ele>
        <time>2016-05-28T08:25:42.000Z</time>
      </trkpt>
      <trkpt lat="43.71562" lon="5.80239">
        <ele>390</ele>
        <time>2016-05-28T08:25:44.000Z</time>
      </trkpt>
      <trkpt lat="43.71562" lon="5.80239">
        <ele>390</ele>
        <time>2016-05-28T08:25:46.000Z</time>
      </trkpt>
      <trkpt lat="43.71562" lon="5.80239">
        <ele>390</ele>
        <time>2016-05-28T08:25:48.000Z</time>
      </trkpt>
      <trkpt lat="43.71561" lon="5.80211">
        <ele>390</ele>
        <time>2016-05-28T08:25:50.000Z</time>
      </trkpt>
      <trkpt lat="43.71562" lon="5.80191">
        <ele>390</ele>
        <time>2016-05-28T08:25:52.000Z</time>
      </trkpt>
      <trkpt lat="43.71564" lon="5.80176">
        <ele>390</ele>
        <time>2016-05-28T08:25:54.000Z</time>
      </trkpt>
      <trkpt lat="43.71566" lon="5.80164">
        <ele>390</ele>
        <time>2016-05-28T08:25:56.000Z</time>
      </trkpt>
      <trkpt lat="43.71569" lon="5.80153">
        <ele>390</ele>
        <time>2016-05-28T08:25:58.000Z</time>
      </trkpt>
      <trkpt lat="43.71574" lon="5.80131">
        <ele>390</ele>
        <time>2016-05-28T08:26:00.000Z</time>
      </trkpt>
      <trkpt lat="43.71577" lon="5.8011">
        <ele>390</ele>
        <time>2016-05-28T08:26:04.000Z</time>
      </trkpt>
      <trkpt lat="43.71578" lon="5.80087">
        <ele>390</ele>
        <time>2016-05-28T08:26:08.000Z</time>
      </trkpt>
      <trkpt lat="43.71577" lon="5.80066">
        <ele>390</ele>
        <time>2016-05-28T08:26:12.000Z</time>
      </trkpt>
      <trkpt lat="43.71577" lon="5.80066">
        <ele>390</ele>
        <time>2016-05-28T08:26:14.000Z</time>
      </trkpt>
      <trkpt lat="43.71577" lon="5.80066">
        <ele>390</ele>
        <time>2016-05-28T08:26:16.000Z</time>
      </trkpt>
      <trkpt lat="43.71577" lon="5.80066">
        <ele>390</ele>
        <time>2016-05-28T08:26:18.000Z</time>
      </trkpt>
      <trkpt lat="43.71577" lon="5.80066">
        <ele>390</ele>
        <time>2016-05-28T08:26:20.000Z</time>
      </trkpt>
      <trkpt lat="43.71579" lon="5.80012">
        <ele>389</ele>
        <time>2016-05-28T08:26:22.000Z</time>
      </trkpt>
      <trkpt lat="43.7158" lon="5.79998">
        <ele>388</ele>
        <time>2016-05-28T08:26:24.000Z</time>
      </trkpt>
      <trkpt lat="43.71581" lon="5.79985">
        <ele>388</ele>
        <time>2016-05-28T08:26:26.000Z</time>
      </trkpt>
      <trkpt lat="43.7158" lon="5.79972">
        <ele>388</ele>
        <time>2016-05-28T08:26:28.000Z</time>
      </trkpt>
      <trkpt lat="43.71579" lon="5.79959">
        <ele>388</ele>
        <time>2016-05-28T08:26:30.000Z</time>
      </trkpt>
      <trkpt lat="43.71577" lon="5.79946">
        <ele>389</ele>
        <time>2016-05-28T08:26:32.000Z</time>
      </trkpt>
      <trkpt lat="43.71577" lon="5.79946">
        <ele>389</ele>
        <time>2016-05-28T08:26:34.000Z</time>
      </trkpt>
      <trkpt lat="43.71577" lon="5.79946">
        <ele>389</ele>
        <time>2016-05-28T08:26:36.000Z</time>
      </trkpt>
      <trkpt lat="43.71574" lon="5.79896">
        <ele>388</ele>
        <time>2016-05-28T08:26:40.000Z</time>
      </trkpt>
      <trkpt lat="43.71573" lon="5.79882">
        <ele>387</ele>
        <time>2016-05-28T08:26:42.000Z</time>
      </trkpt>
      <trkpt lat="43.71572" lon="5.79869">
        <ele>387</ele>
        <time>2016-05-28T08:26:44.000Z</time>
      </trkpt>
      <trkpt lat="43.71571" lon="5.79856">
        <ele>386</ele>
        <time>2016-05-28T08:26:46.000Z</time>
      </trkpt>
      <trkpt lat="43.71571" lon="5.79841">
        <ele>386</ele>
        <time>2016-05-28T08:26:48.000Z</time>
      </trkpt>
      <trkpt lat="43.71574" lon="5.79829">
        <ele>386</ele>
        <time>2016-05-28T08:26:50.000Z</time>
      </trkpt>
      <trkpt lat="43.71574" lon="5.79829">
        <ele>386</ele>
        <time>2016-05-28T08:26:52.000Z</time>
      </trkpt>
      <trkpt lat="43.71574" lon="5.79829">
        <ele>386</ele>
        <time>2016-05-28T08:26:54.000Z</time>
      </trkpt>
      <trkpt lat="43.71574" lon="5.79829">
        <ele>386</ele>
        <time>2016-05-28T08:26:56.000Z</time>
      </trkpt>
      <trkpt lat="43.71574" lon="5.79829">
        <ele>386</ele>
        <time>2016-05-28T08:26:58.000Z</time>
      </trkpt>
      <trkpt lat="43.71574" lon="5.79829">
        <ele>386</ele>
        <time>2016-05-28T08:27:00.000Z</time>
      </trkpt>
      <trkpt lat="43.71574" lon="5.79829">
        <ele>386</ele>
        <time>2016-05-28T08:27:02.000Z</time>
      </trkpt>
      <trkpt lat="43.71574" lon="5.79829">
        <ele>386</ele>
        <time>2016-05-28T08:27:04.000Z</time>
      </trkpt>
      <trkpt lat="43.71574" lon="5.79829">
        <ele>386</ele>
        <time>2016-05-28T08:27:06.000Z</time>
      </trkpt>
      <trkpt lat="43.71574" lon="5.79829">
        <ele>386</ele>
        <time>2016-05-28T08:27:08.000Z</time>
      </trkpt>
      <trkpt lat="43.71574" lon="5.79829">
        <ele>386</ele>
        <time>2016-05-28T08:27:10.000Z</time>
      </trkpt>
      <trkpt lat="43.71574" lon="5.79829">
        <ele>386</ele>
        <time>2016-05-28T08:27:12.000Z</time>
      </trkpt>
      <trkpt lat="43.71557" lon="5.79698">
        <ele>387</ele>
        <time>2016-05-28T08:27:16.000Z</time>
      </trkpt>
      <trkpt lat="43.71552" lon="5.79687">
        <ele>388</ele>
        <time>2016-05-28T08:27:18.000Z</time>
      </trkpt>
      <trkpt lat="43.71549" lon="5.79664">
        <ele>388</ele>
        <time>2016-05-28T08:27:22.000Z</time>
      </trkpt>
      <trkpt lat="43.71549" lon="5.79664">
        <ele>388</ele>
        <time>2016-05-28T08:27:24.000Z</time>
      </trkpt>
      <trkpt lat="43.71549" lon="5.79664">
        <ele>388</ele>
        <time>2016-05-28T08:27:26.000Z</time>
      </trkpt>
      <trkpt lat="43.71549" lon="5.79664">
        <ele>388</ele>
        <time>2016-05-28T08:27:28.000Z</time>
      </trkpt>
      <trkpt lat="43.71549" lon="5.79664">
        <ele>388</ele>
        <time>2016-05-28T08:27:30.000Z</time>
      </trkpt>
      <trkpt lat="43.71549" lon="5.79664">
        <ele>388</ele>
        <time>2016-05-28T08:27:32.000Z</time>
      </trkpt>
      <trkpt lat="43.71549" lon="5.79664">
        <ele>388</ele>
        <time>2016-05-28T08:27:34.000Z</time>
      </trkpt>
      <trkpt lat="43.71549" lon="5.79664">
        <ele>388</ele>
        <time>2016-05-28T08:27:36.000Z</time>
      </trkpt>
      <trkpt lat="43.7156" lon="5.79628">
        <ele>387</ele>
        <time>2016-05-28T08:27:40.000Z</time>
      </trkpt>
      <trkpt lat="43.71568" lon="5.79605">
        <ele>387</ele>
        <time>2016-05-28T08:27:42.000Z</time>
      </trkpt>
      <trkpt lat="43.71572" lon="5.79589">
        <ele>387</ele>
        <time>2016-05-28T08:27:44.000Z</time>
      </trkpt>
      <trkpt lat="43.71576" lon="5.79576">
        <ele>386</ele>
        <time>2016-05-28T08:27:46.000Z</time>
      </trkpt>
      <trkpt lat="43.71578" lon="5.79565">
        <ele>386</ele>
        <time>2016-05-28T08:27:48.000Z</time>
      </trkpt>
      <trkpt lat="43.71578" lon="5.79565">
        <ele>386</ele>
        <time>2016-05-28T08:27:50.000Z</time>
      </trkpt>
      <trkpt lat="43.71578" lon="5.79565">
        <ele>386</ele>
        <time>2016-05-28T08:27:52.000Z</time>
      </trkpt>
      <trkpt lat="43.71578" lon="5.79565">
        <ele>386</ele>
        <time>2016-05-28T08:27:54.000Z</time>
      </trkpt>
      <trkpt lat="43.71581" lon="5.79513">
        <ele>385</ele>
        <time>2016-05-28T08:27:56.000Z</time>
      </trkpt>
      <trkpt lat="43.71582" lon="5.79491">
        <ele>385</ele>
        <time>2016-05-28T08:28:00.000Z</time>
      </trkpt>
      <trkpt lat="43.71582" lon="5.79491">
        <ele>385</ele>
        <time>2016-05-28T08:28:02.000Z</time>
      </trkpt>
      <trkpt lat="43.71582" lon="5.79491">
        <ele>385</ele>
        <time>2016-05-28T08:28:04.000Z</time>
      </trkpt>
      <trkpt lat="43.71582" lon="5.79491">
        <ele>385</ele>
        <time>2016-05-28T08:28:06.000Z</time>
      </trkpt>
      <trkpt lat="43.71582" lon="5.79491">
        <ele>385</ele>
        <time>2016-05-28T08:28:08.000Z</time>
      </trkpt>
      <trkpt lat="43.71582" lon="5.79491">
        <ele>385</ele>
        <time>2016-05-28T08:28:10.000Z</time>
      </trkpt>
      <trkpt lat="43.71582" lon="5.79491">
        <ele>385</ele>
        <time>2016-05-28T08:28:12.000Z</time>
      </trkpt>
      <trkpt lat="43.71582" lon="5.79491">
        <ele>385</ele>
        <time>2016-05-28T08:28:14.000Z</time>
      </trkpt>
      <trkpt lat="43.71582" lon="5.79491">
        <ele>385</ele>
        <time>2016-05-28T08:28:16.000Z</time>
      </trkpt>
      <trkpt lat="43.71582" lon="5.79491">
        <ele>385</ele>
        <time>2016-05-28T08:28:18.000Z</time>
      </trkpt>
      <trkpt lat="43.71582" lon="5.79491">
        <ele>385</ele>
        <time>2016-05-28T08:28:20.000Z</time>
      </trkpt>
      <trkpt lat="43.71582" lon="5.79491">
        <ele>385</ele>
        <time>2016-05-28T08:28:22.000Z</time>
      </trkpt>
      <trkpt lat="43.71582" lon="5.79491">
        <ele>385</ele>
        <time>2016-05-28T08:28:24.000Z</time>
      </trkpt>
      <trkpt lat="43.71582" lon="5.79491">
        <ele>385</ele>
        <time>2016-05-28T08:28:26.000Z</time>
      </trkpt>
      <trkpt lat="43.71582" lon="5.79491">
        <ele>385</ele>
        <time>2016-05-28T08:28:28.000Z</time>
      </trkpt>
      <trkpt lat="43.71582" lon="5.79491">
        <ele>385</ele>
        <time>2016-05-28T08:28:30.000Z</time>
      </trkpt>
      <trkpt lat="43.71538" lon="5.7944">
        <ele>386</ele>
        <time>2016-05-28T08:28:34.000Z</time>
      </trkpt>
      <trkpt lat="43.71532" lon="5.79421">
        <ele>384</ele>
        <time>2016-05-28T08:28:40.000Z</time>
      </trkpt>
      <trkpt lat="43.71531" lon="5.79408">
        <ele>383</ele>
        <time>2016-05-28T08:28:42.000Z</time>
      </trkpt>
      <trkpt lat="43.71533" lon="5.79388">
        <ele>379</ele>
        <time>2016-05-28T08:28:46.000Z</time>
      </trkpt>
      <trkpt lat="43.71533" lon="5.79388">
        <ele>379</ele>
        <time>2016-05-28T08:28:48.000Z</time>
      </trkpt>
      <trkpt lat="43.71542" lon="5.79367">
        <ele>377</ele>
        <time>2016-05-28T08:28:50.000Z</time>
      </trkpt>
      <trkpt lat="43.71548" lon="5.79357">
        <ele>377</ele>
        <time>2016-05-28T08:28:52.000Z</time>
      </trkpt>
      <trkpt lat="43.71552" lon="5.79342">
        <ele>375</ele>
        <time>2016-05-28T08:28:54.000Z</time>
      </trkpt>
      <trkpt lat="43.71554" lon="5.79328">
        <ele>374</ele>
        <time>2016-05-28T08:28:56.000Z</time>
      </trkpt>
      <trkpt lat="43.71554" lon="5.79328">
        <ele>374</ele>
        <time>2016-05-28T08:28:58.000Z</time>
      </trkpt>
      <trkpt lat="43.7155" lon="5.79302">
        <ele>373</ele>
        <time>2016-05-28T08:29:00.000Z</time>
      </trkpt>
      <trkpt lat="43.7155" lon="5.79302">
        <ele>373</ele>
        <time>2016-05-28T08:29:02.000Z</time>
      </trkpt>
      <trkpt lat="43.7155" lon="5.79302">
        <ele>373</ele>
        <time>2016-05-28T08:29:04.000Z</time>
      </trkpt>
      <trkpt lat="43.7155" lon="5.79302">
        <ele>373</ele>
        <time>2016-05-28T08:29:06.000Z</time>
      </trkpt>
      <trkpt lat="43.7155" lon="5.79302">
        <ele>373</ele>
        <time>2016-05-28T08:29:08.000Z</time>
      </trkpt>
      <trkpt lat="43.7155" lon="5.79302">
        <ele>373</ele>
        <time>2016-05-28T08:29:10.000Z</time>
      </trkpt>
      <trkpt lat="43.7155" lon="5.79302">
        <ele>373</ele>
        <time>2016-05-28T08:29:12.000Z</time>
      </trkpt>
      <trkpt lat="43.7155" lon="5.79302">
        <ele>373</ele>
        <time>2016-05-28T08:29:14.000Z</time>
      </trkpt>
      <trkpt lat="43.7155" lon="5.79302">
        <ele>373</ele>
        <time>2016-05-28T08:29:16.000Z</time>
      </trkpt>
      <trkpt lat="43.71563" lon="5.7925">
        <ele>366</ele>
        <time>2016-05-28T08:29:22.000Z</time>
      </trkpt>
      <trkpt lat="43.71572" lon="5.7922">
        <ele>366</ele>
        <time>2016-05-28T08:29:24.000Z</time>
      </trkpt>
      <trkpt lat="43.71579" lon="5.79201">
        <ele>365</ele>
        <time>2016-05-28T08:29:26.000Z</time>
      </trkpt>
      <trkpt lat="43.71585" lon="5.79186">
        <ele>365</ele>
        <time>2016-05-28T08:29:28.000Z</time>
      </trkpt>
      <trkpt lat="43.7159" lon="5.79174">
        <ele>365</ele>
        <time>2016-05-28T08:29:30.000Z</time>
      </trkpt>
      <trkpt lat="43.716" lon="5.79153">
        <ele>366</ele>
        <time>2016-05-28T08:29:32.000Z</time>
      </trkpt>
      <trkpt lat="43.716" lon="5.79153">
        <ele>366</ele>
        <time>2016-05-28T08:29:34.000Z</time>
      </trkpt>
      <trkpt lat="43.716" lon="5.79153">
        <ele>366</ele>
        <time>2016-05-28T08:29:36.000Z</time>
      </trkpt>
      <trkpt lat="43.716" lon="5.79153">
        <ele>366</ele>
        <time>2016-05-28T08:29:38.000Z</time>
      </trkpt>
      <trkpt lat="43.716" lon="5.79153">
        <ele>366</ele>
        <time>2016-05-28T08:29:40.000Z</time>
      </trkpt>
      <trkpt lat="43.71614" lon="5.791">
        <ele>364</ele>
        <time>2016-05-28T08:29:44.000Z</time>
      </trkpt>
      <trkpt lat="43.71614" lon="5.791">
        <ele>364</ele>
        <time>2016-05-28T08:29:46.000Z</time>
      </trkpt>
      <trkpt lat="43.71614" lon="5.791">
        <ele>364</ele>
        <time>2016-05-28T08:29:48.000Z</time>
      </trkpt>
      <trkpt lat="43.71614" lon="5.791">
        <ele>364</ele>
        <time>2016-05-28T08:29:50.000Z</time>
      </trkpt>
      <trkpt lat="43.71614" lon="5.791">
        <ele>364</ele>
        <time>2016-05-28T08:29:56.000Z</time>
      </trkpt>
      <trkpt lat="43.71614" lon="5.791">
        <ele>364</ele>
        <time>2016-05-28T08:29:58.000Z</time>
      </trkpt>
      <trkpt lat="43.71614" lon="5.791">
        <ele>364</ele>
        <time>2016-05-28T08:30:00.000Z</time>
      </trkpt>
      <trkpt lat="43.71614" lon="5.79033">
        <ele>355</ele>
        <time>2016-05-28T08:30:04.000Z</time>
      </trkpt>
      <trkpt lat="43.71627" lon="5.79024">
        <ele>353</ele>
        <time>2016-05-28T08:30:08.000Z</time>
      </trkpt>
      <trkpt lat="43.71637" lon="5.79006">
        <ele>349</ele>
        <time>2016-05-28T08:30:12.000Z</time>
      </trkpt>
      <trkpt lat="43.71641" lon="5.7898">
        <ele>347</ele>
        <time>2016-05-28T08:30:16.000Z</time>
      </trkpt>
      <trkpt lat="43.71643" lon="5.78961">
        <ele>346</ele>
        <time>2016-05-28T08:30:20.000Z</time>
      </trkpt>
      <trkpt lat="43.71643" lon="5.78961">
        <ele>346</ele>
        <time>2016-05-28T08:30:22.000Z</time>
      </trkpt>
      <trkpt lat="43.71643" lon="5.78961">
        <ele>346</ele>
        <time>2016-05-28T08:30:24.000Z</time>
      </trkpt>
      <trkpt lat="43.71643" lon="5.78961">
        <ele>346</ele>
        <time>2016-05-28T08:30:26.000Z</time>
      </trkpt>
      <trkpt lat="43.71643" lon="5.78961">
        <ele>346</ele>
        <time>2016-05-28T08:30:28.000Z</time>
      </trkpt>
      <trkpt lat="43.71643" lon="5.78961">
        <ele>346</ele>
        <time>2016-05-28T08:30:30.000Z</time>
      </trkpt>
      <trkpt lat="43.71654" lon="5.78914">
        <ele>339</ele>
        <time>2016-05-28T08:30:36.000Z</time>
      </trkpt>
      <trkpt lat="43.71654" lon="5.78914">
        <ele>339</ele>
        <time>2016-05-28T08:30:38.000Z</time>
      </trkpt>
      <trkpt lat="43.71645" lon="5.78909">
        <ele>341</ele>
        <time>2016-05-28T08:30:40.000Z</time>
      </trkpt>
      <trkpt lat="43.71645" lon="5.78909">
        <ele>341</ele>
        <time>2016-05-28T08:30:42.000Z</time>
      </trkpt>
      <trkpt lat="43.71645" lon="5.78909">
        <ele>341</ele>
        <time>2016-05-28T08:30:44.000Z</time>
      </trkpt>
      <trkpt lat="43.71623" lon="5.78907">
        <ele>339</ele>
        <time>2016-05-28T08:30:48.000Z</time>
      </trkpt>
      <trkpt lat="43.71617" lon="5.78911">
        <ele>337</ele>
        <time>2016-05-28T08:30:52.000Z</time>
      </trkpt>
      <trkpt lat="43.71611" lon="5.78914">
        <ele>336</ele>
        <time>2016-05-28T08:30:54.000Z</time>
      </trkpt>
      <trkpt lat="43.71605" lon="5.78917">
        <ele>334</ele>
        <time>2016-05-28T08:30:56.000Z</time>
      </trkpt>
      <trkpt lat="43.71605" lon="5.78917">
        <ele>334</ele>
        <time>2016-05-28T08:30:58.000Z</time>
      </trkpt>
      <trkpt lat="43.71605" lon="5.78917">
        <ele>334</ele>
        <time>2016-05-28T08:31:00.000Z</time>
      </trkpt>
      <trkpt lat="43.71605" lon="5.78917">
        <ele>334</ele>
        <time>2016-05-28T08:31:02.000Z</time>
      </trkpt>
      <trkpt lat="43.71587" lon="5.78924">
        <ele>328</ele>
        <time>2016-05-28T08:31:06.000Z</time>
      </trkpt>
      <trkpt lat="43.71575" lon="5.78928">
        <ele>326</ele>
        <time>2016-05-28T08:31:08.000Z</time>
      </trkpt>
      <trkpt lat="43.71564" lon="5.78932">
        <ele>326</ele>
        <time>2016-05-28T08:31:10.000Z</time>
      </trkpt>
      <trkpt lat="43.71557" lon="5.78938">
        <ele>326</ele>
        <time>2016-05-28T08:31:12.000Z</time>
      </trkpt>
      <trkpt lat="43.71549" lon="5.78943">
        <ele>325</ele>
        <time>2016-05-28T08:31:14.000Z</time>
      </trkpt>
      <trkpt lat="43.71532" lon="5.78954">
        <ele>324</ele>
        <time>2016-05-28T08:31:16.000Z</time>
      </trkpt>
      <trkpt lat="43.71532" lon="5.78954">
        <ele>324</ele>
        <time>2016-05-28T08:31:18.000Z</time>
      </trkpt>
      <trkpt lat="43.71532" lon="5.78954">
        <ele>324</ele>
        <time>2016-05-28T08:31:20.000Z</time>
      </trkpt>
      <trkpt lat="43.71532" lon="5.78954">
        <ele>324</ele>
        <time>2016-05-28T08:31:22.000Z</time>
      </trkpt>
      <trkpt lat="43.71532" lon="5.78954">
        <ele>324</ele>
        <time>2016-05-28T08:31:24.000Z</time>
      </trkpt>
      <trkpt lat="43.71532" lon="5.78954">
        <ele>324</ele>
        <time>2016-05-28T08:31:26.000Z</time>
      </trkpt>
      <trkpt lat="43.71532" lon="5.78954">
        <ele>324</ele>
        <time>2016-05-28T08:31:28.000Z</time>
      </trkpt>
      <trkpt lat="43.71532" lon="5.78954">
        <ele>324</ele>
        <time>2016-05-28T08:31:30.000Z</time>
      </trkpt>
      <trkpt lat="43.71505" lon="5.79012">
        <ele>329</ele>
        <time>2016-05-28T08:31:36.000Z</time>
      </trkpt>
      <trkpt lat="43.71499" lon="5.79024">
        <ele>329</ele>
        <time>2016-05-28T08:31:40.000Z</time>
      </trkpt>
      <trkpt lat="43.71494" lon="5.79041">
        <ele>329</ele>
        <time>2016-05-28T08:31:44.000Z</time>
      </trkpt>
      <trkpt lat="43.71489" lon="5.79058">
        <ele>329</ele>
        <time>2016-05-28T08:31:48.000Z</time>
      </trkpt>
      <trkpt lat="43.71483" lon="5.79077">
        <ele>329</ele>
        <time>2016-05-28T08:31:52.000Z</time>
      </trkpt>
      <trkpt lat="43.71478" lon="5.79096">
        <ele>330</ele>
        <time>2016-05-28T08:31:56.000Z</time>
      </trkpt>
      <trkpt lat="43.71475" lon="5.79117">
        <ele>328</ele>
        <time>2016-05-28T08:32:00.000Z</time>
      </trkpt>
      <trkpt lat="43.71471" lon="5.79138">
        <ele>330</ele>
        <time>2016-05-28T08:32:04.000Z</time>
      </trkpt>
      <trkpt lat="43.71464" lon="5.79156">
        <ele>330</ele>
        <time>2016-05-28T08:32:08.000Z</time>
      </trkpt>
      <trkpt lat="43.71457" lon="5.79173">
        <ele>330</ele>
        <time>2016-05-28T08:32:12.000Z</time>
      </trkpt>
      <trkpt lat="43.71451" lon="5.79191">
        <ele>330</ele>
        <time>2016-05-28T08:32:16.000Z</time>
      </trkpt>
      <trkpt lat="43.71447" lon="5.79209">
        <ele>329</ele>
        <time>2016-05-28T08:32:20.000Z</time>
      </trkpt>
      <trkpt lat="43.71447" lon="5.79209">
        <ele>329</ele>
        <time>2016-05-28T08:32:22.000Z</time>
      </trkpt>
      <trkpt lat="43.71447" lon="5.79209">
        <ele>329</ele>
        <time>2016-05-28T08:32:24.000Z</time>
      </trkpt>
      <trkpt lat="43.71447" lon="5.79209">
        <ele>329</ele>
        <time>2016-05-28T08:32:26.000Z</time>
      </trkpt>
      <trkpt lat="43.71447" lon="5.79209">
        <ele>329</ele>
        <time>2016-05-28T08:32:28.000Z</time>
      </trkpt>
      <trkpt lat="43.71447" lon="5.79209">
        <ele>329</ele>
        <time>2016-05-28T08:32:30.000Z</time>
      </trkpt>
      <trkpt lat="43.71447" lon="5.79209">
        <ele>329</ele>
        <time>2016-05-28T08:32:32.000Z</time>
      </trkpt>
      <trkpt lat="43.71447" lon="5.79209">
        <ele>329</ele>
        <time>2016-05-28T08:32:34.000Z</time>
      </trkpt>
      <trkpt lat="43.71447" lon="5.79209">
        <ele>329</ele>
        <time>2016-05-28T08:32:36.000Z</time>
      </trkpt>
      <trkpt lat="43.71447" lon="5.79209">
        <ele>329</ele>
        <time>2016-05-28T08:32:38.000Z</time>
      </trkpt>
      <trkpt lat="43.71447" lon="5.79209">
        <ele>329</ele>
        <time>2016-05-28T08:32:40.000Z</time>
      </trkpt>
      <trkpt lat="43.71447" lon="5.79209">
        <ele>329</ele>
        <time>2016-05-28T08:32:42.000Z</time>
      </trkpt>
      <trkpt lat="43.71447" lon="5.79209">
        <ele>329</ele>
        <time>2016-05-28T08:32:44.000Z</time>
      </trkpt>
      <trkpt lat="43.71447" lon="5.79209">
        <ele>329</ele>
        <time>2016-05-28T08:32:46.000Z</time>
      </trkpt>
      <trkpt lat="43.71447" lon="5.79209">
        <ele>329</ele>
        <time>2016-05-28T08:32:48.000Z</time>
      </trkpt>
      <trkpt lat="43.71447" lon="5.79209">
        <ele>329</ele>
        <time>2016-05-28T08:32:50.000Z</time>
      </trkpt>
      <trkpt lat="43.71447" lon="5.79209">
        <ele>329</ele>
        <time>2016-05-28T08:32:52.000Z</time>
      </trkpt>
      <trkpt lat="43.71447" lon="5.79209">
        <ele>329</ele>
        <time>2016-05-28T08:32:54.000Z</time>
      </trkpt>
      <trkpt lat="43.71423" lon="5.79291">
        <ele>330</ele>
        <time>2016-05-28T08:33:00.000Z</time>
      </trkpt>
      <trkpt lat="43.71411" lon="5.79336">
        <ele>330</ele>
        <time>2016-05-28T08:33:02.000Z</time>
      </trkpt>
      <trkpt lat="43.71411" lon="5.79336">
        <ele>330</ele>
        <time>2016-05-28T08:33:04.000Z</time>
      </trkpt>
      <trkpt lat="43.71411" lon="5.79336">
        <ele>330</ele>
        <time>2016-05-28T08:33:06.000Z</time>
      </trkpt>
      <trkpt lat="43.71411" lon="5.79336">
        <ele>330</ele>
        <time>2016-05-28T08:33:08.000Z</time>
      </trkpt>
      <trkpt lat="43.71411" lon="5.79336">
        <ele>330</ele>
        <time>2016-05-28T08:33:10.000Z</time>
      </trkpt>
      <trkpt lat="43.71411" lon="5.79336">
        <ele>330</ele>
        <time>2016-05-28T08:33:12.000Z</time>
      </trkpt>
      <trkpt lat="43.71411" lon="5.79336">
        <ele>330</ele>
        <time>2016-05-28T08:33:14.000Z</time>
      </trkpt>
      <trkpt lat="43.71411" lon="5.79336">
        <ele>330</ele>
        <time>2016-05-28T08:33:16.000Z</time>
      </trkpt>
      <trkpt lat="43.71411" lon="5.79336">
        <ele>330</ele>
        <time>2016-05-28T08:33:18.000Z</time>
      </trkpt>
      <trkpt lat="43.71411" lon="5.79336">
        <ele>330</ele>
        <time>2016-05-28T08:33:20.000Z</time>
      </trkpt>
      <trkpt lat="43.71411" lon="5.79336">
        <ele>330</ele>
        <time>2016-05-28T08:33:22.000Z</time>
      </trkpt>
      <trkpt lat="43.71411" lon="5.79336">
        <ele>330</ele>
        <time>2016-05-28T08:33:24.000Z</time>
      </trkpt>
      <trkpt lat="43.71398" lon="5.79408">
        <ele>336</ele>
        <time>2016-05-28T08:33:26.000Z</time>
      </trkpt>
      <trkpt lat="43.71391" lon="5.79449">
        <ele>337</ele>
        <time>2016-05-28T08:33:28.000Z</time>
      </trkpt>
      <trkpt lat="43.71387" lon="5.79475">
        <ele>336</ele>
        <time>2016-05-28T08:33:30.000Z</time>
      </trkpt>
      <trkpt lat="43.71384" lon="5.79493">
        <ele>333</ele>
        <time>2016-05-28T08:33:32.000Z</time>
      </trkpt>
      <trkpt lat="43.71383" lon="5.79507">
        <ele>335</ele>
        <time>2016-05-28T08:33:34.000Z</time>
      </trkpt>
      <trkpt lat="43.71381" lon="5.7953">
        <ele>335</ele>
        <time>2016-05-28T08:33:36.000Z</time>
      </trkpt>
      <trkpt lat="43.71381" lon="5.7953">
        <ele>335</ele>
        <time>2016-05-28T08:33:38.000Z</time>
      </trkpt>
      <trkpt lat="43.71381" lon="5.7953">
        <ele>335</ele>
        <time>2016-05-28T08:33:40.000Z</time>
      </trkpt>
      <trkpt lat="43.71381" lon="5.7953">
        <ele>335</ele>
        <time>2016-05-28T08:33:42.000Z</time>
      </trkpt>
      <trkpt lat="43.71381" lon="5.7953">
        <ele>335</ele>
        <time>2016-05-28T08:33:44.000Z</time>
      </trkpt>
      <trkpt lat="43.71389" lon="5.79585">
        <ele>335</ele>
        <time>2016-05-28T08:33:48.000Z</time>
      </trkpt>
      <trkpt lat="43.71387" lon="5.79605">
        <ele>335</ele>
        <time>2016-05-28T08:33:52.000Z</time>
      </trkpt>
      <trkpt lat="43.71382" lon="5.79624">
        <ele>336</ele>
        <time>2016-05-28T08:33:56.000Z</time>
      </trkpt>
      <trkpt lat="43.71378" lon="5.79642">
        <ele>335</ele>
        <time>2016-05-28T08:34:00.000Z</time>
      </trkpt>
      <trkpt lat="43.71376" lon="5.79659">
        <ele>337</ele>
        <time>2016-05-28T08:34:04.000Z</time>
      </trkpt>
      <trkpt lat="43.71376" lon="5.79659">
        <ele>337</ele>
        <time>2016-05-28T08:34:06.000Z</time>
      </trkpt>
      <trkpt lat="43.71376" lon="5.79659">
        <ele>337</ele>
        <time>2016-05-28T08:34:08.000Z</time>
      </trkpt>
      <trkpt lat="43.71376" lon="5.79659">
        <ele>337</ele>
        <time>2016-05-28T08:34:10.000Z</time>
      </trkpt>
      <trkpt lat="43.71371" lon="5.79714">
        <ele>337</ele>
        <time>2016-05-28T08:34:16.000Z</time>
      </trkpt>
      <trkpt lat="43.71371" lon="5.79714">
        <ele>337</ele>
        <time>2016-05-28T08:34:18.000Z</time>
      </trkpt>
      <trkpt lat="43.71366" lon="5.7973">
        <ele>338</ele>
        <time>2016-05-28T08:34:20.000Z</time>
      </trkpt>
      <trkpt lat="43.71366" lon="5.7973">
        <ele>338</ele>
        <time>2016-05-28T08:34:22.000Z</time>
      </trkpt>
      <trkpt lat="43.71366" lon="5.7973">
        <ele>338</ele>
        <time>2016-05-28T08:34:24.000Z</time>
      </trkpt>
      <trkpt lat="43.71358" lon="5.79766">
        <ele>338</ele>
        <time>2016-05-28T08:34:28.000Z</time>
      </trkpt>
      <trkpt lat="43.71355" lon="5.79785">
        <ele>336</ele>
        <time>2016-05-28T08:34:32.000Z</time>
      </trkpt>
      <trkpt lat="43.71358" lon="5.79804">
        <ele>336</ele>
        <time>2016-05-28T08:34:36.000Z</time>
      </trkpt>
      <trkpt lat="43.71363" lon="5.79823">
        <ele>335</ele>
        <time>2016-05-28T08:34:40.000Z</time>
      </trkpt>
      <trkpt lat="43.71363" lon="5.79842">
        <ele>336</ele>
        <time>2016-05-28T08:34:44.000Z</time>
      </trkpt>
      <trkpt lat="43.71359" lon="5.7986">
        <ele>337</ele>
        <time>2016-05-28T08:34:48.000Z</time>
      </trkpt>
      <trkpt lat="43.71352" lon="5.79876">
        <ele>335</ele>
        <time>2016-05-28T08:34:52.000Z</time>
      </trkpt>
      <trkpt lat="43.71352" lon="5.79876">
        <ele>335</ele>
        <time>2016-05-28T08:34:54.000Z</time>
      </trkpt>
      <trkpt lat="43.71352" lon="5.79876">
        <ele>335</ele>
        <time>2016-05-28T08:34:56.000Z</time>
      </trkpt>
      <trkpt lat="43.71352" lon="5.79876">
        <ele>335</ele>
        <time>2016-05-28T08:34:58.000Z</time>
      </trkpt>
      <trkpt lat="43.71352" lon="5.79876">
        <ele>335</ele>
        <time>2016-05-28T08:35:00.000Z</time>
      </trkpt>
      <trkpt lat="43.71352" lon="5.79876">
        <ele>335</ele>
        <time>2016-05-28T08:35:02.000Z</time>
      </trkpt>
      <trkpt lat="43.71352" lon="5.79876">
        <ele>335</ele>
        <time>2016-05-28T08:35:04.000Z</time>
      </trkpt>
      <trkpt lat="43.71352" lon="5.79876">
        <ele>335</ele>
        <time>2016-05-28T08:35:06.000Z</time>
      </trkpt>
      <trkpt lat="43.71352" lon="5.79876">
        <ele>335</ele>
        <time>2016-05-28T08:35:08.000Z</time>
      </trkpt>
      <trkpt lat="43.71352" lon="5.79876">
        <ele>335</ele>
        <time>2016-05-28T08:35:10.000Z</time>
      </trkpt>
      <trkpt lat="43.71352" lon="5.79876">
        <ele>335</ele>
        <time>2016-05-28T08:35:12.000Z</time>
      </trkpt>
      <trkpt lat="43.71337" lon="5.79921">
        <ele>334</ele>
        <time>2016-05-28T08:35:14.000Z</time>
      </trkpt>
      <trkpt lat="43.71328" lon="5.79948">
        <ele>334</ele>
        <time>2016-05-28T08:35:16.000Z</time>
      </trkpt>
      <trkpt lat="43.71321" lon="5.79965">
        <ele>334</ele>
        <time>2016-05-28T08:35:18.000Z</time>
      </trkpt>
      <trkpt lat="43.71315" lon="5.79977">
        <ele>334</ele>
        <time>2016-05-28T08:35:20.000Z</time>
      </trkpt>
      <trkpt lat="43.71311" lon="5.79987">
        <ele>334</ele>
        <time>2016-05-28T08:35:22.000Z</time>
      </trkpt>
      <trkpt lat="43.71302" lon="5.80005">
        <ele>334</ele>
        <time>2016-05-28T08:35:24.000Z</time>
      </trkpt>
      <trkpt lat="43.71295" lon="5.80023">
        <ele>334</ele>
        <time>2016-05-28T08:35:28.000Z</time>
      </trkpt>
      <trkpt lat="43.71289" lon="5.80042">
        <ele>334</ele>
        <time>2016-05-28T08:35:32.000Z</time>
      </trkpt>
      <trkpt lat="43.7128" lon="5.80058">
        <ele>335</ele>
        <time>2016-05-28T08:35:36.000Z</time>
      </trkpt>
      <trkpt lat="43.71272" lon="5.80074">
        <ele>335</ele>
        <time>2016-05-28T08:35:40.000Z</time>
      </trkpt>
      <trkpt lat="43.71264" lon="5.80092">
        <ele>333</ele>
        <time>2016-05-28T08:35:44.000Z</time>
      </trkpt>
      <trkpt lat="43.71264" lon="5.80092">
        <ele>333</ele>
        <time>2016-05-28T08:35:46.000Z</time>
      </trkpt>
      <trkpt lat="43.71264" lon="5.80092">
        <ele>333</ele>
        <time>2016-05-28T08:35:48.000Z</time>
      </trkpt>
      <trkpt lat="43.71264" lon="5.80092">
        <ele>333</ele>
        <time>2016-05-28T08:35:50.000Z</time>
      </trkpt>
      <trkpt lat="43.71264" lon="5.80092">
        <ele>333</ele>
        <time>2016-05-28T08:35:52.000Z</time>
      </trkpt>
      <trkpt lat="43.71264" lon="5.80092">
        <ele>333</ele>
        <time>2016-05-28T08:35:54.000Z</time>
      </trkpt>
      <trkpt lat="43.71264" lon="5.80092">
        <ele>333</ele>
        <time>2016-05-28T08:35:56.000Z</time>
      </trkpt>
      <trkpt lat="43.71264" lon="5.80092">
        <ele>333</ele>
        <time>2016-05-28T08:35:58.000Z</time>
      </trkpt>
      <trkpt lat="43.71264" lon="5.80092">
        <ele>333</ele>
        <time>2016-05-28T08:36:00.000Z</time>
      </trkpt>
      <trkpt lat="43.71264" lon="5.80092">
        <ele>333</ele>
        <time>2016-05-28T08:36:02.000Z</time>
      </trkpt>
      <trkpt lat="43.71264" lon="5.80092">
        <ele>333</ele>
        <time>2016-05-28T08:36:04.000Z</time>
      </trkpt>
      <trkpt lat="43.71264" lon="5.80092">
        <ele>333</ele>
        <time>2016-05-28T08:36:06.000Z</time>
      </trkpt>
      <trkpt lat="43.71218" lon="5.80179">
        <ele>339</ele>
        <time>2016-05-28T08:36:10.000Z</time>
      </trkpt>
      <trkpt lat="43.71214" lon="5.80193">
        <ele>340</ele>
        <time>2016-05-28T08:36:14.000Z</time>
      </trkpt>
      <trkpt lat="43.71214" lon="5.80193">
        <ele>340</ele>
        <time>2016-05-28T08:36:16.000Z</time>
      </trkpt>
      <trkpt lat="43.71209" lon="5.80218">
        <ele>341</ele>
        <time>2016-05-28T08:36:20.000Z</time>
      </trkpt>
      <trkpt lat="43.71207" lon="5.80235">
        <ele>341</ele>
        <time>2016-05-28T08:36:24.000Z</time>
      </trkpt>
      <trkpt lat="43.71205" lon="5.80252">
        <ele>341</ele>
        <time>2016-05-28T08:36:28.000Z</time>
      </trkpt>
      <trkpt lat="43.71202" lon="5.8027">
        <ele>339</ele>
        <time>2016-05-28T08:36:32.000Z</time>
      </trkpt>
      <trkpt lat="43.71194" lon="5.80286">
        <ele>339</ele>
        <time>2016-05-28T08:36:36.000Z</time>
      </trkpt>
      <trkpt lat="43.71185" lon="5.80298">
        <ele>339</ele>
        <time>2016-05-28T08:36:40.000Z</time>
      </trkpt>
      <trkpt lat="43.71185" lon="5.80298">
        <ele>339</ele>
        <time>2016-05-28T08:36:42.000Z</time>
      </trkpt>
      <trkpt lat="43.71185" lon="5.80298">
        <ele>339</ele>
        <time>2016-05-28T08:36:44.000Z</time>
      </trkpt>
      <trkpt lat="43.71185" lon="5.80298">
        <ele>339</ele>
        <time>2016-05-28T08:36:46.000Z</time>
      </trkpt>
      <trkpt lat="43.71161" lon="5.80277">
        <ele>335</ele>
        <time>2016-05-28T08:36:50.000Z</time>
      </trkpt>
      <trkpt lat="43.71154" lon="5.80268">
        <ele>335</ele>
        <time>2016-05-28T08:36:52.000Z</time>
      </trkpt>
      <trkpt lat="43.71146" lon="5.8026">
        <ele>334</ele>
        <time>2016-05-28T08:36:56.000Z</time>
      </trkpt>
      <trkpt lat="43.7114" lon="5.80252">
        <ele>333</ele>
        <time>2016-05-28T08:36:58.000Z</time>
      </trkpt>
      <trkpt lat="43.71133" lon="5.80245">
        <ele>332</ele>
        <time>2016-05-28T08:37:00.000Z</time>
      </trkpt>
      <trkpt lat="43.71127" lon="5.80238">
        <ele>332</ele>
        <time>2016-05-28T08:37:02.000Z</time>
      </trkpt>
      <trkpt lat="43.71127" lon="5.80238">
        <ele>332</ele>
        <time>2016-05-28T08:37:04.000Z</time>
      </trkpt>
      <trkpt lat="43.71127" lon="5.80238">
        <ele>332</ele>
        <time>2016-05-28T08:37:06.000Z</time>
      </trkpt>
      <trkpt lat="43.71127" lon="5.80238">
        <ele>332</ele>
        <time>2016-05-28T08:37:08.000Z</time>
      </trkpt>
      <trkpt lat="43.71127" lon="5.80238">
        <ele>332</ele>
        <time>2016-05-28T08:37:10.000Z</time>
      </trkpt>
      <trkpt lat="43.71127" lon="5.80238">
        <ele>332</ele>
        <time>2016-05-28T08:37:12.000Z</time>
      </trkpt>
      <trkpt lat="43.71127" lon="5.80238">
        <ele>332</ele>
        <time>2016-05-28T08:37:20.000Z</time>
      </trkpt>
      <trkpt lat="43.71127" lon="5.80238">
        <ele>332</ele>
        <time>2016-05-28T08:37:22.000Z</time>
      </trkpt>
      <trkpt lat="43.71127" lon="5.80238">
        <ele>332</ele>
        <time>2016-05-28T08:37:24.000Z</time>
      </trkpt>
      <trkpt lat="43.71127" lon="5.80238">
        <ele>332</ele>
        <time>2016-05-28T08:37:26.000Z</time>
      </trkpt>
      <trkpt lat="43.71127" lon="5.80238">
        <ele>332</ele>
        <time>2016-05-28T08:37:28.000Z</time>
      </trkpt>
      <trkpt lat="43.71127" lon="5.80238">
        <ele>332</ele>
        <time>2016-05-28T08:37:30.000Z</time>
      </trkpt>
      <trkpt lat="43.71127" lon="5.80238">
        <ele>332</ele>
        <time>2016-05-28T08:37:32.000Z</time>
      </trkpt>
      <trkpt lat="43.71127" lon="5.80238">
        <ele>332</ele>
        <time>2016-05-28T08:37:34.000Z</time>
      </trkpt>
      <trkpt lat="43.71127" lon="5.80238">
        <ele>332</ele>
        <time>2016-05-28T08:37:36.000Z</time>
      </trkpt>
      <trkpt lat="43.71127" lon="5.80238">
        <ele>332</ele>
        <time>2016-05-28T08:37:38.000Z</time>
      </trkpt>
      <trkpt lat="43.71127" lon="5.80238">
        <ele>332</ele>
        <time>2016-05-28T08:37:40.000Z</time>
      </trkpt>
      <trkpt lat="43.71127" lon="5.80238">
        <ele>332</ele>
        <time>2016-05-28T08:37:42.000Z</time>
      </trkpt>
      <trkpt lat="43.71127" lon="5.80238">
        <ele>332</ele>
        <time>2016-05-28T08:37:44.000Z</time>
      </trkpt>
      <trkpt lat="43.71127" lon="5.80238">
        <ele>332</ele>
        <time>2016-05-28T08:37:46.000Z</time>
      </trkpt>
      <trkpt lat="43.71072" lon="5.80207">
        <ele>337</ele>
        <time>2016-05-28T08:37:50.000Z</time>
      </trkpt>
      <trkpt lat="43.71041" lon="5.80195">
        <ele>338</ele>
        <time>2016-05-28T08:37:52.000Z</time>
      </trkpt>
      <trkpt lat="43.71024" lon="5.80191">
        <ele>339</ele>
        <time>2016-05-28T08:37:54.000Z</time>
      </trkpt>
      <trkpt lat="43.71013" lon="5.8019">
        <ele>339</ele>
        <time>2016-05-28T08:37:56.000Z</time>
      </trkpt>
      <trkpt lat="43.71013" lon="5.8019">
        <ele>339</ele>
        <time>2016-05-28T08:37:58.000Z</time>
      </trkpt>
      <trkpt lat="43.71013" lon="5.8019">
        <ele>339</ele>
        <time>2016-05-28T08:38:00.000Z</time>
      </trkpt>
      <trkpt lat="43.71013" lon="5.8019">
        <ele>339</ele>
        <time>2016-05-28T08:38:02.000Z</time>
      </trkpt>
      <trkpt lat="43.71013" lon="5.8019">
        <ele>339</ele>
        <time>2016-05-28T08:38:04.000Z</time>
      </trkpt>
      <trkpt lat="43.71013" lon="5.8019">
        <ele>339</ele>
        <time>2016-05-28T08:38:06.000Z</time>
      </trkpt>
      <trkpt lat="43.70994" lon="5.80203">
        <ele>341</ele>
        <time>2016-05-28T08:38:12.000Z</time>
      </trkpt>
      <trkpt lat="43.70982" lon="5.80211">
        <ele>342</ele>
        <time>2016-05-28T08:38:14.000Z</time>
      </trkpt>
      <trkpt lat="43.70974" lon="5.80216">
        <ele>342</ele>
        <time>2016-05-28T08:38:16.000Z</time>
      </trkpt>
      <trkpt lat="43.70968" lon="5.80221">
        <ele>342</ele>
        <time>2016-05-28T08:38:18.000Z</time>
      </trkpt>
      <trkpt lat="43.70964" lon="5.80225">
        <ele>342</ele>
        <time>2016-05-28T08:38:20.000Z</time>
      </trkpt>
      <trkpt lat="43.70955" lon="5.80232">
        <ele>342</ele>
        <time>2016-05-28T08:38:22.000Z</time>
      </trkpt>
      <trkpt lat="43.70955" lon="5.80232">
        <ele>342</ele>
        <time>2016-05-28T08:38:26.000Z</time>
      </trkpt>
      <trkpt lat="43.70955" lon="5.80232">
        <ele>342</ele>
        <time>2016-05-28T08:38:28.000Z</time>
      </trkpt>
      <trkpt lat="43.70955" lon="5.80232">
        <ele>342</ele>
        <time>2016-05-28T08:38:30.000Z</time>
      </trkpt>
      <trkpt lat="43.70955" lon="5.80232">
        <ele>342</ele>
        <time>2016-05-28T08:38:32.000Z</time>
      </trkpt>
      <trkpt lat="43.70955" lon="5.80232">
        <ele>342</ele>
        <time>2016-05-28T08:38:34.000Z</time>
      </trkpt>
      <trkpt lat="43.70955" lon="5.80232">
        <ele>342</ele>
        <time>2016-05-28T08:38:36.000Z</time>
      </trkpt>
      <trkpt lat="43.70955" lon="5.80232">
        <ele>342</ele>
        <time>2016-05-28T08:38:38.000Z</time>
      </trkpt>
      <trkpt lat="43.70955" lon="5.80232">
        <ele>342</ele>
        <time>2016-05-28T08:38:40.000Z</time>
      </trkpt>
      <trkpt lat="43.70955" lon="5.80232">
        <ele>342</ele>
        <time>2016-05-28T08:38:42.000Z</time>
      </trkpt>
      <trkpt lat="43.70955" lon="5.80232">
        <ele>342</ele>
        <time>2016-05-28T08:38:44.000Z</time>
      </trkpt>
      <trkpt lat="43.70955" lon="5.80232">
        <ele>342</ele>
        <time>2016-05-28T08:38:46.000Z</time>
      </trkpt>
      <trkpt lat="43.70955" lon="5.80232">
        <ele>342</ele>
        <time>2016-05-28T08:38:48.000Z</time>
      </trkpt>
      <trkpt lat="43.70955" lon="5.80232">
        <ele>342</ele>
        <time>2016-05-28T08:38:50.000Z</time>
      </trkpt>
      <trkpt lat="43.70955" lon="5.80232">
        <ele>342</ele>
        <time>2016-05-28T08:38:52.000Z</time>
      </trkpt>
      <trkpt lat="43.70955" lon="5.80232">
        <ele>342</ele>
        <time>2016-05-28T08:38:54.000Z</time>
      </trkpt>
      <trkpt lat="43.70955" lon="5.80232">
        <ele>342</ele>
        <time>2016-05-28T08:38:56.000Z</time>
      </trkpt>
      <trkpt lat="43.70955" lon="5.80232">
        <ele>342</ele>
        <time>2016-05-28T08:38:58.000Z</time>
      </trkpt>
      <trkpt lat="43.70955" lon="5.80232">
        <ele>342</ele>
        <time>2016-05-28T08:39:00.000Z</time>
      </trkpt>
      <trkpt lat="43.70893" lon="5.80254">
        <ele>350</ele>
        <time>2016-05-28T08:39:06.000Z</time>
      </trkpt>
      <trkpt lat="43.70893" lon="5.80254">
        <ele>350</ele>
        <time>2016-05-28T08:39:10.000Z</time>
      </trkpt>
      <trkpt lat="43.70893" lon="5.80254">
        <ele>350</ele>
        <time>2016-05-28T08:39:12.000Z</time>
      </trkpt>
      <trkpt lat="43.70893" lon="5.80254">
        <ele>350</ele>
        <time>2016-05-28T08:39:14.000Z</time>
      </trkpt>
      <trkpt lat="43.7088" lon="5.80251">
        <ele>354</ele>
        <time>2016-05-28T08:39:16.000Z</time>
      </trkpt>
      <trkpt lat="43.7087" lon="5.80246">
        <ele>356</ele>
        <time>2016-05-28T08:39:24.000Z</time>
      </trkpt>
      <trkpt lat="43.7087" lon="5.80246">
        <ele>356</ele>
        <time>2016-05-28T08:39:28.000Z</time>
      </trkpt>
      <trkpt lat="43.7087" lon="5.80246">
        <ele>356</ele>
        <time>2016-05-28T08:39:30.000Z</time>
      </trkpt>
      <trkpt lat="43.7087" lon="5.80246">
        <ele>356</ele>
        <time>2016-05-28T08:39:32.000Z</time>
      </trkpt>
      <trkpt lat="43.7087" lon="5.80246">
        <ele>356</ele>
        <time>2016-05-28T08:39:34.000Z</time>
      </trkpt>
      <trkpt lat="43.7087" lon="5.80246">
        <ele>356</ele>
        <time>2016-05-28T08:39:36.000Z</time>
      </trkpt>
      <trkpt lat="43.7087" lon="5.80246">
        <ele>356</ele>
        <time>2016-05-28T08:39:38.000Z</time>
      </trkpt>
      <trkpt lat="43.7087" lon="5.80246">
        <ele>356</ele>
        <time>2016-05-28T08:39:40.000Z</time>
      </trkpt>
      <trkpt lat="43.7087" lon="5.80246">
        <ele>356</ele>
        <time>2016-05-28T08:39:42.000Z</time>
      </trkpt>
      <trkpt lat="43.7087" lon="5.80246">
        <ele>356</ele>
        <time>2016-05-28T08:39:44.000Z</time>
      </trkpt>
      <trkpt lat="43.7087" lon="5.80246">
        <ele>356</ele>
        <time>2016-05-28T08:39:46.000Z</time>
      </trkpt>
      <trkpt lat="43.7087" lon="5.80246">
        <ele>356</ele>
        <time>2016-05-28T08:39:48.000Z</time>
      </trkpt>
      <trkpt lat="43.7087" lon="5.80246">
        <ele>356</ele>
        <time>2016-05-28T08:39:50.000Z</time>
      </trkpt>
      <trkpt lat="43.7087" lon="5.80246">
        <ele>356</ele>
        <time>2016-05-28T08:39:52.000Z</time>
      </trkpt>
      <trkpt lat="43.7087" lon="5.80246">
        <ele>356</ele>
        <time>2016-05-28T08:39:54.000Z</time>
      </trkpt>
      <trkpt lat="43.7087" lon="5.80246">
        <ele>356</ele>
        <time>2016-05-28T08:39:56.000Z</time>
      </trkpt>
      <trkpt lat="43.7087" lon="5.80246">
        <ele>356</ele>
        <time>2016-05-28T08:39:58.000Z</time>
      </trkpt>
      <trkpt lat="43.7087" lon="5.80246">
        <ele>356</ele>
        <time>2016-05-28T08:40:00.000Z</time>
      </trkpt>
      <trkpt lat="43.7087" lon="5.80246">
        <ele>356</ele>
        <time>2016-05-28T08:40:02.000Z</time>
      </trkpt>
      <trkpt lat="43.7087" lon="5.80246">
        <ele>356</ele>
        <time>2016-05-28T08:40:04.000Z</time>
      </trkpt>
      <trkpt lat="43.7087" lon="5.80246">
        <ele>356</ele>
        <time>2016-05-28T08:40:06.000Z</time>
      </trkpt>
      <trkpt lat="43.70839" lon="5.80246">
        <ele>363</ele>
        <time>2016-05-28T08:40:18.000Z</time>
      </trkpt>
      <trkpt lat="43.70822" lon="5.80246">
        <ele>364</ele>
        <time>2016-05-28T08:40:20.000Z</time>
      </trkpt>
      <trkpt lat="43.70813" lon="5.80246">
        <ele>364</ele>
        <time>2016-05-28T08:40:22.000Z</time>
      </trkpt>
      <trkpt lat="43.70807" lon="5.80246">
        <ele>364</ele>
        <time>2016-05-28T08:40:24.000Z</time>
      </trkpt>
      <trkpt lat="43.70801" lon="5.80246">
        <ele>364</ele>
        <time>2016-05-28T08:40:28.000Z</time>
      </trkpt>
      <trkpt lat="43.70796" lon="5.80247">
        <ele>364</ele>
        <time>2016-05-28T08:40:32.000Z</time>
      </trkpt>
      <trkpt lat="43.70791" lon="5.80247">
        <ele>366</ele>
        <time>2016-05-28T08:40:36.000Z</time>
      </trkpt>
      <trkpt lat="43.70791" lon="5.80247">
        <ele>366</ele>
        <time>2016-05-28T08:40:38.000Z</time>
      </trkpt>
      <trkpt lat="43.70791" lon="5.80247">
        <ele>366</ele>
        <time>2016-05-28T08:40:40.000Z</time>
      </trkpt>
      <trkpt lat="43.70791" lon="5.80247">
        <ele>366</ele>
        <time>2016-05-28T08:40:44.000Z</time>
      </trkpt>
      <trkpt lat="43.70779" lon="5.80241">
        <ele>368</ele>
        <time>2016-05-28T08:40:58.000Z</time>
      </trkpt>
      <trkpt lat="43.70772" lon="5.80238">
        <ele>368</ele>
        <time>2016-05-28T08:41:00.000Z</time>
      </trkpt>
      <trkpt lat="43.70767" lon="5.80236">
        <ele>368</ele>
        <time>2016-05-28T08:41:02.000Z</time>
      </trkpt>
      <trkpt lat="43.70761" lon="5.80235">
        <ele>368</ele>
        <time>2016-05-28T08:41:08.000Z</time>
      </trkpt>
      <trkpt lat="43.70757" lon="5.80234">
        <ele>369</ele>
        <time>2016-05-28T08:41:12.000Z</time>
      </trkpt>
      <trkpt lat="43.70752" lon="5.80233">
        <ele>371</ele>
        <time>2016-05-28T08:41:16.000Z</time>
      </trkpt>
      <trkpt lat="43.70752" lon="5.80233">
        <ele>371</ele>
        <time>2016-05-28T08:41:20.000Z</time>
      </trkpt>
      <trkpt lat="43.70752" lon="5.80233">
        <ele>371</ele>
        <time>2016-05-28T08:41:22.000Z</time>
      </trkpt>
      <trkpt lat="43.70752" lon="5.80233">
        <ele>371</ele>
        <time>2016-05-28T08:41:24.000Z</time>
      </trkpt>
      <trkpt lat="43.70752" lon="5.80233">
        <ele>371</ele>
        <time>2016-05-28T08:41:26.000Z</time>
      </trkpt>
      <trkpt lat="43.70752" lon="5.80233">
        <ele>371</ele>
        <time>2016-05-28T08:41:28.000Z</time>
      </trkpt>
      <trkpt lat="43.70752" lon="5.80233">
        <ele>371</ele>
        <time>2016-05-28T08:41:30.000Z</time>
      </trkpt>
      <trkpt lat="43.70742" lon="5.80234">
        <ele>376</ele>
        <time>2016-05-28T08:41:32.000Z</time>
      </trkpt>
      <trkpt lat="43.70736" lon="5.80234">
        <ele>376</ele>
        <time>2016-05-28T08:41:34.000Z</time>
      </trkpt>
      <trkpt lat="43.70731" lon="5.80235">
        <ele>378</ele>
        <time>2016-05-28T08:41:38.000Z</time>
      </trkpt>
      <trkpt lat="43.70726" lon="5.80235">
        <ele>380</ele>
        <time>2016-05-28T08:41:42.000Z</time>
      </trkpt>
      <trkpt lat="43.70721" lon="5.80236">
        <ele>381</ele>
        <time>2016-05-28T08:41:46.000Z</time>
      </trkpt>
      <trkpt lat="43.70716" lon="5.80237">
        <ele>379</ele>
        <time>2016-05-28T08:41:50.000Z</time>
      </trkpt>
      <trkpt lat="43.7071" lon="5.80239">
        <ele>374</ele>
        <time>2016-05-28T08:41:54.000Z</time>
      </trkpt>
      <trkpt lat="43.70705" lon="5.80242">
        <ele>374</ele>
        <time>2016-05-28T08:41:56.000Z</time>
      </trkpt>
      <trkpt lat="43.70701" lon="5.80245">
        <ele>373</ele>
        <time>2016-05-28T08:41:58.000Z</time>
      </trkpt>
      <trkpt lat="43.70698" lon="5.80251">
        <ele>373</ele>
        <time>2016-05-28T08:42:02.000Z</time>
      </trkpt>
      <trkpt lat="43.70696" lon="5.80257">
        <ele>375</ele>
        <time>2016-05-28T08:42:06.000Z</time>
      </trkpt>
      <trkpt lat="43.70696" lon="5.80257">
        <ele>375</ele>
        <time>2016-05-28T08:42:08.000Z</time>
      </trkpt>
      <trkpt lat="43.70696" lon="5.80257">
        <ele>375</ele>
        <time>2016-05-28T08:42:10.000Z</time>
      </trkpt>
      <trkpt lat="43.70696" lon="5.80257">
        <ele>375</ele>
        <time>2016-05-28T08:42:12.000Z</time>
      </trkpt>
      <trkpt lat="43.70696" lon="5.80257">
        <ele>375</ele>
        <time>2016-05-28T08:42:14.000Z</time>
      </trkpt>
      <trkpt lat="43.70696" lon="5.80257">
        <ele>375</ele>
        <time>2016-05-28T08:42:16.000Z</time>
      </trkpt>
      <trkpt lat="43.70696" lon="5.80257">
        <ele>375</ele>
        <time>2016-05-28T08:42:18.000Z</time>
      </trkpt>
      <trkpt lat="43.70696" lon="5.80257">
        <ele>375</ele>
        <time>2016-05-28T08:42:20.000Z</time>
      </trkpt>
      <trkpt lat="43.70694" lon="5.80273">
        <ele>376</ele>
        <time>2016-05-28T08:42:24.000Z</time>
      </trkpt>
      <trkpt lat="43.70692" lon="5.80283">
        <ele>375</ele>
        <time>2016-05-28T08:42:26.000Z</time>
      </trkpt>
      <trkpt lat="43.70691" lon="5.80291">
        <ele>374</ele>
        <time>2016-05-28T08:42:28.000Z</time>
      </trkpt>
      <trkpt lat="43.7069" lon="5.80298">
        <ele>372</ele>
        <time>2016-05-28T08:42:30.000Z</time>
      </trkpt>
      <trkpt lat="43.7069" lon="5.80306">
        <ele>371</ele>
        <time>2016-05-28T08:42:34.000Z</time>
      </trkpt>
      <trkpt lat="43.70689" lon="5.80313">
        <ele>373</ele>
        <time>2016-05-28T08:42:36.000Z</time>
      </trkpt>
      <trkpt lat="43.70688" lon="5.80319">
        <ele>373</ele>
        <time>2016-05-28T08:42:38.000Z</time>
      </trkpt>
      <trkpt lat="43.70685" lon="5.80327">
        <ele>374</ele>
        <time>2016-05-28T08:42:42.000Z</time>
      </trkpt>
      <trkpt lat="43.70683" lon="5.80332">
        <ele>373</ele>
        <time>2016-05-28T08:42:44.000Z</time>
      </trkpt>
      <trkpt lat="43.7068" lon="5.80339">
        <ele>377</ele>
        <time>2016-05-28T08:42:48.000Z</time>
      </trkpt>
      <trkpt lat="43.70677" lon="5.80344">
        <ele>377</ele>
        <time>2016-05-28T08:42:50.000Z</time>
      </trkpt>
      <trkpt lat="43.70673" lon="5.8035">
        <ele>379</ele>
        <time>2016-05-28T08:42:54.000Z</time>
      </trkpt>
      <trkpt lat="43.70673" lon="5.8035">
        <ele>379</ele>
        <time>2016-05-28T08:42:58.000Z</time>
      </trkpt>
      <trkpt lat="43.70673" lon="5.8035">
        <ele>379</ele>
        <time>2016-05-28T08:43:00.000Z</time>
      </trkpt>
      <trkpt lat="43.70673" lon="5.8035">
        <ele>379</ele>
        <time>2016-05-28T08:43:02.000Z</time>
      </trkpt>
      <trkpt lat="43.70664" lon="5.80356">
        <ele>381</ele>
        <time>2016-05-28T08:43:06.000Z</time>
      </trkpt>
      <trkpt lat="43.70658" lon="5.80359">
        <ele>383</ele>
        <time>2016-05-28T08:43:08.000Z</time>
      </trkpt>
      <trkpt lat="43.70654" lon="5.80362">
        <ele>381</ele>
        <time>2016-05-28T08:43:10.000Z</time>
      </trkpt>
      <trkpt lat="43.70649" lon="5.80364">
        <ele>382</ele>
        <time>2016-05-28T08:43:14.000Z</time>
      </trkpt>
      <trkpt lat="43.70644" lon="5.80367">
        <ele>384</ele>
        <time>2016-05-28T08:43:18.000Z</time>
      </trkpt>
      <trkpt lat="43.70644" lon="5.80367">
        <ele>384</ele>
        <time>2016-05-28T08:43:22.000Z</time>
      </trkpt>
      <trkpt lat="43.70644" lon="5.80367">
        <ele>384</ele>
        <time>2016-05-28T08:43:24.000Z</time>
      </trkpt>
      <trkpt lat="43.70644" lon="5.80367">
        <ele>384</ele>
        <time>2016-05-28T08:43:26.000Z</time>
      </trkpt>
      <trkpt lat="43.70644" lon="5.80367">
        <ele>384</ele>
        <time>2016-05-28T08:43:28.000Z</time>
      </trkpt>
      <trkpt lat="43.70644" lon="5.80367">
        <ele>384</ele>
        <time>2016-05-28T08:43:30.000Z</time>
      </trkpt>
      <trkpt lat="43.70644" lon="5.80367">
        <ele>384</ele>
        <time>2016-05-28T08:43:32.000Z</time>
      </trkpt>
      <trkpt lat="43.70644" lon="5.80367">
        <ele>384</ele>
        <time>2016-05-28T08:43:34.000Z</time>
      </trkpt>
      <trkpt lat="43.70644" lon="5.80367">
        <ele>384</ele>
        <time>2016-05-28T08:43:36.000Z</time>
      </trkpt>
      <trkpt lat="43.70644" lon="5.80367">
        <ele>384</ele>
        <time>2016-05-28T08:43:38.000Z</time>
      </trkpt>
      <trkpt lat="43.70644" lon="5.80367">
        <ele>384</ele>
        <time>2016-05-28T08:43:40.000Z</time>
      </trkpt>
      <trkpt lat="43.70644" lon="5.80367">
        <ele>384</ele>
        <time>2016-05-28T08:43:42.000Z</time>
      </trkpt>
      <trkpt lat="43.70644" lon="5.80367">
        <ele>384</ele>
        <time>2016-05-28T08:43:44.000Z</time>
      </trkpt>
      <trkpt lat="43.70644" lon="5.80367">
        <ele>384</ele>
        <time>2016-05-28T08:43:46.000Z</time>
      </trkpt>
      <trkpt lat="43.70644" lon="5.80367">
        <ele>384</ele>
        <time>2016-05-28T08:43:48.000Z</time>
      </trkpt>
      <trkpt lat="43.70644" lon="5.80367">
        <ele>384</ele>
        <time>2016-05-28T08:43:50.000Z</time>
      </trkpt>
      <trkpt lat="43.70624" lon="5.8039">
        <ele>390</ele>
        <time>2016-05-28T08:43:52.000Z</time>
      </trkpt>
      <trkpt lat="43.70612" lon="5.80403">
        <ele>391</ele>
        <time>2016-05-28T08:43:54.000Z</time>
      </trkpt>
      <trkpt lat="43.70605" lon="5.80411">
        <ele>392</ele>
        <time>2016-05-28T08:43:56.000Z</time>
      </trkpt>
      <trkpt lat="43.706" lon="5.80417">
        <ele>393</ele>
        <time>2016-05-28T08:43:58.000Z</time>
      </trkpt>
      <trkpt lat="43.70596" lon="5.80421">
        <ele>394</ele>
        <time>2016-05-28T08:44:00.000Z</time>
      </trkpt>
      <trkpt lat="43.70596" lon="5.80421">
        <ele>394</ele>
        <time>2016-05-28T08:44:02.000Z</time>
      </trkpt>
      <trkpt lat="43.70596" lon="5.80421">
        <ele>394</ele>
        <time>2016-05-28T08:44:04.000Z</time>
      </trkpt>
      <trkpt lat="43.70596" lon="5.80421">
        <ele>394</ele>
        <time>2016-05-28T08:44:06.000Z</time>
      </trkpt>
      <trkpt lat="43.70596" lon="5.80421">
        <ele>394</ele>
        <time>2016-05-28T08:44:08.000Z</time>
      </trkpt>
      <trkpt lat="43.70596" lon="5.80421">
        <ele>394</ele>
        <time>2016-05-28T08:44:10.000Z</time>
      </trkpt>
      <trkpt lat="43.70596" lon="5.80421">
        <ele>394</ele>
        <time>2016-05-28T08:44:12.000Z</time>
      </trkpt>
      <trkpt lat="43.70596" lon="5.80421">
        <ele>394</ele>
        <time>2016-05-28T08:44:14.000Z</time>
      </trkpt>
      <trkpt lat="43.70596" lon="5.80421">
        <ele>394</ele>
        <time>2016-05-28T08:44:16.000Z</time>
      </trkpt>
      <trkpt lat="43.70596" lon="5.80421">
        <ele>394</ele>
        <time>2016-05-28T08:44:18.000Z</time>
      </trkpt>
      <trkpt lat="43.70596" lon="5.80421">
        <ele>394</ele>
        <time>2016-05-28T08:44:20.000Z</time>
      </trkpt>
      <trkpt lat="43.70596" lon="5.80421">
        <ele>394</ele>
        <time>2016-05-28T08:44:22.000Z</time>
      </trkpt>
      <trkpt lat="43.70596" lon="5.80421">
        <ele>394</ele>
        <time>2016-05-28T08:44:24.000Z</time>
      </trkpt>
      <trkpt lat="43.70596" lon="5.80421">
        <ele>394</ele>
        <time>2016-05-28T08:44:26.000Z</time>
      </trkpt>
      <trkpt lat="43.70596" lon="5.80421">
        <ele>394</ele>
        <time>2016-05-28T08:44:28.000Z</time>
      </trkpt>
      <trkpt lat="43.70596" lon="5.80421">
        <ele>394</ele>
        <time>2016-05-28T08:44:30.000Z</time>
      </trkpt>
      <trkpt lat="43.70596" lon="5.80421">
        <ele>394</ele>
        <time>2016-05-28T08:44:32.000Z</time>
      </trkpt>
      <trkpt lat="43.70596" lon="5.80421">
        <ele>394</ele>
        <time>2016-05-28T08:44:34.000Z</time>
      </trkpt>
      <trkpt lat="43.70596" lon="5.80421">
        <ele>394</ele>
        <time>2016-05-28T08:44:36.000Z</time>
      </trkpt>
      <trkpt lat="43.70596" lon="5.80421">
        <ele>394</ele>
        <time>2016-05-28T08:44:38.000Z</time>
      </trkpt>
      <trkpt lat="43.70596" lon="5.80421">
        <ele>394</ele>
        <time>2016-05-28T08:44:40.000Z</time>
      </trkpt>
      <trkpt lat="43.70516" lon="5.80438">
        <ele>405</ele>
        <time>2016-05-28T08:44:50.000Z</time>
      </trkpt>
      <trkpt lat="43.70507" lon="5.80435">
        <ele>406</ele>
        <time>2016-05-28T08:44:56.000Z</time>
      </trkpt>
      <trkpt lat="43.70499" lon="5.80426">
        <ele>406</ele>
        <time>2016-05-28T08:45:02.000Z</time>
      </trkpt>
      <trkpt lat="43.70494" lon="5.80422">
        <ele>408</ele>
        <time>2016-05-28T08:45:08.000Z</time>
      </trkpt>
      <trkpt lat="43.7049" lon="5.8042">
        <ele>407</ele>
        <time>2016-05-28T08:45:10.000Z</time>
      </trkpt>
      <trkpt lat="43.7049" lon="5.8042">
        <ele>407</ele>
        <time>2016-05-28T08:45:12.000Z</time>
      </trkpt>
      <trkpt lat="43.7049" lon="5.8042">
        <ele>407</ele>
        <time>2016-05-28T08:45:14.000Z</time>
      </trkpt>
      <trkpt lat="43.7049" lon="5.8042">
        <ele>407</ele>
        <time>2016-05-28T08:45:16.000Z</time>
      </trkpt>
      <trkpt lat="43.7049" lon="5.8042">
        <ele>407</ele>
        <time>2016-05-28T08:45:18.000Z</time>
      </trkpt>
      <trkpt lat="43.7048" lon="5.8041">
        <ele>409</ele>
        <time>2016-05-28T08:45:22.000Z</time>
      </trkpt>
      <trkpt lat="43.70473" lon="5.80403">
        <ele>410</ele>
        <time>2016-05-28T08:45:24.000Z</time>
      </trkpt>
      <trkpt lat="43.70469" lon="5.80398">
        <ele>410</ele>
        <time>2016-05-28T08:45:26.000Z</time>
      </trkpt>
      <trkpt lat="43.70465" lon="5.80393">
        <ele>410</ele>
        <time>2016-05-28T08:45:28.000Z</time>
      </trkpt>
      <trkpt lat="43.70461" lon="5.80387">
        <ele>410</ele>
        <time>2016-05-28T08:45:32.000Z</time>
      </trkpt>
      <trkpt lat="43.70457" lon="5.80383">
        <ele>410</ele>
        <time>2016-05-28T08:45:34.000Z</time>
      </trkpt>
      <trkpt lat="43.70451" lon="5.80379">
        <ele>410</ele>
        <time>2016-05-28T08:45:38.000Z</time>
      </trkpt>
      <trkpt lat="43.70448" lon="5.80375">
        <ele>412</ele>
        <time>2016-05-28T08:45:40.000Z</time>
      </trkpt>
      <trkpt lat="43.70443" lon="5.8037">
        <ele>414</ele>
        <time>2016-05-28T08:45:44.000Z</time>
      </trkpt>
      <trkpt lat="43.70438" lon="5.80365">
        <ele>414</ele>
        <time>2016-05-28T08:45:48.000Z</time>
      </trkpt>
      <trkpt lat="43.70434" lon="5.80362">
        <ele>415</ele>
        <time>2016-05-28T08:45:50.000Z</time>
      </trkpt>
      <trkpt lat="43.70429" lon="5.80357">
        <ele>416</ele>
        <time>2016-05-28T08:45:54.000Z</time>
      </trkpt>
      <trkpt lat="43.70429" lon="5.80357">
        <ele>416</ele>
        <time>2016-05-28T08:45:56.000Z</time>
      </trkpt>
      <trkpt lat="43.70429" lon="5.80357">
        <ele>416</ele>
        <time>2016-05-28T08:45:58.000Z</time>
      </trkpt>
      <trkpt lat="43.70429" lon="5.80357">
        <ele>416</ele>
        <time>2016-05-28T08:46:00.000Z</time>
      </trkpt>
      <trkpt lat="43.70429" lon="5.80357">
        <ele>416</ele>
        <time>2016-05-28T08:46:02.000Z</time>
      </trkpt>
      <trkpt lat="43.70429" lon="5.80357">
        <ele>416</ele>
        <time>2016-05-28T08:46:04.000Z</time>
      </trkpt>
      <trkpt lat="43.70429" lon="5.80357">
        <ele>416</ele>
        <time>2016-05-28T08:46:06.000Z</time>
      </trkpt>
      <trkpt lat="43.70429" lon="5.80357">
        <ele>416</ele>
        <time>2016-05-28T08:46:08.000Z</time>
      </trkpt>
      <trkpt lat="43.70429" lon="5.80357">
        <ele>416</ele>
        <time>2016-05-28T08:46:10.000Z</time>
      </trkpt>
      <trkpt lat="43.70429" lon="5.80357">
        <ele>416</ele>
        <time>2016-05-28T08:46:12.000Z</time>
      </trkpt>
      <trkpt lat="43.70429" lon="5.80357">
        <ele>416</ele>
        <time>2016-05-28T08:46:14.000Z</time>
      </trkpt>
      <trkpt lat="43.7041" lon="5.80341">
        <ele>423</ele>
        <time>2016-05-28T08:46:20.000Z</time>
      </trkpt>
      <trkpt lat="43.70399" lon="5.80332">
        <ele>424</ele>
        <time>2016-05-28T08:46:22.000Z</time>
      </trkpt>
      <trkpt lat="43.70393" lon="5.80326">
        <ele>424</ele>
        <time>2016-05-28T08:46:24.000Z</time>
      </trkpt>
      <trkpt lat="43.70388" lon="5.80322">
        <ele>424</ele>
        <time>2016-05-28T08:46:26.000Z</time>
      </trkpt>
      <trkpt lat="43.70383" lon="5.80319">
        <ele>424</ele>
        <time>2016-05-28T08:46:30.000Z</time>
      </trkpt>
      <trkpt lat="43.70378" lon="5.80315">
        <ele>426</ele>
        <time>2016-05-28T08:46:34.000Z</time>
      </trkpt>
      <trkpt lat="43.70373" lon="5.80311">
        <ele>428</ele>
        <time>2016-05-28T08:46:38.000Z</time>
      </trkpt>
      <trkpt lat="43.70368" lon="5.80307">
        <ele>430</ele>
        <time>2016-05-28T08:46:42.000Z</time>
      </trkpt>
      <trkpt lat="43.70363" lon="5.80303">
        <ele>429</ele>
        <time>2016-05-28T08:46:46.000Z</time>
      </trkpt>
      <trkpt lat="43.70359" lon="5.803">
        <ele>429</ele>
        <time>2016-05-28T08:46:48.000Z</time>
      </trkpt>
      <trkpt lat="43.70353" lon="5.80298">
        <ele>430</ele>
        <time>2016-05-28T08:46:52.000Z</time>
      </trkpt>
      <trkpt lat="43.70347" lon="5.80297">
        <ele>430</ele>
        <time>2016-05-28T08:46:56.000Z</time>
      </trkpt>
      <trkpt lat="43.70341" lon="5.80297">
        <ele>429</ele>
        <time>2016-05-28T08:46:58.000Z</time>
      </trkpt>
      <trkpt lat="43.70336" lon="5.80297">
        <ele>429</ele>
        <time>2016-05-28T08:47:00.000Z</time>
      </trkpt>
      <trkpt lat="43.70331" lon="5.80296">
        <ele>430</ele>
        <time>2016-05-28T08:47:02.000Z</time>
      </trkpt>
      <trkpt lat="43.70326" lon="5.80296">
        <ele>429</ele>
        <time>2016-05-28T08:47:04.000Z</time>
      </trkpt>
      <trkpt lat="43.70316" lon="5.80297">
        <ele>429</ele>
        <time>2016-05-28T08:47:06.000Z</time>
      </trkpt>
      <trkpt lat="43.70306" lon="5.80297">
        <ele>431</ele>
        <time>2016-05-28T08:47:10.000Z</time>
      </trkpt>
      <trkpt lat="43.70296" lon="5.80297">
        <ele>431</ele>
        <time>2016-05-28T08:47:14.000Z</time>
      </trkpt>
      <trkpt lat="43.70296" lon="5.80297">
        <ele>431</ele>
        <time>2016-05-28T08:47:16.000Z</time>
      </trkpt>
      <trkpt lat="43.70296" lon="5.80297">
        <ele>431</ele>
        <time>2016-05-28T08:47:18.000Z</time>
      </trkpt>
      <trkpt lat="43.70296" lon="5.80297">
        <ele>431</ele>
        <time>2016-05-28T08:47:20.000Z</time>
      </trkpt>
      <trkpt lat="43.70296" lon="5.80297">
        <ele>431</ele>
        <time>2016-05-28T08:47:22.000Z</time>
      </trkpt>
      <trkpt lat="43.70296" lon="5.80297">
        <ele>431</ele>
        <time>2016-05-28T08:47:24.000Z</time>
      </trkpt>
      <trkpt lat="43.70296" lon="5.80297">
        <ele>431</ele>
        <time>2016-05-28T08:47:26.000Z</time>
      </trkpt>
      <trkpt lat="43.70296" lon="5.80297">
        <ele>431</ele>
        <time>2016-05-28T08:47:28.000Z</time>
      </trkpt>
      <trkpt lat="43.70296" lon="5.80297">
        <ele>431</ele>
        <time>2016-05-28T08:47:30.000Z</time>
      </trkpt>
      <trkpt lat="43.70296" lon="5.80297">
        <ele>431</ele>
        <time>2016-05-28T08:47:32.000Z</time>
      </trkpt>
      <trkpt lat="43.70296" lon="5.80297">
        <ele>431</ele>
        <time>2016-05-28T08:47:34.000Z</time>
      </trkpt>
      <trkpt lat="43.70296" lon="5.80297">
        <ele>431</ele>
        <time>2016-05-28T08:47:36.000Z</time>
      </trkpt>
      <trkpt lat="43.70296" lon="5.80297">
        <ele>431</ele>
        <time>2016-05-28T08:47:38.000Z</time>
      </trkpt>
      <trkpt lat="43.70296" lon="5.80297">
        <ele>431</ele>
        <time>2016-05-28T08:47:40.000Z</time>
      </trkpt>
      <trkpt lat="43.70246" lon="5.80297">
        <ele>438</ele>
        <time>2016-05-28T08:47:58.000Z</time>
      </trkpt>
      <trkpt lat="43.70246" lon="5.80297">
        <ele>438</ele>
        <time>2016-05-28T08:48:04.000Z</time>
      </trkpt>
      <trkpt lat="43.70228" lon="5.80306">
        <ele>439</ele>
        <time>2016-05-28T08:48:08.000Z</time>
      </trkpt>
      <trkpt lat="43.70216" lon="5.80311">
        <ele>439</ele>
        <time>2016-05-28T08:48:14.000Z</time>
      </trkpt>
      <trkpt lat="43.70206" lon="5.80312">
        <ele>438</ele>
        <time>2016-05-28T08:48:18.000Z</time>
      </trkpt>
      <trkpt lat="43.70206" lon="5.80312">
        <ele>438</ele>
        <time>2016-05-28T08:48:20.000Z</time>
      </trkpt>
      <trkpt lat="43.70206" lon="5.80312">
        <ele>438</ele>
        <time>2016-05-28T08:48:22.000Z</time>
      </trkpt>
      <trkpt lat="43.70206" lon="5.80312">
        <ele>438</ele>
        <time>2016-05-28T08:48:24.000Z</time>
      </trkpt>
      <trkpt lat="43.70191" lon="5.80323">
        <ele>435</ele>
        <time>2016-05-28T08:52:43.000Z</time>
      </trkpt>
      <trkpt lat="43.70166" lon="5.80335">
        <ele>434</ele>
        <time>2016-05-28T08:52:48.000Z</time>
      </trkpt>
      <trkpt lat="43.70166" lon="5.80335">
        <ele>434</ele>
        <time>2016-05-28T08:52:50.000Z</time>
      </trkpt>
      <trkpt lat="43.70166" lon="5.80335">
        <ele>434</ele>
        <time>2016-05-28T08:52:52.000Z</time>
      </trkpt>
      <trkpt lat="43.70166" lon="5.80335">
        <ele>434</ele>
        <time>2016-05-28T08:52:54.000Z</time>
      </trkpt>
      <trkpt lat="43.70166" lon="5.80335">
        <ele>434</ele>
        <time>2016-05-28T08:52:56.000Z</time>
      </trkpt>
      <trkpt lat="43.70166" lon="5.80335">
        <ele>434</ele>
        <time>2016-05-28T08:52:58.000Z</time>
      </trkpt>
      <trkpt lat="43.70166" lon="5.80335">
        <ele>434</ele>
        <time>2016-05-28T08:53:00.000Z</time>
      </trkpt>
      <trkpt lat="43.70166" lon="5.80335">
        <ele>434</ele>
        <time>2016-05-28T08:53:02.000Z</time>
      </trkpt>
      <trkpt lat="43.70166" lon="5.80335">
        <ele>434</ele>
        <time>2016-05-28T08:53:04.000Z</time>
      </trkpt>
      <trkpt lat="43.70166" lon="5.80335">
        <ele>434</ele>
        <time>2016-05-28T08:53:06.000Z</time>
      </trkpt>
      <trkpt lat="43.70166" lon="5.80335">
        <ele>434</ele>
        <time>2016-05-28T08:53:08.000Z</time>
      </trkpt>
      <trkpt lat="43.70166" lon="5.80335">
        <ele>434</ele>
        <time>2016-05-28T08:53:10.000Z</time>
      </trkpt>
      <trkpt lat="43.70166" lon="5.80335">
        <ele>434</ele>
        <time>2016-05-28T08:53:12.000Z</time>
      </trkpt>
      <trkpt lat="43.70166" lon="5.80335">
        <ele>434</ele>
        <time>2016-05-28T08:53:14.000Z</time>
      </trkpt>
      <trkpt lat="43.70166" lon="5.80335">
        <ele>434</ele>
        <time>2016-05-28T08:53:16.000Z</time>
      </trkpt>
      <trkpt lat="43.70166" lon="5.80335">
        <ele>434</ele>
        <time>2016-05-28T08:53:18.000Z</time>
      </trkpt>
      <trkpt lat="43.70166" lon="5.80335">
        <ele>434</ele>
        <time>2016-05-28T08:53:20.000Z</time>
      </trkpt>
      <trkpt lat="43.70166" lon="5.80335">
        <ele>434</ele>
        <time>2016-05-28T08:53:22.000Z</time>
      </trkpt>
      <trkpt lat="43.70166" lon="5.80335">
        <ele>434</ele>
        <time>2016-05-28T08:53:24.000Z</time>
      </trkpt>
      <trkpt lat="43.70166" lon="5.80335">
        <ele>434</ele>
        <time>2016-05-28T08:53:26.000Z</time>
      </trkpt>
      <trkpt lat="43.70166" lon="5.80335">
        <ele>434</ele>
        <time>2016-05-28T08:53:28.000Z</time>
      </trkpt>
      <trkpt lat="43.70166" lon="5.80335">
        <ele>434</ele>
        <time>2016-05-28T08:53:30.000Z</time>
      </trkpt>
      <trkpt lat="43.70166" lon="5.80335">
        <ele>434</ele>
        <time>2016-05-28T08:53:32.000Z</time>
      </trkpt>
      <trkpt lat="43.70166" lon="5.80335">
        <ele>434</ele>
        <time>2016-05-28T08:53:34.000Z</time>
      </trkpt>
      <trkpt lat="43.70166" lon="5.80335">
        <ele>434</ele>
        <time>2016-05-28T08:53:36.000Z</time>
      </trkpt>
      <trkpt lat="43.70166" lon="5.80335">
        <ele>434</ele>
        <time>2016-05-28T08:53:38.000Z</time>
      </trkpt>
      <trkpt lat="43.70166" lon="5.80335">
        <ele>434</ele>
        <time>2016-05-28T08:53:40.000Z</time>
      </trkpt>
      <trkpt lat="43.70166" lon="5.80335">
        <ele>434</ele>
        <time>2016-05-28T08:53:42.000Z</time>
      </trkpt>
      <trkpt lat="43.70166" lon="5.80335">
        <ele>434</ele>
        <time>2016-05-28T08:53:44.000Z</time>
      </trkpt>
      <trkpt lat="43.70166" lon="5.80335">
        <ele>434</ele>
        <time>2016-05-28T08:53:46.000Z</time>
      </trkpt>
      <trkpt lat="43.70166" lon="5.80335">
        <ele>434</ele>
        <time>2016-05-28T08:53:48.000Z</time>
      </trkpt>
      <trkpt lat="43.70166" lon="5.80335">
        <ele>434</ele>
        <time>2016-05-28T08:53:50.000Z</time>
      </trkpt>
      <trkpt lat="43.70166" lon="5.80335">
        <ele>434</ele>
        <time>2016-05-28T08:53:52.000Z</time>
      </trkpt>
      <trkpt lat="43.70166" lon="5.80335">
        <ele>434</ele>
        <time>2016-05-28T08:53:54.000Z</time>
      </trkpt>
      <trkpt lat="43.70166" lon="5.80335">
        <ele>434</ele>
        <time>2016-05-28T08:53:56.000Z</time>
      </trkpt>
      <trkpt lat="43.70166" lon="5.80335">
        <ele>434</ele>
        <time>2016-05-28T08:53:58.000Z</time>
      </trkpt>
      <trkpt lat="43.70166" lon="5.80335">
        <ele>434</ele>
        <time>2016-05-28T08:54:00.000Z</time>
      </trkpt>
      <trkpt lat="43.70119" lon="5.80391">
        <ele>450</ele>
        <time>2016-05-28T08:54:02.000Z</time>
      </trkpt>
      <trkpt lat="43.70094" lon="5.8042">
        <ele>450</ele>
        <time>2016-05-28T08:54:04.000Z</time>
      </trkpt>
      <trkpt lat="43.70081" lon="5.80436">
        <ele>450</ele>
        <time>2016-05-28T08:54:06.000Z</time>
      </trkpt>
      <trkpt lat="43.70081" lon="5.80436">
        <ele>450</ele>
        <time>2016-05-28T08:54:08.000Z</time>
      </trkpt>
      <trkpt lat="43.70081" lon="5.80436">
        <ele>450</ele>
        <time>2016-05-28T08:54:10.000Z</time>
      </trkpt>
      <trkpt lat="43.70081" lon="5.80436">
        <ele>450</ele>
        <time>2016-05-28T08:54:12.000Z</time>
      </trkpt>
      <trkpt lat="43.70071" lon="5.8045">
        <ele>452</ele>
        <time>2016-05-28T08:54:14.000Z</time>
      </trkpt>
      <trkpt lat="43.70064" lon="5.80458">
        <ele>452</ele>
        <time>2016-05-28T08:54:16.000Z</time>
      </trkpt>
      <trkpt lat="43.70059" lon="5.80463">
        <ele>453</ele>
        <time>2016-05-28T08:54:18.000Z</time>
      </trkpt>
      <trkpt lat="43.70056" lon="5.80468">
        <ele>453</ele>
        <time>2016-05-28T08:54:20.000Z</time>
      </trkpt>
      <trkpt lat="43.70053" lon="5.80474">
        <ele>454</ele>
        <time>2016-05-28T08:54:24.000Z</time>
      </trkpt>
      <trkpt lat="43.7005" lon="5.8048">
        <ele>455</ele>
        <time>2016-05-28T08:54:28.000Z</time>
      </trkpt>
      <trkpt lat="43.70047" lon="5.80485">
        <ele>456</ele>
        <time>2016-05-28T08:54:30.000Z</time>
      </trkpt>
      <trkpt lat="43.70042" lon="5.8049">
        <ele>456</ele>
        <time>2016-05-28T08:54:34.000Z</time>
      </trkpt>
      <trkpt lat="43.70038" lon="5.80494">
        <ele>456</ele>
        <time>2016-05-28T08:54:36.000Z</time>
      </trkpt>
      <trkpt lat="43.70035" lon="5.80499">
        <ele>456</ele>
        <time>2016-05-28T08:54:38.000Z</time>
      </trkpt>
      <trkpt lat="43.70031" lon="5.80504">
        <ele>456</ele>
        <time>2016-05-28T08:54:42.000Z</time>
      </trkpt>
      <trkpt lat="43.70027" lon="5.80509">
        <ele>456</ele>
        <time>2016-05-28T08:54:44.000Z</time>
      </trkpt>
      <trkpt lat="43.70023" lon="5.80513">
        <ele>456</ele>
        <time>2016-05-28T08:54:46.000Z</time>
      </trkpt>
      <trkpt lat="43.70019" lon="5.80517">
        <ele>455</ele>
        <time>2016-05-28T08:54:48.000Z</time>
      </trkpt>
      <trkpt lat="43.70015" lon="5.80522">
        <ele>455</ele>
        <time>2016-05-28T08:54:50.000Z</time>
      </trkpt>
      <trkpt lat="43.70006" lon="5.80531">
        <ele>455</ele>
        <time>2016-05-28T08:54:52.000Z</time>
      </trkpt>
      <trkpt lat="43.69997" lon="5.80541">
        <ele>455</ele>
        <time>2016-05-28T08:54:56.000Z</time>
      </trkpt>
      <trkpt lat="43.69989" lon="5.80548">
        <ele>454</ele>
        <time>2016-05-28T08:55:00.000Z</time>
      </trkpt>
      <trkpt lat="43.69989" lon="5.80548">
        <ele>454</ele>
        <time>2016-05-28T08:55:04.000Z</time>
      </trkpt>
      <trkpt lat="43.69989" lon="5.80548">
        <ele>454</ele>
        <time>2016-05-28T08:55:06.000Z</time>
      </trkpt>
      <trkpt lat="43.69989" lon="5.80548">
        <ele>454</ele>
        <time>2016-05-28T08:55:08.000Z</time>
      </trkpt>
      <trkpt lat="43.69989" lon="5.80548">
        <ele>454</ele>
        <time>2016-05-28T08:55:12.000Z</time>
      </trkpt>
      <trkpt lat="43.69989" lon="5.80548">
        <ele>454</ele>
        <time>2016-05-28T08:55:14.000Z</time>
      </trkpt>
      <trkpt lat="43.69989" lon="5.80548">
        <ele>454</ele>
        <time>2016-05-28T08:55:16.000Z</time>
      </trkpt>
      <trkpt lat="43.69989" lon="5.80548">
        <ele>454</ele>
        <time>2016-05-28T08:55:18.000Z</time>
      </trkpt>
      <trkpt lat="43.69989" lon="5.80548">
        <ele>454</ele>
        <time>2016-05-28T08:55:20.000Z</time>
      </trkpt>
      <trkpt lat="43.69956" lon="5.8059">
        <ele>456</ele>
        <time>2016-05-28T08:55:52.000Z</time>
      </trkpt>
      <trkpt lat="43.69947" lon="5.80597">
        <ele>457</ele>
        <time>2016-05-28T08:55:56.000Z</time>
      </trkpt>
      <trkpt lat="43.6994" lon="5.80605">
        <ele>457</ele>
        <time>2016-05-28T08:56:00.000Z</time>
      </trkpt>
      <trkpt lat="43.69933" lon="5.80614">
        <ele>458</ele>
        <time>2016-05-28T08:56:04.000Z</time>
      </trkpt>
      <trkpt lat="43.69926" lon="5.80622">
        <ele>460</ele>
        <time>2016-05-28T08:56:08.000Z</time>
      </trkpt>
      <trkpt lat="43.69918" lon="5.8063">
        <ele>461</ele>
        <time>2016-05-28T08:56:12.000Z</time>
      </trkpt>
      <trkpt lat="43.69911" lon="5.80639">
        <ele>462</ele>
        <time>2016-05-28T08:56:16.000Z</time>
      </trkpt>
      <trkpt lat="43.69904" lon="5.80648">
        <ele>463</ele>
        <time>2016-05-28T08:56:20.000Z</time>
      </trkpt>
      <trkpt lat="43.69904" lon="5.80648">
        <ele>463</ele>
        <time>2016-05-28T08:56:22.000Z</time>
      </trkpt>
      <trkpt lat="43.69904" lon="5.80648">
        <ele>463</ele>
        <time>2016-05-28T08:56:24.000Z</time>
      </trkpt>
      <trkpt lat="43.69904" lon="5.80648">
        <ele>463</ele>
        <time>2016-05-28T08:56:26.000Z</time>
      </trkpt>
      <trkpt lat="43.69904" lon="5.80648">
        <ele>463</ele>
        <time>2016-05-28T08:56:28.000Z</time>
      </trkpt>
      <trkpt lat="43.69904" lon="5.80648">
        <ele>463</ele>
        <time>2016-05-28T08:56:30.000Z</time>
      </trkpt>
      <trkpt lat="43.69904" lon="5.80648">
        <ele>463</ele>
        <time>2016-05-28T08:56:32.000Z</time>
      </trkpt>
      <trkpt lat="43.69904" lon="5.80648">
        <ele>463</ele>
        <time>2016-05-28T08:56:34.000Z</time>
      </trkpt>
      <trkpt lat="43.69904" lon="5.80648">
        <ele>463</ele>
        <time>2016-05-28T08:56:36.000Z</time>
      </trkpt>
      <trkpt lat="43.69904" lon="5.80648">
        <ele>463</ele>
        <time>2016-05-28T08:56:38.000Z</time>
      </trkpt>
      <trkpt lat="43.69904" lon="5.80648">
        <ele>463</ele>
        <time>2016-05-28T08:56:40.000Z</time>
      </trkpt>
      <trkpt lat="43.69904" lon="5.80648">
        <ele>463</ele>
        <time>2016-05-28T08:56:42.000Z</time>
      </trkpt>
      <trkpt lat="43.69904" lon="5.80648">
        <ele>463</ele>
        <time>2016-05-28T08:56:44.000Z</time>
      </trkpt>
      <trkpt lat="43.69904" lon="5.80648">
        <ele>463</ele>
        <time>2016-05-28T08:56:46.000Z</time>
      </trkpt>
      <trkpt lat="43.69876" lon="5.80669">
        <ele>470</ele>
        <time>2016-05-28T08:57:21.000Z</time>
      </trkpt>
      <trkpt lat="43.69865" lon="5.8066">
        <ele>469</ele>
        <time>2016-05-28T08:57:27.000Z</time>
      </trkpt>
      <trkpt lat="43.69857" lon="5.80653">
        <ele>470</ele>
        <time>2016-05-28T08:57:31.000Z</time>
      </trkpt>
      <trkpt lat="43.69844" lon="5.80647">
        <ele>469</ele>
        <time>2016-05-28T08:57:37.000Z</time>
      </trkpt>
      <trkpt lat="43.69836" lon="5.80643">
        <ele>469</ele>
        <time>2016-05-28T08:57:41.000Z</time>
      </trkpt>
      <trkpt lat="43.69823" lon="5.80634">
        <ele>470</ele>
        <time>2016-05-28T08:57:47.000Z</time>
      </trkpt>
      <trkpt lat="43.69811" lon="5.80634">
        <ele>470</ele>
        <time>2016-05-28T08:57:51.000Z</time>
      </trkpt>
      <trkpt lat="43.69799" lon="5.80629">
        <ele>470</ele>
        <time>2016-05-28T08:57:55.000Z</time>
      </trkpt>
      <trkpt lat="43.69787" lon="5.80629">
        <ele>470</ele>
        <time>2016-05-28T08:57:59.000Z</time>
      </trkpt>
      <trkpt lat="43.69787" lon="5.80629">
        <ele>470</ele>
        <time>2016-05-28T08:58:01.000Z</time>
      </trkpt>
      <trkpt lat="43.69787" lon="5.80629">
        <ele>470</ele>
        <time>2016-05-28T08:58:03.000Z</time>
      </trkpt>
      <trkpt lat="43.69787" lon="5.80629">
        <ele>470</ele>
        <time>2016-05-28T08:58:05.000Z</time>
      </trkpt>
      <trkpt lat="43.69746" lon="5.80613">
        <ele>471</ele>
        <time>2016-05-28T08:58:15.000Z</time>
      </trkpt>
      <trkpt lat="43.69736" lon="5.80607">
        <ele>472</ele>
        <time>2016-05-28T08:58:19.000Z</time>
      </trkpt>
      <trkpt lat="43.69726" lon="5.80601">
        <ele>474</ele>
        <time>2016-05-28T08:58:23.000Z</time>
      </trkpt>
      <trkpt lat="43.69726" lon="5.80601">
        <ele>474</ele>
        <time>2016-05-28T08:58:25.000Z</time>
      </trkpt>
      <trkpt lat="43.69726" lon="5.80601">
        <ele>474</ele>
        <time>2016-05-28T08:58:27.000Z</time>
      </trkpt>
      <trkpt lat="43.69726" lon="5.80601">
        <ele>474</ele>
        <time>2016-05-28T08:58:29.000Z</time>
      </trkpt>
      <trkpt lat="43.69726" lon="5.80601">
        <ele>474</ele>
        <time>2016-05-28T08:58:31.000Z</time>
      </trkpt>
      <trkpt lat="43.69695" lon="5.80584">
        <ele>473</ele>
        <time>2016-05-28T08:58:35.000Z</time>
      </trkpt>
      <trkpt lat="43.69679" lon="5.8058">
        <ele>473</ele>
        <time>2016-05-28T08:58:39.000Z</time>
      </trkpt>
      <trkpt lat="43.69665" lon="5.80574">
        <ele>475</ele>
        <time>2016-05-28T08:58:43.000Z</time>
      </trkpt>
      <trkpt lat="43.69651" lon="5.80568">
        <ele>474</ele>
        <time>2016-05-28T08:58:47.000Z</time>
      </trkpt>
      <trkpt lat="43.69637" lon="5.80562">
        <ele>477</ele>
        <time>2016-05-28T08:58:51.000Z</time>
      </trkpt>
      <trkpt lat="43.69629" lon="5.8056">
        <ele>477</ele>
        <time>2016-05-28T08:58:55.000Z</time>
      </trkpt>
      <trkpt lat="43.69621" lon="5.80558">
        <ele>477</ele>
        <time>2016-05-28T08:58:57.000Z</time>
      </trkpt>
      <trkpt lat="43.69613" lon="5.80559">
        <ele>476</ele>
        <time>2016-05-28T08:58:59.000Z</time>
      </trkpt>
      <trkpt lat="43.69613" lon="5.80559">
        <ele>476</ele>
        <time>2016-05-28T08:59:01.000Z</time>
      </trkpt>
      <trkpt lat="43.69613" lon="5.80559">
        <ele>476</ele>
        <time>2016-05-28T08:59:03.000Z</time>
      </trkpt>
      <trkpt lat="43.69613" lon="5.80559">
        <ele>476</ele>
        <time>2016-05-28T08:59:05.000Z</time>
      </trkpt>
      <trkpt lat="43.69613" lon="5.80559">
        <ele>476</ele>
        <time>2016-05-28T08:59:07.000Z</time>
      </trkpt>
      <trkpt lat="43.69613" lon="5.80559">
        <ele>476</ele>
        <time>2016-05-28T08:59:09.000Z</time>
      </trkpt>
      <trkpt lat="43.69594" lon="5.80584">
        <ele>472</ele>
        <time>2016-05-28T08:59:13.000Z</time>
      </trkpt>
      <trkpt lat="43.69581" lon="5.80601">
        <ele>473</ele>
        <time>2016-05-28T08:59:15.000Z</time>
      </trkpt>
      <trkpt lat="43.69572" lon="5.80614">
        <ele>472</ele>
        <time>2016-05-28T08:59:17.000Z</time>
      </trkpt>
      <trkpt lat="43.69564" lon="5.80625">
        <ele>473</ele>
        <time>2016-05-28T08:59:19.000Z</time>
      </trkpt>
      <trkpt lat="43.69559" lon="5.80635">
        <ele>472</ele>
        <time>2016-05-28T08:59:21.000Z</time>
      </trkpt>
      <trkpt lat="43.69559" lon="5.80635">
        <ele>472</ele>
        <time>2016-05-28T08:59:23.000Z</time>
      </trkpt>
      <trkpt lat="43.69559" lon="5.80635">
        <ele>472</ele>
        <time>2016-05-28T08:59:25.000Z</time>
      </trkpt>
      <trkpt lat="43.69559" lon="5.80635">
        <ele>472</ele>
        <time>2016-05-28T08:59:27.000Z</time>
      </trkpt>
      <trkpt lat="43.69559" lon="5.80635">
        <ele>472</ele>
        <time>2016-05-28T08:59:29.000Z</time>
      </trkpt>
      <trkpt lat="43.69559" lon="5.80635">
        <ele>472</ele>
        <time>2016-05-28T08:59:31.000Z</time>
      </trkpt>
      <trkpt lat="43.69559" lon="5.80635">
        <ele>472</ele>
        <time>2016-05-28T08:59:33.000Z</time>
      </trkpt>
      <trkpt lat="43.69559" lon="5.80635">
        <ele>472</ele>
        <time>2016-05-28T08:59:35.000Z</time>
      </trkpt>
      <trkpt lat="43.69559" lon="5.80635">
        <ele>472</ele>
        <time>2016-05-28T08:59:37.000Z</time>
      </trkpt>
      <trkpt lat="43.69559" lon="5.80635">
        <ele>472</ele>
        <time>2016-05-28T08:59:39.000Z</time>
      </trkpt>
      <trkpt lat="43.69559" lon="5.80635">
        <ele>472</ele>
        <time>2016-05-28T08:59:41.000Z</time>
      </trkpt>
      <trkpt lat="43.69559" lon="5.80635">
        <ele>472</ele>
        <time>2016-05-28T08:59:43.000Z</time>
      </trkpt>
      <trkpt lat="43.69559" lon="5.80635">
        <ele>472</ele>
        <time>2016-05-28T08:59:45.000Z</time>
      </trkpt>
      <trkpt lat="43.69542" lon="5.80747">
        <ele>478</ele>
        <time>2016-05-28T08:59:49.000Z</time>
      </trkpt>
      <trkpt lat="43.69542" lon="5.80747">
        <ele>478</ele>
        <time>2016-05-28T08:59:51.000Z</time>
      </trkpt>
      <trkpt lat="43.69542" lon="5.80747">
        <ele>478</ele>
        <time>2016-05-28T08:59:53.000Z</time>
      </trkpt>
      <trkpt lat="43.69542" lon="5.80747">
        <ele>478</ele>
        <time>2016-05-28T08:59:55.000Z</time>
      </trkpt>
      <trkpt lat="43.69542" lon="5.80747">
        <ele>478</ele>
        <time>2016-05-28T08:59:57.000Z</time>
      </trkpt>
      <trkpt lat="43.69542" lon="5.80747">
        <ele>478</ele>
        <time>2016-05-28T08:59:59.000Z</time>
      </trkpt>
      <trkpt lat="43.69542" lon="5.80747">
        <ele>478</ele>
        <time>2016-05-28T09:00:01.000Z</time>
      </trkpt>
      <trkpt lat="43.69542" lon="5.80747">
        <ele>478</ele>
        <time>2016-05-28T09:00:03.000Z</time>
      </trkpt>
      <trkpt lat="43.69542" lon="5.80747">
        <ele>478</ele>
        <time>2016-05-28T09:00:05.000Z</time>
      </trkpt>
      <trkpt lat="43.69542" lon="5.80747">
        <ele>478</ele>
        <time>2016-05-28T09:00:07.000Z</time>
      </trkpt>
      <trkpt lat="43.69542" lon="5.80747">
        <ele>478</ele>
        <time>2016-05-28T09:00:09.000Z</time>
      </trkpt>
      <trkpt lat="43.69542" lon="5.80747">
        <ele>478</ele>
        <time>2016-05-28T09:00:11.000Z</time>
      </trkpt>
      <trkpt lat="43.69542" lon="5.80747">
        <ele>478</ele>
        <time>2016-05-28T09:00:13.000Z</time>
      </trkpt>
      <trkpt lat="43.69542" lon="5.80747">
        <ele>478</ele>
        <time>2016-05-28T09:00:15.000Z</time>
      </trkpt>
      <trkpt lat="43.69542" lon="5.80747">
        <ele>478</ele>
        <time>2016-05-28T09:00:17.000Z</time>
      </trkpt>
      <trkpt lat="43.69542" lon="5.80747">
        <ele>478</ele>
        <time>2016-05-28T09:00:19.000Z</time>
      </trkpt>
      <trkpt lat="43.69542" lon="5.80747">
        <ele>478</ele>
        <time>2016-05-28T09:00:21.000Z</time>
      </trkpt>
      <trkpt lat="43.69542" lon="5.80747">
        <ele>478</ele>
        <time>2016-05-28T09:00:23.000Z</time>
      </trkpt>
      <trkpt lat="43.69542" lon="5.80747">
        <ele>478</ele>
        <time>2016-05-28T09:00:25.000Z</time>
      </trkpt>
      <trkpt lat="43.69517" lon="5.80785">
        <ele>485</ele>
        <time>2016-05-28T09:00:27.000Z</time>
      </trkpt>
      <trkpt lat="43.69502" lon="5.80803">
        <ele>486</ele>
        <time>2016-05-28T09:00:29.000Z</time>
      </trkpt>
      <trkpt lat="43.69492" lon="5.80811">
        <ele>487</ele>
        <time>2016-05-28T09:00:31.000Z</time>
      </trkpt>
      <trkpt lat="43.69485" lon="5.80813">
        <ele>485</ele>
        <time>2016-05-28T09:00:33.000Z</time>
      </trkpt>
      <trkpt lat="43.69477" lon="5.80812">
        <ele>483</ele>
        <time>2016-05-28T09:00:35.000Z</time>
      </trkpt>
      <trkpt lat="43.69462" lon="5.80806">
        <ele>482</ele>
        <time>2016-05-28T09:00:37.000Z</time>
      </trkpt>
      <trkpt lat="43.69443" lon="5.80794">
        <ele>477</ele>
        <time>2016-05-28T09:00:40.000Z</time>
      </trkpt>
      <trkpt lat="43.69432" lon="5.80786">
        <ele>476</ele>
        <time>2016-05-28T09:00:42.000Z</time>
      </trkpt>
      <trkpt lat="43.69421" lon="5.80778">
        <ele>475</ele>
        <time>2016-05-28T09:00:44.000Z</time>
      </trkpt>
      <trkpt lat="43.69412" lon="5.80769">
        <ele>476</ele>
        <time>2016-05-28T09:00:46.000Z</time>
      </trkpt>
      <trkpt lat="43.69403" lon="5.8076">
        <ele>477</ele>
        <time>2016-05-28T09:00:48.000Z</time>
      </trkpt>
      <trkpt lat="43.69393" lon="5.80755">
        <ele>478</ele>
        <time>2016-05-28T09:00:50.000Z</time>
      </trkpt>
      <trkpt lat="43.69393" lon="5.80755">
        <ele>478</ele>
        <time>2016-05-28T09:00:52.000Z</time>
      </trkpt>
      <trkpt lat="43.69393" lon="5.80755">
        <ele>478</ele>
        <time>2016-05-28T09:00:54.000Z</time>
      </trkpt>
      <trkpt lat="43.69393" lon="5.80755">
        <ele>478</ele>
        <time>2016-05-28T09:00:56.000Z</time>
      </trkpt>
      <trkpt lat="43.69393" lon="5.80755">
        <ele>478</ele>
        <time>2016-05-28T09:00:58.000Z</time>
      </trkpt>
      <trkpt lat="43.69393" lon="5.80755">
        <ele>478</ele>
        <time>2016-05-28T09:01:00.000Z</time>
      </trkpt>
      <trkpt lat="43.69393" lon="5.80755">
        <ele>478</ele>
        <time>2016-05-28T09:01:02.000Z</time>
      </trkpt>
      <trkpt lat="43.69393" lon="5.80755">
        <ele>478</ele>
        <time>2016-05-28T09:01:04.000Z</time>
      </trkpt>
      <trkpt lat="43.69393" lon="5.80755">
        <ele>478</ele>
        <time>2016-05-28T09:01:06.000Z</time>
      </trkpt>
      <trkpt lat="43.69393" lon="5.80755">
        <ele>478</ele>
        <time>2016-05-28T09:01:08.000Z</time>
      </trkpt>
      <trkpt lat="43.69393" lon="5.80755">
        <ele>478</ele>
        <time>2016-05-28T09:01:10.000Z</time>
      </trkpt>
      <trkpt lat="43.69393" lon="5.80755">
        <ele>478</ele>
        <time>2016-05-28T09:01:12.000Z</time>
      </trkpt>
      <trkpt lat="43.69393" lon="5.80755">
        <ele>478</ele>
        <time>2016-05-28T09:01:16.000Z</time>
      </trkpt>
      <trkpt lat="43.69393" lon="5.80755">
        <ele>478</ele>
        <time>2016-05-28T09:01:18.000Z</time>
      </trkpt>
      <trkpt lat="43.69393" lon="5.80755">
        <ele>478</ele>
        <time>2016-05-28T09:01:20.000Z</time>
      </trkpt>
      <trkpt lat="43.69393" lon="5.80755">
        <ele>478</ele>
        <time>2016-05-28T09:01:22.000Z</time>
      </trkpt>
      <trkpt lat="43.69393" lon="5.80755">
        <ele>478</ele>
        <time>2016-05-28T09:01:24.000Z</time>
      </trkpt>
      <trkpt lat="43.69393" lon="5.80755">
        <ele>478</ele>
        <time>2016-05-28T09:01:26.000Z</time>
      </trkpt>
      <trkpt lat="43.69393" lon="5.80755">
        <ele>478</ele>
        <time>2016-05-28T09:01:34.000Z</time>
      </trkpt>
      <trkpt lat="43.69393" lon="5.80755">
        <ele>478</ele>
        <time>2016-05-28T09:01:36.000Z</time>
      </trkpt>
      <trkpt lat="43.69251" lon="5.80756">
        <ele>482</ele>
        <time>2016-05-28T09:01:46.000Z</time>
      </trkpt>
      <trkpt lat="43.69241" lon="5.80755">
        <ele>482</ele>
        <time>2016-05-28T09:01:50.000Z</time>
      </trkpt>
      <trkpt lat="43.69231" lon="5.80758">
        <ele>482</ele>
        <time>2016-05-28T09:01:54.000Z</time>
      </trkpt>
      <trkpt lat="43.69217" lon="5.80766">
        <ele>479</ele>
        <time>2016-05-28T09:01:58.000Z</time>
      </trkpt>
      <trkpt lat="43.69202" lon="5.80776">
        <ele>478</ele>
        <time>2016-05-28T09:02:02.000Z</time>
      </trkpt>
      <trkpt lat="43.69189" lon="5.80786">
        <ele>477</ele>
        <time>2016-05-28T09:02:06.000Z</time>
      </trkpt>
      <trkpt lat="43.69175" lon="5.80798">
        <ele>476</ele>
        <time>2016-05-28T09:02:10.000Z</time>
      </trkpt>
      <trkpt lat="43.6916" lon="5.80808">
        <ele>475</ele>
        <time>2016-05-28T09:02:14.000Z</time>
      </trkpt>
      <trkpt lat="43.69152" lon="5.80815">
        <ele>475</ele>
        <time>2016-05-28T09:02:16.000Z</time>
      </trkpt>
      <trkpt lat="43.69144" lon="5.80821">
        <ele>475</ele>
        <time>2016-05-28T09:02:18.000Z</time>
      </trkpt>
      <trkpt lat="43.69135" lon="5.80828">
        <ele>475</ele>
        <time>2016-05-28T09:02:20.000Z</time>
      </trkpt>
      <trkpt lat="43.69126" lon="5.80834">
        <ele>474</ele>
        <time>2016-05-28T09:02:22.000Z</time>
      </trkpt>
      <trkpt lat="43.69118" lon="5.8084">
        <ele>474</ele>
        <time>2016-05-28T09:02:24.000Z</time>
      </trkpt>
      <trkpt lat="43.69118" lon="5.8084">
        <ele>474</ele>
        <time>2016-05-28T09:02:26.000Z</time>
      </trkpt>
      <trkpt lat="43.69118" lon="5.8084">
        <ele>474</ele>
        <time>2016-05-28T09:02:28.000Z</time>
      </trkpt>
      <trkpt lat="43.69118" lon="5.8084">
        <ele>474</ele>
        <time>2016-05-28T09:02:30.000Z</time>
      </trkpt>
      <trkpt lat="43.69118" lon="5.8084">
        <ele>474</ele>
        <time>2016-05-28T09:02:32.000Z</time>
      </trkpt>
      <trkpt lat="43.69118" lon="5.8084">
        <ele>474</ele>
        <time>2016-05-28T09:02:34.000Z</time>
      </trkpt>
      <trkpt lat="43.69118" lon="5.8084">
        <ele>474</ele>
        <time>2016-05-28T09:02:36.000Z</time>
      </trkpt>
      <trkpt lat="43.69118" lon="5.8084">
        <ele>474</ele>
        <time>2016-05-28T09:02:38.000Z</time>
      </trkpt>
      <trkpt lat="43.69118" lon="5.8084">
        <ele>474</ele>
        <time>2016-05-28T09:02:40.000Z</time>
      </trkpt>
      <trkpt lat="43.69118" lon="5.8084">
        <ele>474</ele>
        <time>2016-05-28T09:02:42.000Z</time>
      </trkpt>
      <trkpt lat="43.69043" lon="5.80895">
        <ele>476</ele>
        <time>2016-05-28T09:02:46.000Z</time>
      </trkpt>
      <trkpt lat="43.69036" lon="5.80902">
        <ele>476</ele>
        <time>2016-05-28T09:02:48.000Z</time>
      </trkpt>
      <trkpt lat="43.69025" lon="5.80918">
        <ele>477</ele>
        <time>2016-05-28T09:02:52.000Z</time>
      </trkpt>
      <trkpt lat="43.69025" lon="5.80918">
        <ele>477</ele>
        <time>2016-05-28T09:02:54.000Z</time>
      </trkpt>
      <trkpt lat="43.69025" lon="5.80918">
        <ele>477</ele>
        <time>2016-05-28T09:02:56.000Z</time>
      </trkpt>
      <trkpt lat="43.69025" lon="5.80918">
        <ele>477</ele>
        <time>2016-05-28T09:02:58.000Z</time>
      </trkpt>
      <trkpt lat="43.69025" lon="5.80918">
        <ele>477</ele>
        <time>2016-05-28T09:03:00.000Z</time>
      </trkpt>
      <trkpt lat="43.69025" lon="5.80918">
        <ele>477</ele>
        <time>2016-05-28T09:03:02.000Z</time>
      </trkpt>
      <trkpt lat="43.69025" lon="5.80918">
        <ele>477</ele>
        <time>2016-05-28T09:03:04.000Z</time>
      </trkpt>
      <trkpt lat="43.68989" lon="5.80976">
        <ele>477</ele>
        <time>2016-05-28T09:03:06.000Z</time>
      </trkpt>
      <trkpt lat="43.68985" lon="5.80991">
        <ele>477</ele>
        <time>2016-05-28T09:03:08.000Z</time>
      </trkpt>
      <trkpt lat="43.68981" lon="5.81006">
        <ele>476</ele>
        <time>2016-05-28T09:03:10.000Z</time>
      </trkpt>
      <trkpt lat="43.68977" lon="5.81019">
        <ele>475</ele>
        <time>2016-05-28T09:03:12.000Z</time>
      </trkpt>
      <trkpt lat="43.68974" lon="5.81032">
        <ele>475</ele>
        <time>2016-05-28T09:03:14.000Z</time>
      </trkpt>
      <trkpt lat="43.68972" lon="5.81045">
        <ele>475</ele>
        <time>2016-05-28T09:03:16.000Z</time>
      </trkpt>
      <trkpt lat="43.68969" lon="5.81057">
        <ele>475</ele>
        <time>2016-05-28T09:03:18.000Z</time>
      </trkpt>
      <trkpt lat="43.68969" lon="5.81057">
        <ele>475</ele>
        <time>2016-05-28T09:03:20.000Z</time>
      </trkpt>
      <trkpt lat="43.68969" lon="5.81057">
        <ele>475</ele>
        <time>2016-05-28T09:03:22.000Z</time>
      </trkpt>
      <trkpt lat="43.68969" lon="5.81057">
        <ele>475</ele>
        <time>2016-05-28T09:03:24.000Z</time>
      </trkpt>
      <trkpt lat="43.68969" lon="5.81057">
        <ele>475</ele>
        <time>2016-05-28T09:03:26.000Z</time>
      </trkpt>
      <trkpt lat="43.68969" lon="5.81057">
        <ele>475</ele>
        <time>2016-05-28T09:03:28.000Z</time>
      </trkpt>
      <trkpt lat="43.68969" lon="5.81057">
        <ele>475</ele>
        <time>2016-05-28T09:03:30.000Z</time>
      </trkpt>
      <trkpt lat="43.68969" lon="5.81057">
        <ele>475</ele>
        <time>2016-05-28T09:03:32.000Z</time>
      </trkpt>
      <trkpt lat="43.68969" lon="5.81057">
        <ele>475</ele>
        <time>2016-05-28T09:03:34.000Z</time>
      </trkpt>
      <trkpt lat="43.68969" lon="5.81057">
        <ele>475</ele>
        <time>2016-05-28T09:03:36.000Z</time>
      </trkpt>
      <trkpt lat="43.68955" lon="5.81117">
        <ele>479</ele>
        <time>2016-05-28T09:03:42.000Z</time>
      </trkpt>
      <trkpt lat="43.68946" lon="5.81152">
        <ele>479</ele>
        <time>2016-05-28T09:03:44.000Z</time>
      </trkpt>
      <trkpt lat="43.6894" lon="5.81175">
        <ele>478</ele>
        <time>2016-05-28T09:03:46.000Z</time>
      </trkpt>
      <trkpt lat="43.68935" lon="5.81193">
        <ele>478</ele>
        <time>2016-05-28T09:03:48.000Z</time>
      </trkpt>
      <trkpt lat="43.68932" lon="5.81209">
        <ele>478</ele>
        <time>2016-05-28T09:03:50.000Z</time>
      </trkpt>
      <trkpt lat="43.68925" lon="5.81236">
        <ele>478</ele>
        <time>2016-05-28T09:03:52.000Z</time>
      </trkpt>
      <trkpt lat="43.68922" lon="5.81249">
        <ele>478</ele>
        <time>2016-05-28T09:03:54.000Z</time>
      </trkpt>
      <trkpt lat="43.6892" lon="5.81263">
        <ele>477</ele>
        <time>2016-05-28T09:03:56.000Z</time>
      </trkpt>
      <trkpt lat="43.68921" lon="5.81279">
        <ele>475</ele>
        <time>2016-05-28T09:03:58.000Z</time>
      </trkpt>
      <trkpt lat="43.68919" lon="5.81294">
        <ele>474</ele>
        <time>2016-05-28T09:04:00.000Z</time>
      </trkpt>
      <trkpt lat="43.68917" lon="5.81307">
        <ele>475</ele>
        <time>2016-05-28T09:04:02.000Z</time>
      </trkpt>
      <trkpt lat="43.68917" lon="5.81321">
        <ele>474</ele>
        <time>2016-05-28T09:04:04.000Z</time>
      </trkpt>
      <trkpt lat="43.68917" lon="5.81334">
        <ele>475</ele>
        <time>2016-05-28T09:04:06.000Z</time>
      </trkpt>
      <trkpt lat="43.68917" lon="5.81334">
        <ele>475</ele>
        <time>2016-05-28T09:04:08.000Z</time>
      </trkpt>
      <trkpt lat="43.68917" lon="5.81334">
        <ele>475</ele>
        <time>2016-05-28T09:04:10.000Z</time>
      </trkpt>
      <trkpt lat="43.68917" lon="5.81334">
        <ele>475</ele>
        <time>2016-05-28T09:04:12.000Z</time>
      </trkpt>
      <trkpt lat="43.68917" lon="5.81334">
        <ele>475</ele>
        <time>2016-05-28T09:04:14.000Z</time>
      </trkpt>
      <trkpt lat="43.68917" lon="5.81334">
        <ele>475</ele>
        <time>2016-05-28T09:04:16.000Z</time>
      </trkpt>
      <trkpt lat="43.68917" lon="5.81334">
        <ele>475</ele>
        <time>2016-05-28T09:04:18.000Z</time>
      </trkpt>
      <trkpt lat="43.68917" lon="5.81334">
        <ele>475</ele>
        <time>2016-05-28T09:04:20.000Z</time>
      </trkpt>
      <trkpt lat="43.68917" lon="5.81334">
        <ele>475</ele>
        <time>2016-05-28T09:04:22.000Z</time>
      </trkpt>
      <trkpt lat="43.68917" lon="5.81334">
        <ele>475</ele>
        <time>2016-05-28T09:04:24.000Z</time>
      </trkpt>
      <trkpt lat="43.68917" lon="5.81334">
        <ele>475</ele>
        <time>2016-05-28T09:04:26.000Z</time>
      </trkpt>
      <trkpt lat="43.68917" lon="5.81334">
        <ele>475</ele>
        <time>2016-05-28T09:04:28.000Z</time>
      </trkpt>
      <trkpt lat="43.68917" lon="5.81334">
        <ele>475</ele>
        <time>2016-05-28T09:04:30.000Z</time>
      </trkpt>
      <trkpt lat="43.68917" lon="5.81334">
        <ele>475</ele>
        <time>2016-05-28T09:04:32.000Z</time>
      </trkpt>
      <trkpt lat="43.68917" lon="5.81334">
        <ele>475</ele>
        <time>2016-05-28T09:04:34.000Z</time>
      </trkpt>
      <trkpt lat="43.68917" lon="5.81334">
        <ele>475</ele>
        <time>2016-05-28T09:04:36.000Z</time>
      </trkpt>
      <trkpt lat="43.68917" lon="5.81334">
        <ele>475</ele>
        <time>2016-05-28T09:04:38.000Z</time>
      </trkpt>
      <trkpt lat="43.68917" lon="5.81334">
        <ele>475</ele>
        <time>2016-05-28T09:04:40.000Z</time>
      </trkpt>
      <trkpt lat="43.68917" lon="5.81334">
        <ele>475</ele>
        <time>2016-05-28T09:04:42.000Z</time>
      </trkpt>
      <trkpt lat="43.68917" lon="5.81334">
        <ele>475</ele>
        <time>2016-05-28T09:04:44.000Z</time>
      </trkpt>
      <trkpt lat="43.68917" lon="5.81334">
        <ele>475</ele>
        <time>2016-05-28T09:04:46.000Z</time>
      </trkpt>
      <trkpt lat="43.68917" lon="5.81334">
        <ele>475</ele>
        <time>2016-05-28T09:04:48.000Z</time>
      </trkpt>
      <trkpt lat="43.68917" lon="5.81334">
        <ele>475</ele>
        <time>2016-05-28T09:04:50.000Z</time>
      </trkpt>
      <trkpt lat="43.68917" lon="5.81334">
        <ele>475</ele>
        <time>2016-05-28T09:04:52.000Z</time>
      </trkpt>
      <trkpt lat="43.68917" lon="5.81334">
        <ele>475</ele>
        <time>2016-05-28T09:04:54.000Z</time>
      </trkpt>
      <trkpt lat="43.68917" lon="5.81334">
        <ele>475</ele>
        <time>2016-05-28T09:04:56.000Z</time>
      </trkpt>
      <trkpt lat="43.68917" lon="5.81334">
        <ele>475</ele>
        <time>2016-05-28T09:04:58.000Z</time>
      </trkpt>
      <trkpt lat="43.68917" lon="5.81334">
        <ele>475</ele>
        <time>2016-05-28T09:05:00.000Z</time>
      </trkpt>
      <trkpt lat="43.68917" lon="5.81334">
        <ele>475</ele>
        <time>2016-05-28T09:05:02.000Z</time>
      </trkpt>
      <trkpt lat="43.68917" lon="5.81334">
        <ele>475</ele>
        <time>2016-05-28T09:05:04.000Z</time>
      </trkpt>
      <trkpt lat="43.68917" lon="5.81334">
        <ele>475</ele>
        <time>2016-05-28T09:05:06.000Z</time>
      </trkpt>
      <trkpt lat="43.68917" lon="5.81334">
        <ele>475</ele>
        <time>2016-05-28T09:05:08.000Z</time>
      </trkpt>
      <trkpt lat="43.68917" lon="5.81334">
        <ele>475</ele>
        <time>2016-05-28T09:05:10.000Z</time>
      </trkpt>
      <trkpt lat="43.68917" lon="5.81334">
        <ele>475</ele>
        <time>2016-05-28T09:05:12.000Z</time>
      </trkpt>
      <trkpt lat="43.68917" lon="5.81334">
        <ele>475</ele>
        <time>2016-05-28T09:05:14.000Z</time>
      </trkpt>
      <trkpt lat="43.68917" lon="5.81334">
        <ele>475</ele>
        <time>2016-05-28T09:05:16.000Z</time>
      </trkpt>
      <trkpt lat="43.68917" lon="5.81334">
        <ele>475</ele>
        <time>2016-05-28T09:05:18.000Z</time>
      </trkpt>
      <trkpt lat="43.68917" lon="5.81334">
        <ele>475</ele>
        <time>2016-05-28T09:05:20.000Z</time>
      </trkpt>
      <trkpt lat="43.68917" lon="5.81334">
        <ele>475</ele>
        <time>2016-05-28T09:05:22.000Z</time>
      </trkpt>
      <trkpt lat="43.68917" lon="5.81334">
        <ele>475</ele>
        <time>2016-05-28T09:05:24.000Z</time>
      </trkpt>
      <trkpt lat="43.68917" lon="5.81334">
        <ele>475</ele>
        <time>2016-05-28T09:05:26.000Z</time>
      </trkpt>
      <trkpt lat="43.68917" lon="5.81334">
        <ele>475</ele>
        <time>2016-05-28T09:05:28.000Z</time>
      </trkpt>
      <trkpt lat="43.68917" lon="5.81334">
        <ele>475</ele>
        <time>2016-05-28T09:05:30.000Z</time>
      </trkpt>
      <trkpt lat="43.68917" lon="5.81334">
        <ele>475</ele>
        <time>2016-05-28T09:05:32.000Z</time>
      </trkpt>
      <trkpt lat="43.68917" lon="5.81334">
        <ele>475</ele>
        <time>2016-05-28T09:05:34.000Z</time>
      </trkpt>
      <trkpt lat="43.6884" lon="5.81519">
        <ele>481</ele>
        <time>2016-05-28T09:05:38.000Z</time>
      </trkpt>
      <trkpt lat="43.68802" lon="5.81616">
        <ele>480</ele>
        <time>2016-05-28T09:05:40.000Z</time>
      </trkpt>
      <trkpt lat="43.68782" lon="5.81669">
        <ele>480</ele>
        <time>2016-05-28T09:05:42.000Z</time>
      </trkpt>
      <trkpt lat="43.68772" lon="5.81701">
        <ele>480</ele>
        <time>2016-05-28T09:05:44.000Z</time>
      </trkpt>
      <trkpt lat="43.68766" lon="5.81721">
        <ele>480</ele>
        <time>2016-05-28T09:05:46.000Z</time>
      </trkpt>
      <trkpt lat="43.6876" lon="5.81752">
        <ele>480</ele>
        <time>2016-05-28T09:05:48.000Z</time>
      </trkpt>
      <trkpt lat="43.68758" lon="5.81775">
        <ele>479</ele>
        <time>2016-05-28T09:05:52.000Z</time>
      </trkpt>
      <trkpt lat="43.68755" lon="5.81795">
        <ele>480</ele>
        <time>2016-05-28T09:05:56.000Z</time>
      </trkpt>
      <trkpt lat="43.68753" lon="5.81816">
        <ele>482</ele>
        <time>2016-05-28T09:06:00.000Z</time>
      </trkpt>
      <trkpt lat="43.68753" lon="5.81837">
        <ele>483</ele>
        <time>2016-05-28T09:06:04.000Z</time>
      </trkpt>
      <trkpt lat="43.68753" lon="5.81837">
        <ele>483</ele>
        <time>2016-05-28T09:06:06.000Z</time>
      </trkpt>
      <trkpt lat="43.68753" lon="5.81837">
        <ele>483</ele>
        <time>2016-05-28T09:06:08.000Z</time>
      </trkpt>
      <trkpt lat="43.68753" lon="5.81837">
        <ele>483</ele>
        <time>2016-05-28T09:06:10.000Z</time>
      </trkpt>
      <trkpt lat="43.68753" lon="5.81837">
        <ele>483</ele>
        <time>2016-05-28T09:06:12.000Z</time>
      </trkpt>
      <trkpt lat="43.68753" lon="5.81837">
        <ele>483</ele>
        <time>2016-05-28T09:06:14.000Z</time>
      </trkpt>
      <trkpt lat="43.68753" lon="5.81837">
        <ele>483</ele>
        <time>2016-05-28T09:06:16.000Z</time>
      </trkpt>
      <trkpt lat="43.68753" lon="5.81837">
        <ele>483</ele>
        <time>2016-05-28T09:06:18.000Z</time>
      </trkpt>
      <trkpt lat="43.68753" lon="5.81837">
        <ele>483</ele>
        <time>2016-05-28T09:06:20.000Z</time>
      </trkpt>
      <trkpt lat="43.68753" lon="5.81837">
        <ele>483</ele>
        <time>2016-05-28T09:06:22.000Z</time>
      </trkpt>
      <trkpt lat="43.68753" lon="5.81837">
        <ele>483</ele>
        <time>2016-05-28T09:06:24.000Z</time>
      </trkpt>
      <trkpt lat="43.68753" lon="5.81837">
        <ele>483</ele>
        <time>2016-05-28T09:06:26.000Z</time>
      </trkpt>
      <trkpt lat="43.68753" lon="5.81837">
        <ele>483</ele>
        <time>2016-05-28T09:06:28.000Z</time>
      </trkpt>
      <trkpt lat="43.68753" lon="5.81837">
        <ele>483</ele>
        <time>2016-05-28T09:06:30.000Z</time>
      </trkpt>
      <trkpt lat="43.68753" lon="5.81837">
        <ele>483</ele>
        <time>2016-05-28T09:06:32.000Z</time>
      </trkpt>
      <trkpt lat="43.68753" lon="5.81837">
        <ele>483</ele>
        <time>2016-05-28T09:06:34.000Z</time>
      </trkpt>
      <trkpt lat="43.68753" lon="5.81837">
        <ele>483</ele>
        <time>2016-05-28T09:06:36.000Z</time>
      </trkpt>
      <trkpt lat="43.68753" lon="5.81837">
        <ele>483</ele>
        <time>2016-05-28T09:06:38.000Z</time>
      </trkpt>
      <trkpt lat="43.68753" lon="5.81837">
        <ele>483</ele>
        <time>2016-05-28T09:06:40.000Z</time>
      </trkpt>
      <trkpt lat="43.68753" lon="5.81837">
        <ele>483</ele>
        <time>2016-05-28T09:06:42.000Z</time>
      </trkpt>
      <trkpt lat="43.68753" lon="5.81837">
        <ele>483</ele>
        <time>2016-05-28T09:06:44.000Z</time>
      </trkpt>
      <trkpt lat="43.68753" lon="5.81837">
        <ele>483</ele>
        <time>2016-05-28T09:06:46.000Z</time>
      </trkpt>
      <trkpt lat="43.68753" lon="5.81837">
        <ele>483</ele>
        <time>2016-05-28T09:06:48.000Z</time>
      </trkpt>
      <trkpt lat="43.68753" lon="5.81837">
        <ele>483</ele>
        <time>2016-05-28T09:06:50.000Z</time>
      </trkpt>
      <trkpt lat="43.68753" lon="5.81837">
        <ele>483</ele>
        <time>2016-05-28T09:06:52.000Z</time>
      </trkpt>
      <trkpt lat="43.68753" lon="5.81837">
        <ele>483</ele>
        <time>2016-05-28T09:06:54.000Z</time>
      </trkpt>
      <trkpt lat="43.68753" lon="5.81837">
        <ele>483</ele>
        <time>2016-05-28T09:06:56.000Z</time>
      </trkpt>
      <trkpt lat="43.68753" lon="5.81837">
        <ele>483</ele>
        <time>2016-05-28T09:06:58.000Z</time>
      </trkpt>
      <trkpt lat="43.68753" lon="5.81837">
        <ele>483</ele>
        <time>2016-05-28T09:07:00.000Z</time>
      </trkpt>
      <trkpt lat="43.68753" lon="5.81837">
        <ele>483</ele>
        <time>2016-05-28T09:07:02.000Z</time>
      </trkpt>
      <trkpt lat="43.68753" lon="5.81837">
        <ele>483</ele>
        <time>2016-05-28T09:07:04.000Z</time>
      </trkpt>
      <trkpt lat="43.68753" lon="5.81837">
        <ele>483</ele>
        <time>2016-05-28T09:07:06.000Z</time>
      </trkpt>
      <trkpt lat="43.68753" lon="5.81837">
        <ele>483</ele>
        <time>2016-05-28T09:07:08.000Z</time>
      </trkpt>
      <trkpt lat="43.68734" lon="5.81977">
        <ele>488</ele>
        <time>2016-05-28T09:07:14.000Z</time>
      </trkpt>
      <trkpt lat="43.68725" lon="5.82051">
        <ele>488</ele>
        <time>2016-05-28T09:07:16.000Z</time>
      </trkpt>
      <trkpt lat="43.68719" lon="5.82091">
        <ele>490</ele>
        <time>2016-05-28T09:07:18.000Z</time>
      </trkpt>
      <trkpt lat="43.68715" lon="5.82115">
        <ele>491</ele>
        <time>2016-05-28T09:07:20.000Z</time>
      </trkpt>
      <trkpt lat="43.6871" lon="5.82129">
        <ele>492</ele>
        <time>2016-05-28T09:07:22.000Z</time>
      </trkpt>
      <trkpt lat="43.68704" lon="5.8215">
        <ele>491</ele>
        <time>2016-05-28T09:07:24.000Z</time>
      </trkpt>
      <trkpt lat="43.68699" lon="5.82163">
        <ele>492</ele>
        <time>2016-05-28T09:07:28.000Z</time>
      </trkpt>
      <trkpt lat="43.6869" lon="5.82174">
        <ele>491</ele>
        <time>2016-05-28T09:07:32.000Z</time>
      </trkpt>
      <trkpt lat="43.68682" lon="5.82187">
        <ele>492</ele>
        <time>2016-05-28T09:07:36.000Z</time>
      </trkpt>
      <trkpt lat="43.68674" lon="5.82202">
        <ele>492</ele>
        <time>2016-05-28T09:07:40.000Z</time>
      </trkpt>
      <trkpt lat="43.68666" lon="5.82219">
        <ele>492</ele>
        <time>2016-05-28T09:07:44.000Z</time>
      </trkpt>
      <trkpt lat="43.6866" lon="5.82235">
        <ele>491</ele>
        <time>2016-05-28T09:07:48.000Z</time>
      </trkpt>
      <trkpt lat="43.68656" lon="5.82254">
        <ele>491</ele>
        <time>2016-05-28T09:07:52.000Z</time>
      </trkpt>
      <trkpt lat="43.68648" lon="5.8227">
        <ele>490</ele>
        <time>2016-05-28T09:07:56.000Z</time>
      </trkpt>
      <trkpt lat="43.68637" lon="5.82285">
        <ele>491</ele>
        <time>2016-05-28T09:08:00.000Z</time>
      </trkpt>
      <trkpt lat="43.68628" lon="5.82301">
        <ele>491</ele>
        <time>2016-05-28T09:08:04.000Z</time>
      </trkpt>
      <trkpt lat="43.68616" lon="5.82316">
        <ele>491</ele>
        <time>2016-05-28T09:08:08.000Z</time>
      </trkpt>
      <trkpt lat="43.68604" lon="5.82327">
        <ele>492</ele>
        <time>2016-05-28T09:08:12.000Z</time>
      </trkpt>
      <trkpt lat="43.68592" lon="5.82338">
        <ele>492</ele>
        <time>2016-05-28T09:08:16.000Z</time>
      </trkpt>
      <trkpt lat="43.6858" lon="5.8235">
        <ele>492</ele>
        <time>2016-05-28T09:08:20.000Z</time>
      </trkpt>
      <trkpt lat="43.68568" lon="5.82364">
        <ele>492</ele>
        <time>2016-05-28T09:08:24.000Z</time>
      </trkpt>
      <trkpt lat="43.68554" lon="5.82372">
        <ele>492</ele>
        <time>2016-05-28T09:08:28.000Z</time>
      </trkpt>
      <trkpt lat="43.68538" lon="5.82378">
        <ele>492</ele>
        <time>2016-05-28T09:08:32.000Z</time>
      </trkpt>
      <trkpt lat="43.68522" lon="5.82387">
        <ele>491</ele>
        <time>2016-05-28T09:08:36.000Z</time>
      </trkpt>
      <trkpt lat="43.68515" lon="5.82394">
        <ele>491</ele>
        <time>2016-05-28T09:08:38.000Z</time>
      </trkpt>
      <trkpt lat="43.68508" lon="5.82402">
        <ele>491</ele>
        <time>2016-05-28T09:08:40.000Z</time>
      </trkpt>
      <trkpt lat="43.68501" lon="5.82411">
        <ele>490</ele>
        <time>2016-05-28T09:08:42.000Z</time>
      </trkpt>
      <trkpt lat="43.68488" lon="5.82427">
        <ele>490</ele>
        <time>2016-05-28T09:08:46.000Z</time>
      </trkpt>
      <trkpt lat="43.68481" lon="5.82436">
        <ele>490</ele>
        <time>2016-05-28T09:08:48.000Z</time>
      </trkpt>
      <trkpt lat="43.68475" lon="5.82446">
        <ele>490</ele>
        <time>2016-05-28T09:08:50.000Z</time>
      </trkpt>
      <trkpt lat="43.6847" lon="5.82455">
        <ele>490</ele>
        <time>2016-05-28T09:08:52.000Z</time>
      </trkpt>
      <trkpt lat="43.6847" lon="5.82455">
        <ele>490</ele>
        <time>2016-05-28T09:08:54.000Z</time>
      </trkpt>
      <trkpt lat="43.6847" lon="5.82455">
        <ele>490</ele>
        <time>2016-05-28T09:08:56.000Z</time>
      </trkpt>
      <trkpt lat="43.6847" lon="5.82455">
        <ele>490</ele>
        <time>2016-05-28T09:08:58.000Z</time>
      </trkpt>
      <trkpt lat="43.6847" lon="5.82455">
        <ele>490</ele>
        <time>2016-05-28T09:09:00.000Z</time>
      </trkpt>
      <trkpt lat="43.6847" lon="5.82455">
        <ele>490</ele>
        <time>2016-05-28T09:09:02.000Z</time>
      </trkpt>
      <trkpt lat="43.68418" lon="5.82499">
        <ele>489</ele>
        <time>2016-05-28T09:09:06.000Z</time>
      </trkpt>
      <trkpt lat="43.6841" lon="5.82505">
        <ele>490</ele>
        <time>2016-05-28T09:09:08.000Z</time>
      </trkpt>
      <trkpt lat="43.68403" lon="5.82514">
        <ele>489</ele>
        <time>2016-05-28T09:09:10.000Z</time>
      </trkpt>
      <trkpt lat="43.68396" lon="5.82522">
        <ele>490</ele>
        <time>2016-05-28T09:09:12.000Z</time>
      </trkpt>
      <trkpt lat="43.68389" lon="5.82531">
        <ele>490</ele>
        <time>2016-05-28T09:09:14.000Z</time>
      </trkpt>
      <trkpt lat="43.68383" lon="5.8254">
        <ele>489</ele>
        <time>2016-05-28T09:09:16.000Z</time>
      </trkpt>
      <trkpt lat="43.68377" lon="5.8255">
        <ele>489</ele>
        <time>2016-05-28T09:09:18.000Z</time>
      </trkpt>
      <trkpt lat="43.6837" lon="5.82559">
        <ele>488</ele>
        <time>2016-05-28T09:09:20.000Z</time>
      </trkpt>
      <trkpt lat="43.68362" lon="5.82567">
        <ele>488</ele>
        <time>2016-05-28T09:09:22.000Z</time>
      </trkpt>
      <trkpt lat="43.68354" lon="5.82572">
        <ele>488</ele>
        <time>2016-05-28T09:09:24.000Z</time>
      </trkpt>
      <trkpt lat="43.68354" lon="5.82572">
        <ele>488</ele>
        <time>2016-05-28T09:09:26.000Z</time>
      </trkpt>
      <trkpt lat="43.68354" lon="5.82572">
        <ele>488</ele>
        <time>2016-05-28T09:09:28.000Z</time>
      </trkpt>
      <trkpt lat="43.68354" lon="5.82572">
        <ele>488</ele>
        <time>2016-05-28T09:09:30.000Z</time>
      </trkpt>
      <trkpt lat="43.68354" lon="5.82572">
        <ele>488</ele>
        <time>2016-05-28T09:09:32.000Z</time>
      </trkpt>
      <trkpt lat="43.68354" lon="5.82572">
        <ele>488</ele>
        <time>2016-05-28T09:09:34.000Z</time>
      </trkpt>
      <trkpt lat="43.68331" lon="5.82593">
        <ele>488</ele>
        <time>2016-05-28T09:09:40.000Z</time>
      </trkpt>
      <trkpt lat="43.68316" lon="5.82607">
        <ele>488</ele>
        <time>2016-05-28T09:09:42.000Z</time>
      </trkpt>
      <trkpt lat="43.68306" lon="5.82617">
        <ele>488</ele>
        <time>2016-05-28T09:09:44.000Z</time>
      </trkpt>
      <trkpt lat="43.68299" lon="5.82626">
        <ele>488</ele>
        <time>2016-05-28T09:09:46.000Z</time>
      </trkpt>
      <trkpt lat="43.68292" lon="5.82633">
        <ele>488</ele>
        <time>2016-05-28T09:09:48.000Z</time>
      </trkpt>
      <trkpt lat="43.6828" lon="5.82648">
        <ele>488</ele>
        <time>2016-05-28T09:09:50.000Z</time>
      </trkpt>
      <trkpt lat="43.68274" lon="5.82657">
        <ele>488</ele>
        <time>2016-05-28T09:09:52.000Z</time>
      </trkpt>
      <trkpt lat="43.68263" lon="5.82675">
        <ele>487</ele>
        <time>2016-05-28T09:09:56.000Z</time>
      </trkpt>
      <trkpt lat="43.6825" lon="5.82689">
        <ele>488</ele>
        <time>2016-05-28T09:10:00.000Z</time>
      </trkpt>
      <trkpt lat="43.68239" lon="5.82706">
        <ele>488</ele>
        <time>2016-05-28T09:10:04.000Z</time>
      </trkpt>
      <trkpt lat="43.68229" lon="5.82724">
        <ele>488</ele>
        <time>2016-05-28T09:10:08.000Z</time>
      </trkpt>
      <trkpt lat="43.68217" lon="5.8274">
        <ele>488</ele>
        <time>2016-05-28T09:10:12.000Z</time>
      </trkpt>
      <trkpt lat="43.68205" lon="5.82756">
        <ele>488</ele>
        <time>2016-05-28T09:10:16.000Z</time>
      </trkpt>
      <trkpt lat="43.68195" lon="5.82774">
        <ele>488</ele>
        <time>2016-05-28T09:10:20.000Z</time>
      </trkpt>
      <trkpt lat="43.68186" lon="5.82794">
        <ele>488</ele>
        <time>2016-05-28T09:10:24.000Z</time>
      </trkpt>
      <trkpt lat="43.68175" lon="5.82809">
        <ele>489</ele>
        <time>2016-05-28T09:10:28.000Z</time>
      </trkpt>
      <trkpt lat="43.68175" lon="5.82809">
        <ele>489</ele>
        <time>2016-05-28T09:10:30.000Z</time>
      </trkpt>
      <trkpt lat="43.68175" lon="5.82809">
        <ele>489</ele>
        <time>2016-05-28T09:10:32.000Z</time>
      </trkpt>
      <trkpt lat="43.68175" lon="5.82809">
        <ele>489</ele>
        <time>2016-05-28T09:10:34.000Z</time>
      </trkpt>
      <trkpt lat="43.68175" lon="5.82809">
        <ele>489</ele>
        <time>2016-05-28T09:10:36.000Z</time>
      </trkpt>
      <trkpt lat="43.6815" lon="5.82845">
        <ele>489</ele>
        <time>2016-05-28T09:10:42.000Z</time>
      </trkpt>
      <trkpt lat="43.68142" lon="5.82859">
        <ele>489</ele>
        <time>2016-05-28T09:10:46.000Z</time>
      </trkpt>
      <trkpt lat="43.68135" lon="5.82874">
        <ele>490</ele>
        <time>2016-05-28T09:10:50.000Z</time>
      </trkpt>
      <trkpt lat="43.68126" lon="5.82886">
        <ele>491</ele>
        <time>2016-05-28T09:10:54.000Z</time>
      </trkpt>
      <trkpt lat="43.68115" lon="5.82898">
        <ele>491</ele>
        <time>2016-05-28T09:10:58.000Z</time>
      </trkpt>
      <trkpt lat="43.68105" lon="5.82907">
        <ele>491</ele>
        <time>2016-05-28T09:11:02.000Z</time>
      </trkpt>
      <trkpt lat="43.68105" lon="5.82907">
        <ele>491</ele>
        <time>2016-05-28T09:11:04.000Z</time>
      </trkpt>
      <trkpt lat="43.68105" lon="5.82907">
        <ele>491</ele>
        <time>2016-05-28T09:11:06.000Z</time>
      </trkpt>
      <trkpt lat="43.68105" lon="5.82907">
        <ele>491</ele>
        <time>2016-05-28T09:11:08.000Z</time>
      </trkpt>
      <trkpt lat="43.68105" lon="5.82907">
        <ele>491</ele>
        <time>2016-05-28T09:11:10.000Z</time>
      </trkpt>
      <trkpt lat="43.68084" lon="5.8296">
        <ele>491</ele>
        <time>2016-05-28T09:11:18.000Z</time>
      </trkpt>
      <trkpt lat="43.68077" lon="5.82972">
        <ele>491</ele>
        <time>2016-05-28T09:11:22.000Z</time>
      </trkpt>
      <trkpt lat="43.68077" lon="5.82972">
        <ele>491</ele>
        <time>2016-05-28T09:11:24.000Z</time>
      </trkpt>
      <trkpt lat="43.68077" lon="5.82972">
        <ele>491</ele>
        <time>2016-05-28T09:11:26.000Z</time>
      </trkpt>
      <trkpt lat="43.68077" lon="5.82972">
        <ele>491</ele>
        <time>2016-05-28T09:11:28.000Z</time>
      </trkpt>
      <trkpt lat="43.68077" lon="5.82972">
        <ele>491</ele>
        <time>2016-05-28T09:11:30.000Z</time>
      </trkpt>
      <trkpt lat="43.68077" lon="5.82972">
        <ele>491</ele>
        <time>2016-05-28T09:11:32.000Z</time>
      </trkpt>
      <trkpt lat="43.68077" lon="5.82972">
        <ele>491</ele>
        <time>2016-05-28T09:11:34.000Z</time>
      </trkpt>
      <trkpt lat="43.68073" lon="5.82992">
        <ele>491</ele>
        <time>2016-05-28T09:12:47.000Z</time>
      </trkpt>
      <trkpt lat="43.68073" lon="5.82992">
        <ele>491</ele>
        <time>2016-05-28T09:12:49.000Z</time>
      </trkpt>
      <trkpt lat="43.68084" lon="5.82998">
        <ele>489</ele>
        <time>2016-05-28T09:12:55.000Z</time>
      </trkpt>
      <trkpt lat="43.68084" lon="5.8302">
        <ele>487</ele>
        <time>2016-05-28T09:13:01.000Z</time>
      </trkpt>
      <trkpt lat="43.68092" lon="5.83033">
        <ele>485</ele>
        <time>2016-05-28T09:13:05.000Z</time>
      </trkpt>
      <trkpt lat="43.68092" lon="5.83033">
        <ele>485</ele>
        <time>2016-05-28T09:13:07.000Z</time>
      </trkpt>
      <trkpt lat="43.68094" lon="5.83046">
        <ele>484</ele>
        <time>2016-05-28T09:13:09.000Z</time>
      </trkpt>
      <trkpt lat="43.68096" lon="5.83061">
        <ele>479</ele>
        <time>2016-05-28T09:13:13.000Z</time>
      </trkpt>
      <trkpt lat="43.68114" lon="5.83059">
        <ele>477</ele>
        <time>2016-05-28T09:13:16.000Z</time>
      </trkpt>
      <trkpt lat="43.68126" lon="5.83055">
        <ele>476</ele>
        <time>2016-05-28T09:13:18.000Z</time>
      </trkpt>
      <trkpt lat="43.6814" lon="5.83049">
        <ele>475</ele>
        <time>2016-05-28T09:13:20.000Z</time>
      </trkpt>
      <trkpt lat="43.68152" lon="5.83041">
        <ele>475</ele>
        <time>2016-05-28T09:13:22.000Z</time>
      </trkpt>
      <trkpt lat="43.68165" lon="5.83038">
        <ele>475</ele>
        <time>2016-05-28T09:13:24.000Z</time>
      </trkpt>
      <trkpt lat="43.68176" lon="5.83036">
        <ele>474</ele>
        <time>2016-05-28T09:13:26.000Z</time>
      </trkpt>
      <trkpt lat="43.68187" lon="5.83034">
        <ele>473</ele>
        <time>2016-05-28T09:13:28.000Z</time>
      </trkpt>
      <trkpt lat="43.68195" lon="5.83024">
        <ele>473</ele>
        <time>2016-05-28T09:13:30.000Z</time>
      </trkpt>
      <trkpt lat="43.68201" lon="5.83015">
        <ele>473</ele>
        <time>2016-05-28T09:13:32.000Z</time>
      </trkpt>
      <trkpt lat="43.68201" lon="5.83015">
        <ele>473</ele>
        <time>2016-05-28T09:13:34.000Z</time>
      </trkpt>
      <trkpt lat="43.68201" lon="5.83015">
        <ele>473</ele>
        <time>2016-05-28T09:13:36.000Z</time>
      </trkpt>
      <trkpt lat="43.68201" lon="5.83015">
        <ele>473</ele>
        <time>2016-05-28T09:13:38.000Z</time>
      </trkpt>
      <trkpt lat="43.68201" lon="5.83015">
        <ele>473</ele>
        <time>2016-05-28T09:13:40.000Z</time>
      </trkpt>
      <trkpt lat="43.68201" lon="5.83015">
        <ele>473</ele>
        <time>2016-05-28T09:13:42.000Z</time>
      </trkpt>
      <trkpt lat="43.68253" lon="5.82996">
        <ele>468</ele>
        <time>2016-05-28T09:13:47.000Z</time>
      </trkpt>
      <trkpt lat="43.68261" lon="5.8299">
        <ele>468</ele>
        <time>2016-05-28T09:13:49.000Z</time>
      </trkpt>
      <trkpt lat="43.68267" lon="5.82981">
        <ele>469</ele>
        <time>2016-05-28T09:13:51.000Z</time>
      </trkpt>
      <trkpt lat="43.68275" lon="5.82971">
        <ele>470</ele>
        <time>2016-05-28T09:13:53.000Z</time>
      </trkpt>
      <trkpt lat="43.68282" lon="5.8296">
        <ele>469</ele>
        <time>2016-05-28T09:13:55.000Z</time>
      </trkpt>
      <trkpt lat="43.68289" lon="5.8295">
        <ele>468</ele>
        <time>2016-05-28T09:13:57.000Z</time>
      </trkpt>
      <trkpt lat="43.68296" lon="5.82941">
        <ele>468</ele>
        <time>2016-05-28T09:13:59.000Z</time>
      </trkpt>
      <trkpt lat="43.68303" lon="5.82933">
        <ele>467</ele>
        <time>2016-05-28T09:14:01.000Z</time>
      </trkpt>
      <trkpt lat="43.68303" lon="5.82933">
        <ele>467</ele>
        <time>2016-05-28T09:14:03.000Z</time>
      </trkpt>
      <trkpt lat="43.68303" lon="5.82933">
        <ele>467</ele>
        <time>2016-05-28T09:14:05.000Z</time>
      </trkpt>
      <trkpt lat="43.68331" lon="5.82896">
        <ele>466</ele>
        <time>2016-05-28T09:14:09.000Z</time>
      </trkpt>
      <trkpt lat="43.68337" lon="5.82887">
        <ele>466</ele>
        <time>2016-05-28T09:14:11.000Z</time>
      </trkpt>
      <trkpt lat="43.68337" lon="5.82887">
        <ele>466</ele>
        <time>2016-05-28T09:14:13.000Z</time>
      </trkpt>
      <trkpt lat="43.68337" lon="5.82887">
        <ele>466</ele>
        <time>2016-05-28T09:14:15.000Z</time>
      </trkpt>
      <trkpt lat="43.68337" lon="5.82887">
        <ele>466</ele>
        <time>2016-05-28T09:14:17.000Z</time>
      </trkpt>
      <trkpt lat="43.68337" lon="5.82887">
        <ele>466</ele>
        <time>2016-05-28T09:14:19.000Z</time>
      </trkpt>
      <trkpt lat="43.68337" lon="5.82887">
        <ele>466</ele>
        <time>2016-05-28T09:14:21.000Z</time>
      </trkpt>
      <trkpt lat="43.68337" lon="5.82887">
        <ele>466</ele>
        <time>2016-05-28T09:14:23.000Z</time>
      </trkpt>
      <trkpt lat="43.68337" lon="5.82887">
        <ele>466</ele>
        <time>2016-05-28T09:14:25.000Z</time>
      </trkpt>
      <trkpt lat="43.68337" lon="5.82887">
        <ele>466</ele>
        <time>2016-05-28T09:14:27.000Z</time>
      </trkpt>
      <trkpt lat="43.68337" lon="5.82887">
        <ele>466</ele>
        <time>2016-05-28T09:14:29.000Z</time>
      </trkpt>
      <trkpt lat="43.68337" lon="5.82887">
        <ele>466</ele>
        <time>2016-05-28T09:14:31.000Z</time>
      </trkpt>
      <trkpt lat="43.68337" lon="5.82887">
        <ele>466</ele>
        <time>2016-05-28T09:14:33.000Z</time>
      </trkpt>
      <trkpt lat="43.68337" lon="5.82887">
        <ele>466</ele>
        <time>2016-05-28T09:14:35.000Z</time>
      </trkpt>
      <trkpt lat="43.68337" lon="5.82887">
        <ele>466</ele>
        <time>2016-05-28T09:14:37.000Z</time>
      </trkpt>
      <trkpt lat="43.68337" lon="5.82887">
        <ele>466</ele>
        <time>2016-05-28T09:14:39.000Z</time>
      </trkpt>
      <trkpt lat="43.68337" lon="5.82887">
        <ele>466</ele>
        <time>2016-05-28T09:14:41.000Z</time>
      </trkpt>
      <trkpt lat="43.68337" lon="5.82887">
        <ele>466</ele>
        <time>2016-05-28T09:14:43.000Z</time>
      </trkpt>
      <trkpt lat="43.68337" lon="5.82887">
        <ele>466</ele>
        <time>2016-05-28T09:14:45.000Z</time>
      </trkpt>
      <trkpt lat="43.68337" lon="5.82887">
        <ele>466</ele>
        <time>2016-05-28T09:14:47.000Z</time>
      </trkpt>
      <trkpt lat="43.68337" lon="5.82887">
        <ele>466</ele>
        <time>2016-05-28T09:14:49.000Z</time>
      </trkpt>
      <trkpt lat="43.68337" lon="5.82887">
        <ele>466</ele>
        <time>2016-05-28T09:14:51.000Z</time>
      </trkpt>
      <trkpt lat="43.68384" lon="5.82839">
        <ele>467</ele>
        <time>2016-05-28T09:14:54.000Z</time>
      </trkpt>
      <trkpt lat="43.68414" lon="5.82818">
        <ele>466</ele>
        <time>2016-05-28T09:14:56.000Z</time>
      </trkpt>
      <trkpt lat="43.68435" lon="5.8281">
        <ele>465</ele>
        <time>2016-05-28T09:14:58.000Z</time>
      </trkpt>
      <trkpt lat="43.68451" lon="5.82808">
        <ele>464</ele>
        <time>2016-05-28T09:15:00.000Z</time>
      </trkpt>
      <trkpt lat="43.68464" lon="5.82811">
        <ele>462</ele>
        <time>2016-05-28T09:15:02.000Z</time>
      </trkpt>
      <trkpt lat="43.68484" lon="5.82823">
        <ele>460</ele>
        <time>2016-05-28T09:15:04.000Z</time>
      </trkpt>
      <trkpt lat="43.68484" lon="5.82823">
        <ele>460</ele>
        <time>2016-05-28T09:15:06.000Z</time>
      </trkpt>
      <trkpt lat="43.68484" lon="5.82823">
        <ele>460</ele>
        <time>2016-05-28T09:15:08.000Z</time>
      </trkpt>
      <trkpt lat="43.68484" lon="5.82823">
        <ele>460</ele>
        <time>2016-05-28T09:15:10.000Z</time>
      </trkpt>
      <trkpt lat="43.68484" lon="5.82823">
        <ele>460</ele>
        <time>2016-05-28T09:15:16.000Z</time>
      </trkpt>
      <trkpt lat="43.68484" lon="5.82823">
        <ele>460</ele>
        <time>2016-05-28T09:15:18.000Z</time>
      </trkpt>
      <trkpt lat="43.68484" lon="5.82823">
        <ele>460</ele>
        <time>2016-05-28T09:15:20.000Z</time>
      </trkpt>
      <trkpt lat="43.68484" lon="5.82823">
        <ele>460</ele>
        <time>2016-05-28T09:15:22.000Z</time>
      </trkpt>
      <trkpt lat="43.68484" lon="5.82823">
        <ele>460</ele>
        <time>2016-05-28T09:15:24.000Z</time>
      </trkpt>
      <trkpt lat="43.68484" lon="5.82823">
        <ele>460</ele>
        <time>2016-05-28T09:15:26.000Z</time>
      </trkpt>
      <trkpt lat="43.68484" lon="5.82823">
        <ele>460</ele>
        <time>2016-05-28T09:15:28.000Z</time>
      </trkpt>
      <trkpt lat="43.68484" lon="5.82823">
        <ele>460</ele>
        <time>2016-05-28T09:15:30.000Z</time>
      </trkpt>
      <trkpt lat="43.68483" lon="5.82922">
        <ele>460</ele>
        <time>2016-05-28T09:15:34.000Z</time>
      </trkpt>
      <trkpt lat="43.68482" lon="5.82937">
        <ele>461</ele>
        <time>2016-05-28T09:15:38.000Z</time>
      </trkpt>
      <trkpt lat="43.68475" lon="5.82952">
        <ele>460</ele>
        <time>2016-05-28T09:15:42.000Z</time>
      </trkpt>
      <trkpt lat="43.68464" lon="5.82962">
        <ele>460</ele>
        <time>2016-05-28T09:15:46.000Z</time>
      </trkpt>
      <trkpt lat="43.68449" lon="5.82974">
        <ele>458</ele>
        <time>2016-05-28T09:15:50.000Z</time>
      </trkpt>
      <trkpt lat="43.68443" lon="5.82983">
        <ele>457</ele>
        <time>2016-05-28T09:15:52.000Z</time>
      </trkpt>
      <trkpt lat="43.68439" lon="5.82999">
        <ele>455</ele>
        <time>2016-05-28T09:15:54.000Z</time>
      </trkpt>
      <trkpt lat="43.68434" lon="5.83013">
        <ele>454</ele>
        <time>2016-05-28T09:15:56.000Z</time>
      </trkpt>
      <trkpt lat="43.68433" lon="5.83027">
        <ele>453</ele>
        <time>2016-05-28T09:15:58.000Z</time>
      </trkpt>
      <trkpt lat="43.68436" lon="5.83043">
        <ele>450</ele>
        <time>2016-05-28T09:16:00.000Z</time>
      </trkpt>
      <trkpt lat="43.68441" lon="5.83063">
        <ele>448</ele>
        <time>2016-05-28T09:16:02.000Z</time>
      </trkpt>
      <trkpt lat="43.68444" lon="5.83081">
        <ele>446</ele>
        <time>2016-05-28T09:16:04.000Z</time>
      </trkpt>
      <trkpt lat="43.68441" lon="5.83099">
        <ele>445</ele>
        <time>2016-05-28T09:16:06.000Z</time>
      </trkpt>
      <trkpt lat="43.68433" lon="5.83113">
        <ele>446</ele>
        <time>2016-05-28T09:16:08.000Z</time>
      </trkpt>
      <trkpt lat="43.68431" lon="5.83127">
        <ele>447</ele>
        <time>2016-05-28T09:16:10.000Z</time>
      </trkpt>
      <trkpt lat="43.68431" lon="5.83127">
        <ele>447</ele>
        <time>2016-05-28T09:16:12.000Z</time>
      </trkpt>
      <trkpt lat="43.68431" lon="5.83127">
        <ele>447</ele>
        <time>2016-05-28T09:16:14.000Z</time>
      </trkpt>
      <trkpt lat="43.68431" lon="5.83127">
        <ele>447</ele>
        <time>2016-05-28T09:16:16.000Z</time>
      </trkpt>
      <trkpt lat="43.68431" lon="5.83127">
        <ele>447</ele>
        <time>2016-05-28T09:16:18.000Z</time>
      </trkpt>
      <trkpt lat="43.68431" lon="5.83127">
        <ele>447</ele>
        <time>2016-05-28T09:16:20.000Z</time>
      </trkpt>
      <trkpt lat="43.68431" lon="5.83127">
        <ele>447</ele>
        <time>2016-05-28T09:16:22.000Z</time>
      </trkpt>
      <trkpt lat="43.68431" lon="5.83127">
        <ele>447</ele>
        <time>2016-05-28T09:16:24.000Z</time>
      </trkpt>
      <trkpt lat="43.68431" lon="5.83127">
        <ele>447</ele>
        <time>2016-05-28T09:16:26.000Z</time>
      </trkpt>
      <trkpt lat="43.68431" lon="5.83127">
        <ele>447</ele>
        <time>2016-05-28T09:16:28.000Z</time>
      </trkpt>
      <trkpt lat="43.68431" lon="5.83127">
        <ele>447</ele>
        <time>2016-05-28T09:16:30.000Z</time>
      </trkpt>
      <trkpt lat="43.68431" lon="5.83127">
        <ele>447</ele>
        <time>2016-05-28T09:16:32.000Z</time>
      </trkpt>
      <trkpt lat="43.68431" lon="5.83127">
        <ele>447</ele>
        <time>2016-05-28T09:16:34.000Z</time>
      </trkpt>
      <trkpt lat="43.68431" lon="5.83127">
        <ele>447</ele>
        <time>2016-05-28T09:16:36.000Z</time>
      </trkpt>
      <trkpt lat="43.68431" lon="5.83127">
        <ele>447</ele>
        <time>2016-05-28T09:16:38.000Z</time>
      </trkpt>
      <trkpt lat="43.68431" lon="5.83127">
        <ele>447</ele>
        <time>2016-05-28T09:16:40.000Z</time>
      </trkpt>
      <trkpt lat="43.68431" lon="5.83127">
        <ele>447</ele>
        <time>2016-05-28T09:16:42.000Z</time>
      </trkpt>
      <trkpt lat="43.68431" lon="5.83127">
        <ele>447</ele>
        <time>2016-05-28T09:16:44.000Z</time>
      </trkpt>
      <trkpt lat="43.68431" lon="5.83127">
        <ele>447</ele>
        <time>2016-05-28T09:16:46.000Z</time>
      </trkpt>
      <trkpt lat="43.68431" lon="5.83127">
        <ele>447</ele>
        <time>2016-05-28T09:16:48.000Z</time>
      </trkpt>
      <trkpt lat="43.68431" lon="5.83127">
        <ele>447</ele>
        <time>2016-05-28T09:16:50.000Z</time>
      </trkpt>
      <trkpt lat="43.68431" lon="5.83127">
        <ele>447</ele>
        <time>2016-05-28T09:16:52.000Z</time>
      </trkpt>
      <trkpt lat="43.68431" lon="5.83127">
        <ele>447</ele>
        <time>2016-05-28T09:16:54.000Z</time>
      </trkpt>
      <trkpt lat="43.68431" lon="5.83127">
        <ele>447</ele>
        <time>2016-05-28T09:16:56.000Z</time>
      </trkpt>
      <trkpt lat="43.68431" lon="5.83127">
        <ele>447</ele>
        <time>2016-05-28T09:16:58.000Z</time>
      </trkpt>
      <trkpt lat="43.68431" lon="5.83127">
        <ele>447</ele>
        <time>2016-05-28T09:17:00.000Z</time>
      </trkpt>
      <trkpt lat="43.68431" lon="5.83127">
        <ele>447</ele>
        <time>2016-05-28T09:17:02.000Z</time>
      </trkpt>
      <trkpt lat="43.68431" lon="5.83127">
        <ele>447</ele>
        <time>2016-05-28T09:17:04.000Z</time>
      </trkpt>
      <trkpt lat="43.68431" lon="5.83127">
        <ele>447</ele>
        <time>2016-05-28T09:17:06.000Z</time>
      </trkpt>
      <trkpt lat="43.68431" lon="5.83127">
        <ele>447</ele>
        <time>2016-05-28T09:17:08.000Z</time>
      </trkpt>
      <trkpt lat="43.68431" lon="5.83127">
        <ele>447</ele>
        <time>2016-05-28T09:17:10.000Z</time>
      </trkpt>
      <trkpt lat="43.68431" lon="5.83127">
        <ele>447</ele>
        <time>2016-05-28T09:17:12.000Z</time>
      </trkpt>
      <trkpt lat="43.68431" lon="5.83127">
        <ele>447</ele>
        <time>2016-05-28T09:17:14.000Z</time>
      </trkpt>
      <trkpt lat="43.68431" lon="5.83127">
        <ele>447</ele>
        <time>2016-05-28T09:17:16.000Z</time>
      </trkpt>
      <trkpt lat="43.68431" lon="5.83127">
        <ele>447</ele>
        <time>2016-05-28T09:17:18.000Z</time>
      </trkpt>
      <trkpt lat="43.68431" lon="5.83127">
        <ele>447</ele>
        <time>2016-05-28T09:17:20.000Z</time>
      </trkpt>
      <trkpt lat="43.68431" lon="5.83127">
        <ele>447</ele>
        <time>2016-05-28T09:17:22.000Z</time>
      </trkpt>
      <trkpt lat="43.68431" lon="5.83127">
        <ele>447</ele>
        <time>2016-05-28T09:17:24.000Z</time>
      </trkpt>
      <trkpt lat="43.68431" lon="5.83127">
        <ele>447</ele>
        <time>2016-05-28T09:17:26.000Z</time>
      </trkpt>
      <trkpt lat="43.68431" lon="5.83127">
        <ele>447</ele>
        <time>2016-05-28T09:17:28.000Z</time>
      </trkpt>
      <trkpt lat="43.68431" lon="5.83127">
        <ele>447</ele>
        <time>2016-05-28T09:17:30.000Z</time>
      </trkpt>
      <trkpt lat="43.68431" lon="5.83127">
        <ele>447</ele>
        <time>2016-05-28T09:17:32.000Z</time>
      </trkpt>
      <trkpt lat="43.68431" lon="5.83127">
        <ele>447</ele>
        <time>2016-05-28T09:17:34.000Z</time>
      </trkpt>
      <trkpt lat="43.68431" lon="5.83127">
        <ele>447</ele>
        <time>2016-05-28T09:17:36.000Z</time>
      </trkpt>
      <trkpt lat="43.68431" lon="5.83127">
        <ele>447</ele>
        <time>2016-05-28T09:17:38.000Z</time>
      </trkpt>
      <trkpt lat="43.68431" lon="5.83127">
        <ele>447</ele>
        <time>2016-05-28T09:17:40.000Z</time>
      </trkpt>
      <trkpt lat="43.68431" lon="5.83127">
        <ele>447</ele>
        <time>2016-05-28T09:17:42.000Z</time>
      </trkpt>
      <trkpt lat="43.68431" lon="5.83127">
        <ele>447</ele>
        <time>2016-05-28T09:17:44.000Z</time>
      </trkpt>
      <trkpt lat="43.68431" lon="5.83127">
        <ele>447</ele>
        <time>2016-05-28T09:17:46.000Z</time>
      </trkpt>
      <trkpt lat="43.68299" lon="5.83225">
        <ele>467</ele>
        <time>2016-05-28T09:17:59.000Z</time>
      </trkpt>
      <trkpt lat="43.68287" lon="5.8323">
        <ele>467</ele>
        <time>2016-05-28T09:18:05.000Z</time>
      </trkpt>
      <trkpt lat="43.68277" lon="5.83238">
        <ele>468</ele>
        <time>2016-05-28T09:18:11.000Z</time>
      </trkpt>
      <trkpt lat="43.6827" lon="5.83248">
        <ele>467</ele>
        <time>2016-05-28T09:18:15.000Z</time>
      </trkpt>
      <trkpt lat="43.6826" lon="5.83251">
        <ele>467</ele>
        <time>2016-05-28T09:18:19.000Z</time>
      </trkpt>
      <trkpt lat="43.68252" lon="5.83263">
        <ele>466</ele>
        <time>2016-05-28T09:18:25.000Z</time>
      </trkpt>
      <trkpt lat="43.68252" lon="5.83263">
        <ele>466</ele>
        <time>2016-05-28T09:18:27.000Z</time>
      </trkpt>
      <trkpt lat="43.68252" lon="5.83263">
        <ele>466</ele>
        <time>2016-05-28T09:18:29.000Z</time>
      </trkpt>
      <trkpt lat="43.68238" lon="5.83269">
        <ele>466</ele>
        <time>2016-05-28T09:18:31.000Z</time>
      </trkpt>
      <trkpt lat="43.68218" lon="5.83276">
        <ele>464</ele>
        <time>2016-05-28T09:18:35.000Z</time>
      </trkpt>
      <trkpt lat="43.68207" lon="5.83279">
        <ele>464</ele>
        <time>2016-05-28T09:18:37.000Z</time>
      </trkpt>
      <trkpt lat="43.68197" lon="5.83285">
        <ele>463</ele>
        <time>2016-05-28T09:18:39.000Z</time>
      </trkpt>
      <trkpt lat="43.68187" lon="5.83287">
        <ele>462</ele>
        <time>2016-05-28T09:18:41.000Z</time>
      </trkpt>
      <trkpt lat="43.68176" lon="5.8329">
        <ele>461</ele>
        <time>2016-05-28T09:18:43.000Z</time>
      </trkpt>
      <trkpt lat="43.68169" lon="5.83302">
        <ele>459</ele>
        <time>2016-05-28T09:18:45.000Z</time>
      </trkpt>
      <trkpt lat="43.68168" lon="5.83316">
        <ele>458</ele>
        <time>2016-05-28T09:18:47.000Z</time>
      </trkpt>
      <trkpt lat="43.68172" lon="5.83332">
        <ele>455</ele>
        <time>2016-05-28T09:18:49.000Z</time>
      </trkpt>
      <trkpt lat="43.68177" lon="5.8335">
        <ele>453</ele>
        <time>2016-05-28T09:18:51.000Z</time>
      </trkpt>
      <trkpt lat="43.68183" lon="5.83367">
        <ele>452</ele>
        <time>2016-05-28T09:18:53.000Z</time>
      </trkpt>
      <trkpt lat="43.6819" lon="5.83382">
        <ele>450</ele>
        <time>2016-05-28T09:18:55.000Z</time>
      </trkpt>
      <trkpt lat="43.68195" lon="5.83398">
        <ele>448</ele>
        <time>2016-05-28T09:18:57.000Z</time>
      </trkpt>
      <trkpt lat="43.68202" lon="5.83414">
        <ele>446</ele>
        <time>2016-05-28T09:18:59.000Z</time>
      </trkpt>
      <trkpt lat="43.68206" lon="5.83432">
        <ele>444</ele>
        <time>2016-05-28T09:19:01.000Z</time>
      </trkpt>
      <trkpt lat="43.68211" lon="5.83448">
        <ele>443</ele>
        <time>2016-05-28T09:19:03.000Z</time>
      </trkpt>
      <trkpt lat="43.68211" lon="5.83448">
        <ele>443</ele>
        <time>2016-05-28T09:19:08.000Z</time>
      </trkpt>
      <trkpt lat="43.68212" lon="5.8346">
        <ele>440</ele>
        <time>2016-05-28T09:23:12.000Z</time>
      </trkpt>
      <trkpt lat="43.68213" lon="5.83473">
        <ele>439</ele>
        <time>2016-05-28T09:23:20.000Z</time>
      </trkpt>
      <trkpt lat="43.68213" lon="5.83473">
        <ele>439</ele>
        <time>2016-05-28T09:23:28.000Z</time>
      </trkpt>
      <trkpt lat="43.68213" lon="5.83473">
        <ele>439</ele>
        <time>2016-05-28T09:23:30.000Z</time>
      </trkpt>
      <trkpt lat="43.68217" lon="5.83492">
        <ele>439</ele>
        <time>2016-05-28T09:23:59.000Z</time>
      </trkpt>
      <trkpt lat="43.68217" lon="5.83492">
        <ele>439</ele>
        <time>2016-05-28T09:24:04.000Z</time>
      </trkpt>
      <trkpt lat="43.68217" lon="5.83492">
        <ele>439</ele>
        <time>2016-05-28T09:24:06.000Z</time>
      </trkpt>
      <trkpt lat="43.68218" lon="5.83505">
        <ele>443</ele>
        <time>2016-05-28T09:24:19.000Z</time>
      </trkpt>
      <trkpt lat="43.68218" lon="5.83505">
        <ele>443</ele>
        <time>2016-05-28T09:24:21.000Z</time>
      </trkpt>
      <trkpt lat="43.68218" lon="5.83505">
        <ele>443</ele>
        <time>2016-05-28T09:24:23.000Z</time>
      </trkpt>
      <trkpt lat="43.68218" lon="5.83505">
        <ele>443</ele>
        <time>2016-05-28T09:24:25.000Z</time>
      </trkpt>
      <trkpt lat="43.68218" lon="5.83505">
        <ele>443</ele>
        <time>2016-05-28T09:24:27.000Z</time>
      </trkpt>
      <trkpt lat="43.68218" lon="5.83505">
        <ele>443</ele>
        <time>2016-05-28T09:24:29.000Z</time>
      </trkpt>
      <trkpt lat="43.68218" lon="5.83505">
        <ele>443</ele>
        <time>2016-05-28T09:24:31.000Z</time>
      </trkpt>
      <trkpt lat="43.68218" lon="5.83505">
        <ele>443</ele>
        <time>2016-05-28T09:24:33.000Z</time>
      </trkpt>
      <trkpt lat="43.68218" lon="5.83505">
        <ele>443</ele>
        <time>2016-05-28T09:24:35.000Z</time>
      </trkpt>
      <trkpt lat="43.68218" lon="5.83505">
        <ele>443</ele>
        <time>2016-05-28T09:24:37.000Z</time>
      </trkpt>
      <trkpt lat="43.68218" lon="5.83505">
        <ele>443</ele>
        <time>2016-05-28T09:24:39.000Z</time>
      </trkpt>
      <trkpt lat="43.68218" lon="5.83505">
        <ele>443</ele>
        <time>2016-05-28T09:24:41.000Z</time>
      </trkpt>
      <trkpt lat="43.68218" lon="5.83505">
        <ele>443</ele>
        <time>2016-05-28T09:24:43.000Z</time>
      </trkpt>
      <trkpt lat="43.68218" lon="5.83505">
        <ele>443</ele>
        <time>2016-05-28T09:24:45.000Z</time>
      </trkpt>
      <trkpt lat="43.68218" lon="5.83505">
        <ele>443</ele>
        <time>2016-05-28T09:24:47.000Z</time>
      </trkpt>
      <trkpt lat="43.68209" lon="5.8355">
        <ele>431</ele>
        <time>2016-05-28T09:25:09.000Z</time>
      </trkpt>
      <trkpt lat="43.68209" lon="5.83565">
        <ele>432</ele>
        <time>2016-05-28T09:25:15.000Z</time>
      </trkpt>
      <trkpt lat="43.68209" lon="5.83565">
        <ele>432</ele>
        <time>2016-05-28T09:25:17.000Z</time>
      </trkpt>
      <trkpt lat="43.68209" lon="5.83565">
        <ele>432</ele>
        <time>2016-05-28T09:25:19.000Z</time>
      </trkpt>
      <trkpt lat="43.68209" lon="5.83565">
        <ele>432</ele>
        <time>2016-05-28T09:25:21.000Z</time>
      </trkpt>
      <trkpt lat="43.68209" lon="5.83565">
        <ele>432</ele>
        <time>2016-05-28T09:25:23.000Z</time>
      </trkpt>
      <trkpt lat="43.68218" lon="5.83586">
        <ele>436</ele>
        <time>2016-05-28T09:25:44.000Z</time>
      </trkpt>
      <trkpt lat="43.68224" lon="5.83601">
        <ele>434</ele>
        <time>2016-05-28T09:25:50.000Z</time>
      </trkpt>
      <trkpt lat="43.68224" lon="5.83601">
        <ele>434</ele>
        <time>2016-05-28T09:25:58.000Z</time>
      </trkpt>
      <trkpt lat="43.68224" lon="5.83601">
        <ele>434</ele>
        <time>2016-05-28T09:26:00.000Z</time>
      </trkpt>
      <trkpt lat="43.68221" lon="5.83622">
        <ele>435</ele>
        <time>2016-05-28T09:26:28.000Z</time>
      </trkpt>
      <trkpt lat="43.68215" lon="5.83632">
        <ele>435</ele>
        <time>2016-05-28T09:26:36.000Z</time>
      </trkpt>
      <trkpt lat="43.68209" lon="5.83643">
        <ele>434</ele>
        <time>2016-05-28T09:26:44.000Z</time>
      </trkpt>
      <trkpt lat="43.68204" lon="5.83653">
        <ele>434</ele>
        <time>2016-05-28T09:26:50.000Z</time>
      </trkpt>
      <trkpt lat="43.68198" lon="5.83665">
        <ele>432</ele>
        <time>2016-05-28T09:26:58.000Z</time>
      </trkpt>
      <trkpt lat="43.68194" lon="5.83679">
        <ele>432</ele>
        <time>2016-05-28T09:27:06.000Z</time>
      </trkpt>
      <trkpt lat="43.68187" lon="5.83688">
        <ele>431</ele>
        <time>2016-05-28T09:27:12.000Z</time>
      </trkpt>
      <trkpt lat="43.68176" lon="5.83689">
        <ele>429</ele>
        <time>2016-05-28T09:27:20.000Z</time>
      </trkpt>
      <trkpt lat="43.68165" lon="5.8369">
        <ele>429</ele>
        <time>2016-05-28T09:27:28.000Z</time>
      </trkpt>
      <trkpt lat="43.68165" lon="5.8369">
        <ele>429</ele>
        <time>2016-05-28T09:27:34.000Z</time>
      </trkpt>
      <trkpt lat="43.68165" lon="5.8369">
        <ele>429</ele>
        <time>2016-05-28T09:27:36.000Z</time>
      </trkpt>
      <trkpt lat="43.68165" lon="5.8369">
        <ele>429</ele>
        <time>2016-05-28T09:27:38.000Z</time>
      </trkpt>
      <trkpt lat="43.68165" lon="5.8369">
        <ele>429</ele>
        <time>2016-05-28T09:27:40.000Z</time>
      </trkpt>
      <trkpt lat="43.68165" lon="5.8369">
        <ele>429</ele>
        <time>2016-05-28T09:27:42.000Z</time>
      </trkpt>
      <trkpt lat="43.68165" lon="5.8369">
        <ele>429</ele>
        <time>2016-05-28T09:27:44.000Z</time>
      </trkpt>
      <trkpt lat="43.68165" lon="5.8369">
        <ele>429</ele>
        <time>2016-05-28T09:27:46.000Z</time>
      </trkpt>
      <trkpt lat="43.68165" lon="5.8369">
        <ele>429</ele>
        <time>2016-05-28T09:27:48.000Z</time>
      </trkpt>
      <trkpt lat="43.68165" lon="5.8369">
        <ele>429</ele>
        <time>2016-05-28T09:27:50.000Z</time>
      </trkpt>
      <trkpt lat="43.68165" lon="5.8369">
        <ele>429</ele>
        <time>2016-05-28T09:27:52.000Z</time>
      </trkpt>
      <trkpt lat="43.68165" lon="5.8369">
        <ele>429</ele>
        <time>2016-05-28T09:27:54.000Z</time>
      </trkpt>
      <trkpt lat="43.68165" lon="5.8369">
        <ele>429</ele>
        <time>2016-05-28T09:27:56.000Z</time>
      </trkpt>
      <trkpt lat="43.68165" lon="5.8369">
        <ele>429</ele>
        <time>2016-05-28T09:27:58.000Z</time>
      </trkpt>
      <trkpt lat="43.68165" lon="5.8369">
        <ele>429</ele>
        <time>2016-05-28T09:28:00.000Z</time>
      </trkpt>
      <trkpt lat="43.68165" lon="5.8369">
        <ele>429</ele>
        <time>2016-05-28T09:28:02.000Z</time>
      </trkpt>
      <trkpt lat="43.68165" lon="5.8369">
        <ele>429</ele>
        <time>2016-05-28T09:28:04.000Z</time>
      </trkpt>
      <trkpt lat="43.68165" lon="5.8369">
        <ele>429</ele>
        <time>2016-05-28T09:28:06.000Z</time>
      </trkpt>
      <trkpt lat="43.68165" lon="5.8369">
        <ele>429</ele>
        <time>2016-05-28T09:28:08.000Z</time>
      </trkpt>
      <trkpt lat="43.68165" lon="5.8369">
        <ele>429</ele>
        <time>2016-05-28T09:28:10.000Z</time>
      </trkpt>
      <trkpt lat="43.68165" lon="5.8369">
        <ele>429</ele>
        <time>2016-05-28T09:28:12.000Z</time>
      </trkpt>
      <trkpt lat="43.68165" lon="5.8369">
        <ele>429</ele>
        <time>2016-05-28T09:28:14.000Z</time>
      </trkpt>
      <trkpt lat="43.68165" lon="5.8369">
        <ele>429</ele>
        <time>2016-05-28T09:28:16.000Z</time>
      </trkpt>
      <trkpt lat="43.68165" lon="5.8369">
        <ele>429</ele>
        <time>2016-05-28T09:28:18.000Z</time>
      </trkpt>
      <trkpt lat="43.68165" lon="5.8369">
        <ele>429</ele>
        <time>2016-05-28T09:28:20.000Z</time>
      </trkpt>
      <trkpt lat="43.68165" lon="5.8369">
        <ele>429</ele>
        <time>2016-05-28T09:28:22.000Z</time>
      </trkpt>
      <trkpt lat="43.68165" lon="5.8369">
        <ele>429</ele>
        <time>2016-05-28T09:28:24.000Z</time>
      </trkpt>
      <trkpt lat="43.68165" lon="5.8369">
        <ele>429</ele>
        <time>2016-05-28T09:28:26.000Z</time>
      </trkpt>
      <trkpt lat="43.68165" lon="5.8369">
        <ele>429</ele>
        <time>2016-05-28T09:28:28.000Z</time>
      </trkpt>
      <trkpt lat="43.68165" lon="5.8369">
        <ele>429</ele>
        <time>2016-05-28T09:28:30.000Z</time>
      </trkpt>
      <trkpt lat="43.68133" lon="5.83695">
        <ele>439</ele>
        <time>2016-05-28T09:28:42.000Z</time>
      </trkpt>
      <trkpt lat="43.68116" lon="5.83698">
        <ele>439</ele>
        <time>2016-05-28T09:28:44.000Z</time>
      </trkpt>
      <trkpt lat="43.68107" lon="5.83701">
        <ele>439</ele>
        <time>2016-05-28T09:28:46.000Z</time>
      </trkpt>
      <trkpt lat="43.68102" lon="5.83703">
        <ele>440</ele>
        <time>2016-05-28T09:28:48.000Z</time>
      </trkpt>
      <trkpt lat="43.68098" lon="5.83705">
        <ele>440</ele>
        <time>2016-05-28T09:28:52.000Z</time>
      </trkpt>
      <trkpt lat="43.68094" lon="5.83709">
        <ele>440</ele>
        <time>2016-05-28T09:28:56.000Z</time>
      </trkpt>
      <trkpt lat="43.6809" lon="5.83714">
        <ele>440</ele>
        <time>2016-05-28T09:29:00.000Z</time>
      </trkpt>
      <trkpt lat="43.68087" lon="5.83719">
        <ele>440</ele>
        <time>2016-05-28T09:29:04.000Z</time>
      </trkpt>
      <trkpt lat="43.68084" lon="5.83724">
        <ele>441</ele>
        <time>2016-05-28T09:29:08.000Z</time>
      </trkpt>
      <trkpt lat="43.68081" lon="5.83729">
        <ele>441</ele>
        <time>2016-05-28T09:29:12.000Z</time>
      </trkpt>
      <trkpt lat="43.68077" lon="5.83734">
        <ele>442</ele>
        <time>2016-05-28T09:29:16.000Z</time>
      </trkpt>
      <trkpt lat="43.68074" lon="5.83739">
        <ele>443</ele>
        <time>2016-05-28T09:29:20.000Z</time>
      </trkpt>
      <trkpt lat="43.68072" lon="5.83744">
        <ele>442</ele>
        <time>2016-05-28T09:29:24.000Z</time>
      </trkpt>
      <trkpt lat="43.68068" lon="5.83749">
        <ele>442</ele>
        <time>2016-05-28T09:29:28.000Z</time>
      </trkpt>
      <trkpt lat="43.68065" lon="5.83754">
        <ele>442</ele>
        <time>2016-05-28T09:29:32.000Z</time>
      </trkpt>
      <trkpt lat="43.68061" lon="5.83759">
        <ele>441</ele>
        <time>2016-05-28T09:29:36.000Z</time>
      </trkpt>
      <trkpt lat="43.68057" lon="5.83763">
        <ele>440</ele>
        <time>2016-05-28T09:29:40.000Z</time>
      </trkpt>
      <trkpt lat="43.68053" lon="5.83767">
        <ele>442</ele>
        <time>2016-05-28T09:29:44.000Z</time>
      </trkpt>
      <trkpt lat="43.6805" lon="5.83772">
        <ele>442</ele>
        <time>2016-05-28T09:29:48.000Z</time>
      </trkpt>
      <trkpt lat="43.68048" lon="5.83777">
        <ele>443</ele>
        <time>2016-05-28T09:29:52.000Z</time>
      </trkpt>
      <trkpt lat="43.68044" lon="5.83783">
        <ele>443</ele>
        <time>2016-05-28T09:29:56.000Z</time>
      </trkpt>
      <trkpt lat="43.6804" lon="5.83787">
        <ele>442</ele>
        <time>2016-05-28T09:30:00.000Z</time>
      </trkpt>
      <trkpt lat="43.68036" lon="5.83789">
        <ele>443</ele>
        <time>2016-05-28T09:30:04.000Z</time>
      </trkpt>
      <trkpt lat="43.6803" lon="5.83791">
        <ele>442</ele>
        <time>2016-05-28T09:30:08.000Z</time>
      </trkpt>
      <trkpt lat="43.68025" lon="5.83792">
        <ele>442</ele>
        <time>2016-05-28T09:30:12.000Z</time>
      </trkpt>
      <trkpt lat="43.68019" lon="5.83794">
        <ele>442</ele>
        <time>2016-05-28T09:30:16.000Z</time>
      </trkpt>
      <trkpt lat="43.68014" lon="5.83797">
        <ele>442</ele>
        <time>2016-05-28T09:30:20.000Z</time>
      </trkpt>
      <trkpt lat="43.68009" lon="5.83798">
        <ele>441</ele>
        <time>2016-05-28T09:30:24.000Z</time>
      </trkpt>
      <trkpt lat="43.68003" lon="5.83798">
        <ele>441</ele>
        <time>2016-05-28T09:30:28.000Z</time>
      </trkpt>
      <trkpt lat="43.67998" lon="5.83798">
        <ele>440</ele>
        <time>2016-05-28T09:30:32.000Z</time>
      </trkpt>
      <trkpt lat="43.67992" lon="5.83797">
        <ele>439</ele>
        <time>2016-05-28T09:30:36.000Z</time>
      </trkpt>
      <trkpt lat="43.67987" lon="5.83796">
        <ele>439</ele>
        <time>2016-05-28T09:30:38.000Z</time>
      </trkpt>
      <trkpt lat="43.67982" lon="5.83794">
        <ele>440</ele>
        <time>2016-05-28T09:30:42.000Z</time>
      </trkpt>
      <trkpt lat="43.67976" lon="5.83791">
        <ele>441</ele>
        <time>2016-05-28T09:30:46.000Z</time>
      </trkpt>
      <trkpt lat="43.67971" lon="5.83787">
        <ele>441</ele>
        <time>2016-05-28T09:30:50.000Z</time>
      </trkpt>
      <trkpt lat="43.67971" lon="5.83787">
        <ele>441</ele>
        <time>2016-05-28T09:30:52.000Z</time>
      </trkpt>
      <trkpt lat="43.67971" lon="5.83787">
        <ele>441</ele>
        <time>2016-05-28T09:30:54.000Z</time>
      </trkpt>
      <trkpt lat="43.67971" lon="5.83787">
        <ele>441</ele>
        <time>2016-05-28T09:30:56.000Z</time>
      </trkpt>
      <trkpt lat="43.67971" lon="5.83787">
        <ele>441</ele>
        <time>2016-05-28T09:30:58.000Z</time>
      </trkpt>
      <trkpt lat="43.67971" lon="5.83787">
        <ele>441</ele>
        <time>2016-05-28T09:31:00.000Z</time>
      </trkpt>
      <trkpt lat="43.67971" lon="5.83787">
        <ele>441</ele>
        <time>2016-05-28T09:31:02.000Z</time>
      </trkpt>
      <trkpt lat="43.67971" lon="5.83787">
        <ele>441</ele>
        <time>2016-05-28T09:31:04.000Z</time>
      </trkpt>
      <trkpt lat="43.67971" lon="5.83787">
        <ele>441</ele>
        <time>2016-05-28T09:31:06.000Z</time>
      </trkpt>
      <trkpt lat="43.67971" lon="5.83787">
        <ele>441</ele>
        <time>2016-05-28T09:31:08.000Z</time>
      </trkpt>
      <trkpt lat="43.67971" lon="5.83787">
        <ele>441</ele>
        <time>2016-05-28T09:31:10.000Z</time>
      </trkpt>
      <trkpt lat="43.67971" lon="5.83787">
        <ele>441</ele>
        <time>2016-05-28T09:31:12.000Z</time>
      </trkpt>
      <trkpt lat="43.67971" lon="5.83787">
        <ele>441</ele>
        <time>2016-05-28T09:31:14.000Z</time>
      </trkpt>
      <trkpt lat="43.67971" lon="5.83787">
        <ele>441</ele>
        <time>2016-05-28T09:31:16.000Z</time>
      </trkpt>
      <trkpt lat="43.67971" lon="5.83787">
        <ele>441</ele>
        <time>2016-05-28T09:31:18.000Z</time>
      </trkpt>
      <trkpt lat="43.67971" lon="5.83787">
        <ele>441</ele>
        <time>2016-05-28T09:31:20.000Z</time>
      </trkpt>
      <trkpt lat="43.67971" lon="5.83787">
        <ele>441</ele>
        <time>2016-05-28T09:31:22.000Z</time>
      </trkpt>
      <trkpt lat="43.67971" lon="5.83787">
        <ele>441</ele>
        <time>2016-05-28T09:31:24.000Z</time>
      </trkpt>
      <trkpt lat="43.67971" lon="5.83787">
        <ele>441</ele>
        <time>2016-05-28T09:31:26.000Z</time>
      </trkpt>
      <trkpt lat="43.67971" lon="5.83787">
        <ele>441</ele>
        <time>2016-05-28T09:31:28.000Z</time>
      </trkpt>
      <trkpt lat="43.67971" lon="5.83787">
        <ele>441</ele>
        <time>2016-05-28T09:31:30.000Z</time>
      </trkpt>
      <trkpt lat="43.67941" lon="5.83782">
        <ele>444</ele>
        <time>2016-05-28T09:31:40.000Z</time>
      </trkpt>
      <trkpt lat="43.67924" lon="5.83779">
        <ele>444</ele>
        <time>2016-05-28T09:31:42.000Z</time>
      </trkpt>
      <trkpt lat="43.67915" lon="5.83779">
        <ele>445</ele>
        <time>2016-05-28T09:31:44.000Z</time>
      </trkpt>
      <trkpt lat="43.67908" lon="5.8378">
        <ele>445</ele>
        <time>2016-05-28T09:31:46.000Z</time>
      </trkpt>
      <trkpt lat="43.67903" lon="5.83781">
        <ele>445</ele>
        <time>2016-05-28T09:31:50.000Z</time>
      </trkpt>
      <trkpt lat="43.67897" lon="5.83782">
        <ele>445</ele>
        <time>2016-05-28T09:31:54.000Z</time>
      </trkpt>
      <trkpt lat="43.67891" lon="5.83784">
        <ele>446</ele>
        <time>2016-05-28T09:31:58.000Z</time>
      </trkpt>
      <trkpt lat="43.67887" lon="5.83785">
        <ele>445</ele>
        <time>2016-05-28T09:32:00.000Z</time>
      </trkpt>
      <trkpt lat="43.67882" lon="5.83786">
        <ele>445</ele>
        <time>2016-05-28T09:32:04.000Z</time>
      </trkpt>
      <trkpt lat="43.67876" lon="5.83787">
        <ele>446</ele>
        <time>2016-05-28T09:32:08.000Z</time>
      </trkpt>
      <trkpt lat="43.67871" lon="5.83789">
        <ele>447</ele>
        <time>2016-05-28T09:32:12.000Z</time>
      </trkpt>
      <trkpt lat="43.67871" lon="5.83789">
        <ele>447</ele>
        <time>2016-05-28T09:32:14.000Z</time>
      </trkpt>
      <trkpt lat="43.67871" lon="5.83789">
        <ele>447</ele>
        <time>2016-05-28T09:32:16.000Z</time>
      </trkpt>
      <trkpt lat="43.67871" lon="5.83789">
        <ele>447</ele>
        <time>2016-05-28T09:32:18.000Z</time>
      </trkpt>
      <trkpt lat="43.67871" lon="5.83789">
        <ele>447</ele>
        <time>2016-05-28T09:32:20.000Z</time>
      </trkpt>
      <trkpt lat="43.67871" lon="5.83789">
        <ele>447</ele>
        <time>2016-05-28T09:32:22.000Z</time>
      </trkpt>
      <trkpt lat="43.67871" lon="5.83789">
        <ele>447</ele>
        <time>2016-05-28T09:32:24.000Z</time>
      </trkpt>
      <trkpt lat="43.67871" lon="5.83789">
        <ele>447</ele>
        <time>2016-05-28T09:32:26.000Z</time>
      </trkpt>
      <trkpt lat="43.67871" lon="5.83789">
        <ele>447</ele>
        <time>2016-05-28T09:32:28.000Z</time>
      </trkpt>
      <trkpt lat="43.67871" lon="5.83789">
        <ele>447</ele>
        <time>2016-05-28T09:32:30.000Z</time>
      </trkpt>
      <trkpt lat="43.67871" lon="5.83789">
        <ele>447</ele>
        <time>2016-05-28T09:32:32.000Z</time>
      </trkpt>
      <trkpt lat="43.67871" lon="5.83789">
        <ele>447</ele>
        <time>2016-05-28T09:32:34.000Z</time>
      </trkpt>
      <trkpt lat="43.67871" lon="5.83789">
        <ele>447</ele>
        <time>2016-05-28T09:32:36.000Z</time>
      </trkpt>
      <trkpt lat="43.67871" lon="5.83789">
        <ele>447</ele>
        <time>2016-05-28T09:32:38.000Z</time>
      </trkpt>
      <trkpt lat="43.67871" lon="5.83789">
        <ele>447</ele>
        <time>2016-05-28T09:32:40.000Z</time>
      </trkpt>
      <trkpt lat="43.67871" lon="5.83789">
        <ele>447</ele>
        <time>2016-05-28T09:32:42.000Z</time>
      </trkpt>
      <trkpt lat="43.67871" lon="5.83789">
        <ele>447</ele>
        <time>2016-05-28T09:32:44.000Z</time>
      </trkpt>
      <trkpt lat="43.67871" lon="5.83789">
        <ele>447</ele>
        <time>2016-05-28T09:32:46.000Z</time>
      </trkpt>
      <trkpt lat="43.67871" lon="5.83789">
        <ele>447</ele>
        <time>2016-05-28T09:32:48.000Z</time>
      </trkpt>
      <trkpt lat="43.67871" lon="5.83789">
        <ele>447</ele>
        <time>2016-05-28T09:32:50.000Z</time>
      </trkpt>
      <trkpt lat="43.67871" lon="5.83789">
        <ele>447</ele>
        <time>2016-05-28T09:32:52.000Z</time>
      </trkpt>
      <trkpt lat="43.67871" lon="5.83789">
        <ele>447</ele>
        <time>2016-05-28T09:32:54.000Z</time>
      </trkpt>
      <trkpt lat="43.67871" lon="5.83789">
        <ele>447</ele>
        <time>2016-05-28T09:32:56.000Z</time>
      </trkpt>
      <trkpt lat="43.67871" lon="5.83789">
        <ele>447</ele>
        <time>2016-05-28T09:32:58.000Z</time>
      </trkpt>
      <trkpt lat="43.67845" lon="5.8383">
        <ele>447</ele>
        <time>2016-05-28T09:33:08.000Z</time>
      </trkpt>
      <trkpt lat="43.67831" lon="5.83852">
        <ele>447</ele>
        <time>2016-05-28T09:33:10.000Z</time>
      </trkpt>
      <trkpt lat="43.67824" lon="5.83864">
        <ele>447</ele>
        <time>2016-05-28T09:33:12.000Z</time>
      </trkpt>
      <trkpt lat="43.67819" lon="5.83873">
        <ele>447</ele>
        <time>2016-05-28T09:33:14.000Z</time>
      </trkpt>
      <trkpt lat="43.67817" lon="5.83878">
        <ele>447</ele>
        <time>2016-05-28T09:33:16.000Z</time>
      </trkpt>
      <trkpt lat="43.67811" lon="5.83891">
        <ele>447</ele>
        <time>2016-05-28T09:33:20.000Z</time>
      </trkpt>
      <trkpt lat="43.67807" lon="5.83905">
        <ele>447</ele>
        <time>2016-05-28T09:33:28.000Z</time>
      </trkpt>
      <trkpt lat="43.67804" lon="5.83917">
        <ele>446</ele>
        <time>2016-05-28T09:33:36.000Z</time>
      </trkpt>
      <trkpt lat="43.67802" lon="5.83929">
        <ele>445</ele>
        <time>2016-05-28T09:33:44.000Z</time>
      </trkpt>
      <trkpt lat="43.67802" lon="5.83929">
        <ele>445</ele>
        <time>2016-05-28T09:33:46.000Z</time>
      </trkpt>
      <trkpt lat="43.67802" lon="5.83929">
        <ele>445</ele>
        <time>2016-05-28T09:33:48.000Z</time>
      </trkpt>
      <trkpt lat="43.67802" lon="5.83929">
        <ele>445</ele>
        <time>2016-05-28T09:33:50.000Z</time>
      </trkpt>
      <trkpt lat="43.67796" lon="5.83945">
        <ele>445</ele>
        <time>2016-05-28T09:33:54.000Z</time>
      </trkpt>
      <trkpt lat="43.67787" lon="5.83955">
        <ele>445</ele>
        <time>2016-05-28T09:34:02.000Z</time>
      </trkpt>
      <trkpt lat="43.6778" lon="5.83964">
        <ele>446</ele>
        <time>2016-05-28T09:34:08.000Z</time>
      </trkpt>
      <trkpt lat="43.67773" lon="5.83972">
        <ele>447</ele>
        <time>2016-05-28T09:34:14.000Z</time>
      </trkpt>
      <trkpt lat="43.67764" lon="5.83981">
        <ele>448</ele>
        <time>2016-05-28T09:34:22.000Z</time>
      </trkpt>
      <trkpt lat="43.67755" lon="5.8399">
        <ele>450</ele>
        <time>2016-05-28T09:34:30.000Z</time>
      </trkpt>
      <trkpt lat="43.67751" lon="5.83993">
        <ele>449</ele>
        <time>2016-05-28T09:34:38.000Z</time>
      </trkpt>
      <trkpt lat="43.67745" lon="5.83994">
        <ele>451</ele>
        <time>2016-05-28T09:34:42.000Z</time>
      </trkpt>
      <trkpt lat="43.6774" lon="5.83995">
        <ele>450</ele>
        <time>2016-05-28T09:34:46.000Z</time>
      </trkpt>
      <trkpt lat="43.67735" lon="5.83996">
        <ele>451</ele>
        <time>2016-05-28T09:34:50.000Z</time>
      </trkpt>
      <trkpt lat="43.6773" lon="5.83996">
        <ele>448</ele>
        <time>2016-05-28T09:34:54.000Z</time>
      </trkpt>
      <trkpt lat="43.67724" lon="5.83996">
        <ele>447</ele>
        <time>2016-05-28T09:34:58.000Z</time>
      </trkpt>
      <trkpt lat="43.67718" lon="5.83996">
        <ele>449</ele>
        <time>2016-05-28T09:35:02.000Z</time>
      </trkpt>
      <trkpt lat="43.67714" lon="5.83997">
        <ele>451</ele>
        <time>2016-05-28T09:35:04.000Z</time>
      </trkpt>
      <trkpt lat="43.67708" lon="5.83997">
        <ele>451</ele>
        <time>2016-05-28T09:35:08.000Z</time>
      </trkpt>
      <trkpt lat="43.67708" lon="5.83997">
        <ele>451</ele>
        <time>2016-05-28T09:35:10.000Z</time>
      </trkpt>
      <trkpt lat="43.67708" lon="5.83997">
        <ele>451</ele>
        <time>2016-05-28T09:35:12.000Z</time>
      </trkpt>
      <trkpt lat="43.67708" lon="5.83997">
        <ele>451</ele>
        <time>2016-05-28T09:35:14.000Z</time>
      </trkpt>
      <trkpt lat="43.67692" lon="5.83998">
        <ele>453</ele>
        <time>2016-05-28T09:35:24.000Z</time>
      </trkpt>
      <trkpt lat="43.67684" lon="5.84006">
        <ele>451</ele>
        <time>2016-05-28T09:35:30.000Z</time>
      </trkpt>
      <trkpt lat="43.67684" lon="5.84006">
        <ele>451</ele>
        <time>2016-05-28T09:35:32.000Z</time>
      </trkpt>
      <trkpt lat="43.67684" lon="5.84006">
        <ele>451</ele>
        <time>2016-05-28T09:35:34.000Z</time>
      </trkpt>
      <trkpt lat="43.67684" lon="5.84006">
        <ele>451</ele>
        <time>2016-05-28T09:35:36.000Z</time>
      </trkpt>
      <trkpt lat="43.67684" lon="5.84006">
        <ele>451</ele>
        <time>2016-05-28T09:35:38.000Z</time>
      </trkpt>
      <trkpt lat="43.67684" lon="5.84006">
        <ele>451</ele>
        <time>2016-05-28T09:35:40.000Z</time>
      </trkpt>
      <trkpt lat="43.67684" lon="5.84006">
        <ele>451</ele>
        <time>2016-05-28T09:35:42.000Z</time>
      </trkpt>
      <trkpt lat="43.67684" lon="5.84006">
        <ele>451</ele>
        <time>2016-05-28T09:35:44.000Z</time>
      </trkpt>
      <trkpt lat="43.67684" lon="5.84006">
        <ele>451</ele>
        <time>2016-05-28T09:35:46.000Z</time>
      </trkpt>
      <trkpt lat="43.67684" lon="5.84006">
        <ele>451</ele>
        <time>2016-05-28T09:35:48.000Z</time>
      </trkpt>
      <trkpt lat="43.67684" lon="5.84006">
        <ele>451</ele>
        <time>2016-05-28T09:35:50.000Z</time>
      </trkpt>
      <trkpt lat="43.67684" lon="5.84006">
        <ele>451</ele>
        <time>2016-05-28T09:35:52.000Z</time>
      </trkpt>
      <trkpt lat="43.67684" lon="5.84006">
        <ele>451</ele>
        <time>2016-05-28T09:35:54.000Z</time>
      </trkpt>
      <trkpt lat="43.67684" lon="5.84006">
        <ele>451</ele>
        <time>2016-05-28T09:35:56.000Z</time>
      </trkpt>
      <trkpt lat="43.67653" lon="5.84048">
        <ele>450</ele>
        <time>2016-05-28T09:36:00.000Z</time>
      </trkpt>
      <trkpt lat="43.67645" lon="5.84052">
        <ele>449</ele>
        <time>2016-05-28T09:36:05.000Z</time>
      </trkpt>
      <trkpt lat="43.67645" lon="5.84052">
        <ele>449</ele>
        <time>2016-05-28T09:36:07.000Z</time>
      </trkpt>
      <trkpt lat="43.67645" lon="5.84052">
        <ele>449</ele>
        <time>2016-05-28T09:36:09.000Z</time>
      </trkpt>
      <trkpt lat="43.67639" lon="5.84054">
        <ele>450</ele>
        <time>2016-05-28T09:36:15.000Z</time>
      </trkpt>
      <trkpt lat="43.67631" lon="5.84063">
        <ele>446</ele>
        <time>2016-05-28T09:36:27.000Z</time>
      </trkpt>
      <trkpt lat="43.67624" lon="5.8407">
        <ele>446</ele>
        <time>2016-05-28T09:36:33.000Z</time>
      </trkpt>
      <trkpt lat="43.67624" lon="5.8407">
        <ele>446</ele>
        <time>2016-05-28T09:36:39.000Z</time>
      </trkpt>
      <trkpt lat="43.67624" lon="5.8407">
        <ele>446</ele>
        <time>2016-05-28T09:36:41.000Z</time>
      </trkpt>
      <trkpt lat="43.67624" lon="5.8407">
        <ele>446</ele>
        <time>2016-05-28T09:36:43.000Z</time>
      </trkpt>
      <trkpt lat="43.67624" lon="5.8407">
        <ele>446</ele>
        <time>2016-05-28T09:36:45.000Z</time>
      </trkpt>
      <trkpt lat="43.67611" lon="5.84073">
        <ele>447</ele>
        <time>2016-05-28T09:36:47.000Z</time>
      </trkpt>
      <trkpt lat="43.67601" lon="5.84077">
        <ele>454</ele>
        <time>2016-05-28T09:36:57.000Z</time>
      </trkpt>
      <trkpt lat="43.67591" lon="5.84079">
        <ele>455</ele>
        <time>2016-05-28T09:37:05.000Z</time>
      </trkpt>
      <trkpt lat="43.67591" lon="5.84079">
        <ele>455</ele>
        <time>2016-05-28T09:37:11.000Z</time>
      </trkpt>
      <trkpt lat="43.67591" lon="5.84079">
        <ele>455</ele>
        <time>2016-05-28T09:37:13.000Z</time>
      </trkpt>
      <trkpt lat="43.67591" lon="5.84079">
        <ele>455</ele>
        <time>2016-05-28T09:37:15.000Z</time>
      </trkpt>
      <trkpt lat="43.67591" lon="5.84079">
        <ele>455</ele>
        <time>2016-05-28T09:37:17.000Z</time>
      </trkpt>
      <trkpt lat="43.67591" lon="5.84079">
        <ele>455</ele>
        <time>2016-05-28T09:37:19.000Z</time>
      </trkpt>
      <trkpt lat="43.67581" lon="5.84096">
        <ele>459</ele>
        <time>2016-05-28T09:37:38.000Z</time>
      </trkpt>
      <trkpt lat="43.67587" lon="5.84107">
        <ele>458</ele>
        <time>2016-05-28T09:37:46.000Z</time>
      </trkpt>
      <trkpt lat="43.67591" lon="5.84119">
        <ele>459</ele>
        <time>2016-05-28T09:37:54.000Z</time>
      </trkpt>
      <trkpt lat="43.6759" lon="5.84132">
        <ele>459</ele>
        <time>2016-05-28T09:38:02.000Z</time>
      </trkpt>
      <trkpt lat="43.6759" lon="5.84132">
        <ele>459</ele>
        <time>2016-05-28T09:38:04.000Z</time>
      </trkpt>
      <trkpt lat="43.6759" lon="5.84132">
        <ele>459</ele>
        <time>2016-05-28T09:38:06.000Z</time>
      </trkpt>
      <trkpt lat="43.6759" lon="5.84132">
        <ele>459</ele>
        <time>2016-05-28T09:38:08.000Z</time>
      </trkpt>
      <trkpt lat="43.6759" lon="5.84132">
        <ele>459</ele>
        <time>2016-05-28T09:38:10.000Z</time>
      </trkpt>
      <trkpt lat="43.6759" lon="5.84132">
        <ele>459</ele>
        <time>2016-05-28T09:38:12.000Z</time>
      </trkpt>
      <trkpt lat="43.6759" lon="5.84132">
        <ele>459</ele>
        <time>2016-05-28T09:38:14.000Z</time>
      </trkpt>
      <trkpt lat="43.6759" lon="5.84132">
        <ele>459</ele>
        <time>2016-05-28T09:38:16.000Z</time>
      </trkpt>
      <trkpt lat="43.6759" lon="5.84132">
        <ele>459</ele>
        <time>2016-05-28T09:38:18.000Z</time>
      </trkpt>
      <trkpt lat="43.6759" lon="5.84132">
        <ele>459</ele>
        <time>2016-05-28T09:38:20.000Z</time>
      </trkpt>
      <trkpt lat="43.6759" lon="5.84132">
        <ele>459</ele>
        <time>2016-05-28T09:38:22.000Z</time>
      </trkpt>
      <trkpt lat="43.6759" lon="5.84132">
        <ele>459</ele>
        <time>2016-05-28T09:38:24.000Z</time>
      </trkpt>
      <trkpt lat="43.6759" lon="5.84132">
        <ele>459</ele>
        <time>2016-05-28T09:38:26.000Z</time>
      </trkpt>
      <trkpt lat="43.6759" lon="5.84132">
        <ele>459</ele>
        <time>2016-05-28T09:38:28.000Z</time>
      </trkpt>
      <trkpt lat="43.6759" lon="5.84132">
        <ele>459</ele>
        <time>2016-05-28T09:38:30.000Z</time>
      </trkpt>
      <trkpt lat="43.6759" lon="5.84132">
        <ele>459</ele>
        <time>2016-05-28T09:38:32.000Z</time>
      </trkpt>
      <trkpt lat="43.6759" lon="5.84132">
        <ele>459</ele>
        <time>2016-05-28T09:38:34.000Z</time>
      </trkpt>
      <trkpt lat="43.6759" lon="5.84132">
        <ele>459</ele>
        <time>2016-05-28T09:38:36.000Z</time>
      </trkpt>
      <trkpt lat="43.6759" lon="5.84132">
        <ele>459</ele>
        <time>2016-05-28T09:38:38.000Z</time>
      </trkpt>
      <trkpt lat="43.6759" lon="5.84132">
        <ele>459</ele>
        <time>2016-05-28T09:38:40.000Z</time>
      </trkpt>
      <trkpt lat="43.67569" lon="5.8416">
        <ele>464</ele>
        <time>2016-05-28T09:38:50.000Z</time>
      </trkpt>
      <trkpt lat="43.67557" lon="5.84176">
        <ele>465</ele>
        <time>2016-05-28T09:38:52.000Z</time>
      </trkpt>
      <trkpt lat="43.6755" lon="5.84185">
        <ele>466</ele>
        <time>2016-05-28T09:38:54.000Z</time>
      </trkpt>
      <trkpt lat="43.67546" lon="5.8419">
        <ele>466</ele>
        <time>2016-05-28T09:38:56.000Z</time>
      </trkpt>
      <trkpt lat="43.67542" lon="5.84195">
        <ele>468</ele>
        <time>2016-05-28T09:39:00.000Z</time>
      </trkpt>
      <trkpt lat="43.67538" lon="5.842">
        <ele>469</ele>
        <time>2016-05-28T09:39:04.000Z</time>
      </trkpt>
      <trkpt lat="43.67535" lon="5.84205">
        <ele>471</ele>
        <time>2016-05-28T09:39:08.000Z</time>
      </trkpt>
      <trkpt lat="43.6753" lon="5.8421">
        <ele>471</ele>
        <time>2016-05-28T09:39:12.000Z</time>
      </trkpt>
      <trkpt lat="43.67527" lon="5.84215">
        <ele>471</ele>
        <time>2016-05-28T09:39:16.000Z</time>
      </trkpt>
      <trkpt lat="43.67522" lon="5.8422">
        <ele>472</ele>
        <time>2016-05-28T09:39:20.000Z</time>
      </trkpt>
      <trkpt lat="43.67518" lon="5.84224">
        <ele>472</ele>
        <time>2016-05-28T09:39:24.000Z</time>
      </trkpt>
      <trkpt lat="43.67514" lon="5.84228">
        <ele>475</ele>
        <time>2016-05-28T09:39:28.000Z</time>
      </trkpt>
      <trkpt lat="43.6751" lon="5.84232">
        <ele>475</ele>
        <time>2016-05-28T09:39:32.000Z</time>
      </trkpt>
      <trkpt lat="43.67506" lon="5.84237">
        <ele>474</ele>
        <time>2016-05-28T09:39:36.000Z</time>
      </trkpt>
      <trkpt lat="43.67506" lon="5.84237">
        <ele>474</ele>
        <time>2016-05-28T09:39:38.000Z</time>
      </trkpt>
      <trkpt lat="43.67506" lon="5.84237">
        <ele>474</ele>
        <time>2016-05-28T09:39:40.000Z</time>
      </trkpt>
      <trkpt lat="43.67506" lon="5.84237">
        <ele>474</ele>
        <time>2016-05-28T09:39:42.000Z</time>
      </trkpt>
      <trkpt lat="43.675" lon="5.84244">
        <ele>474</ele>
        <time>2016-05-28T09:39:46.000Z</time>
      </trkpt>
      <trkpt lat="43.675" lon="5.84244">
        <ele>474</ele>
        <time>2016-05-28T09:39:48.000Z</time>
      </trkpt>
      <trkpt lat="43.675" lon="5.84244">
        <ele>474</ele>
        <time>2016-05-28T09:39:50.000Z</time>
      </trkpt>
      <trkpt lat="43.675" lon="5.84244">
        <ele>474</ele>
        <time>2016-05-28T09:39:52.000Z</time>
      </trkpt>
      <trkpt lat="43.67492" lon="5.84253">
        <ele>473</ele>
        <time>2016-05-28T09:39:56.000Z</time>
      </trkpt>
      <trkpt lat="43.67487" lon="5.84259">
        <ele>474</ele>
        <time>2016-05-28T09:39:58.000Z</time>
      </trkpt>
      <trkpt lat="43.67483" lon="5.84263">
        <ele>474</ele>
        <time>2016-05-28T09:40:00.000Z</time>
      </trkpt>
      <trkpt lat="43.67479" lon="5.84267">
        <ele>474</ele>
        <time>2016-05-28T09:40:04.000Z</time>
      </trkpt>
      <trkpt lat="43.67474" lon="5.8427">
        <ele>475</ele>
        <time>2016-05-28T09:40:08.000Z</time>
      </trkpt>
      <trkpt lat="43.67471" lon="5.84275">
        <ele>476</ele>
        <time>2016-05-28T09:40:12.000Z</time>
      </trkpt>
      <trkpt lat="43.67467" lon="5.8428">
        <ele>476</ele>
        <time>2016-05-28T09:40:16.000Z</time>
      </trkpt>
      <trkpt lat="43.67464" lon="5.84286">
        <ele>476</ele>
        <time>2016-05-28T09:40:20.000Z</time>
      </trkpt>
      <trkpt lat="43.67461" lon="5.84291">
        <ele>477</ele>
        <time>2016-05-28T09:40:24.000Z</time>
      </trkpt>
      <trkpt lat="43.67458" lon="5.84297">
        <ele>476</ele>
        <time>2016-05-28T09:40:28.000Z</time>
      </trkpt>
      <trkpt lat="43.67455" lon="5.84304">
        <ele>476</ele>
        <time>2016-05-28T09:40:32.000Z</time>
      </trkpt>
      <trkpt lat="43.67453" lon="5.8431">
        <ele>476</ele>
        <time>2016-05-28T09:40:36.000Z</time>
      </trkpt>
      <trkpt lat="43.67451" lon="5.84317">
        <ele>476</ele>
        <time>2016-05-28T09:40:40.000Z</time>
      </trkpt>
      <trkpt lat="43.67448" lon="5.84323">
        <ele>474</ele>
        <time>2016-05-28T09:40:44.000Z</time>
      </trkpt>
      <trkpt lat="43.67445" lon="5.84328">
        <ele>473</ele>
        <time>2016-05-28T09:40:48.000Z</time>
      </trkpt>
      <trkpt lat="43.67441" lon="5.84333">
        <ele>474</ele>
        <time>2016-05-28T09:40:52.000Z</time>
      </trkpt>
      <trkpt lat="43.67441" lon="5.84333">
        <ele>474</ele>
        <time>2016-05-28T09:40:54.000Z</time>
      </trkpt>
      <trkpt lat="43.67441" lon="5.84333">
        <ele>474</ele>
        <time>2016-05-28T09:40:56.000Z</time>
      </trkpt>
      <trkpt lat="43.67441" lon="5.84333">
        <ele>474</ele>
        <time>2016-05-28T09:40:58.000Z</time>
      </trkpt>
      <trkpt lat="43.67434" lon="5.84341">
        <ele>474</ele>
        <time>2016-05-28T09:41:04.000Z</time>
      </trkpt>
      <trkpt lat="43.67429" lon="5.84346">
        <ele>474</ele>
        <time>2016-05-28T09:41:06.000Z</time>
      </trkpt>
      <trkpt lat="43.67429" lon="5.84346">
        <ele>474</ele>
        <time>2016-05-28T09:41:08.000Z</time>
      </trkpt>
      <trkpt lat="43.67429" lon="5.84346">
        <ele>474</ele>
        <time>2016-05-28T09:41:16.000Z</time>
      </trkpt>
      <trkpt lat="43.67429" lon="5.84346">
        <ele>474</ele>
        <time>2016-05-28T09:41:18.000Z</time>
      </trkpt>
      <trkpt lat="43.67429" lon="5.84346">
        <ele>474</ele>
        <time>2016-05-28T09:41:20.000Z</time>
      </trkpt>
      <trkpt lat="43.67429" lon="5.84346">
        <ele>474</ele>
        <time>2016-05-28T09:41:22.000Z</time>
      </trkpt>
      <trkpt lat="43.67429" lon="5.84346">
        <ele>474</ele>
        <time>2016-05-28T09:41:24.000Z</time>
      </trkpt>
      <trkpt lat="43.67429" lon="5.84346">
        <ele>474</ele>
        <time>2016-05-28T09:41:26.000Z</time>
      </trkpt>
      <trkpt lat="43.67429" lon="5.84346">
        <ele>474</ele>
        <time>2016-05-28T09:41:28.000Z</time>
      </trkpt>
      <trkpt lat="43.67429" lon="5.84346">
        <ele>474</ele>
        <time>2016-05-28T09:41:30.000Z</time>
      </trkpt>
      <trkpt lat="43.67429" lon="5.84346">
        <ele>474</ele>
        <time>2016-05-28T09:41:32.000Z</time>
      </trkpt>
      <trkpt lat="43.67429" lon="5.84346">
        <ele>474</ele>
        <time>2016-05-28T09:41:34.000Z</time>
      </trkpt>
      <trkpt lat="43.67429" lon="5.84346">
        <ele>474</ele>
        <time>2016-05-28T09:41:36.000Z</time>
      </trkpt>
      <trkpt lat="43.67429" lon="5.84346">
        <ele>474</ele>
        <time>2016-05-28T09:41:38.000Z</time>
      </trkpt>
      <trkpt lat="43.67429" lon="5.84346">
        <ele>474</ele>
        <time>2016-05-28T09:41:40.000Z</time>
      </trkpt>
      <trkpt lat="43.67429" lon="5.84346">
        <ele>474</ele>
        <time>2016-05-28T09:41:42.000Z</time>
      </trkpt>
      <trkpt lat="43.67429" lon="5.84346">
        <ele>474</ele>
        <time>2016-05-28T09:41:44.000Z</time>
      </trkpt>
      <trkpt lat="43.67429" lon="5.84346">
        <ele>474</ele>
        <time>2016-05-28T09:41:46.000Z</time>
      </trkpt>
      <trkpt lat="43.67429" lon="5.84346">
        <ele>474</ele>
        <time>2016-05-28T09:41:48.000Z</time>
      </trkpt>
      <trkpt lat="43.67429" lon="5.84346">
        <ele>474</ele>
        <time>2016-05-28T09:41:50.000Z</time>
      </trkpt>
      <trkpt lat="43.67429" lon="5.84346">
        <ele>474</ele>
        <time>2016-05-28T09:41:52.000Z</time>
      </trkpt>
      <trkpt lat="43.67429" lon="5.84346">
        <ele>474</ele>
        <time>2016-05-28T09:41:54.000Z</time>
      </trkpt>
      <trkpt lat="43.67402" lon="5.84382">
        <ele>479</ele>
        <time>2016-05-28T09:42:04.000Z</time>
      </trkpt>
      <trkpt lat="43.67387" lon="5.84402">
        <ele>479</ele>
        <time>2016-05-28T09:42:06.000Z</time>
      </trkpt>
      <trkpt lat="43.6738" lon="5.84413">
        <ele>480</ele>
        <time>2016-05-28T09:42:08.000Z</time>
      </trkpt>
      <trkpt lat="43.67375" lon="5.8442">
        <ele>482</ele>
        <time>2016-05-28T09:42:10.000Z</time>
      </trkpt>
      <trkpt lat="43.67372" lon="5.84425">
        <ele>481</ele>
        <time>2016-05-28T09:42:12.000Z</time>
      </trkpt>
      <trkpt lat="43.67366" lon="5.84435">
        <ele>480</ele>
        <time>2016-05-28T09:42:16.000Z</time>
      </trkpt>
      <trkpt lat="43.67361" lon="5.84446">
        <ele>483</ele>
        <time>2016-05-28T09:42:24.000Z</time>
      </trkpt>
      <trkpt lat="43.67354" lon="5.84455">
        <ele>486</ele>
        <time>2016-05-28T09:42:32.000Z</time>
      </trkpt>
      <trkpt lat="43.67354" lon="5.84455">
        <ele>486</ele>
        <time>2016-05-28T09:42:38.000Z</time>
      </trkpt>
      <trkpt lat="43.67354" lon="5.84455">
        <ele>486</ele>
        <time>2016-05-28T09:42:40.000Z</time>
      </trkpt>
      <trkpt lat="43.67344" lon="5.84466">
        <ele>487</ele>
        <time>2016-05-28T09:42:53.000Z</time>
      </trkpt>
      <trkpt lat="43.67344" lon="5.84466">
        <ele>487</ele>
        <time>2016-05-28T09:42:57.000Z</time>
      </trkpt>
      <trkpt lat="43.67344" lon="5.84466">
        <ele>487</ele>
        <time>2016-05-28T09:42:59.000Z</time>
      </trkpt>
      <trkpt lat="43.67344" lon="5.84466">
        <ele>487</ele>
        <time>2016-05-28T09:43:01.000Z</time>
      </trkpt>
      <trkpt lat="43.67344" lon="5.84466">
        <ele>487</ele>
        <time>2016-05-28T09:43:03.000Z</time>
      </trkpt>
      <trkpt lat="43.67344" lon="5.84466">
        <ele>487</ele>
        <time>2016-05-28T09:43:05.000Z</time>
      </trkpt>
      <trkpt lat="43.67344" lon="5.84466">
        <ele>487</ele>
        <time>2016-05-28T09:43:07.000Z</time>
      </trkpt>
      <trkpt lat="43.67327" lon="5.84488">
        <ele>489</ele>
        <time>2016-05-28T09:43:11.000Z</time>
      </trkpt>
      <trkpt lat="43.6732" lon="5.84496">
        <ele>489</ele>
        <time>2016-05-28T09:43:17.000Z</time>
      </trkpt>
      <trkpt lat="43.67313" lon="5.84503">
        <ele>490</ele>
        <time>2016-05-28T09:43:23.000Z</time>
      </trkpt>
      <trkpt lat="43.67306" lon="5.8451">
        <ele>487</ele>
        <time>2016-05-28T09:43:29.000Z</time>
      </trkpt>
      <trkpt lat="43.67306" lon="5.8451">
        <ele>487</ele>
        <time>2016-05-28T09:43:31.000Z</time>
      </trkpt>
      <trkpt lat="43.67306" lon="5.8451">
        <ele>487</ele>
        <time>2016-05-28T09:43:33.000Z</time>
      </trkpt>
      <trkpt lat="43.67306" lon="5.8451">
        <ele>487</ele>
        <time>2016-05-28T09:43:35.000Z</time>
      </trkpt>
      <trkpt lat="43.67306" lon="5.8451">
        <ele>487</ele>
        <time>2016-05-28T09:43:37.000Z</time>
      </trkpt>
      <trkpt lat="43.67292" lon="5.84523">
        <ele>489</ele>
        <time>2016-05-28T09:43:41.000Z</time>
      </trkpt>
      <trkpt lat="43.67282" lon="5.84529">
        <ele>488</ele>
        <time>2016-05-28T09:43:49.000Z</time>
      </trkpt>
      <trkpt lat="43.67282" lon="5.84529">
        <ele>488</ele>
        <time>2016-05-28T09:43:59.000Z</time>
      </trkpt>
      <trkpt lat="43.67282" lon="5.84529">
        <ele>488</ele>
        <time>2016-05-28T09:44:01.000Z</time>
      </trkpt>
      <trkpt lat="43.67282" lon="5.84529">
        <ele>488</ele>
        <time>2016-05-28T09:44:03.000Z</time>
      </trkpt>
      <trkpt lat="43.67282" lon="5.84529">
        <ele>488</ele>
        <time>2016-05-28T09:44:05.000Z</time>
      </trkpt>
      <trkpt lat="43.67257" lon="5.84552">
        <ele>494</ele>
        <time>2016-05-28T09:44:25.000Z</time>
      </trkpt>
      <trkpt lat="43.67257" lon="5.84552">
        <ele>494</ele>
        <time>2016-05-28T09:44:27.000Z</time>
      </trkpt>
      <trkpt lat="43.67249" lon="5.84559">
        <ele>493</ele>
        <time>2016-05-28T09:44:33.000Z</time>
      </trkpt>
      <trkpt lat="43.6724" lon="5.84568">
        <ele>491</ele>
        <time>2016-05-28T09:44:41.000Z</time>
      </trkpt>
      <trkpt lat="43.67232" lon="5.84576">
        <ele>492</ele>
        <time>2016-05-28T09:44:47.000Z</time>
      </trkpt>
      <trkpt lat="43.67223" lon="5.84586">
        <ele>495</ele>
        <time>2016-05-28T09:44:55.000Z</time>
      </trkpt>
      <trkpt lat="43.67215" lon="5.84596">
        <ele>494</ele>
        <time>2016-05-28T09:45:03.000Z</time>
      </trkpt>
      <trkpt lat="43.67207" lon="5.84606">
        <ele>493</ele>
        <time>2016-05-28T09:45:11.000Z</time>
      </trkpt>
      <trkpt lat="43.67207" lon="5.84606">
        <ele>493</ele>
        <time>2016-05-28T09:45:17.000Z</time>
      </trkpt>
      <trkpt lat="43.67207" lon="5.84606">
        <ele>493</ele>
        <time>2016-05-28T09:45:19.000Z</time>
      </trkpt>
      <trkpt lat="43.67207" lon="5.84606">
        <ele>493</ele>
        <time>2016-05-28T09:45:21.000Z</time>
      </trkpt>
      <trkpt lat="43.67196" lon="5.8463">
        <ele>492</ele>
        <time>2016-05-28T09:45:25.000Z</time>
      </trkpt>
      <trkpt lat="43.6719" lon="5.84639">
        <ele>492</ele>
        <time>2016-05-28T09:45:31.000Z</time>
      </trkpt>
      <trkpt lat="43.67182" lon="5.84651">
        <ele>489</ele>
        <time>2016-05-28T09:45:39.000Z</time>
      </trkpt>
      <trkpt lat="43.67179" lon="5.84656">
        <ele>490</ele>
        <time>2016-05-28T09:45:45.000Z</time>
      </trkpt>
      <trkpt lat="43.67176" lon="5.84661">
        <ele>490</ele>
        <time>2016-05-28T09:45:49.000Z</time>
      </trkpt>
      <trkpt lat="43.67172" lon="5.84665">
        <ele>485</ele>
        <time>2016-05-28T09:45:53.000Z</time>
      </trkpt>
      <trkpt lat="43.67168" lon="5.8467">
        <ele>486</ele>
        <time>2016-05-28T09:45:57.000Z</time>
      </trkpt>
      <trkpt lat="43.67165" lon="5.84676">
        <ele>484</ele>
        <time>2016-05-28T09:46:01.000Z</time>
      </trkpt>
      <trkpt lat="43.6716" lon="5.84681">
        <ele>483</ele>
        <time>2016-05-28T09:46:05.000Z</time>
      </trkpt>
      <trkpt lat="43.67156" lon="5.84686">
        <ele>483</ele>
        <time>2016-05-28T09:46:09.000Z</time>
      </trkpt>
      <trkpt lat="43.67153" lon="5.84691">
        <ele>483</ele>
        <time>2016-05-28T09:46:11.000Z</time>
      </trkpt>
      <trkpt lat="43.67149" lon="5.84696">
        <ele>483</ele>
        <time>2016-05-28T09:46:15.000Z</time>
      </trkpt>
      <trkpt lat="43.67146" lon="5.84701">
        <ele>483</ele>
        <time>2016-05-28T09:46:19.000Z</time>
      </trkpt>
      <trkpt lat="43.67146" lon="5.84701">
        <ele>483</ele>
        <time>2016-05-28T09:46:23.000Z</time>
      </trkpt>
      <trkpt lat="43.67146" lon="5.84701">
        <ele>483</ele>
        <time>2016-05-28T09:46:25.000Z</time>
      </trkpt>
      <trkpt lat="43.67142" lon="5.84708">
        <ele>482</ele>
        <time>2016-05-28T09:46:31.000Z</time>
      </trkpt>
      <trkpt lat="43.67138" lon="5.84715">
        <ele>481</ele>
        <time>2016-05-28T09:46:35.000Z</time>
      </trkpt>
      <trkpt lat="43.67136" lon="5.8472">
        <ele>480</ele>
        <time>2016-05-28T09:46:37.000Z</time>
      </trkpt>
      <trkpt lat="43.67134" lon="5.84726">
        <ele>479</ele>
        <time>2016-05-28T09:46:41.000Z</time>
      </trkpt>
      <trkpt lat="43.67131" lon="5.84732">
        <ele>478</ele>
        <time>2016-05-28T09:46:45.000Z</time>
      </trkpt>
      <trkpt lat="43.6713" lon="5.84738">
        <ele>478</ele>
        <time>2016-05-28T09:46:49.000Z</time>
      </trkpt>
      <trkpt lat="43.67128" lon="5.84745">
        <ele>477</ele>
        <time>2016-05-28T09:46:53.000Z</time>
      </trkpt>
      <trkpt lat="43.67126" lon="5.84752">
        <ele>475</ele>
        <time>2016-05-28T09:46:57.000Z</time>
      </trkpt>
      <trkpt lat="43.67124" lon="5.84759">
        <ele>474</ele>
        <time>2016-05-28T09:47:01.000Z</time>
      </trkpt>
      <trkpt lat="43.67122" lon="5.84766">
        <ele>474</ele>
        <time>2016-05-28T09:47:05.000Z</time>
      </trkpt>
      <trkpt lat="43.6712" lon="5.84773">
        <ele>471</ele>
        <time>2016-05-28T09:47:09.000Z</time>
      </trkpt>
      <trkpt lat="43.67117" lon="5.84779">
        <ele>472</ele>
        <time>2016-05-28T09:47:13.000Z</time>
      </trkpt>
      <trkpt lat="43.67113" lon="5.84784">
        <ele>472</ele>
        <time>2016-05-28T09:47:15.000Z</time>
      </trkpt>
      <trkpt lat="43.67111" lon="5.84789">
        <ele>471</ele>
        <time>2016-05-28T09:47:19.000Z</time>
      </trkpt>
      <trkpt lat="43.67111" lon="5.84789">
        <ele>471</ele>
        <time>2016-05-28T09:47:21.000Z</time>
      </trkpt>
      <trkpt lat="43.67111" lon="5.84789">
        <ele>471</ele>
        <time>2016-05-28T09:47:23.000Z</time>
      </trkpt>
      <trkpt lat="43.67111" lon="5.84789">
        <ele>471</ele>
        <time>2016-05-28T09:47:25.000Z</time>
      </trkpt>
      <trkpt lat="43.67111" lon="5.84789">
        <ele>471</ele>
        <time>2016-05-28T09:47:27.000Z</time>
      </trkpt>
      <trkpt lat="43.67107" lon="5.84811">
        <ele>466</ele>
        <time>2016-05-28T09:47:35.000Z</time>
      </trkpt>
      <trkpt lat="43.67108" lon="5.84826">
        <ele>464</ele>
        <time>2016-05-28T09:47:41.000Z</time>
      </trkpt>
      <trkpt lat="43.67108" lon="5.84826">
        <ele>464</ele>
        <time>2016-05-28T09:47:51.000Z</time>
      </trkpt>
      <trkpt lat="43.67108" lon="5.84826">
        <ele>464</ele>
        <time>2016-05-28T09:47:53.000Z</time>
      </trkpt>
      <trkpt lat="43.67108" lon="5.84826">
        <ele>464</ele>
        <time>2016-05-28T09:47:55.000Z</time>
      </trkpt>
      <trkpt lat="43.67108" lon="5.84826">
        <ele>464</ele>
        <time>2016-05-28T09:47:57.000Z</time>
      </trkpt>
      <trkpt lat="43.67108" lon="5.84826">
        <ele>464</ele>
        <time>2016-05-28T09:47:59.000Z</time>
      </trkpt>
      <trkpt lat="43.67108" lon="5.84826">
        <ele>464</ele>
        <time>2016-05-28T09:48:01.000Z</time>
      </trkpt>
      <trkpt lat="43.67108" lon="5.84826">
        <ele>464</ele>
        <time>2016-05-28T09:48:03.000Z</time>
      </trkpt>
      <trkpt lat="43.67108" lon="5.84826">
        <ele>464</ele>
        <time>2016-05-28T09:48:05.000Z</time>
      </trkpt>
      <trkpt lat="43.67108" lon="5.84826">
        <ele>464</ele>
        <time>2016-05-28T09:48:13.000Z</time>
      </trkpt>
      <trkpt lat="43.67108" lon="5.84826">
        <ele>464</ele>
        <time>2016-05-28T09:48:15.000Z</time>
      </trkpt>
      <trkpt lat="43.67108" lon="5.84826">
        <ele>464</ele>
        <time>2016-05-28T09:48:17.000Z</time>
      </trkpt>
      <trkpt lat="43.67108" lon="5.84826">
        <ele>464</ele>
        <time>2016-05-28T09:48:19.000Z</time>
      </trkpt>
      <trkpt lat="43.67134" lon="5.8488">
        <ele>469</ele>
        <time>2016-05-28T09:48:23.000Z</time>
      </trkpt>
      <trkpt lat="43.67142" lon="5.84891">
        <ele>474</ele>
        <time>2016-05-28T09:48:31.000Z</time>
      </trkpt>
      <trkpt lat="43.67153" lon="5.84895">
        <ele>475</ele>
        <time>2016-05-28T09:48:37.000Z</time>
      </trkpt>
      <trkpt lat="43.67161" lon="5.84904">
        <ele>476</ele>
        <time>2016-05-28T09:48:41.000Z</time>
      </trkpt>
      <trkpt lat="43.67162" lon="5.84912">
        <ele>477</ele>
        <time>2016-05-28T09:48:47.000Z</time>
      </trkpt>
      <trkpt lat="43.67162" lon="5.84912">
        <ele>477</ele>
        <time>2016-05-28T09:48:49.000Z</time>
      </trkpt>
      <trkpt lat="43.67162" lon="5.84912">
        <ele>477</ele>
        <time>2016-05-28T09:48:51.000Z</time>
      </trkpt>
      <trkpt lat="43.67162" lon="5.84912">
        <ele>477</ele>
        <time>2016-05-28T09:48:53.000Z</time>
      </trkpt>
      <trkpt lat="43.67162" lon="5.84912">
        <ele>477</ele>
        <time>2016-05-28T09:48:55.000Z</time>
      </trkpt>
      <trkpt lat="43.67162" lon="5.84912">
        <ele>477</ele>
        <time>2016-05-28T09:48:57.000Z</time>
      </trkpt>
      <trkpt lat="43.67162" lon="5.84912">
        <ele>477</ele>
        <time>2016-05-28T09:48:59.000Z</time>
      </trkpt>
      <trkpt lat="43.67162" lon="5.84912">
        <ele>477</ele>
        <time>2016-05-28T09:49:01.000Z</time>
      </trkpt>
      <trkpt lat="43.67162" lon="5.84912">
        <ele>477</ele>
        <time>2016-05-28T09:49:03.000Z</time>
      </trkpt>
      <trkpt lat="43.6716" lon="5.84937">
        <ele>471</ele>
        <time>2016-05-28T09:49:09.000Z</time>
      </trkpt>
      <trkpt lat="43.67159" lon="5.84952">
        <ele>470</ele>
        <time>2016-05-28T09:49:11.000Z</time>
      </trkpt>
      <trkpt lat="43.67159" lon="5.84952">
        <ele>470</ele>
        <time>2016-05-28T09:49:13.000Z</time>
      </trkpt>
      <trkpt lat="43.67159" lon="5.84952">
        <ele>470</ele>
        <time>2016-05-28T09:49:15.000Z</time>
      </trkpt>
      <trkpt lat="43.67157" lon="5.84967">
        <ele>472</ele>
        <time>2016-05-28T09:49:19.000Z</time>
      </trkpt>
      <trkpt lat="43.67155" lon="5.84976">
        <ele>472</ele>
        <time>2016-05-28T09:49:21.000Z</time>
      </trkpt>
      <trkpt lat="43.67153" lon="5.84983">
        <ele>471</ele>
        <time>2016-05-28T09:49:23.000Z</time>
      </trkpt>
      <trkpt lat="43.6715" lon="5.8499">
        <ele>471</ele>
        <time>2016-05-28T09:49:27.000Z</time>
      </trkpt>
      <trkpt lat="43.6715" lon="5.8499">
        <ele>471</ele>
        <time>2016-05-28T09:49:29.000Z</time>
      </trkpt>
      <trkpt lat="43.6715" lon="5.8499">
        <ele>471</ele>
        <time>2016-05-28T09:49:31.000Z</time>
      </trkpt>
      <trkpt lat="43.6715" lon="5.8499">
        <ele>471</ele>
        <time>2016-05-28T09:49:33.000Z</time>
      </trkpt>
      <trkpt lat="43.6715" lon="5.8499">
        <ele>471</ele>
        <time>2016-05-28T09:49:35.000Z</time>
      </trkpt>
      <trkpt lat="43.6715" lon="5.8499">
        <ele>471</ele>
        <time>2016-05-28T09:49:37.000Z</time>
      </trkpt>
      <trkpt lat="43.6715" lon="5.8499">
        <ele>471</ele>
        <time>2016-05-28T09:49:39.000Z</time>
      </trkpt>
      <trkpt lat="43.6715" lon="5.8499">
        <ele>471</ele>
        <time>2016-05-28T09:49:41.000Z</time>
      </trkpt>
      <trkpt lat="43.6715" lon="5.8499">
        <ele>471</ele>
        <time>2016-05-28T09:49:43.000Z</time>
      </trkpt>
      <trkpt lat="43.67141" lon="5.85008">
        <ele>471</ele>
        <time>2016-05-28T09:49:45.000Z</time>
      </trkpt>
      <trkpt lat="43.67135" lon="5.85019">
        <ele>471</ele>
        <time>2016-05-28T09:49:47.000Z</time>
      </trkpt>
      <trkpt lat="43.67131" lon="5.85025">
        <ele>470</ele>
        <time>2016-05-28T09:49:49.000Z</time>
      </trkpt>
      <trkpt lat="43.67128" lon="5.8503">
        <ele>470</ele>
        <time>2016-05-28T09:49:51.000Z</time>
      </trkpt>
      <trkpt lat="43.67123" lon="5.85034">
        <ele>470</ele>
        <time>2016-05-28T09:49:55.000Z</time>
      </trkpt>
      <trkpt lat="43.67123" lon="5.85034">
        <ele>470</ele>
        <time>2016-05-28T09:49:57.000Z</time>
      </trkpt>
      <trkpt lat="43.67123" lon="5.85034">
        <ele>470</ele>
        <time>2016-05-28T09:49:59.000Z</time>
      </trkpt>
      <trkpt lat="43.67123" lon="5.85034">
        <ele>470</ele>
        <time>2016-05-28T09:50:01.000Z</time>
      </trkpt>
      <trkpt lat="43.67123" lon="5.85034">
        <ele>470</ele>
        <time>2016-05-28T09:50:03.000Z</time>
      </trkpt>
      <trkpt lat="43.67123" lon="5.85034">
        <ele>470</ele>
        <time>2016-05-28T09:50:05.000Z</time>
      </trkpt>
      <trkpt lat="43.67113" lon="5.85047">
        <ele>462</ele>
        <time>2016-05-28T09:50:13.000Z</time>
      </trkpt>
      <trkpt lat="43.67113" lon="5.85047">
        <ele>462</ele>
        <time>2016-05-28T09:50:15.000Z</time>
      </trkpt>
      <trkpt lat="43.67113" lon="5.85047">
        <ele>462</ele>
        <time>2016-05-28T09:50:17.000Z</time>
      </trkpt>
      <trkpt lat="43.67113" lon="5.85047">
        <ele>462</ele>
        <time>2016-05-28T09:50:19.000Z</time>
      </trkpt>
      <trkpt lat="43.67112" lon="5.85069">
        <ele>462</ele>
        <time>2016-05-28T09:50:40.000Z</time>
      </trkpt>
      <trkpt lat="43.67112" lon="5.85069">
        <ele>462</ele>
        <time>2016-05-28T09:50:44.000Z</time>
      </trkpt>
      <trkpt lat="43.67112" lon="5.85069">
        <ele>462</ele>
        <time>2016-05-28T09:50:46.000Z</time>
      </trkpt>
      <trkpt lat="43.67112" lon="5.85069">
        <ele>462</ele>
        <time>2016-05-28T09:50:48.000Z</time>
      </trkpt>
      <trkpt lat="43.67103" lon="5.85083">
        <ele>459</ele>
        <time>2016-05-28T09:51:54.000Z</time>
      </trkpt>
      <trkpt lat="43.67103" lon="5.85083">
        <ele>459</ele>
        <time>2016-05-28T09:51:58.000Z</time>
      </trkpt>
      <trkpt lat="43.67103" lon="5.85083">
        <ele>459</ele>
        <time>2016-05-28T09:52:00.000Z</time>
      </trkpt>
    </trkseg>
  </trk>
</gpx>